<?xml version="1.0" encoding="UTF-8" standalone="no" ?>
<gpx xmlns="http://www.topografix.com/GPX/1/1" xmlns:xsi="http://www.w3.org/2001/XMLSchema-instance" xsi:schemaLocation="http://www.topografix.com/GPX/1/1 http://www.topografix.com/GPX/1/1/gpx.xsd" version="1.1" creator="VisuGPX - https://www.visugpx.com">
  <metadata>
    <name>balade du 9 avril 2011</name>
    <desc><![CDATA[[img][/img]]]></desc>
  </metadata>
  <trk>
    <name><![CDATA[balade du 9 avril 2011_1]]></name>
    <trkseg>
      <trkpt lat="43.37801" lon="5.48316">
        <ele>330</ele>
        <time>2011-04-09T06:37:54.000Z</time>
      </trkpt>
      <trkpt lat="43.37801" lon="5.48316">
        <ele>330</ele>
        <time>2011-04-09T06:37:58.000Z</time>
      </trkpt>
      <trkpt lat="43.37801" lon="5.48316">
        <ele>330</ele>
        <time>2011-04-09T06:38:03.163Z</time>
      </trkpt>
      <trkpt lat="43.37801" lon="5.48316">
        <ele>330</ele>
        <time>2011-04-09T06:38:08.000Z</time>
      </trkpt>
      <trkpt lat="43.37801" lon="5.48316">
        <ele>330</ele>
        <time>2011-04-09T06:38:13.000Z</time>
      </trkpt>
      <trkpt lat="43.37801" lon="5.48316">
        <ele>330</ele>
        <time>2011-04-09T06:38:18.000Z</time>
      </trkpt>
      <trkpt lat="43.37835" lon="5.48291">
        <ele>331</ele>
        <time>2011-04-09T06:39:45.276Z</time>
      </trkpt>
      <trkpt lat="43.37867" lon="5.48271">
        <ele>332</ele>
        <time>2011-04-09T06:39:50.000Z</time>
      </trkpt>
      <trkpt lat="43.37867" lon="5.48271">
        <ele>332</ele>
        <time>2011-04-09T06:39:55.000Z</time>
      </trkpt>
      <trkpt lat="43.37867" lon="5.48271">
        <ele>332</ele>
        <time>2011-04-09T06:40:00.000Z</time>
      </trkpt>
      <trkpt lat="43.37867" lon="5.48271">
        <ele>332</ele>
        <time>2011-04-09T06:40:05.000Z</time>
      </trkpt>
      <trkpt lat="43.37858" lon="5.48275">
        <ele>332</ele>
        <time>2011-04-09T06:40:10.000Z</time>
      </trkpt>
      <trkpt lat="43.37856" lon="5.48279">
        <ele>331</ele>
        <time>2011-04-09T06:40:15.000Z</time>
      </trkpt>
      <trkpt lat="43.37855" lon="5.48283">
        <ele>331</ele>
        <time>2011-04-09T06:40:20.000Z</time>
      </trkpt>
      <trkpt lat="43.37855" lon="5.48283">
        <ele>331</ele>
        <time>2011-04-09T06:40:25.000Z</time>
      </trkpt>
      <trkpt lat="43.37855" lon="5.48283">
        <ele>331</ele>
        <time>2011-04-09T06:40:30.000Z</time>
      </trkpt>
      <trkpt lat="43.37855" lon="5.48283">
        <ele>331</ele>
        <time>2011-04-09T06:40:35.000Z</time>
      </trkpt>
      <trkpt lat="43.37855" lon="5.48283">
        <ele>331</ele>
        <time>2011-04-09T06:40:40.000Z</time>
      </trkpt>
      <trkpt lat="43.37855" lon="5.48283">
        <ele>331</ele>
        <time>2011-04-09T06:40:45.000Z</time>
      </trkpt>
      <trkpt lat="43.37855" lon="5.48283">
        <ele>331</ele>
        <time>2011-04-09T06:40:50.000Z</time>
      </trkpt>
      <trkpt lat="43.37855" lon="5.48283">
        <ele>331</ele>
        <time>2011-04-09T06:40:55.000Z</time>
      </trkpt>
      <trkpt lat="43.37814" lon="5.48296">
        <ele>331</ele>
        <time>2011-04-09T06:41:00.000Z</time>
      </trkpt>
      <trkpt lat="43.37816" lon="5.48293">
        <ele>331</ele>
        <time>2011-04-09T06:41:05.000Z</time>
      </trkpt>
      <trkpt lat="43.37816" lon="5.48293">
        <ele>331</ele>
        <time>2011-04-09T06:41:10.000Z</time>
      </trkpt>
      <trkpt lat="43.37816" lon="5.48293">
        <ele>331</ele>
        <time>2011-04-09T06:41:15.000Z</time>
      </trkpt>
      <trkpt lat="43.37816" lon="5.48293">
        <ele>331</ele>
        <time>2011-04-09T06:41:20.000Z</time>
      </trkpt>
      <trkpt lat="43.37816" lon="5.48293">
        <ele>331</ele>
        <time>2011-04-09T06:41:25.000Z</time>
      </trkpt>
      <trkpt lat="43.37852" lon="5.48278">
        <ele>332</ele>
        <time>2011-04-09T06:41:30.000Z</time>
      </trkpt>
      <trkpt lat="43.37863" lon="5.48277">
        <ele>331</ele>
        <time>2011-04-09T06:41:35.000Z</time>
      </trkpt>
      <trkpt lat="43.3788" lon="5.48272">
        <ele>331</ele>
        <time>2011-04-09T06:41:40.131Z</time>
      </trkpt>
      <trkpt lat="43.37886" lon="5.48273">
        <ele>331</ele>
        <time>2011-04-09T06:41:45.000Z</time>
      </trkpt>
      <trkpt lat="43.37886" lon="5.48273">
        <ele>331</ele>
        <time>2011-04-09T06:41:50.000Z</time>
      </trkpt>
      <trkpt lat="43.37886" lon="5.48273">
        <ele>331</ele>
        <time>2011-04-09T06:41:55.000Z</time>
      </trkpt>
      <trkpt lat="43.37886" lon="5.48273">
        <ele>331</ele>
        <time>2011-04-09T06:42:00.000Z</time>
      </trkpt>
      <trkpt lat="43.37886" lon="5.48273">
        <ele>331</ele>
        <time>2011-04-09T06:42:05.000Z</time>
      </trkpt>
      <trkpt lat="43.37939" lon="5.48252">
        <ele>334</ele>
        <time>2011-04-09T06:42:10.000Z</time>
      </trkpt>
      <trkpt lat="43.37954" lon="5.4824">
        <ele>339</ele>
        <time>2011-04-09T06:42:15.000Z</time>
      </trkpt>
      <trkpt lat="43.37942" lon="5.48242">
        <ele>338</ele>
        <time>2011-04-09T06:42:20.000Z</time>
      </trkpt>
      <trkpt lat="43.37942" lon="5.48242">
        <ele>338</ele>
        <time>2011-04-09T06:42:25.000Z</time>
      </trkpt>
      <trkpt lat="43.37942" lon="5.48242">
        <ele>338</ele>
        <time>2011-04-09T06:42:30.000Z</time>
      </trkpt>
      <trkpt lat="43.37942" lon="5.48242">
        <ele>338</ele>
        <time>2011-04-09T06:42:35.000Z</time>
      </trkpt>
      <trkpt lat="43.37942" lon="5.48242">
        <ele>338</ele>
        <time>2011-04-09T06:42:40.000Z</time>
      </trkpt>
      <trkpt lat="43.37942" lon="5.48242">
        <ele>338</ele>
        <time>2011-04-09T06:42:45.000Z</time>
      </trkpt>
      <trkpt lat="43.37942" lon="5.48242">
        <ele>338</ele>
        <time>2011-04-09T06:42:50.000Z</time>
      </trkpt>
      <trkpt lat="43.37893" lon="5.48256">
        <ele>332</ele>
        <time>2011-04-09T06:42:55.000Z</time>
      </trkpt>
      <trkpt lat="43.37885" lon="5.48265">
        <ele>332</ele>
        <time>2011-04-09T06:43:00.000Z</time>
      </trkpt>
      <trkpt lat="43.37873" lon="5.48273">
        <ele>331</ele>
        <time>2011-04-09T06:43:05.000Z</time>
      </trkpt>
      <trkpt lat="43.3786" lon="5.48281">
        <ele>331</ele>
        <time>2011-04-09T06:43:10.000Z</time>
      </trkpt>
      <trkpt lat="43.37852" lon="5.48285">
        <ele>331</ele>
        <time>2011-04-09T06:43:15.000Z</time>
      </trkpt>
      <trkpt lat="43.37847" lon="5.48289">
        <ele>331</ele>
        <time>2011-04-09T06:43:20.000Z</time>
      </trkpt>
      <trkpt lat="43.37847" lon="5.4829">
        <ele>331</ele>
        <time>2011-04-09T06:43:25.000Z</time>
      </trkpt>
      <trkpt lat="43.37847" lon="5.4829">
        <ele>331</ele>
        <time>2011-04-09T06:43:30.000Z</time>
      </trkpt>
      <trkpt lat="43.37847" lon="5.4829">
        <ele>331</ele>
        <time>2011-04-09T06:43:35.000Z</time>
      </trkpt>
      <trkpt lat="43.37847" lon="5.4829">
        <ele>331</ele>
        <time>2011-04-09T06:43:40.000Z</time>
      </trkpt>
      <trkpt lat="43.37847" lon="5.4829">
        <ele>331</ele>
        <time>2011-04-09T06:43:45.000Z</time>
      </trkpt>
      <trkpt lat="43.37847" lon="5.4829">
        <ele>331</ele>
        <time>2011-04-09T06:43:50.000Z</time>
      </trkpt>
      <trkpt lat="43.37847" lon="5.4829">
        <ele>331</ele>
        <time>2011-04-09T06:43:55.000Z</time>
      </trkpt>
      <trkpt lat="43.37873" lon="5.48282">
        <ele>331</ele>
        <time>2011-04-09T06:44:00.000Z</time>
      </trkpt>
      <trkpt lat="43.37872" lon="5.48283">
        <ele>331</ele>
        <time>2011-04-09T06:44:05.000Z</time>
      </trkpt>
      <trkpt lat="43.37872" lon="5.48283">
        <ele>331</ele>
        <time>2011-04-09T06:44:10.000Z</time>
      </trkpt>
      <trkpt lat="43.37872" lon="5.48283">
        <ele>331</ele>
        <time>2011-04-09T06:44:15.000Z</time>
      </trkpt>
      <trkpt lat="43.37867" lon="5.48287">
        <ele>331</ele>
        <time>2011-04-09T06:44:20.000Z</time>
      </trkpt>
      <trkpt lat="43.37867" lon="5.48287">
        <ele>331</ele>
        <time>2011-04-09T06:44:25.000Z</time>
      </trkpt>
      <trkpt lat="43.37867" lon="5.48287">
        <ele>331</ele>
        <time>2011-04-09T06:44:30.000Z</time>
      </trkpt>
      <trkpt lat="43.37867" lon="5.48287">
        <ele>331</ele>
        <time>2011-04-09T06:44:35.000Z</time>
      </trkpt>
      <trkpt lat="43.37867" lon="5.48287">
        <ele>331</ele>
        <time>2011-04-09T06:44:40.000Z</time>
      </trkpt>
      <trkpt lat="43.37867" lon="5.48287">
        <ele>331</ele>
        <time>2011-04-09T06:44:45.000Z</time>
      </trkpt>
      <trkpt lat="43.37867" lon="5.48287">
        <ele>331</ele>
        <time>2011-04-09T06:44:50.000Z</time>
      </trkpt>
      <trkpt lat="43.37867" lon="5.48287">
        <ele>331</ele>
        <time>2011-04-09T06:44:55.000Z</time>
      </trkpt>
      <trkpt lat="43.37867" lon="5.48287">
        <ele>331</ele>
        <time>2011-04-09T06:45:00.000Z</time>
      </trkpt>
      <trkpt lat="43.37867" lon="5.48287">
        <ele>331</ele>
        <time>2011-04-09T06:45:05.000Z</time>
      </trkpt>
      <trkpt lat="43.37867" lon="5.48287">
        <ele>331</ele>
        <time>2011-04-09T06:45:10.000Z</time>
      </trkpt>
      <trkpt lat="43.37867" lon="5.48287">
        <ele>331</ele>
        <time>2011-04-09T06:45:15.000Z</time>
      </trkpt>
      <trkpt lat="43.37911" lon="5.48263">
        <ele>332</ele>
        <time>2011-04-09T06:45:20.000Z</time>
      </trkpt>
      <trkpt lat="43.37915" lon="5.48259">
        <ele>333</ele>
        <time>2011-04-09T06:45:25.000Z</time>
      </trkpt>
      <trkpt lat="43.37915" lon="5.48259">
        <ele>333</ele>
        <time>2011-04-09T06:45:30.000Z</time>
      </trkpt>
      <trkpt lat="43.37915" lon="5.48259">
        <ele>333</ele>
        <time>2011-04-09T06:45:35.000Z</time>
      </trkpt>
      <trkpt lat="43.37915" lon="5.48259">
        <ele>333</ele>
        <time>2011-04-09T06:45:40.000Z</time>
      </trkpt>
      <trkpt lat="43.37915" lon="5.48259">
        <ele>333</ele>
        <time>2011-04-09T06:45:45.000Z</time>
      </trkpt>
      <trkpt lat="43.37915" lon="5.48259">
        <ele>333</ele>
        <time>2011-04-09T06:45:50.000Z</time>
      </trkpt>
      <trkpt lat="43.37915" lon="5.48259">
        <ele>333</ele>
        <time>2011-04-09T06:45:55.000Z</time>
      </trkpt>
      <trkpt lat="43.37915" lon="5.48259">
        <ele>333</ele>
        <time>2011-04-09T06:46:00.000Z</time>
      </trkpt>
      <trkpt lat="43.37915" lon="5.48259">
        <ele>333</ele>
        <time>2011-04-09T06:46:05.000Z</time>
      </trkpt>
      <trkpt lat="43.37915" lon="5.48259">
        <ele>333</ele>
        <time>2011-04-09T06:46:10.000Z</time>
      </trkpt>
      <trkpt lat="43.37915" lon="5.48259">
        <ele>333</ele>
        <time>2011-04-09T06:46:15.000Z</time>
      </trkpt>
      <trkpt lat="43.37941" lon="5.48208">
        <ele>338</ele>
        <time>2011-04-09T06:46:20.000Z</time>
      </trkpt>
      <trkpt lat="43.37941" lon="5.48207">
        <ele>338</ele>
        <time>2011-04-09T06:46:25.000Z</time>
      </trkpt>
      <trkpt lat="43.37941" lon="5.48207">
        <ele>338</ele>
        <time>2011-04-09T06:46:30.000Z</time>
      </trkpt>
      <trkpt lat="43.37945" lon="5.48193">
        <ele>338</ele>
        <time>2011-04-09T06:46:35.000Z</time>
      </trkpt>
      <trkpt lat="43.37948" lon="5.48188">
        <ele>338</ele>
        <time>2011-04-09T06:46:40.000Z</time>
      </trkpt>
      <trkpt lat="43.37948" lon="5.48188">
        <ele>338</ele>
        <time>2011-04-09T06:46:45.000Z</time>
      </trkpt>
      <trkpt lat="43.37956" lon="5.4818">
        <ele>339</ele>
        <time>2011-04-09T06:46:50.000Z</time>
      </trkpt>
      <trkpt lat="43.37959" lon="5.48175">
        <ele>340</ele>
        <time>2011-04-09T06:46:55.000Z</time>
      </trkpt>
      <trkpt lat="43.37965" lon="5.48172">
        <ele>340</ele>
        <time>2011-04-09T06:47:00.000Z</time>
      </trkpt>
      <trkpt lat="43.37971" lon="5.48174">
        <ele>341</ele>
        <time>2011-04-09T06:47:05.000Z</time>
      </trkpt>
      <trkpt lat="43.37976" lon="5.48175">
        <ele>342</ele>
        <time>2011-04-09T06:47:10.000Z</time>
      </trkpt>
      <trkpt lat="43.37981" lon="5.48177">
        <ele>342</ele>
        <time>2011-04-09T06:47:15.000Z</time>
      </trkpt>
      <trkpt lat="43.37987" lon="5.48181">
        <ele>343</ele>
        <time>2011-04-09T06:47:20.000Z</time>
      </trkpt>
      <trkpt lat="43.37993" lon="5.48184">
        <ele>343</ele>
        <time>2011-04-09T06:47:25.000Z</time>
      </trkpt>
      <trkpt lat="43.37999" lon="5.48191">
        <ele>343</ele>
        <time>2011-04-09T06:47:30.000Z</time>
      </trkpt>
      <trkpt lat="43.38002" lon="5.48194">
        <ele>348</ele>
        <time>2011-04-09T06:47:35.000Z</time>
      </trkpt>
      <trkpt lat="43.38005" lon="5.48198">
        <ele>348</ele>
        <time>2011-04-09T06:47:40.000Z</time>
      </trkpt>
      <trkpt lat="43.38007" lon="5.48202">
        <ele>348</ele>
        <time>2011-04-09T06:47:45.000Z</time>
      </trkpt>
      <trkpt lat="43.38013" lon="5.48204">
        <ele>348</ele>
        <time>2011-04-09T06:47:50.000Z</time>
      </trkpt>
      <trkpt lat="43.38019" lon="5.48202">
        <ele>348</ele>
        <time>2011-04-09T06:47:55.000Z</time>
      </trkpt>
      <trkpt lat="43.38025" lon="5.482">
        <ele>348</ele>
        <time>2011-04-09T06:48:00.000Z</time>
      </trkpt>
      <trkpt lat="43.38032" lon="5.48199">
        <ele>349</ele>
        <time>2011-04-09T06:48:05.000Z</time>
      </trkpt>
      <trkpt lat="43.38033" lon="5.48201">
        <ele>349</ele>
        <time>2011-04-09T06:48:10.000Z</time>
      </trkpt>
      <trkpt lat="43.38033" lon="5.48201">
        <ele>349</ele>
        <time>2011-04-09T06:48:15.000Z</time>
      </trkpt>
      <trkpt lat="43.38047" lon="5.48201">
        <ele>349</ele>
        <time>2011-04-09T06:48:20.000Z</time>
      </trkpt>
      <trkpt lat="43.38053" lon="5.48202">
        <ele>350</ele>
        <time>2011-04-09T06:48:25.000Z</time>
      </trkpt>
      <trkpt lat="43.38059" lon="5.48204">
        <ele>350</ele>
        <time>2011-04-09T06:48:30.000Z</time>
      </trkpt>
      <trkpt lat="43.38065" lon="5.48204">
        <ele>350</ele>
        <time>2011-04-09T06:48:35.000Z</time>
      </trkpt>
      <trkpt lat="43.3807" lon="5.48204">
        <ele>350</ele>
        <time>2011-04-09T06:48:40.000Z</time>
      </trkpt>
      <trkpt lat="43.38071" lon="5.48204">
        <ele>350</ele>
        <time>2011-04-09T06:48:45.000Z</time>
      </trkpt>
      <trkpt lat="43.38071" lon="5.48204">
        <ele>350</ele>
        <time>2011-04-09T06:48:50.000Z</time>
      </trkpt>
      <trkpt lat="43.38081" lon="5.48205">
        <ele>351</ele>
        <time>2011-04-09T06:48:55.000Z</time>
      </trkpt>
      <trkpt lat="43.38084" lon="5.48207">
        <ele>355</ele>
        <time>2011-04-09T06:49:00.000Z</time>
      </trkpt>
      <trkpt lat="43.38089" lon="5.48211">
        <ele>355</ele>
        <time>2011-04-09T06:49:05.000Z</time>
      </trkpt>
      <trkpt lat="43.38096" lon="5.48212">
        <ele>356</ele>
        <time>2011-04-09T06:49:10.000Z</time>
      </trkpt>
      <trkpt lat="43.38103" lon="5.48211">
        <ele>356</ele>
        <time>2011-04-09T06:49:15.000Z</time>
      </trkpt>
      <trkpt lat="43.38108" lon="5.4821">
        <ele>356</ele>
        <time>2011-04-09T06:49:20.000Z</time>
      </trkpt>
      <trkpt lat="43.38109" lon="5.48211">
        <ele>356</ele>
        <time>2011-04-09T06:49:24.998Z</time>
      </trkpt>
      <trkpt lat="43.38109" lon="5.48211">
        <ele>356</ele>
        <time>2011-04-09T06:49:30.000Z</time>
      </trkpt>
      <trkpt lat="43.38109" lon="5.48211">
        <ele>356</ele>
        <time>2011-04-09T06:49:35.000Z</time>
      </trkpt>
      <trkpt lat="43.38117" lon="5.48215">
        <ele>356</ele>
        <time>2011-04-09T06:49:40.000Z</time>
      </trkpt>
      <trkpt lat="43.38122" lon="5.48214">
        <ele>357</ele>
        <time>2011-04-09T06:49:45.000Z</time>
      </trkpt>
      <trkpt lat="43.38125" lon="5.48213">
        <ele>357</ele>
        <time>2011-04-09T06:49:50.000Z</time>
      </trkpt>
      <trkpt lat="43.38132" lon="5.48213">
        <ele>357</ele>
        <time>2011-04-09T06:49:55.000Z</time>
      </trkpt>
      <trkpt lat="43.38137" lon="5.48214">
        <ele>357</ele>
        <time>2011-04-09T06:50:00.000Z</time>
      </trkpt>
      <trkpt lat="43.38139" lon="5.48215">
        <ele>357</ele>
        <time>2011-04-09T06:50:05.000Z</time>
      </trkpt>
      <trkpt lat="43.38139" lon="5.48215">
        <ele>357</ele>
        <time>2011-04-09T06:50:10.000Z</time>
      </trkpt>
      <trkpt lat="43.38151" lon="5.48218">
        <ele>358</ele>
        <time>2011-04-09T06:50:15.000Z</time>
      </trkpt>
      <trkpt lat="43.38156" lon="5.4822">
        <ele>358</ele>
        <time>2011-04-09T06:50:20.000Z</time>
      </trkpt>
      <trkpt lat="43.38162" lon="5.4822">
        <ele>358</ele>
        <time>2011-04-09T06:50:25.000Z</time>
      </trkpt>
      <trkpt lat="43.38167" lon="5.4822">
        <ele>362</ele>
        <time>2011-04-09T06:50:30.000Z</time>
      </trkpt>
      <trkpt lat="43.38169" lon="5.48221">
        <ele>362</ele>
        <time>2011-04-09T06:50:35.000Z</time>
      </trkpt>
      <trkpt lat="43.38169" lon="5.48221">
        <ele>362</ele>
        <time>2011-04-09T06:50:40.000Z</time>
      </trkpt>
      <trkpt lat="43.38184" lon="5.48224">
        <ele>362</ele>
        <time>2011-04-09T06:50:45.000Z</time>
      </trkpt>
      <trkpt lat="43.38187" lon="5.48223">
        <ele>362</ele>
        <time>2011-04-09T06:50:50.000Z</time>
      </trkpt>
      <trkpt lat="43.38193" lon="5.48226">
        <ele>362</ele>
        <time>2011-04-09T06:50:55.000Z</time>
      </trkpt>
      <trkpt lat="43.38196" lon="5.48228">
        <ele>363</ele>
        <time>2011-04-09T06:50:59.800Z</time>
      </trkpt>
      <trkpt lat="43.38196" lon="5.48228">
        <ele>363</ele>
        <time>2011-04-09T06:51:04.000Z</time>
      </trkpt>
      <trkpt lat="43.38196" lon="5.48228">
        <ele>363</ele>
        <time>2011-04-09T06:51:09.000Z</time>
      </trkpt>
      <trkpt lat="43.38217" lon="5.48229">
        <ele>363</ele>
        <time>2011-04-09T06:51:14.000Z</time>
      </trkpt>
      <trkpt lat="43.38218" lon="5.48229">
        <ele>363</ele>
        <time>2011-04-09T06:51:19.000Z</time>
      </trkpt>
      <trkpt lat="43.38223" lon="5.48234">
        <ele>364</ele>
        <time>2011-04-09T06:51:23.999Z</time>
      </trkpt>
      <trkpt lat="43.38231" lon="5.48239">
        <ele>364</ele>
        <time>2011-04-09T06:51:29.000Z</time>
      </trkpt>
      <trkpt lat="43.38231" lon="5.48239">
        <ele>364</ele>
        <time>2011-04-09T06:51:34.000Z</time>
      </trkpt>
      <trkpt lat="43.38237" lon="5.48251">
        <ele>366</ele>
        <time>2011-04-09T06:51:39.000Z</time>
      </trkpt>
      <trkpt lat="43.38237" lon="5.48251">
        <ele>366</ele>
        <time>2011-04-09T06:51:44.000Z</time>
      </trkpt>
      <trkpt lat="43.38245" lon="5.48256">
        <ele>366</ele>
        <time>2011-04-09T06:51:49.000Z</time>
      </trkpt>
      <trkpt lat="43.38251" lon="5.48257">
        <ele>368</ele>
        <time>2011-04-09T06:51:54.000Z</time>
      </trkpt>
      <trkpt lat="43.38257" lon="5.48268">
        <ele>370</ele>
        <time>2011-04-09T06:51:58.999Z</time>
      </trkpt>
      <trkpt lat="43.38259" lon="5.48278">
        <ele>370</ele>
        <time>2011-04-09T06:52:04.000Z</time>
      </trkpt>
      <trkpt lat="43.38267" lon="5.48281">
        <ele>371</ele>
        <time>2011-04-09T06:52:09.000Z</time>
      </trkpt>
      <trkpt lat="43.38271" lon="5.48285">
        <ele>371</ele>
        <time>2011-04-09T06:52:14.001Z</time>
      </trkpt>
      <trkpt lat="43.38273" lon="5.48291">
        <ele>371</ele>
        <time>2011-04-09T06:52:19.001Z</time>
      </trkpt>
      <trkpt lat="43.38275" lon="5.48298">
        <ele>371</ele>
        <time>2011-04-09T06:52:24.000Z</time>
      </trkpt>
      <trkpt lat="43.38281" lon="5.48304">
        <ele>371</ele>
        <time>2011-04-09T06:52:29.000Z</time>
      </trkpt>
      <trkpt lat="43.38286" lon="5.48312">
        <ele>372</ele>
        <time>2011-04-09T06:52:34.000Z</time>
      </trkpt>
      <trkpt lat="43.38288" lon="5.4832">
        <ele>372</ele>
        <time>2011-04-09T06:52:39.000Z</time>
      </trkpt>
      <trkpt lat="43.38291" lon="5.48327">
        <ele>372</ele>
        <time>2011-04-09T06:52:44.000Z</time>
      </trkpt>
      <trkpt lat="43.38297" lon="5.48334">
        <ele>371</ele>
        <time>2011-04-09T06:52:49.001Z</time>
      </trkpt>
      <trkpt lat="43.38298" lon="5.48337">
        <ele>371</ele>
        <time>2011-04-09T06:52:53.800Z</time>
      </trkpt>
      <trkpt lat="43.383" lon="5.48348">
        <ele>371</ele>
        <time>2011-04-09T06:52:58.000Z</time>
      </trkpt>
      <trkpt lat="43.38301" lon="5.48359">
        <ele>370</ele>
        <time>2011-04-09T06:53:03.000Z</time>
      </trkpt>
      <trkpt lat="43.38305" lon="5.48368">
        <ele>370</ele>
        <time>2011-04-09T06:53:08.000Z</time>
      </trkpt>
      <trkpt lat="43.38309" lon="5.48378">
        <ele>370</ele>
        <time>2011-04-09T06:53:13.000Z</time>
      </trkpt>
      <trkpt lat="43.38311" lon="5.4838">
        <ele>370</ele>
        <time>2011-04-09T06:53:18.000Z</time>
      </trkpt>
      <trkpt lat="43.38311" lon="5.4838">
        <ele>370</ele>
        <time>2011-04-09T06:53:23.000Z</time>
      </trkpt>
      <trkpt lat="43.38311" lon="5.4838">
        <ele>370</ele>
        <time>2011-04-09T06:53:28.000Z</time>
      </trkpt>
      <trkpt lat="43.38311" lon="5.4838">
        <ele>370</ele>
        <time>2011-04-09T06:53:33.000Z</time>
      </trkpt>
      <trkpt lat="43.38312" lon="5.48379">
        <ele>370</ele>
        <time>2011-04-09T06:53:38.001Z</time>
      </trkpt>
      <trkpt lat="43.38317" lon="5.48387">
        <ele>370</ele>
        <time>2011-04-09T06:53:42.800Z</time>
      </trkpt>
      <trkpt lat="43.38322" lon="5.48388">
        <ele>370</ele>
        <time>2011-04-09T06:53:47.000Z</time>
      </trkpt>
      <trkpt lat="43.38325" lon="5.48389">
        <ele>370</ele>
        <time>2011-04-09T06:53:52.000Z</time>
      </trkpt>
      <trkpt lat="43.38334" lon="5.48392">
        <ele>377</ele>
        <time>2011-04-09T06:53:58.000Z</time>
      </trkpt>
      <trkpt lat="43.38335" lon="5.48393">
        <ele>377</ele>
        <time>2011-04-09T06:54:03.000Z</time>
      </trkpt>
      <trkpt lat="43.38335" lon="5.48393">
        <ele>377</ele>
        <time>2011-04-09T06:54:08.000Z</time>
      </trkpt>
      <trkpt lat="43.38335" lon="5.48393">
        <ele>377</ele>
        <time>2011-04-09T06:54:13.000Z</time>
      </trkpt>
      <trkpt lat="43.38335" lon="5.48393">
        <ele>377</ele>
        <time>2011-04-09T06:54:18.000Z</time>
      </trkpt>
      <trkpt lat="43.38354" lon="5.48405">
        <ele>377</ele>
        <time>2011-04-09T06:54:23.000Z</time>
      </trkpt>
      <trkpt lat="43.38355" lon="5.48405">
        <ele>377</ele>
        <time>2011-04-09T06:54:28.000Z</time>
      </trkpt>
      <trkpt lat="43.38364" lon="5.48408">
        <ele>378</ele>
        <time>2011-04-09T06:54:33.001Z</time>
      </trkpt>
      <trkpt lat="43.38371" lon="5.4841">
        <ele>378</ele>
        <time>2011-04-09T06:54:38.000Z</time>
      </trkpt>
      <trkpt lat="43.38377" lon="5.48412">
        <ele>379</ele>
        <time>2011-04-09T06:54:43.000Z</time>
      </trkpt>
      <trkpt lat="43.38381" lon="5.48413">
        <ele>379</ele>
        <time>2011-04-09T06:54:48.000Z</time>
      </trkpt>
      <trkpt lat="43.38385" lon="5.48419">
        <ele>374</ele>
        <time>2011-04-09T06:54:53.000Z</time>
      </trkpt>
      <trkpt lat="43.38392" lon="5.4842">
        <ele>375</ele>
        <time>2011-04-09T06:54:58.000Z</time>
      </trkpt>
      <trkpt lat="43.38396" lon="5.48419">
        <ele>375</ele>
        <time>2011-04-09T06:55:03.000Z</time>
      </trkpt>
      <trkpt lat="43.38403" lon="5.48419">
        <ele>377</ele>
        <time>2011-04-09T06:55:08.000Z</time>
      </trkpt>
      <trkpt lat="43.38408" lon="5.4842">
        <ele>377</ele>
        <time>2011-04-09T06:55:12.998Z</time>
      </trkpt>
      <trkpt lat="43.38417" lon="5.48428">
        <ele>378</ele>
        <time>2011-04-09T06:55:18.000Z</time>
      </trkpt>
      <trkpt lat="43.38424" lon="5.48429">
        <ele>378</ele>
        <time>2011-04-09T06:55:23.000Z</time>
      </trkpt>
      <trkpt lat="43.38424" lon="5.48429">
        <ele>378</ele>
        <time>2011-04-09T06:55:28.000Z</time>
      </trkpt>
      <trkpt lat="43.38432" lon="5.48432">
        <ele>378</ele>
        <time>2011-04-09T06:55:32.800Z</time>
      </trkpt>
      <trkpt lat="43.38438" lon="5.48429">
        <ele>377</ele>
        <time>2011-04-09T06:55:38.000Z</time>
      </trkpt>
      <trkpt lat="43.38438" lon="5.48429">
        <ele>377</ele>
        <time>2011-04-09T06:55:43.000Z</time>
      </trkpt>
      <trkpt lat="43.38451" lon="5.4843">
        <ele>377</ele>
        <time>2011-04-09T06:55:48.000Z</time>
      </trkpt>
      <trkpt lat="43.38458" lon="5.48432">
        <ele>377</ele>
        <time>2011-04-09T06:55:53.000Z</time>
      </trkpt>
      <trkpt lat="43.38462" lon="5.48433">
        <ele>377</ele>
        <time>2011-04-09T06:55:58.000Z</time>
      </trkpt>
      <trkpt lat="43.38466" lon="5.48433">
        <ele>377</ele>
        <time>2011-04-09T06:56:03.000Z</time>
      </trkpt>
      <trkpt lat="43.38466" lon="5.48433">
        <ele>377</ele>
        <time>2011-04-09T06:56:08.000Z</time>
      </trkpt>
      <trkpt lat="43.38475" lon="5.4844">
        <ele>376</ele>
        <time>2011-04-09T06:56:13.000Z</time>
      </trkpt>
      <trkpt lat="43.38481" lon="5.48442">
        <ele>376</ele>
        <time>2011-04-09T06:56:18.000Z</time>
      </trkpt>
      <trkpt lat="43.38491" lon="5.48441">
        <ele>376</ele>
        <time>2011-04-09T06:56:23.000Z</time>
      </trkpt>
      <trkpt lat="43.38495" lon="5.48442">
        <ele>376</ele>
        <time>2011-04-09T06:56:28.000Z</time>
      </trkpt>
      <trkpt lat="43.38501" lon="5.48443">
        <ele>374</ele>
        <time>2011-04-09T06:56:33.000Z</time>
      </trkpt>
      <trkpt lat="43.38503" lon="5.48443">
        <ele>374</ele>
        <time>2011-04-09T06:56:38.000Z</time>
      </trkpt>
      <trkpt lat="43.38509" lon="5.48442">
        <ele>373</ele>
        <time>2011-04-09T06:56:43.000Z</time>
      </trkpt>
      <trkpt lat="43.38513" lon="5.48437">
        <ele>374</ele>
        <time>2011-04-09T06:56:48.000Z</time>
      </trkpt>
      <trkpt lat="43.38517" lon="5.48431">
        <ele>374</ele>
        <time>2011-04-09T06:56:53.000Z</time>
      </trkpt>
      <trkpt lat="43.3852" lon="5.48426">
        <ele>374</ele>
        <time>2011-04-09T06:56:58.000Z</time>
      </trkpt>
      <trkpt lat="43.38521" lon="5.48426">
        <ele>374</ele>
        <time>2011-04-09T06:57:03.000Z</time>
      </trkpt>
      <trkpt lat="43.38521" lon="5.48426">
        <ele>374</ele>
        <time>2011-04-09T06:57:08.000Z</time>
      </trkpt>
      <trkpt lat="43.38521" lon="5.48426">
        <ele>374</ele>
        <time>2011-04-09T06:57:13.000Z</time>
      </trkpt>
      <trkpt lat="43.38521" lon="5.48426">
        <ele>374</ele>
        <time>2011-04-09T06:57:18.000Z</time>
      </trkpt>
      <trkpt lat="43.38521" lon="5.48426">
        <ele>374</ele>
        <time>2011-04-09T06:57:23.000Z</time>
      </trkpt>
      <trkpt lat="43.38521" lon="5.48426">
        <ele>374</ele>
        <time>2011-04-09T06:57:28.000Z</time>
      </trkpt>
      <trkpt lat="43.38521" lon="5.48426">
        <ele>374</ele>
        <time>2011-04-09T06:57:33.000Z</time>
      </trkpt>
      <trkpt lat="43.38521" lon="5.48426">
        <ele>374</ele>
        <time>2011-04-09T06:57:38.000Z</time>
      </trkpt>
      <trkpt lat="43.38528" lon="5.48442">
        <ele>372</ele>
        <time>2011-04-09T06:57:43.002Z</time>
      </trkpt>
      <trkpt lat="43.38532" lon="5.48443">
        <ele>372</ele>
        <time>2011-04-09T06:57:48.000Z</time>
      </trkpt>
      <trkpt lat="43.38536" lon="5.48443">
        <ele>372</ele>
        <time>2011-04-09T06:57:53.000Z</time>
      </trkpt>
      <trkpt lat="43.3854" lon="5.48438">
        <ele>372</ele>
        <time>2011-04-09T06:57:58.000Z</time>
      </trkpt>
      <trkpt lat="43.38549" lon="5.48428">
        <ele>372</ele>
        <time>2011-04-09T06:58:03.000Z</time>
      </trkpt>
      <trkpt lat="43.38553" lon="5.48419">
        <ele>371</ele>
        <time>2011-04-09T06:58:08.000Z</time>
      </trkpt>
      <trkpt lat="43.38553" lon="5.48419">
        <ele>371</ele>
        <time>2011-04-09T06:58:13.000Z</time>
      </trkpt>
      <trkpt lat="43.38564" lon="5.48411">
        <ele>373</ele>
        <time>2011-04-09T06:58:18.000Z</time>
      </trkpt>
      <trkpt lat="43.38568" lon="5.48407">
        <ele>373</ele>
        <time>2011-04-09T06:58:23.000Z</time>
      </trkpt>
      <trkpt lat="43.38568" lon="5.48407">
        <ele>373</ele>
        <time>2011-04-09T06:58:28.000Z</time>
      </trkpt>
      <trkpt lat="43.38568" lon="5.48407">
        <ele>373</ele>
        <time>2011-04-09T06:58:33.000Z</time>
      </trkpt>
      <trkpt lat="43.38568" lon="5.48407">
        <ele>373</ele>
        <time>2011-04-09T06:58:38.000Z</time>
      </trkpt>
      <trkpt lat="43.38568" lon="5.48407">
        <ele>373</ele>
        <time>2011-04-09T06:58:43.000Z</time>
      </trkpt>
      <trkpt lat="43.38568" lon="5.48407">
        <ele>373</ele>
        <time>2011-04-09T06:58:48.000Z</time>
      </trkpt>
      <trkpt lat="43.38599" lon="5.48382">
        <ele>374</ele>
        <time>2011-04-09T06:58:53.000Z</time>
      </trkpt>
      <trkpt lat="43.38599" lon="5.48382">
        <ele>374</ele>
        <time>2011-04-09T06:58:58.000Z</time>
      </trkpt>
      <trkpt lat="43.38609" lon="5.48374">
        <ele>374</ele>
        <time>2011-04-09T06:59:03.000Z</time>
      </trkpt>
      <trkpt lat="43.38613" lon="5.4837">
        <ele>374</ele>
        <time>2011-04-09T06:59:08.000Z</time>
      </trkpt>
      <trkpt lat="43.38617" lon="5.48369">
        <ele>375</ele>
        <time>2011-04-09T06:59:13.000Z</time>
      </trkpt>
      <trkpt lat="43.38617" lon="5.48369">
        <ele>375</ele>
        <time>2011-04-09T06:59:18.000Z</time>
      </trkpt>
      <trkpt lat="43.38617" lon="5.48369">
        <ele>375</ele>
        <time>2011-04-09T06:59:23.000Z</time>
      </trkpt>
      <trkpt lat="43.38617" lon="5.48369">
        <ele>375</ele>
        <time>2011-04-09T06:59:28.000Z</time>
      </trkpt>
      <trkpt lat="43.38617" lon="5.48369">
        <ele>375</ele>
        <time>2011-04-09T06:59:33.000Z</time>
      </trkpt>
      <trkpt lat="43.38617" lon="5.48369">
        <ele>375</ele>
        <time>2011-04-09T06:59:38.000Z</time>
      </trkpt>
      <trkpt lat="43.38617" lon="5.48369">
        <ele>375</ele>
        <time>2011-04-09T06:59:43.000Z</time>
      </trkpt>
      <trkpt lat="43.38617" lon="5.48369">
        <ele>375</ele>
        <time>2011-04-09T06:59:48.000Z</time>
      </trkpt>
      <trkpt lat="43.38617" lon="5.48369">
        <ele>375</ele>
        <time>2011-04-09T06:59:53.000Z</time>
      </trkpt>
      <trkpt lat="43.38617" lon="5.48369">
        <ele>375</ele>
        <time>2011-04-09T06:59:58.000Z</time>
      </trkpt>
      <trkpt lat="43.38617" lon="5.48369">
        <ele>375</ele>
        <time>2011-04-09T07:00:03.000Z</time>
      </trkpt>
      <trkpt lat="43.38617" lon="5.48369">
        <ele>375</ele>
        <time>2011-04-09T07:00:08.000Z</time>
      </trkpt>
      <trkpt lat="43.38617" lon="5.48369">
        <ele>375</ele>
        <time>2011-04-09T07:00:13.000Z</time>
      </trkpt>
      <trkpt lat="43.38617" lon="5.48369">
        <ele>375</ele>
        <time>2011-04-09T07:00:18.000Z</time>
      </trkpt>
      <trkpt lat="43.38617" lon="5.48369">
        <ele>375</ele>
        <time>2011-04-09T07:00:23.000Z</time>
      </trkpt>
      <trkpt lat="43.38617" lon="5.48369">
        <ele>375</ele>
        <time>2011-04-09T07:00:28.000Z</time>
      </trkpt>
      <trkpt lat="43.38617" lon="5.48369">
        <ele>375</ele>
        <time>2011-04-09T07:00:33.000Z</time>
      </trkpt>
      <trkpt lat="43.38617" lon="5.48369">
        <ele>375</ele>
        <time>2011-04-09T07:00:38.000Z</time>
      </trkpt>
      <trkpt lat="43.38617" lon="5.48369">
        <ele>375</ele>
        <time>2011-04-09T07:00:43.000Z</time>
      </trkpt>
      <trkpt lat="43.38617" lon="5.48369">
        <ele>375</ele>
        <time>2011-04-09T07:00:48.000Z</time>
      </trkpt>
      <trkpt lat="43.38617" lon="5.48369">
        <ele>375</ele>
        <time>2011-04-09T07:00:53.000Z</time>
      </trkpt>
      <trkpt lat="43.38617" lon="5.48369">
        <ele>375</ele>
        <time>2011-04-09T07:00:58.000Z</time>
      </trkpt>
      <trkpt lat="43.38617" lon="5.48369">
        <ele>375</ele>
        <time>2011-04-09T07:01:03.000Z</time>
      </trkpt>
      <trkpt lat="43.38617" lon="5.48369">
        <ele>375</ele>
        <time>2011-04-09T07:01:08.000Z</time>
      </trkpt>
      <trkpt lat="43.38617" lon="5.48369">
        <ele>375</ele>
        <time>2011-04-09T07:01:13.000Z</time>
      </trkpt>
      <trkpt lat="43.38617" lon="5.48369">
        <ele>375</ele>
        <time>2011-04-09T07:01:18.000Z</time>
      </trkpt>
      <trkpt lat="43.38617" lon="5.48369">
        <ele>375</ele>
        <time>2011-04-09T07:01:23.000Z</time>
      </trkpt>
      <trkpt lat="43.38614" lon="5.48356">
        <ele>375</ele>
        <time>2011-04-09T07:01:28.000Z</time>
      </trkpt>
      <trkpt lat="43.3862" lon="5.48361">
        <ele>375</ele>
        <time>2011-04-09T07:01:33.000Z</time>
      </trkpt>
      <trkpt lat="43.3862" lon="5.48361">
        <ele>375</ele>
        <time>2011-04-09T07:01:38.000Z</time>
      </trkpt>
      <trkpt lat="43.3862" lon="5.48361">
        <ele>375</ele>
        <time>2011-04-09T07:01:43.000Z</time>
      </trkpt>
      <trkpt lat="43.38632" lon="5.48363">
        <ele>375</ele>
        <time>2011-04-09T07:01:48.000Z</time>
      </trkpt>
      <trkpt lat="43.38637" lon="5.48367">
        <ele>375</ele>
        <time>2011-04-09T07:01:53.000Z</time>
      </trkpt>
      <trkpt lat="43.38639" lon="5.48371">
        <ele>375</ele>
        <time>2011-04-09T07:01:58.000Z</time>
      </trkpt>
      <trkpt lat="43.38644" lon="5.48375">
        <ele>375</ele>
        <time>2011-04-09T07:02:03.000Z</time>
      </trkpt>
      <trkpt lat="43.38645" lon="5.48375">
        <ele>375</ele>
        <time>2011-04-09T07:02:08.000Z</time>
      </trkpt>
      <trkpt lat="43.38651" lon="5.4838">
        <ele>376</ele>
        <time>2011-04-09T07:02:13.000Z</time>
      </trkpt>
      <trkpt lat="43.38652" lon="5.48384">
        <ele>376</ele>
        <time>2011-04-09T07:02:18.000Z</time>
      </trkpt>
      <trkpt lat="43.38657" lon="5.48388">
        <ele>376</ele>
        <time>2011-04-09T07:02:23.000Z</time>
      </trkpt>
      <trkpt lat="43.38661" lon="5.4839">
        <ele>376</ele>
        <time>2011-04-09T07:02:28.000Z</time>
      </trkpt>
      <trkpt lat="43.38662" lon="5.48391">
        <ele>376</ele>
        <time>2011-04-09T07:02:33.000Z</time>
      </trkpt>
      <trkpt lat="43.38662" lon="5.48391">
        <ele>376</ele>
        <time>2011-04-09T07:02:38.000Z</time>
      </trkpt>
      <trkpt lat="43.38672" lon="5.48398">
        <ele>380</ele>
        <time>2011-04-09T07:02:43.000Z</time>
      </trkpt>
      <trkpt lat="43.38677" lon="5.48403">
        <ele>380</ele>
        <time>2011-04-09T07:02:48.000Z</time>
      </trkpt>
      <trkpt lat="43.38681" lon="5.48405">
        <ele>380</ele>
        <time>2011-04-09T07:02:53.000Z</time>
      </trkpt>
      <trkpt lat="43.38685" lon="5.48407">
        <ele>380</ele>
        <time>2011-04-09T07:02:58.000Z</time>
      </trkpt>
      <trkpt lat="43.38687" lon="5.48408">
        <ele>380</ele>
        <time>2011-04-09T07:03:03.000Z</time>
      </trkpt>
      <trkpt lat="43.38687" lon="5.48408">
        <ele>380</ele>
        <time>2011-04-09T07:03:08.000Z</time>
      </trkpt>
      <trkpt lat="43.38696" lon="5.48416">
        <ele>381</ele>
        <time>2011-04-09T07:03:13.000Z</time>
      </trkpt>
      <trkpt lat="43.38703" lon="5.48419">
        <ele>379</ele>
        <time>2011-04-09T07:03:18.000Z</time>
      </trkpt>
      <trkpt lat="43.38708" lon="5.48423">
        <ele>379</ele>
        <time>2011-04-09T07:03:23.000Z</time>
      </trkpt>
      <trkpt lat="43.38716" lon="5.48429">
        <ele>379</ele>
        <time>2011-04-09T07:03:27.800Z</time>
      </trkpt>
      <trkpt lat="43.38725" lon="5.48437">
        <ele>380</ele>
        <time>2011-04-09T07:03:33.000Z</time>
      </trkpt>
      <trkpt lat="43.38725" lon="5.48437">
        <ele>380</ele>
        <time>2011-04-09T07:03:38.000Z</time>
      </trkpt>
      <trkpt lat="43.38725" lon="5.48437">
        <ele>380</ele>
        <time>2011-04-09T07:03:43.000Z</time>
      </trkpt>
      <trkpt lat="43.38725" lon="5.48437">
        <ele>380</ele>
        <time>2011-04-09T07:03:48.000Z</time>
      </trkpt>
      <trkpt lat="43.38725" lon="5.48437">
        <ele>380</ele>
        <time>2011-04-09T07:03:53.000Z</time>
      </trkpt>
      <trkpt lat="43.38735" lon="5.48439">
        <ele>380</ele>
        <time>2011-04-09T07:03:58.000Z</time>
      </trkpt>
      <trkpt lat="43.38739" lon="5.48436">
        <ele>381</ele>
        <time>2011-04-09T07:04:03.000Z</time>
      </trkpt>
      <trkpt lat="43.38741" lon="5.48434">
        <ele>381</ele>
        <time>2011-04-09T07:04:08.000Z</time>
      </trkpt>
      <trkpt lat="43.38743" lon="5.48428">
        <ele>382</ele>
        <time>2011-04-09T07:04:13.000Z</time>
      </trkpt>
      <trkpt lat="43.38746" lon="5.48423">
        <ele>382</ele>
        <time>2011-04-09T07:04:17.800Z</time>
      </trkpt>
      <trkpt lat="43.38747" lon="5.48423">
        <ele>383</ele>
        <time>2011-04-09T07:04:23.000Z</time>
      </trkpt>
      <trkpt lat="43.38747" lon="5.48423">
        <ele>383</ele>
        <time>2011-04-09T07:04:28.000Z</time>
      </trkpt>
      <trkpt lat="43.38753" lon="5.48393">
        <ele>384</ele>
        <time>2011-04-09T07:04:33.000Z</time>
      </trkpt>
      <trkpt lat="43.38754" lon="5.4839">
        <ele>384</ele>
        <time>2011-04-09T07:04:38.000Z</time>
      </trkpt>
      <trkpt lat="43.38754" lon="5.4839">
        <ele>384</ele>
        <time>2011-04-09T07:04:43.000Z</time>
      </trkpt>
      <trkpt lat="43.38763" lon="5.48386">
        <ele>384</ele>
        <time>2011-04-09T07:04:48.000Z</time>
      </trkpt>
      <trkpt lat="43.38765" lon="5.48381">
        <ele>384</ele>
        <time>2011-04-09T07:04:53.000Z</time>
      </trkpt>
      <trkpt lat="43.38768" lon="5.48378">
        <ele>384</ele>
        <time>2011-04-09T07:04:58.000Z</time>
      </trkpt>
      <trkpt lat="43.38778" lon="5.48374">
        <ele>384</ele>
        <time>2011-04-09T07:05:03.000Z</time>
      </trkpt>
      <trkpt lat="43.38788" lon="5.4838">
        <ele>383</ele>
        <time>2011-04-09T07:05:08.000Z</time>
      </trkpt>
      <trkpt lat="43.38792" lon="5.48382">
        <ele>383</ele>
        <time>2011-04-09T07:05:13.000Z</time>
      </trkpt>
      <trkpt lat="43.38795" lon="5.48383">
        <ele>383</ele>
        <time>2011-04-09T07:05:18.000Z</time>
      </trkpt>
      <trkpt lat="43.38795" lon="5.48383">
        <ele>383</ele>
        <time>2011-04-09T07:05:23.000Z</time>
      </trkpt>
      <trkpt lat="43.38813" lon="5.48382">
        <ele>382</ele>
        <time>2011-04-09T07:05:28.000Z</time>
      </trkpt>
      <trkpt lat="43.38816" lon="5.4838">
        <ele>382</ele>
        <time>2011-04-09T07:05:33.000Z</time>
      </trkpt>
      <trkpt lat="43.38822" lon="5.48385">
        <ele>381</ele>
        <time>2011-04-09T07:05:38.000Z</time>
      </trkpt>
      <trkpt lat="43.38824" lon="5.48386">
        <ele>381</ele>
        <time>2011-04-09T07:05:43.000Z</time>
      </trkpt>
      <trkpt lat="43.38824" lon="5.48386">
        <ele>381</ele>
        <time>2011-04-09T07:05:48.000Z</time>
      </trkpt>
      <trkpt lat="43.38824" lon="5.48386">
        <ele>381</ele>
        <time>2011-04-09T07:05:53.000Z</time>
      </trkpt>
      <trkpt lat="43.38844" lon="5.48391">
        <ele>371</ele>
        <time>2011-04-09T07:05:58.001Z</time>
      </trkpt>
      <trkpt lat="43.3885" lon="5.48389">
        <ele>371</ele>
        <time>2011-04-09T07:06:03.000Z</time>
      </trkpt>
      <trkpt lat="43.38852" lon="5.4839">
        <ele>371</ele>
        <time>2011-04-09T07:06:08.000Z</time>
      </trkpt>
      <trkpt lat="43.38852" lon="5.4839">
        <ele>371</ele>
        <time>2011-04-09T07:06:13.000Z</time>
      </trkpt>
      <trkpt lat="43.38861" lon="5.48372">
        <ele>372</ele>
        <time>2011-04-09T07:06:18.000Z</time>
      </trkpt>
      <trkpt lat="43.38866" lon="5.48369">
        <ele>371</ele>
        <time>2011-04-09T07:06:23.000Z</time>
      </trkpt>
      <trkpt lat="43.3887" lon="5.48361">
        <ele>372</ele>
        <time>2011-04-09T07:06:28.000Z</time>
      </trkpt>
      <trkpt lat="43.38872" lon="5.4836">
        <ele>372</ele>
        <time>2011-04-09T07:06:32.999Z</time>
      </trkpt>
      <trkpt lat="43.38872" lon="5.4836">
        <ele>372</ele>
        <time>2011-04-09T07:06:38.000Z</time>
      </trkpt>
      <trkpt lat="43.38872" lon="5.4836">
        <ele>372</ele>
        <time>2011-04-09T07:06:43.000Z</time>
      </trkpt>
      <trkpt lat="43.38884" lon="5.48346">
        <ele>371</ele>
        <time>2011-04-09T07:06:48.000Z</time>
      </trkpt>
      <trkpt lat="43.38887" lon="5.4834">
        <ele>371</ele>
        <time>2011-04-09T07:06:53.000Z</time>
      </trkpt>
      <trkpt lat="43.38887" lon="5.4834">
        <ele>371</ele>
        <time>2011-04-09T07:06:58.000Z</time>
      </trkpt>
      <trkpt lat="43.389" lon="5.48328">
        <ele>376</ele>
        <time>2011-04-09T07:07:03.000Z</time>
      </trkpt>
      <trkpt lat="43.38904" lon="5.48324">
        <ele>375</ele>
        <time>2011-04-09T07:07:08.000Z</time>
      </trkpt>
      <trkpt lat="43.38916" lon="5.48323">
        <ele>373</ele>
        <time>2011-04-09T07:07:13.000Z</time>
      </trkpt>
      <trkpt lat="43.38918" lon="5.48319">
        <ele>369</ele>
        <time>2011-04-09T07:07:18.000Z</time>
      </trkpt>
      <trkpt lat="43.38918" lon="5.48319">
        <ele>369</ele>
        <time>2011-04-09T07:07:23.000Z</time>
      </trkpt>
      <trkpt lat="43.38931" lon="5.48306">
        <ele>371</ele>
        <time>2011-04-09T07:07:28.000Z</time>
      </trkpt>
      <trkpt lat="43.38934" lon="5.48309">
        <ele>371</ele>
        <time>2011-04-09T07:07:33.000Z</time>
      </trkpt>
      <trkpt lat="43.38934" lon="5.48309">
        <ele>371</ele>
        <time>2011-04-09T07:07:38.000Z</time>
      </trkpt>
      <trkpt lat="43.38946" lon="5.48306">
        <ele>371</ele>
        <time>2011-04-09T07:07:43.000Z</time>
      </trkpt>
      <trkpt lat="43.38946" lon="5.48302">
        <ele>371</ele>
        <time>2011-04-09T07:07:48.000Z</time>
      </trkpt>
      <trkpt lat="43.38946" lon="5.48302">
        <ele>371</ele>
        <time>2011-04-09T07:07:53.000Z</time>
      </trkpt>
      <trkpt lat="43.38955" lon="5.48283">
        <ele>372</ele>
        <time>2011-04-09T07:07:58.000Z</time>
      </trkpt>
      <trkpt lat="43.38959" lon="5.48279">
        <ele>372</ele>
        <time>2011-04-09T07:08:03.000Z</time>
      </trkpt>
      <trkpt lat="43.38959" lon="5.48279">
        <ele>372</ele>
        <time>2011-04-09T07:08:08.000Z</time>
      </trkpt>
      <trkpt lat="43.38959" lon="5.48279">
        <ele>372</ele>
        <time>2011-04-09T07:08:13.000Z</time>
      </trkpt>
      <trkpt lat="43.38959" lon="5.48279">
        <ele>372</ele>
        <time>2011-04-09T07:08:18.000Z</time>
      </trkpt>
      <trkpt lat="43.38959" lon="5.48279">
        <ele>372</ele>
        <time>2011-04-09T07:08:23.000Z</time>
      </trkpt>
      <trkpt lat="43.38959" lon="5.48279">
        <ele>372</ele>
        <time>2011-04-09T07:08:28.001Z</time>
      </trkpt>
      <trkpt lat="43.38959" lon="5.48279">
        <ele>372</ele>
        <time>2011-04-09T07:08:33.000Z</time>
      </trkpt>
      <trkpt lat="43.38959" lon="5.48279">
        <ele>372</ele>
        <time>2011-04-09T07:08:38.000Z</time>
      </trkpt>
      <trkpt lat="43.38959" lon="5.48279">
        <ele>372</ele>
        <time>2011-04-09T07:08:43.000Z</time>
      </trkpt>
      <trkpt lat="43.38959" lon="5.48279">
        <ele>372</ele>
        <time>2011-04-09T07:08:48.000Z</time>
      </trkpt>
      <trkpt lat="43.38959" lon="5.48279">
        <ele>372</ele>
        <time>2011-04-09T07:08:53.000Z</time>
      </trkpt>
      <trkpt lat="43.38959" lon="5.48279">
        <ele>372</ele>
        <time>2011-04-09T07:08:58.000Z</time>
      </trkpt>
      <trkpt lat="43.38959" lon="5.48279">
        <ele>372</ele>
        <time>2011-04-09T07:09:03.000Z</time>
      </trkpt>
      <trkpt lat="43.38959" lon="5.48279">
        <ele>372</ele>
        <time>2011-04-09T07:09:08.000Z</time>
      </trkpt>
      <trkpt lat="43.38959" lon="5.48279">
        <ele>372</ele>
        <time>2011-04-09T07:09:13.000Z</time>
      </trkpt>
      <trkpt lat="43.38959" lon="5.48279">
        <ele>372</ele>
        <time>2011-04-09T07:09:18.000Z</time>
      </trkpt>
      <trkpt lat="43.38959" lon="5.48279">
        <ele>372</ele>
        <time>2011-04-09T07:09:23.000Z</time>
      </trkpt>
      <trkpt lat="43.38959" lon="5.48279">
        <ele>372</ele>
        <time>2011-04-09T07:09:28.000Z</time>
      </trkpt>
      <trkpt lat="43.38959" lon="5.48279">
        <ele>372</ele>
        <time>2011-04-09T07:09:33.000Z</time>
      </trkpt>
      <trkpt lat="43.38959" lon="5.48279">
        <ele>372</ele>
        <time>2011-04-09T07:09:38.000Z</time>
      </trkpt>
      <trkpt lat="43.38959" lon="5.48279">
        <ele>372</ele>
        <time>2011-04-09T07:09:43.000Z</time>
      </trkpt>
      <trkpt lat="43.38959" lon="5.48279">
        <ele>372</ele>
        <time>2011-04-09T07:09:48.000Z</time>
      </trkpt>
      <trkpt lat="43.38959" lon="5.48279">
        <ele>372</ele>
        <time>2011-04-09T07:09:53.000Z</time>
      </trkpt>
      <trkpt lat="43.38959" lon="5.48279">
        <ele>372</ele>
        <time>2011-04-09T07:09:58.000Z</time>
      </trkpt>
      <trkpt lat="43.38971" lon="5.48294">
        <ele>371</ele>
        <time>2011-04-09T07:10:03.000Z</time>
      </trkpt>
      <trkpt lat="43.38969" lon="5.48301">
        <ele>371</ele>
        <time>2011-04-09T07:10:08.000Z</time>
      </trkpt>
      <trkpt lat="43.38965" lon="5.48312">
        <ele>370</ele>
        <time>2011-04-09T07:10:13.000Z</time>
      </trkpt>
      <trkpt lat="43.38963" lon="5.48319">
        <ele>370</ele>
        <time>2011-04-09T07:10:18.000Z</time>
      </trkpt>
      <trkpt lat="43.38963" lon="5.48319">
        <ele>370</ele>
        <time>2011-04-09T07:10:23.000Z</time>
      </trkpt>
      <trkpt lat="43.38963" lon="5.48319">
        <ele>370</ele>
        <time>2011-04-09T07:10:28.000Z</time>
      </trkpt>
      <trkpt lat="43.38961" lon="5.48345">
        <ele>364</ele>
        <time>2011-04-09T07:10:33.000Z</time>
      </trkpt>
      <trkpt lat="43.38961" lon="5.48347">
        <ele>364</ele>
        <time>2011-04-09T07:10:38.000Z</time>
      </trkpt>
      <trkpt lat="43.38961" lon="5.48347">
        <ele>364</ele>
        <time>2011-04-09T07:10:43.001Z</time>
      </trkpt>
      <trkpt lat="43.38963" lon="5.4837">
        <ele>362</ele>
        <time>2011-04-09T07:10:48.000Z</time>
      </trkpt>
      <trkpt lat="43.38972" lon="5.48375">
        <ele>362</ele>
        <time>2011-04-09T07:10:53.000Z</time>
      </trkpt>
      <trkpt lat="43.38971" lon="5.48385">
        <ele>362</ele>
        <time>2011-04-09T07:10:58.000Z</time>
      </trkpt>
      <trkpt lat="43.38972" lon="5.48391">
        <ele>362</ele>
        <time>2011-04-09T07:11:03.000Z</time>
      </trkpt>
      <trkpt lat="43.38972" lon="5.48391">
        <ele>362</ele>
        <time>2011-04-09T07:11:08.000Z</time>
      </trkpt>
      <trkpt lat="43.38972" lon="5.48391">
        <ele>362</ele>
        <time>2011-04-09T07:11:13.000Z</time>
      </trkpt>
      <trkpt lat="43.38972" lon="5.48391">
        <ele>362</ele>
        <time>2011-04-09T07:11:18.000Z</time>
      </trkpt>
      <trkpt lat="43.38972" lon="5.48391">
        <ele>362</ele>
        <time>2011-04-09T07:11:23.000Z</time>
      </trkpt>
      <trkpt lat="43.38972" lon="5.48391">
        <ele>362</ele>
        <time>2011-04-09T07:11:28.000Z</time>
      </trkpt>
      <trkpt lat="43.38972" lon="5.48391">
        <ele>362</ele>
        <time>2011-04-09T07:11:33.000Z</time>
      </trkpt>
      <trkpt lat="43.38972" lon="5.48391">
        <ele>362</ele>
        <time>2011-04-09T07:11:38.000Z</time>
      </trkpt>
      <trkpt lat="43.38972" lon="5.48391">
        <ele>362</ele>
        <time>2011-04-09T07:11:43.000Z</time>
      </trkpt>
      <trkpt lat="43.38972" lon="5.48391">
        <ele>362</ele>
        <time>2011-04-09T07:11:48.000Z</time>
      </trkpt>
      <trkpt lat="43.38972" lon="5.48391">
        <ele>362</ele>
        <time>2011-04-09T07:11:53.000Z</time>
      </trkpt>
      <trkpt lat="43.38972" lon="5.48391">
        <ele>362</ele>
        <time>2011-04-09T07:11:58.000Z</time>
      </trkpt>
      <trkpt lat="43.38972" lon="5.48391">
        <ele>362</ele>
        <time>2011-04-09T07:12:03.000Z</time>
      </trkpt>
      <trkpt lat="43.38972" lon="5.48391">
        <ele>362</ele>
        <time>2011-04-09T07:12:08.000Z</time>
      </trkpt>
      <trkpt lat="43.38972" lon="5.48391">
        <ele>362</ele>
        <time>2011-04-09T07:12:13.000Z</time>
      </trkpt>
      <trkpt lat="43.38972" lon="5.48391">
        <ele>362</ele>
        <time>2011-04-09T07:12:18.000Z</time>
      </trkpt>
      <trkpt lat="43.38972" lon="5.48391">
        <ele>362</ele>
        <time>2011-04-09T07:12:23.000Z</time>
      </trkpt>
      <trkpt lat="43.38972" lon="5.48391">
        <ele>362</ele>
        <time>2011-04-09T07:12:28.000Z</time>
      </trkpt>
      <trkpt lat="43.38972" lon="5.48391">
        <ele>362</ele>
        <time>2011-04-09T07:12:33.000Z</time>
      </trkpt>
      <trkpt lat="43.38972" lon="5.48391">
        <ele>362</ele>
        <time>2011-04-09T07:12:38.000Z</time>
      </trkpt>
      <trkpt lat="43.38972" lon="5.48391">
        <ele>362</ele>
        <time>2011-04-09T07:12:43.000Z</time>
      </trkpt>
      <trkpt lat="43.39037" lon="5.4852">
        <ele>349</ele>
        <time>2011-04-09T07:12:48.000Z</time>
      </trkpt>
      <trkpt lat="43.39037" lon="5.48522">
        <ele>349</ele>
        <time>2011-04-09T07:12:54.000Z</time>
      </trkpt>
      <trkpt lat="43.39044" lon="5.48533">
        <ele>350</ele>
        <time>2011-04-09T07:12:59.000Z</time>
      </trkpt>
      <trkpt lat="43.39044" lon="5.48533">
        <ele>350</ele>
        <time>2011-04-09T07:13:04.000Z</time>
      </trkpt>
      <trkpt lat="43.39053" lon="5.48528">
        <ele>350</ele>
        <time>2011-04-09T07:13:09.000Z</time>
      </trkpt>
      <trkpt lat="43.39055" lon="5.4853">
        <ele>350</ele>
        <time>2011-04-09T07:13:14.000Z</time>
      </trkpt>
      <trkpt lat="43.39055" lon="5.4853">
        <ele>350</ele>
        <time>2011-04-09T07:13:19.000Z</time>
      </trkpt>
      <trkpt lat="43.39055" lon="5.4853">
        <ele>350</ele>
        <time>2011-04-09T07:13:23.800Z</time>
      </trkpt>
      <trkpt lat="43.3907" lon="5.48533">
        <ele>351</ele>
        <time>2011-04-09T07:13:28.000Z</time>
      </trkpt>
      <trkpt lat="43.39076" lon="5.48529">
        <ele>351</ele>
        <time>2011-04-09T07:13:33.000Z</time>
      </trkpt>
      <trkpt lat="43.39084" lon="5.48524">
        <ele>353</ele>
        <time>2011-04-09T07:13:40.000Z</time>
      </trkpt>
      <trkpt lat="43.39092" lon="5.48518">
        <ele>353</ele>
        <time>2011-04-09T07:13:45.000Z</time>
      </trkpt>
      <trkpt lat="43.39092" lon="5.48518">
        <ele>353</ele>
        <time>2011-04-09T07:13:50.000Z</time>
      </trkpt>
      <trkpt lat="43.39092" lon="5.48518">
        <ele>353</ele>
        <time>2011-04-09T07:13:55.000Z</time>
      </trkpt>
      <trkpt lat="43.39092" lon="5.48518">
        <ele>353</ele>
        <time>2011-04-09T07:14:00.000Z</time>
      </trkpt>
      <trkpt lat="43.39092" lon="5.48518">
        <ele>353</ele>
        <time>2011-04-09T07:14:05.000Z</time>
      </trkpt>
      <trkpt lat="43.39092" lon="5.48518">
        <ele>353</ele>
        <time>2011-04-09T07:14:10.000Z</time>
      </trkpt>
      <trkpt lat="43.39092" lon="5.48518">
        <ele>353</ele>
        <time>2011-04-09T07:14:15.000Z</time>
      </trkpt>
      <trkpt lat="43.39092" lon="5.48518">
        <ele>353</ele>
        <time>2011-04-09T07:14:20.000Z</time>
      </trkpt>
      <trkpt lat="43.39112" lon="5.48487">
        <ele>358</ele>
        <time>2011-04-09T07:14:25.000Z</time>
      </trkpt>
      <trkpt lat="43.39114" lon="5.48482">
        <ele>359</ele>
        <time>2011-04-09T07:14:30.000Z</time>
      </trkpt>
      <trkpt lat="43.39115" lon="5.48478">
        <ele>359</ele>
        <time>2011-04-09T07:14:35.000Z</time>
      </trkpt>
      <trkpt lat="43.39115" lon="5.48478">
        <ele>359</ele>
        <time>2011-04-09T07:14:40.000Z</time>
      </trkpt>
      <trkpt lat="43.39115" lon="5.48478">
        <ele>359</ele>
        <time>2011-04-09T07:14:45.000Z</time>
      </trkpt>
      <trkpt lat="43.39115" lon="5.48478">
        <ele>359</ele>
        <time>2011-04-09T07:14:50.000Z</time>
      </trkpt>
      <trkpt lat="43.39115" lon="5.48478">
        <ele>359</ele>
        <time>2011-04-09T07:14:55.000Z</time>
      </trkpt>
      <trkpt lat="43.39115" lon="5.48478">
        <ele>359</ele>
        <time>2011-04-09T07:15:00.000Z</time>
      </trkpt>
      <trkpt lat="43.39115" lon="5.48478">
        <ele>359</ele>
        <time>2011-04-09T07:15:05.000Z</time>
      </trkpt>
      <trkpt lat="43.39115" lon="5.48478">
        <ele>359</ele>
        <time>2011-04-09T07:15:10.000Z</time>
      </trkpt>
      <trkpt lat="43.39115" lon="5.48478">
        <ele>359</ele>
        <time>2011-04-09T07:15:15.000Z</time>
      </trkpt>
      <trkpt lat="43.39115" lon="5.48478">
        <ele>359</ele>
        <time>2011-04-09T07:15:20.000Z</time>
      </trkpt>
      <trkpt lat="43.39115" lon="5.48478">
        <ele>359</ele>
        <time>2011-04-09T07:15:25.000Z</time>
      </trkpt>
      <trkpt lat="43.39115" lon="5.48478">
        <ele>359</ele>
        <time>2011-04-09T07:15:30.000Z</time>
      </trkpt>
      <trkpt lat="43.39167" lon="5.48496">
        <ele>355</ele>
        <time>2011-04-09T07:15:35.000Z</time>
      </trkpt>
      <trkpt lat="43.3917" lon="5.48503">
        <ele>354</ele>
        <time>2011-04-09T07:15:40.000Z</time>
      </trkpt>
      <trkpt lat="43.3917" lon="5.48503">
        <ele>354</ele>
        <time>2011-04-09T07:15:45.000Z</time>
      </trkpt>
      <trkpt lat="43.3917" lon="5.48503">
        <ele>354</ele>
        <time>2011-04-09T07:15:50.001Z</time>
      </trkpt>
      <trkpt lat="43.39187" lon="5.48504">
        <ele>357</ele>
        <time>2011-04-09T07:15:55.000Z</time>
      </trkpt>
      <trkpt lat="43.39188" lon="5.48504">
        <ele>357</ele>
        <time>2011-04-09T07:16:00.000Z</time>
      </trkpt>
      <trkpt lat="43.39188" lon="5.48504">
        <ele>357</ele>
        <time>2011-04-09T07:16:05.000Z</time>
      </trkpt>
      <trkpt lat="43.39204" lon="5.48515">
        <ele>358</ele>
        <time>2011-04-09T07:16:10.000Z</time>
      </trkpt>
      <trkpt lat="43.39206" lon="5.48514">
        <ele>358</ele>
        <time>2011-04-09T07:16:15.000Z</time>
      </trkpt>
      <trkpt lat="43.39206" lon="5.48514">
        <ele>358</ele>
        <time>2011-04-09T07:16:20.000Z</time>
      </trkpt>
      <trkpt lat="43.39206" lon="5.48514">
        <ele>358</ele>
        <time>2011-04-09T07:16:25.000Z</time>
      </trkpt>
      <trkpt lat="43.39221" lon="5.48512">
        <ele>359</ele>
        <time>2011-04-09T07:16:29.801Z</time>
      </trkpt>
      <trkpt lat="43.39225" lon="5.48511">
        <ele>359</ele>
        <time>2011-04-09T07:16:35.000Z</time>
      </trkpt>
      <trkpt lat="43.39225" lon="5.48511">
        <ele>359</ele>
        <time>2011-04-09T07:16:40.000Z</time>
      </trkpt>
      <trkpt lat="43.39225" lon="5.48511">
        <ele>359</ele>
        <time>2011-04-09T07:16:45.000Z</time>
      </trkpt>
      <trkpt lat="43.39225" lon="5.48511">
        <ele>359</ele>
        <time>2011-04-09T07:16:49.998Z</time>
      </trkpt>
      <trkpt lat="43.39225" lon="5.48511">
        <ele>359</ele>
        <time>2011-04-09T07:16:54.800Z</time>
      </trkpt>
      <trkpt lat="43.39225" lon="5.48511">
        <ele>359</ele>
        <time>2011-04-09T07:17:00.000Z</time>
      </trkpt>
      <trkpt lat="43.39225" lon="5.48511">
        <ele>359</ele>
        <time>2011-04-09T07:17:05.000Z</time>
      </trkpt>
      <trkpt lat="43.39246" lon="5.48516">
        <ele>360</ele>
        <time>2011-04-09T07:17:10.000Z</time>
      </trkpt>
      <trkpt lat="43.39248" lon="5.48517">
        <ele>360</ele>
        <time>2011-04-09T07:17:15.000Z</time>
      </trkpt>
      <trkpt lat="43.39252" lon="5.48506">
        <ele>362</ele>
        <time>2011-04-09T07:17:20.000Z</time>
      </trkpt>
      <trkpt lat="43.39252" lon="5.48506">
        <ele>362</ele>
        <time>2011-04-09T07:17:25.000Z</time>
      </trkpt>
      <trkpt lat="43.39257" lon="5.48496">
        <ele>362</ele>
        <time>2011-04-09T07:17:30.000Z</time>
      </trkpt>
      <trkpt lat="43.39261" lon="5.48495">
        <ele>363</ele>
        <time>2011-04-09T07:17:35.001Z</time>
      </trkpt>
      <trkpt lat="43.39261" lon="5.48495">
        <ele>363</ele>
        <time>2011-04-09T07:17:40.000Z</time>
      </trkpt>
      <trkpt lat="43.39261" lon="5.48495">
        <ele>363</ele>
        <time>2011-04-09T07:17:45.000Z</time>
      </trkpt>
      <trkpt lat="43.39278" lon="5.48475">
        <ele>367</ele>
        <time>2011-04-09T07:17:50.000Z</time>
      </trkpt>
      <trkpt lat="43.39282" lon="5.48472">
        <ele>368</ele>
        <time>2011-04-09T07:17:55.000Z</time>
      </trkpt>
      <trkpt lat="43.39287" lon="5.48472">
        <ele>368</ele>
        <time>2011-04-09T07:17:59.999Z</time>
      </trkpt>
      <trkpt lat="43.3929" lon="5.48466">
        <ele>369</ele>
        <time>2011-04-09T07:18:04.999Z</time>
      </trkpt>
      <trkpt lat="43.39287" lon="5.48472">
        <ele>368</ele>
        <time>2011-04-09T07:18:10.000Z</time>
      </trkpt>
      <trkpt lat="43.39287" lon="5.48472">
        <ele>368</ele>
        <time>2011-04-09T07:18:15.000Z</time>
      </trkpt>
      <trkpt lat="43.39291" lon="5.48468">
        <ele>368</ele>
        <time>2011-04-09T07:18:19.999Z</time>
      </trkpt>
      <trkpt lat="43.39298" lon="5.4848">
        <ele>368</ele>
        <time>2011-04-09T07:18:25.000Z</time>
      </trkpt>
      <trkpt lat="43.39302" lon="5.48475">
        <ele>368</ele>
        <time>2011-04-09T07:18:30.000Z</time>
      </trkpt>
      <trkpt lat="43.39308" lon="5.48473">
        <ele>368</ele>
        <time>2011-04-09T07:18:34.999Z</time>
      </trkpt>
      <trkpt lat="43.39313" lon="5.48471">
        <ele>368</ele>
        <time>2011-04-09T07:18:40.000Z</time>
      </trkpt>
      <trkpt lat="43.39313" lon="5.48471">
        <ele>368</ele>
        <time>2011-04-09T07:18:45.000Z</time>
      </trkpt>
      <trkpt lat="43.39313" lon="5.48471">
        <ele>368</ele>
        <time>2011-04-09T07:18:50.000Z</time>
      </trkpt>
      <trkpt lat="43.39313" lon="5.48471">
        <ele>368</ele>
        <time>2011-04-09T07:18:55.000Z</time>
      </trkpt>
      <trkpt lat="43.39313" lon="5.48471">
        <ele>368</ele>
        <time>2011-04-09T07:19:00.000Z</time>
      </trkpt>
      <trkpt lat="43.39323" lon="5.48483">
        <ele>367</ele>
        <time>2011-04-09T07:19:05.000Z</time>
      </trkpt>
      <trkpt lat="43.39324" lon="5.48483">
        <ele>367</ele>
        <time>2011-04-09T07:19:10.000Z</time>
      </trkpt>
      <trkpt lat="43.3933" lon="5.48483">
        <ele>367</ele>
        <time>2011-04-09T07:19:15.000Z</time>
      </trkpt>
      <trkpt lat="43.39331" lon="5.48483">
        <ele>367</ele>
        <time>2011-04-09T07:19:20.000Z</time>
      </trkpt>
      <trkpt lat="43.39339" lon="5.48499">
        <ele>366</ele>
        <time>2011-04-09T07:19:25.000Z</time>
      </trkpt>
      <trkpt lat="43.39346" lon="5.48486">
        <ele>368</ele>
        <time>2011-04-09T07:19:30.000Z</time>
      </trkpt>
      <trkpt lat="43.39352" lon="5.48485">
        <ele>369</ele>
        <time>2011-04-09T07:19:35.000Z</time>
      </trkpt>
      <trkpt lat="43.39356" lon="5.48486">
        <ele>369</ele>
        <time>2011-04-09T07:19:40.000Z</time>
      </trkpt>
      <trkpt lat="43.39358" lon="5.48491">
        <ele>369</ele>
        <time>2011-04-09T07:19:45.000Z</time>
      </trkpt>
      <trkpt lat="43.39364" lon="5.48496">
        <ele>369</ele>
        <time>2011-04-09T07:19:50.000Z</time>
      </trkpt>
      <trkpt lat="43.39369" lon="5.48501">
        <ele>374</ele>
        <time>2011-04-09T07:19:55.000Z</time>
      </trkpt>
      <trkpt lat="43.39375" lon="5.48506">
        <ele>375</ele>
        <time>2011-04-09T07:20:00.000Z</time>
      </trkpt>
      <trkpt lat="43.39382" lon="5.48508">
        <ele>375</ele>
        <time>2011-04-09T07:20:05.000Z</time>
      </trkpt>
      <trkpt lat="43.39389" lon="5.48507">
        <ele>375</ele>
        <time>2011-04-09T07:20:10.000Z</time>
      </trkpt>
      <trkpt lat="43.39396" lon="5.48507">
        <ele>374</ele>
        <time>2011-04-09T07:20:15.000Z</time>
      </trkpt>
      <trkpt lat="43.39403" lon="5.4851">
        <ele>374</ele>
        <time>2011-04-09T07:20:20.000Z</time>
      </trkpt>
      <trkpt lat="43.3941" lon="5.48507">
        <ele>372</ele>
        <time>2011-04-09T07:20:25.000Z</time>
      </trkpt>
      <trkpt lat="43.39417" lon="5.48506">
        <ele>371</ele>
        <time>2011-04-09T07:20:30.001Z</time>
      </trkpt>
      <trkpt lat="43.39424" lon="5.48497">
        <ele>370</ele>
        <time>2011-04-09T07:20:35.000Z</time>
      </trkpt>
      <trkpt lat="43.39431" lon="5.48482">
        <ele>371</ele>
        <time>2011-04-09T07:20:40.000Z</time>
      </trkpt>
      <trkpt lat="43.39441" lon="5.48483">
        <ele>372</ele>
        <time>2011-04-09T07:20:45.000Z</time>
      </trkpt>
      <trkpt lat="43.39444" lon="5.48484">
        <ele>372</ele>
        <time>2011-04-09T07:20:50.000Z</time>
      </trkpt>
      <trkpt lat="43.39445" lon="5.48472">
        <ele>372</ele>
        <time>2011-04-09T07:20:55.000Z</time>
      </trkpt>
      <trkpt lat="43.39445" lon="5.48464">
        <ele>372</ele>
        <time>2011-04-09T07:21:00.000Z</time>
      </trkpt>
      <trkpt lat="43.39451" lon="5.48453">
        <ele>373</ele>
        <time>2011-04-09T07:21:05.000Z</time>
      </trkpt>
      <trkpt lat="43.39454" lon="5.48449">
        <ele>373</ele>
        <time>2011-04-09T07:21:10.000Z</time>
      </trkpt>
      <trkpt lat="43.39454" lon="5.48449">
        <ele>373</ele>
        <time>2011-04-09T07:21:15.000Z</time>
      </trkpt>
      <trkpt lat="43.39454" lon="5.48449">
        <ele>373</ele>
        <time>2011-04-09T07:21:20.000Z</time>
      </trkpt>
      <trkpt lat="43.39454" lon="5.48449">
        <ele>373</ele>
        <time>2011-04-09T07:21:25.000Z</time>
      </trkpt>
      <trkpt lat="43.39454" lon="5.48449">
        <ele>373</ele>
        <time>2011-04-09T07:21:30.000Z</time>
      </trkpt>
      <trkpt lat="43.39454" lon="5.48449">
        <ele>373</ele>
        <time>2011-04-09T07:21:35.000Z</time>
      </trkpt>
      <trkpt lat="43.39458" lon="5.48446">
        <ele>373</ele>
        <time>2011-04-09T07:21:40.000Z</time>
      </trkpt>
      <trkpt lat="43.39458" lon="5.48446">
        <ele>373</ele>
        <time>2011-04-09T07:21:45.000Z</time>
      </trkpt>
      <trkpt lat="43.39458" lon="5.48446">
        <ele>373</ele>
        <time>2011-04-09T07:21:50.000Z</time>
      </trkpt>
      <trkpt lat="43.39458" lon="5.48446">
        <ele>373</ele>
        <time>2011-04-09T07:21:54.800Z</time>
      </trkpt>
      <trkpt lat="43.39458" lon="5.48446">
        <ele>373</ele>
        <time>2011-04-09T07:21:59.000Z</time>
      </trkpt>
      <trkpt lat="43.39458" lon="5.48446">
        <ele>373</ele>
        <time>2011-04-09T07:22:04.000Z</time>
      </trkpt>
      <trkpt lat="43.39471" lon="5.48432">
        <ele>373</ele>
        <time>2011-04-09T07:22:09.000Z</time>
      </trkpt>
      <trkpt lat="43.39477" lon="5.4843">
        <ele>373</ele>
        <time>2011-04-09T07:22:14.000Z</time>
      </trkpt>
      <trkpt lat="43.39477" lon="5.48431">
        <ele>373</ele>
        <time>2011-04-09T07:22:19.000Z</time>
      </trkpt>
      <trkpt lat="43.39477" lon="5.48431">
        <ele>373</ele>
        <time>2011-04-09T07:22:24.000Z</time>
      </trkpt>
      <trkpt lat="43.39477" lon="5.48431">
        <ele>373</ele>
        <time>2011-04-09T07:22:29.001Z</time>
      </trkpt>
      <trkpt lat="43.39477" lon="5.48431">
        <ele>373</ele>
        <time>2011-04-09T07:22:34.000Z</time>
      </trkpt>
      <trkpt lat="43.39477" lon="5.48431">
        <ele>373</ele>
        <time>2011-04-09T07:22:39.000Z</time>
      </trkpt>
      <trkpt lat="43.39477" lon="5.48431">
        <ele>373</ele>
        <time>2011-04-09T07:22:44.000Z</time>
      </trkpt>
      <trkpt lat="43.39499" lon="5.48428">
        <ele>374</ele>
        <time>2011-04-09T07:22:49.000Z</time>
      </trkpt>
      <trkpt lat="43.39508" lon="5.48428">
        <ele>375</ele>
        <time>2011-04-09T07:22:54.000Z</time>
      </trkpt>
      <trkpt lat="43.39516" lon="5.48427">
        <ele>376</ele>
        <time>2011-04-09T07:22:59.000Z</time>
      </trkpt>
      <trkpt lat="43.39524" lon="5.48422">
        <ele>376</ele>
        <time>2011-04-09T07:23:04.000Z</time>
      </trkpt>
      <trkpt lat="43.39534" lon="5.48423">
        <ele>376</ele>
        <time>2011-04-09T07:23:09.000Z</time>
      </trkpt>
      <trkpt lat="43.39543" lon="5.48422">
        <ele>377</ele>
        <time>2011-04-09T07:23:14.000Z</time>
      </trkpt>
      <trkpt lat="43.39548" lon="5.4842">
        <ele>377</ele>
        <time>2011-04-09T07:23:19.000Z</time>
      </trkpt>
      <trkpt lat="43.39551" lon="5.4842">
        <ele>377</ele>
        <time>2011-04-09T07:23:24.001Z</time>
      </trkpt>
      <trkpt lat="43.39555" lon="5.48417">
        <ele>377</ele>
        <time>2011-04-09T07:23:28.800Z</time>
      </trkpt>
      <trkpt lat="43.39548" lon="5.48421">
        <ele>377</ele>
        <time>2011-04-09T07:23:34.000Z</time>
      </trkpt>
      <trkpt lat="43.39548" lon="5.48421">
        <ele>377</ele>
        <time>2011-04-09T07:23:39.000Z</time>
      </trkpt>
      <trkpt lat="43.39558" lon="5.48423">
        <ele>377</ele>
        <time>2011-04-09T07:23:44.000Z</time>
      </trkpt>
      <trkpt lat="43.39559" lon="5.48424">
        <ele>377</ele>
        <time>2011-04-09T07:23:49.000Z</time>
      </trkpt>
      <trkpt lat="43.39566" lon="5.48419">
        <ele>377</ele>
        <time>2011-04-09T07:23:54.001Z</time>
      </trkpt>
      <trkpt lat="43.39569" lon="5.48417">
        <ele>377</ele>
        <time>2011-04-09T07:23:59.000Z</time>
      </trkpt>
      <trkpt lat="43.39576" lon="5.48417">
        <ele>377</ele>
        <time>2011-04-09T07:24:03.800Z</time>
      </trkpt>
      <trkpt lat="43.39581" lon="5.48404">
        <ele>378</ele>
        <time>2011-04-09T07:24:08.000Z</time>
      </trkpt>
      <trkpt lat="43.39591" lon="5.48392">
        <ele>381</ele>
        <time>2011-04-09T07:24:13.000Z</time>
      </trkpt>
      <trkpt lat="43.39594" lon="5.48386">
        <ele>382</ele>
        <time>2011-04-09T07:24:18.001Z</time>
      </trkpt>
      <trkpt lat="43.39597" lon="5.48376">
        <ele>382</ele>
        <time>2011-04-09T07:24:23.000Z</time>
      </trkpt>
      <trkpt lat="43.39597" lon="5.48378">
        <ele>382</ele>
        <time>2011-04-09T07:24:28.000Z</time>
      </trkpt>
      <trkpt lat="43.39597" lon="5.48378">
        <ele>382</ele>
        <time>2011-04-09T07:24:33.001Z</time>
      </trkpt>
      <trkpt lat="43.396" lon="5.48384">
        <ele>382</ele>
        <time>2011-04-09T07:24:38.001Z</time>
      </trkpt>
      <trkpt lat="43.39603" lon="5.48385">
        <ele>382</ele>
        <time>2011-04-09T07:24:43.000Z</time>
      </trkpt>
      <trkpt lat="43.39607" lon="5.48384">
        <ele>383</ele>
        <time>2011-04-09T07:24:48.000Z</time>
      </trkpt>
      <trkpt lat="43.39607" lon="5.48383">
        <ele>383</ele>
        <time>2011-04-09T07:24:53.001Z</time>
      </trkpt>
      <trkpt lat="43.39614" lon="5.48373">
        <ele>383</ele>
        <time>2011-04-09T07:24:58.000Z</time>
      </trkpt>
      <trkpt lat="43.39618" lon="5.48374">
        <ele>383</ele>
        <time>2011-04-09T07:25:03.000Z</time>
      </trkpt>
      <trkpt lat="43.39618" lon="5.48374">
        <ele>383</ele>
        <time>2011-04-09T07:25:08.000Z</time>
      </trkpt>
      <trkpt lat="43.39618" lon="5.48374">
        <ele>383</ele>
        <time>2011-04-09T07:25:13.000Z</time>
      </trkpt>
      <trkpt lat="43.39618" lon="5.48374">
        <ele>383</ele>
        <time>2011-04-09T07:25:18.000Z</time>
      </trkpt>
      <trkpt lat="43.39618" lon="5.4836">
        <ele>384</ele>
        <time>2011-04-09T07:25:23.000Z</time>
      </trkpt>
      <trkpt lat="43.39619" lon="5.48359">
        <ele>384</ele>
        <time>2011-04-09T07:25:28.000Z</time>
      </trkpt>
      <trkpt lat="43.39619" lon="5.48359">
        <ele>384</ele>
        <time>2011-04-09T07:25:33.000Z</time>
      </trkpt>
      <trkpt lat="43.39619" lon="5.48359">
        <ele>384</ele>
        <time>2011-04-09T07:25:38.000Z</time>
      </trkpt>
      <trkpt lat="43.39619" lon="5.48359">
        <ele>384</ele>
        <time>2011-04-09T07:25:43.000Z</time>
      </trkpt>
      <trkpt lat="43.39625" lon="5.48371">
        <ele>384</ele>
        <time>2011-04-09T07:25:48.000Z</time>
      </trkpt>
      <trkpt lat="43.3963" lon="5.48373">
        <ele>384</ele>
        <time>2011-04-09T07:25:53.001Z</time>
      </trkpt>
      <trkpt lat="43.39634" lon="5.48372">
        <ele>384</ele>
        <time>2011-04-09T07:25:58.000Z</time>
      </trkpt>
      <trkpt lat="43.39634" lon="5.48372">
        <ele>384</ele>
        <time>2011-04-09T07:26:03.000Z</time>
      </trkpt>
      <trkpt lat="43.39634" lon="5.48372">
        <ele>384</ele>
        <time>2011-04-09T07:26:08.000Z</time>
      </trkpt>
      <trkpt lat="43.39639" lon="5.48385">
        <ele>384</ele>
        <time>2011-04-09T07:26:13.000Z</time>
      </trkpt>
      <trkpt lat="43.3964" lon="5.48388">
        <ele>385</ele>
        <time>2011-04-09T07:26:17.999Z</time>
      </trkpt>
      <trkpt lat="43.39643" lon="5.48391">
        <ele>385</ele>
        <time>2011-04-09T07:26:22.999Z</time>
      </trkpt>
      <trkpt lat="43.39649" lon="5.48392">
        <ele>385</ele>
        <time>2011-04-09T07:26:27.999Z</time>
      </trkpt>
      <trkpt lat="43.3965" lon="5.4839">
        <ele>385</ele>
        <time>2011-04-09T07:26:32.800Z</time>
      </trkpt>
      <trkpt lat="43.3965" lon="5.4839">
        <ele>385</ele>
        <time>2011-04-09T07:26:37.000Z</time>
      </trkpt>
      <trkpt lat="43.3965" lon="5.4839">
        <ele>385</ele>
        <time>2011-04-09T07:26:42.000Z</time>
      </trkpt>
      <trkpt lat="43.3965" lon="5.4839">
        <ele>385</ele>
        <time>2011-04-09T07:26:47.000Z</time>
      </trkpt>
      <trkpt lat="43.3965" lon="5.4839">
        <ele>385</ele>
        <time>2011-04-09T07:26:51.999Z</time>
      </trkpt>
      <trkpt lat="43.3965" lon="5.4839">
        <ele>385</ele>
        <time>2011-04-09T07:26:56.999Z</time>
      </trkpt>
      <trkpt lat="43.39684" lon="5.48369">
        <ele>390</ele>
        <time>2011-04-09T07:27:01.999Z</time>
      </trkpt>
      <trkpt lat="43.39684" lon="5.48368">
        <ele>390</ele>
        <time>2011-04-09T07:27:06.999Z</time>
      </trkpt>
      <trkpt lat="43.39684" lon="5.48368">
        <ele>390</ele>
        <time>2011-04-09T07:27:12.000Z</time>
      </trkpt>
      <trkpt lat="43.39684" lon="5.48368">
        <ele>390</ele>
        <time>2011-04-09T07:27:16.999Z</time>
      </trkpt>
      <trkpt lat="43.39684" lon="5.48368">
        <ele>390</ele>
        <time>2011-04-09T07:27:22.000Z</time>
      </trkpt>
      <trkpt lat="43.39684" lon="5.48368">
        <ele>390</ele>
        <time>2011-04-09T07:27:27.000Z</time>
      </trkpt>
      <trkpt lat="43.39684" lon="5.48368">
        <ele>390</ele>
        <time>2011-04-09T07:27:32.000Z</time>
      </trkpt>
      <trkpt lat="43.39684" lon="5.48368">
        <ele>390</ele>
        <time>2011-04-09T07:27:37.001Z</time>
      </trkpt>
      <trkpt lat="43.39694" lon="5.4834">
        <ele>389</ele>
        <time>2011-04-09T07:27:42.000Z</time>
      </trkpt>
      <trkpt lat="43.39699" lon="5.48339">
        <ele>389</ele>
        <time>2011-04-09T07:27:47.001Z</time>
      </trkpt>
      <trkpt lat="43.39703" lon="5.48339">
        <ele>390</ele>
        <time>2011-04-09T07:27:52.001Z</time>
      </trkpt>
      <trkpt lat="43.39708" lon="5.48338">
        <ele>390</ele>
        <time>2011-04-09T07:27:57.000Z</time>
      </trkpt>
      <trkpt lat="43.39713" lon="5.48337">
        <ele>390</ele>
        <time>2011-04-09T07:28:02.001Z</time>
      </trkpt>
      <trkpt lat="43.39717" lon="5.48334">
        <ele>390</ele>
        <time>2011-04-09T07:28:07.001Z</time>
      </trkpt>
      <trkpt lat="43.39723" lon="5.48332">
        <ele>393</ele>
        <time>2011-04-09T07:28:12.000Z</time>
      </trkpt>
      <trkpt lat="43.39723" lon="5.48332">
        <ele>393</ele>
        <time>2011-04-09T07:28:17.000Z</time>
      </trkpt>
      <trkpt lat="43.39723" lon="5.48332">
        <ele>393</ele>
        <time>2011-04-09T07:28:22.001Z</time>
      </trkpt>
      <trkpt lat="43.39723" lon="5.48332">
        <ele>393</ele>
        <time>2011-04-09T07:28:27.001Z</time>
      </trkpt>
      <trkpt lat="43.39723" lon="5.48332">
        <ele>393</ele>
        <time>2011-04-09T07:28:32.000Z</time>
      </trkpt>
      <trkpt lat="43.39746" lon="5.48325">
        <ele>391</ele>
        <time>2011-04-09T07:28:37.000Z</time>
      </trkpt>
      <trkpt lat="43.3975" lon="5.48325">
        <ele>392</ele>
        <time>2011-04-09T07:28:42.000Z</time>
      </trkpt>
      <trkpt lat="43.39755" lon="5.48331">
        <ele>391</ele>
        <time>2011-04-09T07:28:47.000Z</time>
      </trkpt>
      <trkpt lat="43.39759" lon="5.48331">
        <ele>392</ele>
        <time>2011-04-09T07:28:52.000Z</time>
      </trkpt>
      <trkpt lat="43.39759" lon="5.48331">
        <ele>392</ele>
        <time>2011-04-09T07:28:56.998Z</time>
      </trkpt>
      <trkpt lat="43.39759" lon="5.48331">
        <ele>392</ele>
        <time>2011-04-09T07:29:02.000Z</time>
      </trkpt>
      <trkpt lat="43.39778" lon="5.48334">
        <ele>394</ele>
        <time>2011-04-09T07:29:07.000Z</time>
      </trkpt>
      <trkpt lat="43.39786" lon="5.48343">
        <ele>395</ele>
        <time>2011-04-09T07:29:12.000Z</time>
      </trkpt>
      <trkpt lat="43.39793" lon="5.48347">
        <ele>396</ele>
        <time>2011-04-09T07:29:17.000Z</time>
      </trkpt>
      <trkpt lat="43.39796" lon="5.48351">
        <ele>396</ele>
        <time>2011-04-09T07:29:22.000Z</time>
      </trkpt>
      <trkpt lat="43.39799" lon="5.48357">
        <ele>396</ele>
        <time>2011-04-09T07:29:27.000Z</time>
      </trkpt>
      <trkpt lat="43.39802" lon="5.48359">
        <ele>396</ele>
        <time>2011-04-09T07:29:32.000Z</time>
      </trkpt>
      <trkpt lat="43.39802" lon="5.48359">
        <ele>396</ele>
        <time>2011-04-09T07:29:37.000Z</time>
      </trkpt>
      <trkpt lat="43.39802" lon="5.48359">
        <ele>396</ele>
        <time>2011-04-09T07:29:42.000Z</time>
      </trkpt>
      <trkpt lat="43.39816" lon="5.48371">
        <ele>397</ele>
        <time>2011-04-09T07:29:47.001Z</time>
      </trkpt>
      <trkpt lat="43.3982" lon="5.48377">
        <ele>398</ele>
        <time>2011-04-09T07:29:52.000Z</time>
      </trkpt>
      <trkpt lat="43.39823" lon="5.48377">
        <ele>398</ele>
        <time>2011-04-09T07:29:57.000Z</time>
      </trkpt>
      <trkpt lat="43.39823" lon="5.48377">
        <ele>398</ele>
        <time>2011-04-09T07:30:02.001Z</time>
      </trkpt>
      <trkpt lat="43.39834" lon="5.48381">
        <ele>401</ele>
        <time>2011-04-09T07:30:07.001Z</time>
      </trkpt>
      <trkpt lat="43.39836" lon="5.48387">
        <ele>402</ele>
        <time>2011-04-09T07:30:12.000Z</time>
      </trkpt>
      <trkpt lat="43.39835" lon="5.48384">
        <ele>402</ele>
        <time>2011-04-09T07:30:17.000Z</time>
      </trkpt>
      <trkpt lat="43.39835" lon="5.48384">
        <ele>402</ele>
        <time>2011-04-09T07:30:22.000Z</time>
      </trkpt>
      <trkpt lat="43.39849" lon="5.48393">
        <ele>402</ele>
        <time>2011-04-09T07:30:27.000Z</time>
      </trkpt>
      <trkpt lat="43.39852" lon="5.48397">
        <ele>402</ele>
        <time>2011-04-09T07:30:32.000Z</time>
      </trkpt>
      <trkpt lat="43.39857" lon="5.484">
        <ele>402</ele>
        <time>2011-04-09T07:30:37.001Z</time>
      </trkpt>
      <trkpt lat="43.3986" lon="5.48401">
        <ele>402</ele>
        <time>2011-04-09T07:30:42.001Z</time>
      </trkpt>
      <trkpt lat="43.39865" lon="5.48401">
        <ele>402</ele>
        <time>2011-04-09T07:30:47.000Z</time>
      </trkpt>
      <trkpt lat="43.39871" lon="5.48403">
        <ele>402</ele>
        <time>2011-04-09T07:30:51.999Z</time>
      </trkpt>
      <trkpt lat="43.39872" lon="5.48401">
        <ele>402</ele>
        <time>2011-04-09T07:30:57.000Z</time>
      </trkpt>
      <trkpt lat="43.39881" lon="5.48402">
        <ele>402</ele>
        <time>2011-04-09T07:31:02.000Z</time>
      </trkpt>
      <trkpt lat="43.39887" lon="5.48408">
        <ele>403</ele>
        <time>2011-04-09T07:31:07.001Z</time>
      </trkpt>
      <trkpt lat="43.3989" lon="5.48411">
        <ele>403</ele>
        <time>2011-04-09T07:31:12.001Z</time>
      </trkpt>
      <trkpt lat="43.3989" lon="5.48411">
        <ele>403</ele>
        <time>2011-04-09T07:31:17.001Z</time>
      </trkpt>
      <trkpt lat="43.3989" lon="5.48411">
        <ele>403</ele>
        <time>2011-04-09T07:31:22.001Z</time>
      </trkpt>
      <trkpt lat="43.39903" lon="5.48413">
        <ele>403</ele>
        <time>2011-04-09T07:31:27.001Z</time>
      </trkpt>
      <trkpt lat="43.39905" lon="5.48411">
        <ele>403</ele>
        <time>2011-04-09T07:31:32.000Z</time>
      </trkpt>
      <trkpt lat="43.39905" lon="5.48411">
        <ele>403</ele>
        <time>2011-04-09T07:31:37.001Z</time>
      </trkpt>
      <trkpt lat="43.39909" lon="5.48408">
        <ele>403</ele>
        <time>2011-04-09T07:31:42.001Z</time>
      </trkpt>
      <trkpt lat="43.39909" lon="5.48408">
        <ele>403</ele>
        <time>2011-04-09T07:31:47.000Z</time>
      </trkpt>
      <trkpt lat="43.39909" lon="5.48408">
        <ele>403</ele>
        <time>2011-04-09T07:31:52.000Z</time>
      </trkpt>
      <trkpt lat="43.39909" lon="5.48408">
        <ele>403</ele>
        <time>2011-04-09T07:31:57.000Z</time>
      </trkpt>
      <trkpt lat="43.39914" lon="5.48379">
        <ele>402</ele>
        <time>2011-04-09T07:32:02.000Z</time>
      </trkpt>
      <trkpt lat="43.39915" lon="5.48377">
        <ele>402</ele>
        <time>2011-04-09T07:32:07.000Z</time>
      </trkpt>
      <trkpt lat="43.39915" lon="5.48377">
        <ele>402</ele>
        <time>2011-04-09T07:32:12.000Z</time>
      </trkpt>
      <trkpt lat="43.39915" lon="5.48377">
        <ele>402</ele>
        <time>2011-04-09T07:32:17.000Z</time>
      </trkpt>
      <trkpt lat="43.39915" lon="5.48377">
        <ele>402</ele>
        <time>2011-04-09T07:32:22.000Z</time>
      </trkpt>
      <trkpt lat="43.39915" lon="5.48377">
        <ele>402</ele>
        <time>2011-04-09T07:32:27.000Z</time>
      </trkpt>
      <trkpt lat="43.39915" lon="5.48377">
        <ele>402</ele>
        <time>2011-04-09T07:32:32.000Z</time>
      </trkpt>
      <trkpt lat="43.39928" lon="5.48363">
        <ele>408</ele>
        <time>2011-04-09T07:32:37.000Z</time>
      </trkpt>
      <trkpt lat="43.39929" lon="5.48353">
        <ele>407</ele>
        <time>2011-04-09T07:32:42.000Z</time>
      </trkpt>
      <trkpt lat="43.39937" lon="5.4834">
        <ele>407</ele>
        <time>2011-04-09T07:32:47.000Z</time>
      </trkpt>
      <trkpt lat="43.39937" lon="5.4834">
        <ele>407</ele>
        <time>2011-04-09T07:32:52.000Z</time>
      </trkpt>
      <trkpt lat="43.39937" lon="5.4834">
        <ele>407</ele>
        <time>2011-04-09T07:32:57.001Z</time>
      </trkpt>
      <trkpt lat="43.39943" lon="5.48329">
        <ele>409</ele>
        <time>2011-04-09T07:33:02.000Z</time>
      </trkpt>
      <trkpt lat="43.39944" lon="5.48329">
        <ele>409</ele>
        <time>2011-04-09T07:33:07.000Z</time>
      </trkpt>
      <trkpt lat="43.39944" lon="5.48329">
        <ele>409</ele>
        <time>2011-04-09T07:33:12.000Z</time>
      </trkpt>
      <trkpt lat="43.39944" lon="5.48329">
        <ele>409</ele>
        <time>2011-04-09T07:33:17.000Z</time>
      </trkpt>
      <trkpt lat="43.39944" lon="5.48329">
        <ele>409</ele>
        <time>2011-04-09T07:33:22.000Z</time>
      </trkpt>
      <trkpt lat="43.39952" lon="5.48321">
        <ele>411</ele>
        <time>2011-04-09T07:33:27.000Z</time>
      </trkpt>
      <trkpt lat="43.39953" lon="5.48319">
        <ele>411</ele>
        <time>2011-04-09T07:33:32.000Z</time>
      </trkpt>
      <trkpt lat="43.39953" lon="5.48319">
        <ele>411</ele>
        <time>2011-04-09T07:33:37.000Z</time>
      </trkpt>
      <trkpt lat="43.39953" lon="5.48319">
        <ele>411</ele>
        <time>2011-04-09T07:33:42.000Z</time>
      </trkpt>
      <trkpt lat="43.39953" lon="5.48319">
        <ele>411</ele>
        <time>2011-04-09T07:33:46.800Z</time>
      </trkpt>
      <trkpt lat="43.39953" lon="5.48319">
        <ele>411</ele>
        <time>2011-04-09T07:33:52.000Z</time>
      </trkpt>
      <trkpt lat="43.39953" lon="5.48319">
        <ele>411</ele>
        <time>2011-04-09T07:33:57.000Z</time>
      </trkpt>
      <trkpt lat="43.39953" lon="5.48319">
        <ele>411</ele>
        <time>2011-04-09T07:34:02.000Z</time>
      </trkpt>
      <trkpt lat="43.39953" lon="5.48319">
        <ele>411</ele>
        <time>2011-04-09T07:34:07.001Z</time>
      </trkpt>
      <trkpt lat="43.39976" lon="5.48286">
        <ele>413</ele>
        <time>2011-04-09T07:34:12.001Z</time>
      </trkpt>
      <trkpt lat="43.39976" lon="5.48281">
        <ele>414</ele>
        <time>2011-04-09T07:34:17.001Z</time>
      </trkpt>
      <trkpt lat="43.39976" lon="5.48275">
        <ele>414</ele>
        <time>2011-04-09T07:34:22.001Z</time>
      </trkpt>
      <trkpt lat="43.39978" lon="5.48268">
        <ele>414</ele>
        <time>2011-04-09T07:34:27.001Z</time>
      </trkpt>
      <trkpt lat="43.3998" lon="5.48269">
        <ele>414</ele>
        <time>2011-04-09T07:34:31.800Z</time>
      </trkpt>
      <trkpt lat="43.39977" lon="5.48246">
        <ele>422</ele>
        <time>2011-04-09T07:34:36.000Z</time>
      </trkpt>
      <trkpt lat="43.39976" lon="5.4825">
        <ele>422</ele>
        <time>2011-04-09T07:34:41.000Z</time>
      </trkpt>
      <trkpt lat="43.39976" lon="5.4825">
        <ele>422</ele>
        <time>2011-04-09T07:34:46.000Z</time>
      </trkpt>
      <trkpt lat="43.39976" lon="5.4825">
        <ele>422</ele>
        <time>2011-04-09T07:34:51.000Z</time>
      </trkpt>
      <trkpt lat="43.39976" lon="5.4825">
        <ele>422</ele>
        <time>2011-04-09T07:34:56.000Z</time>
      </trkpt>
      <trkpt lat="43.39976" lon="5.4825">
        <ele>422</ele>
        <time>2011-04-09T07:35:01.000Z</time>
      </trkpt>
      <trkpt lat="43.39976" lon="5.4825">
        <ele>422</ele>
        <time>2011-04-09T07:35:06.001Z</time>
      </trkpt>
      <trkpt lat="43.39976" lon="5.4825">
        <ele>422</ele>
        <time>2011-04-09T07:35:11.001Z</time>
      </trkpt>
      <trkpt lat="43.39976" lon="5.4825">
        <ele>422</ele>
        <time>2011-04-09T07:35:16.001Z</time>
      </trkpt>
      <trkpt lat="43.39976" lon="5.4825">
        <ele>422</ele>
        <time>2011-04-09T07:35:21.001Z</time>
      </trkpt>
      <trkpt lat="43.39976" lon="5.4825">
        <ele>422</ele>
        <time>2011-04-09T07:35:26.000Z</time>
      </trkpt>
      <trkpt lat="43.39976" lon="5.4825">
        <ele>422</ele>
        <time>2011-04-09T07:35:31.000Z</time>
      </trkpt>
      <trkpt lat="43.39976" lon="5.4825">
        <ele>422</ele>
        <time>2011-04-09T07:35:36.000Z</time>
      </trkpt>
      <trkpt lat="43.39976" lon="5.4825">
        <ele>422</ele>
        <time>2011-04-09T07:35:41.000Z</time>
      </trkpt>
      <trkpt lat="43.39976" lon="5.4825">
        <ele>422</ele>
        <time>2011-04-09T07:35:46.000Z</time>
      </trkpt>
      <trkpt lat="43.39976" lon="5.4825">
        <ele>422</ele>
        <time>2011-04-09T07:35:51.000Z</time>
      </trkpt>
      <trkpt lat="43.39976" lon="5.4825">
        <ele>422</ele>
        <time>2011-04-09T07:35:56.001Z</time>
      </trkpt>
      <trkpt lat="43.39976" lon="5.4825">
        <ele>422</ele>
        <time>2011-04-09T07:36:01.000Z</time>
      </trkpt>
      <trkpt lat="43.39976" lon="5.4825">
        <ele>422</ele>
        <time>2011-04-09T07:36:06.001Z</time>
      </trkpt>
      <trkpt lat="43.39976" lon="5.4825">
        <ele>422</ele>
        <time>2011-04-09T07:36:11.001Z</time>
      </trkpt>
      <trkpt lat="43.39977" lon="5.48248">
        <ele>422</ele>
        <time>2011-04-09T07:36:16.001Z</time>
      </trkpt>
      <trkpt lat="43.39977" lon="5.48248">
        <ele>422</ele>
        <time>2011-04-09T07:36:21.000Z</time>
      </trkpt>
      <trkpt lat="43.39977" lon="5.48248">
        <ele>422</ele>
        <time>2011-04-09T07:36:26.000Z</time>
      </trkpt>
      <trkpt lat="43.39977" lon="5.48248">
        <ele>422</ele>
        <time>2011-04-09T07:36:31.000Z</time>
      </trkpt>
      <trkpt lat="43.39977" lon="5.48248">
        <ele>422</ele>
        <time>2011-04-09T07:36:36.000Z</time>
      </trkpt>
      <trkpt lat="43.39977" lon="5.48248">
        <ele>422</ele>
        <time>2011-04-09T07:36:41.000Z</time>
      </trkpt>
      <trkpt lat="43.39977" lon="5.48248">
        <ele>422</ele>
        <time>2011-04-09T07:36:46.000Z</time>
      </trkpt>
      <trkpt lat="43.39977" lon="5.48248">
        <ele>422</ele>
        <time>2011-04-09T07:36:51.000Z</time>
      </trkpt>
      <trkpt lat="43.39977" lon="5.48248">
        <ele>422</ele>
        <time>2011-04-09T07:36:56.000Z</time>
      </trkpt>
      <trkpt lat="43.39991" lon="5.48256">
        <ele>415</ele>
        <time>2011-04-09T07:37:01.000Z</time>
      </trkpt>
      <trkpt lat="43.39991" lon="5.48256">
        <ele>415</ele>
        <time>2011-04-09T07:37:06.000Z</time>
      </trkpt>
      <trkpt lat="43.39995" lon="5.48256">
        <ele>415</ele>
        <time>2011-04-09T07:37:10.999Z</time>
      </trkpt>
      <trkpt lat="43.39995" lon="5.48256">
        <ele>415</ele>
        <time>2011-04-09T07:37:16.000Z</time>
      </trkpt>
      <trkpt lat="43.39995" lon="5.48256">
        <ele>415</ele>
        <time>2011-04-09T07:37:21.000Z</time>
      </trkpt>
      <trkpt lat="43.39995" lon="5.48256">
        <ele>415</ele>
        <time>2011-04-09T07:37:26.000Z</time>
      </trkpt>
      <trkpt lat="43.39995" lon="5.48256">
        <ele>415</ele>
        <time>2011-04-09T07:37:31.000Z</time>
      </trkpt>
      <trkpt lat="43.39995" lon="5.48256">
        <ele>415</ele>
        <time>2011-04-09T07:37:36.000Z</time>
      </trkpt>
      <trkpt lat="43.39995" lon="5.48256">
        <ele>415</ele>
        <time>2011-04-09T07:37:41.000Z</time>
      </trkpt>
      <trkpt lat="43.39995" lon="5.48256">
        <ele>415</ele>
        <time>2011-04-09T07:37:46.000Z</time>
      </trkpt>
      <trkpt lat="43.39995" lon="5.48256">
        <ele>415</ele>
        <time>2011-04-09T07:37:51.000Z</time>
      </trkpt>
      <trkpt lat="43.39995" lon="5.48256">
        <ele>415</ele>
        <time>2011-04-09T07:37:56.000Z</time>
      </trkpt>
      <trkpt lat="43.39995" lon="5.48256">
        <ele>415</ele>
        <time>2011-04-09T07:38:01.000Z</time>
      </trkpt>
      <trkpt lat="43.39995" lon="5.48256">
        <ele>415</ele>
        <time>2011-04-09T07:38:06.000Z</time>
      </trkpt>
      <trkpt lat="43.39995" lon="5.48256">
        <ele>415</ele>
        <time>2011-04-09T07:38:11.000Z</time>
      </trkpt>
      <trkpt lat="43.39995" lon="5.48256">
        <ele>415</ele>
        <time>2011-04-09T07:38:16.000Z</time>
      </trkpt>
      <trkpt lat="43.39995" lon="5.48256">
        <ele>415</ele>
        <time>2011-04-09T07:38:21.000Z</time>
      </trkpt>
      <trkpt lat="43.39995" lon="5.48256">
        <ele>415</ele>
        <time>2011-04-09T07:38:26.000Z</time>
      </trkpt>
      <trkpt lat="43.39995" lon="5.48256">
        <ele>415</ele>
        <time>2011-04-09T07:38:31.000Z</time>
      </trkpt>
      <trkpt lat="43.39995" lon="5.48256">
        <ele>415</ele>
        <time>2011-04-09T07:38:36.000Z</time>
      </trkpt>
      <trkpt lat="43.39995" lon="5.48256">
        <ele>415</ele>
        <time>2011-04-09T07:38:41.000Z</time>
      </trkpt>
      <trkpt lat="43.39995" lon="5.48256">
        <ele>415</ele>
        <time>2011-04-09T07:38:46.000Z</time>
      </trkpt>
      <trkpt lat="43.39995" lon="5.48256">
        <ele>415</ele>
        <time>2011-04-09T07:38:51.000Z</time>
      </trkpt>
      <trkpt lat="43.39995" lon="5.48256">
        <ele>415</ele>
        <time>2011-04-09T07:38:56.000Z</time>
      </trkpt>
      <trkpt lat="43.39995" lon="5.48256">
        <ele>415</ele>
        <time>2011-04-09T07:39:01.000Z</time>
      </trkpt>
      <trkpt lat="43.39995" lon="5.48256">
        <ele>415</ele>
        <time>2011-04-09T07:39:06.000Z</time>
      </trkpt>
      <trkpt lat="43.39995" lon="5.48256">
        <ele>415</ele>
        <time>2011-04-09T07:39:11.000Z</time>
      </trkpt>
      <trkpt lat="43.39995" lon="5.48256">
        <ele>415</ele>
        <time>2011-04-09T07:39:16.000Z</time>
      </trkpt>
      <trkpt lat="43.39995" lon="5.48256">
        <ele>415</ele>
        <time>2011-04-09T07:39:21.000Z</time>
      </trkpt>
      <trkpt lat="43.39995" lon="5.48256">
        <ele>415</ele>
        <time>2011-04-09T07:39:26.000Z</time>
      </trkpt>
      <trkpt lat="43.39995" lon="5.48256">
        <ele>415</ele>
        <time>2011-04-09T07:39:31.000Z</time>
      </trkpt>
      <trkpt lat="43.39995" lon="5.48256">
        <ele>415</ele>
        <time>2011-04-09T07:39:36.000Z</time>
      </trkpt>
      <trkpt lat="43.39995" lon="5.48256">
        <ele>415</ele>
        <time>2011-04-09T07:39:41.000Z</time>
      </trkpt>
      <trkpt lat="43.39995" lon="5.48256">
        <ele>415</ele>
        <time>2011-04-09T07:39:46.001Z</time>
      </trkpt>
      <trkpt lat="43.39995" lon="5.48256">
        <ele>415</ele>
        <time>2011-04-09T07:39:51.001Z</time>
      </trkpt>
      <trkpt lat="43.39995" lon="5.48256">
        <ele>415</ele>
        <time>2011-04-09T07:39:56.001Z</time>
      </trkpt>
      <trkpt lat="43.39995" lon="5.48256">
        <ele>415</ele>
        <time>2011-04-09T07:40:01.000Z</time>
      </trkpt>
      <trkpt lat="43.39995" lon="5.48256">
        <ele>415</ele>
        <time>2011-04-09T07:40:06.000Z</time>
      </trkpt>
      <trkpt lat="43.39995" lon="5.48256">
        <ele>415</ele>
        <time>2011-04-09T07:40:10.800Z</time>
      </trkpt>
      <trkpt lat="43.39995" lon="5.48256">
        <ele>415</ele>
        <time>2011-04-09T07:40:16.000Z</time>
      </trkpt>
      <trkpt lat="43.39995" lon="5.48256">
        <ele>415</ele>
        <time>2011-04-09T07:40:21.000Z</time>
      </trkpt>
      <trkpt lat="43.39995" lon="5.48256">
        <ele>415</ele>
        <time>2011-04-09T07:40:26.001Z</time>
      </trkpt>
      <trkpt lat="43.39995" lon="5.48256">
        <ele>415</ele>
        <time>2011-04-09T07:40:31.000Z</time>
      </trkpt>
      <trkpt lat="43.39995" lon="5.48256">
        <ele>415</ele>
        <time>2011-04-09T07:40:36.000Z</time>
      </trkpt>
      <trkpt lat="43.39995" lon="5.48256">
        <ele>415</ele>
        <time>2011-04-09T07:40:41.000Z</time>
      </trkpt>
      <trkpt lat="43.39995" lon="5.48256">
        <ele>415</ele>
        <time>2011-04-09T07:40:46.000Z</time>
      </trkpt>
      <trkpt lat="43.39995" lon="5.48256">
        <ele>415</ele>
        <time>2011-04-09T07:40:51.000Z</time>
      </trkpt>
      <trkpt lat="43.39995" lon="5.48256">
        <ele>415</ele>
        <time>2011-04-09T07:40:56.000Z</time>
      </trkpt>
      <trkpt lat="43.39995" lon="5.48256">
        <ele>415</ele>
        <time>2011-04-09T07:41:01.000Z</time>
      </trkpt>
      <trkpt lat="43.39995" lon="5.48256">
        <ele>415</ele>
        <time>2011-04-09T07:41:06.000Z</time>
      </trkpt>
      <trkpt lat="43.39995" lon="5.48256">
        <ele>415</ele>
        <time>2011-04-09T07:41:11.000Z</time>
      </trkpt>
      <trkpt lat="43.39995" lon="5.48256">
        <ele>415</ele>
        <time>2011-04-09T07:41:16.000Z</time>
      </trkpt>
      <trkpt lat="43.39995" lon="5.48256">
        <ele>415</ele>
        <time>2011-04-09T07:41:21.000Z</time>
      </trkpt>
      <trkpt lat="43.39982" lon="5.4823">
        <ele>423</ele>
        <time>2011-04-09T07:41:26.000Z</time>
      </trkpt>
      <trkpt lat="43.39989" lon="5.4823">
        <ele>423</ele>
        <time>2011-04-09T07:41:31.000Z</time>
      </trkpt>
      <trkpt lat="43.39992" lon="5.48227">
        <ele>423</ele>
        <time>2011-04-09T07:41:36.000Z</time>
      </trkpt>
      <trkpt lat="43.39998" lon="5.4822">
        <ele>425</ele>
        <time>2011-04-09T07:41:41.000Z</time>
      </trkpt>
      <trkpt lat="43.40003" lon="5.48212">
        <ele>430</ele>
        <time>2011-04-09T07:41:46.000Z</time>
      </trkpt>
      <trkpt lat="43.40008" lon="5.48211">
        <ele>430</ele>
        <time>2011-04-09T07:41:51.000Z</time>
      </trkpt>
      <trkpt lat="43.40012" lon="5.48212">
        <ele>430</ele>
        <time>2011-04-09T07:41:55.800Z</time>
      </trkpt>
      <trkpt lat="43.40015" lon="5.48212">
        <ele>430</ele>
        <time>2011-04-09T07:42:01.000Z</time>
      </trkpt>
      <trkpt lat="43.40015" lon="5.48212">
        <ele>430</ele>
        <time>2011-04-09T07:42:06.000Z</time>
      </trkpt>
      <trkpt lat="43.40029" lon="5.48219">
        <ele>430</ele>
        <time>2011-04-09T07:42:11.001Z</time>
      </trkpt>
      <trkpt lat="43.40031" lon="5.4822">
        <ele>430</ele>
        <time>2011-04-09T07:42:16.000Z</time>
      </trkpt>
      <trkpt lat="43.40036" lon="5.48219">
        <ele>431</ele>
        <time>2011-04-09T07:42:21.000Z</time>
      </trkpt>
      <trkpt lat="43.40042" lon="5.48228">
        <ele>430</ele>
        <time>2011-04-09T07:42:26.000Z</time>
      </trkpt>
      <trkpt lat="43.40047" lon="5.48228">
        <ele>430</ele>
        <time>2011-04-09T07:42:31.000Z</time>
      </trkpt>
      <trkpt lat="43.40049" lon="5.48232">
        <ele>430</ele>
        <time>2011-04-09T07:42:36.001Z</time>
      </trkpt>
      <trkpt lat="43.4005" lon="5.48232">
        <ele>430</ele>
        <time>2011-04-09T07:42:41.000Z</time>
      </trkpt>
      <trkpt lat="43.4005" lon="5.48232">
        <ele>430</ele>
        <time>2011-04-09T07:42:46.000Z</time>
      </trkpt>
      <trkpt lat="43.40058" lon="5.48231">
        <ele>430</ele>
        <time>2011-04-09T07:42:51.000Z</time>
      </trkpt>
      <trkpt lat="43.40063" lon="5.48237">
        <ele>429</ele>
        <time>2011-04-09T07:42:56.000Z</time>
      </trkpt>
      <trkpt lat="43.40073" lon="5.48236">
        <ele>429</ele>
        <time>2011-04-09T07:43:01.000Z</time>
      </trkpt>
      <trkpt lat="43.40076" lon="5.48241">
        <ele>427</ele>
        <time>2011-04-09T07:43:06.000Z</time>
      </trkpt>
      <trkpt lat="43.40076" lon="5.48241">
        <ele>427</ele>
        <time>2011-04-09T07:43:11.000Z</time>
      </trkpt>
      <trkpt lat="43.40076" lon="5.48241">
        <ele>427</ele>
        <time>2011-04-09T07:43:15.999Z</time>
      </trkpt>
      <trkpt lat="43.40076" lon="5.48241">
        <ele>427</ele>
        <time>2011-04-09T07:43:21.000Z</time>
      </trkpt>
      <trkpt lat="43.40076" lon="5.48241">
        <ele>427</ele>
        <time>2011-04-09T07:43:26.000Z</time>
      </trkpt>
      <trkpt lat="43.40076" lon="5.48241">
        <ele>427</ele>
        <time>2011-04-09T07:43:31.000Z</time>
      </trkpt>
      <trkpt lat="43.40076" lon="5.48241">
        <ele>427</ele>
        <time>2011-04-09T07:43:36.000Z</time>
      </trkpt>
      <trkpt lat="43.40076" lon="5.48241">
        <ele>427</ele>
        <time>2011-04-09T07:43:41.001Z</time>
      </trkpt>
      <trkpt lat="43.40076" lon="5.48241">
        <ele>427</ele>
        <time>2011-04-09T07:43:46.001Z</time>
      </trkpt>
      <trkpt lat="43.40076" lon="5.48241">
        <ele>427</ele>
        <time>2011-04-09T07:43:51.001Z</time>
      </trkpt>
      <trkpt lat="43.40076" lon="5.48241">
        <ele>427</ele>
        <time>2011-04-09T07:43:56.001Z</time>
      </trkpt>
      <trkpt lat="43.4007" lon="5.48229">
        <ele>430</ele>
        <time>2011-04-09T07:44:01.000Z</time>
      </trkpt>
      <trkpt lat="43.4007" lon="5.48229">
        <ele>430</ele>
        <time>2011-04-09T07:44:06.001Z</time>
      </trkpt>
      <trkpt lat="43.4007" lon="5.48229">
        <ele>430</ele>
        <time>2011-04-09T07:44:11.001Z</time>
      </trkpt>
      <trkpt lat="43.4007" lon="5.48229">
        <ele>430</ele>
        <time>2011-04-09T07:44:16.001Z</time>
      </trkpt>
      <trkpt lat="43.4007" lon="5.48229">
        <ele>430</ele>
        <time>2011-04-09T07:44:21.000Z</time>
      </trkpt>
      <trkpt lat="43.4007" lon="5.48229">
        <ele>430</ele>
        <time>2011-04-09T07:44:26.001Z</time>
      </trkpt>
      <trkpt lat="43.40075" lon="5.48246">
        <ele>427</ele>
        <time>2011-04-09T07:44:31.000Z</time>
      </trkpt>
      <trkpt lat="43.40074" lon="5.4825">
        <ele>423</ele>
        <time>2011-04-09T07:44:36.000Z</time>
      </trkpt>
      <trkpt lat="43.40074" lon="5.4825">
        <ele>423</ele>
        <time>2011-04-09T07:44:41.000Z</time>
      </trkpt>
      <trkpt lat="43.40074" lon="5.4825">
        <ele>423</ele>
        <time>2011-04-09T07:44:46.000Z</time>
      </trkpt>
      <trkpt lat="43.40074" lon="5.48244">
        <ele>427</ele>
        <time>2011-04-09T07:44:52.000Z</time>
      </trkpt>
      <trkpt lat="43.40074" lon="5.48244">
        <ele>427</ele>
        <time>2011-04-09T07:44:57.000Z</time>
      </trkpt>
      <trkpt lat="43.40074" lon="5.48244">
        <ele>427</ele>
        <time>2011-04-09T07:45:02.000Z</time>
      </trkpt>
      <trkpt lat="43.40074" lon="5.48244">
        <ele>427</ele>
        <time>2011-04-09T07:45:07.000Z</time>
      </trkpt>
      <trkpt lat="43.40074" lon="5.48244">
        <ele>427</ele>
        <time>2011-04-09T07:45:12.000Z</time>
      </trkpt>
      <trkpt lat="43.40074" lon="5.48244">
        <ele>427</ele>
        <time>2011-04-09T07:45:17.000Z</time>
      </trkpt>
      <trkpt lat="43.40074" lon="5.48244">
        <ele>427</ele>
        <time>2011-04-09T07:45:22.000Z</time>
      </trkpt>
      <trkpt lat="43.40074" lon="5.48244">
        <ele>427</ele>
        <time>2011-04-09T07:45:27.000Z</time>
      </trkpt>
      <trkpt lat="43.40063" lon="5.48209">
        <ele>433</ele>
        <time>2011-04-09T07:45:32.000Z</time>
      </trkpt>
      <trkpt lat="43.40066" lon="5.48204">
        <ele>435</ele>
        <time>2011-04-09T07:45:36.999Z</time>
      </trkpt>
      <trkpt lat="43.40066" lon="5.48203">
        <ele>435</ele>
        <time>2011-04-09T07:45:42.000Z</time>
      </trkpt>
      <trkpt lat="43.40066" lon="5.48203">
        <ele>435</ele>
        <time>2011-04-09T07:45:47.000Z</time>
      </trkpt>
      <trkpt lat="43.40066" lon="5.48203">
        <ele>435</ele>
        <time>2011-04-09T07:45:52.000Z</time>
      </trkpt>
      <trkpt lat="43.40082" lon="5.48237">
        <ele>428</ele>
        <time>2011-04-09T07:45:56.999Z</time>
      </trkpt>
      <trkpt lat="43.40082" lon="5.48237">
        <ele>428</ele>
        <time>2011-04-09T07:46:01.999Z</time>
      </trkpt>
      <trkpt lat="43.40087" lon="5.48238">
        <ele>432</ele>
        <time>2011-04-09T07:46:07.000Z</time>
      </trkpt>
      <trkpt lat="43.40087" lon="5.48238">
        <ele>432</ele>
        <time>2011-04-09T07:46:12.000Z</time>
      </trkpt>
      <trkpt lat="43.40087" lon="5.48238">
        <ele>432</ele>
        <time>2011-04-09T07:46:17.000Z</time>
      </trkpt>
      <trkpt lat="43.40087" lon="5.48238">
        <ele>432</ele>
        <time>2011-04-09T07:46:22.000Z</time>
      </trkpt>
      <trkpt lat="43.40097" lon="5.48243">
        <ele>433</ele>
        <time>2011-04-09T07:46:27.000Z</time>
      </trkpt>
      <trkpt lat="43.40097" lon="5.48243">
        <ele>433</ele>
        <time>2011-04-09T07:46:32.000Z</time>
      </trkpt>
      <trkpt lat="43.40102" lon="5.4824">
        <ele>436</ele>
        <time>2011-04-09T07:46:37.000Z</time>
      </trkpt>
      <trkpt lat="43.40109" lon="5.48233">
        <ele>439</ele>
        <time>2011-04-09T07:46:42.000Z</time>
      </trkpt>
      <trkpt lat="43.40109" lon="5.48233">
        <ele>439</ele>
        <time>2011-04-09T07:46:47.000Z</time>
      </trkpt>
      <trkpt lat="43.40109" lon="5.48233">
        <ele>439</ele>
        <time>2011-04-09T07:46:52.000Z</time>
      </trkpt>
      <trkpt lat="43.40109" lon="5.48233">
        <ele>439</ele>
        <time>2011-04-09T07:46:57.000Z</time>
      </trkpt>
      <trkpt lat="43.40136" lon="5.48232">
        <ele>442</ele>
        <time>2011-04-09T07:47:01.999Z</time>
      </trkpt>
      <trkpt lat="43.40136" lon="5.48232">
        <ele>442</ele>
        <time>2011-04-09T07:47:07.000Z</time>
      </trkpt>
      <trkpt lat="43.40145" lon="5.48235">
        <ele>442</ele>
        <time>2011-04-09T07:47:12.000Z</time>
      </trkpt>
      <trkpt lat="43.4015" lon="5.48232">
        <ele>443</ele>
        <time>2011-04-09T07:47:17.000Z</time>
      </trkpt>
      <trkpt lat="43.40152" lon="5.48228">
        <ele>443</ele>
        <time>2011-04-09T07:47:22.000Z</time>
      </trkpt>
      <trkpt lat="43.40152" lon="5.48228">
        <ele>443</ele>
        <time>2011-04-09T07:47:27.000Z</time>
      </trkpt>
      <trkpt lat="43.40152" lon="5.48228">
        <ele>443</ele>
        <time>2011-04-09T07:47:32.000Z</time>
      </trkpt>
      <trkpt lat="43.40152" lon="5.48228">
        <ele>443</ele>
        <time>2011-04-09T07:47:36.999Z</time>
      </trkpt>
      <trkpt lat="43.40155" lon="5.48235">
        <ele>442</ele>
        <time>2011-04-09T07:47:42.000Z</time>
      </trkpt>
      <trkpt lat="43.40159" lon="5.48231">
        <ele>443</ele>
        <time>2011-04-09T07:47:47.000Z</time>
      </trkpt>
      <trkpt lat="43.40161" lon="5.48227">
        <ele>444</ele>
        <time>2011-04-09T07:47:52.000Z</time>
      </trkpt>
      <trkpt lat="43.40166" lon="5.48217">
        <ele>446</ele>
        <time>2011-04-09T07:47:56.999Z</time>
      </trkpt>
      <trkpt lat="43.4017" lon="5.48215">
        <ele>454</ele>
        <time>2011-04-09T07:48:02.000Z</time>
      </trkpt>
      <trkpt lat="43.40175" lon="5.48218">
        <ele>453</ele>
        <time>2011-04-09T07:48:06.999Z</time>
      </trkpt>
      <trkpt lat="43.40176" lon="5.48216">
        <ele>454</ele>
        <time>2011-04-09T07:48:11.800Z</time>
      </trkpt>
      <trkpt lat="43.40176" lon="5.48216">
        <ele>454</ele>
        <time>2011-04-09T07:48:16.000Z</time>
      </trkpt>
      <trkpt lat="43.40176" lon="5.48216">
        <ele>454</ele>
        <time>2011-04-09T07:48:21.000Z</time>
      </trkpt>
      <trkpt lat="43.40176" lon="5.48216">
        <ele>454</ele>
        <time>2011-04-09T07:48:26.001Z</time>
      </trkpt>
      <trkpt lat="43.40176" lon="5.48216">
        <ele>454</ele>
        <time>2011-04-09T07:48:31.000Z</time>
      </trkpt>
      <trkpt lat="43.40176" lon="5.48216">
        <ele>454</ele>
        <time>2011-04-09T07:48:36.000Z</time>
      </trkpt>
      <trkpt lat="43.40176" lon="5.48216">
        <ele>454</ele>
        <time>2011-04-09T07:48:41.000Z</time>
      </trkpt>
      <trkpt lat="43.40176" lon="5.48216">
        <ele>454</ele>
        <time>2011-04-09T07:48:45.999Z</time>
      </trkpt>
      <trkpt lat="43.40176" lon="5.48216">
        <ele>454</ele>
        <time>2011-04-09T07:48:51.000Z</time>
      </trkpt>
      <trkpt lat="43.40176" lon="5.48216">
        <ele>454</ele>
        <time>2011-04-09T07:48:56.000Z</time>
      </trkpt>
      <trkpt lat="43.40176" lon="5.48216">
        <ele>454</ele>
        <time>2011-04-09T07:49:01.000Z</time>
      </trkpt>
      <trkpt lat="43.40193" lon="5.48227">
        <ele>452</ele>
        <time>2011-04-09T07:49:06.000Z</time>
      </trkpt>
      <trkpt lat="43.40195" lon="5.48226">
        <ele>453</ele>
        <time>2011-04-09T07:49:11.000Z</time>
      </trkpt>
      <trkpt lat="43.40198" lon="5.4822">
        <ele>454</ele>
        <time>2011-04-09T07:49:16.000Z</time>
      </trkpt>
      <trkpt lat="43.40199" lon="5.48217">
        <ele>455</ele>
        <time>2011-04-09T07:49:21.000Z</time>
      </trkpt>
      <trkpt lat="43.40199" lon="5.48217">
        <ele>455</ele>
        <time>2011-04-09T07:49:26.000Z</time>
      </trkpt>
      <trkpt lat="43.40199" lon="5.48217">
        <ele>455</ele>
        <time>2011-04-09T07:49:31.000Z</time>
      </trkpt>
      <trkpt lat="43.40199" lon="5.48217">
        <ele>455</ele>
        <time>2011-04-09T07:49:36.000Z</time>
      </trkpt>
      <trkpt lat="43.40199" lon="5.48217">
        <ele>455</ele>
        <time>2011-04-09T07:49:40.999Z</time>
      </trkpt>
      <trkpt lat="43.40212" lon="5.48197">
        <ele>459</ele>
        <time>2011-04-09T07:49:46.000Z</time>
      </trkpt>
      <trkpt lat="43.40216" lon="5.48193">
        <ele>460</ele>
        <time>2011-04-09T07:49:50.999Z</time>
      </trkpt>
      <trkpt lat="43.40218" lon="5.48193">
        <ele>460</ele>
        <time>2011-04-09T07:49:56.000Z</time>
      </trkpt>
      <trkpt lat="43.40218" lon="5.48193">
        <ele>460</ele>
        <time>2011-04-09T07:50:01.000Z</time>
      </trkpt>
      <trkpt lat="43.40218" lon="5.48193">
        <ele>460</ele>
        <time>2011-04-09T07:50:06.000Z</time>
      </trkpt>
      <trkpt lat="43.40218" lon="5.48193">
        <ele>460</ele>
        <time>2011-04-09T07:50:10.800Z</time>
      </trkpt>
      <trkpt lat="43.40218" lon="5.48193">
        <ele>460</ele>
        <time>2011-04-09T07:50:15.000Z</time>
      </trkpt>
      <trkpt lat="43.40218" lon="5.48193">
        <ele>460</ele>
        <time>2011-04-09T07:50:20.000Z</time>
      </trkpt>
      <trkpt lat="43.40218" lon="5.48193">
        <ele>460</ele>
        <time>2011-04-09T07:50:25.000Z</time>
      </trkpt>
      <trkpt lat="43.40218" lon="5.48193">
        <ele>460</ele>
        <time>2011-04-09T07:50:30.000Z</time>
      </trkpt>
      <trkpt lat="43.40218" lon="5.48193">
        <ele>460</ele>
        <time>2011-04-09T07:50:35.000Z</time>
      </trkpt>
      <trkpt lat="43.40218" lon="5.48193">
        <ele>460</ele>
        <time>2011-04-09T07:50:40.000Z</time>
      </trkpt>
      <trkpt lat="43.40218" lon="5.48193">
        <ele>460</ele>
        <time>2011-04-09T07:50:45.000Z</time>
      </trkpt>
      <trkpt lat="43.40218" lon="5.48193">
        <ele>460</ele>
        <time>2011-04-09T07:50:50.000Z</time>
      </trkpt>
      <trkpt lat="43.40218" lon="5.48193">
        <ele>460</ele>
        <time>2011-04-09T07:50:54.999Z</time>
      </trkpt>
      <trkpt lat="43.40218" lon="5.48193">
        <ele>460</ele>
        <time>2011-04-09T07:51:00.001Z</time>
      </trkpt>
      <trkpt lat="43.40218" lon="5.48193">
        <ele>460</ele>
        <time>2011-04-09T07:51:05.000Z</time>
      </trkpt>
      <trkpt lat="43.40218" lon="5.48193">
        <ele>460</ele>
        <time>2011-04-09T07:51:10.000Z</time>
      </trkpt>
      <trkpt lat="43.40259" lon="5.48196">
        <ele>471</ele>
        <time>2011-04-09T07:51:15.001Z</time>
      </trkpt>
      <trkpt lat="43.40262" lon="5.48194">
        <ele>472</ele>
        <time>2011-04-09T07:51:20.000Z</time>
      </trkpt>
      <trkpt lat="43.40262" lon="5.48194">
        <ele>472</ele>
        <time>2011-04-09T07:51:25.000Z</time>
      </trkpt>
      <trkpt lat="43.40262" lon="5.48194">
        <ele>472</ele>
        <time>2011-04-09T07:51:30.000Z</time>
      </trkpt>
      <trkpt lat="43.40262" lon="5.48194">
        <ele>472</ele>
        <time>2011-04-09T07:51:35.001Z</time>
      </trkpt>
      <trkpt lat="43.40262" lon="5.48194">
        <ele>472</ele>
        <time>2011-04-09T07:51:40.001Z</time>
      </trkpt>
      <trkpt lat="43.40262" lon="5.48194">
        <ele>472</ele>
        <time>2011-04-09T07:51:45.000Z</time>
      </trkpt>
      <trkpt lat="43.40262" lon="5.48194">
        <ele>472</ele>
        <time>2011-04-09T07:51:50.000Z</time>
      </trkpt>
      <trkpt lat="43.40262" lon="5.48194">
        <ele>472</ele>
        <time>2011-04-09T07:51:55.001Z</time>
      </trkpt>
      <trkpt lat="43.40262" lon="5.48194">
        <ele>472</ele>
        <time>2011-04-09T07:52:00.000Z</time>
      </trkpt>
      <trkpt lat="43.40262" lon="5.48194">
        <ele>472</ele>
        <time>2011-04-09T07:52:05.000Z</time>
      </trkpt>
      <trkpt lat="43.40262" lon="5.48194">
        <ele>472</ele>
        <time>2011-04-09T07:52:10.000Z</time>
      </trkpt>
      <trkpt lat="43.40262" lon="5.48194">
        <ele>472</ele>
        <time>2011-04-09T07:52:15.000Z</time>
      </trkpt>
      <trkpt lat="43.40262" lon="5.48194">
        <ele>472</ele>
        <time>2011-04-09T07:52:20.000Z</time>
      </trkpt>
      <trkpt lat="43.40262" lon="5.48194">
        <ele>472</ele>
        <time>2011-04-09T07:52:25.002Z</time>
      </trkpt>
      <trkpt lat="43.40262" lon="5.48194">
        <ele>472</ele>
        <time>2011-04-09T07:52:30.000Z</time>
      </trkpt>
      <trkpt lat="43.40262" lon="5.48194">
        <ele>472</ele>
        <time>2011-04-09T07:52:35.000Z</time>
      </trkpt>
      <trkpt lat="43.40262" lon="5.48194">
        <ele>472</ele>
        <time>2011-04-09T07:52:40.000Z</time>
      </trkpt>
      <trkpt lat="43.40262" lon="5.48194">
        <ele>472</ele>
        <time>2011-04-09T07:52:45.000Z</time>
      </trkpt>
      <trkpt lat="43.40262" lon="5.48194">
        <ele>472</ele>
        <time>2011-04-09T07:52:50.000Z</time>
      </trkpt>
      <trkpt lat="43.40262" lon="5.48194">
        <ele>472</ele>
        <time>2011-04-09T07:52:55.000Z</time>
      </trkpt>
      <trkpt lat="43.40262" lon="5.48194">
        <ele>472</ele>
        <time>2011-04-09T07:52:59.999Z</time>
      </trkpt>
      <trkpt lat="43.40262" lon="5.48194">
        <ele>472</ele>
        <time>2011-04-09T07:53:04.999Z</time>
      </trkpt>
      <trkpt lat="43.40262" lon="5.48194">
        <ele>472</ele>
        <time>2011-04-09T07:53:10.000Z</time>
      </trkpt>
      <trkpt lat="43.40272" lon="5.48199">
        <ele>472</ele>
        <time>2011-04-09T07:53:15.000Z</time>
      </trkpt>
      <trkpt lat="43.40272" lon="5.48199">
        <ele>472</ele>
        <time>2011-04-09T07:53:19.999Z</time>
      </trkpt>
      <trkpt lat="43.40272" lon="5.48199">
        <ele>472</ele>
        <time>2011-04-09T07:53:25.000Z</time>
      </trkpt>
      <trkpt lat="43.4028" lon="5.48184">
        <ele>474</ele>
        <time>2011-04-09T07:53:30.000Z</time>
      </trkpt>
      <trkpt lat="43.40282" lon="5.48184">
        <ele>475</ele>
        <time>2011-04-09T07:53:35.000Z</time>
      </trkpt>
      <trkpt lat="43.40282" lon="5.48184">
        <ele>475</ele>
        <time>2011-04-09T07:53:40.001Z</time>
      </trkpt>
      <trkpt lat="43.40282" lon="5.48184">
        <ele>475</ele>
        <time>2011-04-09T07:53:45.000Z</time>
      </trkpt>
      <trkpt lat="43.40282" lon="5.48184">
        <ele>475</ele>
        <time>2011-04-09T07:53:50.000Z</time>
      </trkpt>
      <trkpt lat="43.40282" lon="5.48184">
        <ele>475</ele>
        <time>2011-04-09T07:53:55.000Z</time>
      </trkpt>
      <trkpt lat="43.40282" lon="5.48184">
        <ele>475</ele>
        <time>2011-04-09T07:54:00.000Z</time>
      </trkpt>
      <trkpt lat="43.40282" lon="5.48184">
        <ele>475</ele>
        <time>2011-04-09T07:54:05.000Z</time>
      </trkpt>
      <trkpt lat="43.40282" lon="5.48184">
        <ele>475</ele>
        <time>2011-04-09T07:54:10.000Z</time>
      </trkpt>
      <trkpt lat="43.40282" lon="5.48184">
        <ele>475</ele>
        <time>2011-04-09T07:54:15.000Z</time>
      </trkpt>
      <trkpt lat="43.40282" lon="5.48184">
        <ele>475</ele>
        <time>2011-04-09T07:54:20.003Z</time>
      </trkpt>
      <trkpt lat="43.4028" lon="5.48179">
        <ele>475</ele>
        <time>2011-04-09T07:54:25.000Z</time>
      </trkpt>
      <trkpt lat="43.40275" lon="5.48179">
        <ele>474</ele>
        <time>2011-04-09T07:54:30.000Z</time>
      </trkpt>
      <trkpt lat="43.40275" lon="5.48179">
        <ele>474</ele>
        <time>2011-04-09T07:54:35.000Z</time>
      </trkpt>
      <trkpt lat="43.40275" lon="5.48179">
        <ele>474</ele>
        <time>2011-04-09T07:54:40.000Z</time>
      </trkpt>
      <trkpt lat="43.40275" lon="5.48179">
        <ele>474</ele>
        <time>2011-04-09T07:54:45.001Z</time>
      </trkpt>
      <trkpt lat="43.40275" lon="5.48179">
        <ele>474</ele>
        <time>2011-04-09T07:54:50.000Z</time>
      </trkpt>
      <trkpt lat="43.40275" lon="5.48179">
        <ele>474</ele>
        <time>2011-04-09T07:54:55.000Z</time>
      </trkpt>
      <trkpt lat="43.40275" lon="5.48179">
        <ele>474</ele>
        <time>2011-04-09T07:55:00.000Z</time>
      </trkpt>
      <trkpt lat="43.40275" lon="5.48179">
        <ele>474</ele>
        <time>2011-04-09T07:55:05.000Z</time>
      </trkpt>
      <trkpt lat="43.40275" lon="5.48179">
        <ele>474</ele>
        <time>2011-04-09T07:55:10.000Z</time>
      </trkpt>
      <trkpt lat="43.40275" lon="5.48179">
        <ele>474</ele>
        <time>2011-04-09T07:55:15.000Z</time>
      </trkpt>
      <trkpt lat="43.40275" lon="5.48179">
        <ele>474</ele>
        <time>2011-04-09T07:55:20.000Z</time>
      </trkpt>
      <trkpt lat="43.40275" lon="5.48179">
        <ele>474</ele>
        <time>2011-04-09T07:55:25.000Z</time>
      </trkpt>
      <trkpt lat="43.40264" lon="5.48168">
        <ele>473</ele>
        <time>2011-04-09T07:55:30.000Z</time>
      </trkpt>
      <trkpt lat="43.40264" lon="5.48163">
        <ele>483</ele>
        <time>2011-04-09T07:55:35.000Z</time>
      </trkpt>
      <trkpt lat="43.40264" lon="5.48163">
        <ele>483</ele>
        <time>2011-04-09T07:55:40.000Z</time>
      </trkpt>
      <trkpt lat="43.40256" lon="5.48166">
        <ele>478</ele>
        <time>2011-04-09T07:55:45.000Z</time>
      </trkpt>
      <trkpt lat="43.40254" lon="5.48169">
        <ele>473</ele>
        <time>2011-04-09T07:55:50.000Z</time>
      </trkpt>
      <trkpt lat="43.40254" lon="5.48169">
        <ele>473</ele>
        <time>2011-04-09T07:55:55.000Z</time>
      </trkpt>
      <trkpt lat="43.40261" lon="5.48158">
        <ele>483</ele>
        <time>2011-04-09T07:56:00.000Z</time>
      </trkpt>
      <trkpt lat="43.4026" lon="5.48159">
        <ele>482</ele>
        <time>2011-04-09T07:56:05.001Z</time>
      </trkpt>
      <trkpt lat="43.4026" lon="5.48159">
        <ele>482</ele>
        <time>2011-04-09T07:56:10.000Z</time>
      </trkpt>
      <trkpt lat="43.4026" lon="5.48159">
        <ele>482</ele>
        <time>2011-04-09T07:56:15.000Z</time>
      </trkpt>
      <trkpt lat="43.4026" lon="5.48159">
        <ele>482</ele>
        <time>2011-04-09T07:56:20.001Z</time>
      </trkpt>
      <trkpt lat="43.4026" lon="5.48159">
        <ele>482</ele>
        <time>2011-04-09T07:56:25.000Z</time>
      </trkpt>
      <trkpt lat="43.4026" lon="5.48159">
        <ele>482</ele>
        <time>2011-04-09T07:56:30.000Z</time>
      </trkpt>
      <trkpt lat="43.4026" lon="5.48159">
        <ele>482</ele>
        <time>2011-04-09T07:56:35.000Z</time>
      </trkpt>
      <trkpt lat="43.4026" lon="5.48159">
        <ele>482</ele>
        <time>2011-04-09T07:56:40.000Z</time>
      </trkpt>
      <trkpt lat="43.4026" lon="5.48159">
        <ele>482</ele>
        <time>2011-04-09T07:56:45.000Z</time>
      </trkpt>
      <trkpt lat="43.4026" lon="5.48159">
        <ele>482</ele>
        <time>2011-04-09T07:56:50.000Z</time>
      </trkpt>
      <trkpt lat="43.4026" lon="5.48159">
        <ele>482</ele>
        <time>2011-04-09T07:56:55.001Z</time>
      </trkpt>
      <trkpt lat="43.4026" lon="5.48159">
        <ele>482</ele>
        <time>2011-04-09T07:57:00.001Z</time>
      </trkpt>
      <trkpt lat="43.4026" lon="5.48159">
        <ele>482</ele>
        <time>2011-04-09T07:57:05.001Z</time>
      </trkpt>
      <trkpt lat="43.4026" lon="5.48159">
        <ele>482</ele>
        <time>2011-04-09T07:57:10.001Z</time>
      </trkpt>
      <trkpt lat="43.4026" lon="5.48159">
        <ele>482</ele>
        <time>2011-04-09T07:57:15.001Z</time>
      </trkpt>
      <trkpt lat="43.4026" lon="5.48159">
        <ele>482</ele>
        <time>2011-04-09T07:57:20.001Z</time>
      </trkpt>
      <trkpt lat="43.4026" lon="5.48159">
        <ele>482</ele>
        <time>2011-04-09T07:57:25.001Z</time>
      </trkpt>
      <trkpt lat="43.4026" lon="5.48159">
        <ele>482</ele>
        <time>2011-04-09T07:57:30.001Z</time>
      </trkpt>
      <trkpt lat="43.4026" lon="5.48159">
        <ele>482</ele>
        <time>2011-04-09T07:57:34.997Z</time>
      </trkpt>
      <trkpt lat="43.4026" lon="5.48159">
        <ele>482</ele>
        <time>2011-04-09T07:57:40.000Z</time>
      </trkpt>
      <trkpt lat="43.4026" lon="5.48159">
        <ele>482</ele>
        <time>2011-04-09T07:57:44.999Z</time>
      </trkpt>
      <trkpt lat="43.4026" lon="5.48159">
        <ele>482</ele>
        <time>2011-04-09T07:57:50.001Z</time>
      </trkpt>
      <trkpt lat="43.4026" lon="5.48159">
        <ele>482</ele>
        <time>2011-04-09T07:57:55.001Z</time>
      </trkpt>
      <trkpt lat="43.4026" lon="5.48159">
        <ele>482</ele>
        <time>2011-04-09T07:58:00.000Z</time>
      </trkpt>
      <trkpt lat="43.4026" lon="5.48159">
        <ele>482</ele>
        <time>2011-04-09T07:58:05.001Z</time>
      </trkpt>
      <trkpt lat="43.4026" lon="5.48159">
        <ele>482</ele>
        <time>2011-04-09T07:58:10.000Z</time>
      </trkpt>
      <trkpt lat="43.4026" lon="5.48159">
        <ele>482</ele>
        <time>2011-04-09T07:58:15.000Z</time>
      </trkpt>
      <trkpt lat="43.4026" lon="5.48159">
        <ele>482</ele>
        <time>2011-04-09T07:58:20.000Z</time>
      </trkpt>
      <trkpt lat="43.4026" lon="5.48159">
        <ele>482</ele>
        <time>2011-04-09T07:58:25.000Z</time>
      </trkpt>
      <trkpt lat="43.4026" lon="5.48159">
        <ele>482</ele>
        <time>2011-04-09T07:58:30.000Z</time>
      </trkpt>
      <trkpt lat="43.4026" lon="5.48159">
        <ele>482</ele>
        <time>2011-04-09T07:58:35.000Z</time>
      </trkpt>
      <trkpt lat="43.4026" lon="5.48159">
        <ele>482</ele>
        <time>2011-04-09T07:58:40.000Z</time>
      </trkpt>
      <trkpt lat="43.4026" lon="5.48159">
        <ele>482</ele>
        <time>2011-04-09T07:58:45.000Z</time>
      </trkpt>
      <trkpt lat="43.4026" lon="5.48159">
        <ele>482</ele>
        <time>2011-04-09T07:58:50.000Z</time>
      </trkpt>
      <trkpt lat="43.4026" lon="5.48159">
        <ele>482</ele>
        <time>2011-04-09T07:58:55.000Z</time>
      </trkpt>
      <trkpt lat="43.4026" lon="5.48159">
        <ele>482</ele>
        <time>2011-04-09T07:59:00.001Z</time>
      </trkpt>
      <trkpt lat="43.4026" lon="5.48159">
        <ele>482</ele>
        <time>2011-04-09T07:59:05.000Z</time>
      </trkpt>
      <trkpt lat="43.40254" lon="5.4816">
        <ele>479</ele>
        <time>2011-04-09T07:59:10.001Z</time>
      </trkpt>
      <trkpt lat="43.40252" lon="5.4815">
        <ele>484</ele>
        <time>2011-04-09T07:59:15.000Z</time>
      </trkpt>
      <trkpt lat="43.40252" lon="5.48145">
        <ele>486</ele>
        <time>2011-04-09T07:59:20.000Z</time>
      </trkpt>
      <trkpt lat="43.40252" lon="5.48141">
        <ele>487</ele>
        <time>2011-04-09T07:59:25.001Z</time>
      </trkpt>
      <trkpt lat="43.40252" lon="5.48141">
        <ele>487</ele>
        <time>2011-04-09T07:59:30.000Z</time>
      </trkpt>
      <trkpt lat="43.40252" lon="5.48141">
        <ele>487</ele>
        <time>2011-04-09T07:59:35.001Z</time>
      </trkpt>
      <trkpt lat="43.40252" lon="5.48141">
        <ele>487</ele>
        <time>2011-04-09T07:59:40.000Z</time>
      </trkpt>
      <trkpt lat="43.40252" lon="5.48141">
        <ele>487</ele>
        <time>2011-04-09T07:59:45.000Z</time>
      </trkpt>
      <trkpt lat="43.40242" lon="5.48117">
        <ele>486</ele>
        <time>2011-04-09T07:59:50.000Z</time>
      </trkpt>
      <trkpt lat="43.40237" lon="5.4812">
        <ele>486</ele>
        <time>2011-04-09T07:59:55.000Z</time>
      </trkpt>
      <trkpt lat="43.40234" lon="5.48112">
        <ele>487</ele>
        <time>2011-04-09T08:00:00.001Z</time>
      </trkpt>
      <trkpt lat="43.40231" lon="5.48105">
        <ele>488</ele>
        <time>2011-04-09T08:00:05.000Z</time>
      </trkpt>
      <trkpt lat="43.4023" lon="5.48105">
        <ele>488</ele>
        <time>2011-04-09T08:00:10.001Z</time>
      </trkpt>
      <trkpt lat="43.40228" lon="5.48097">
        <ele>489</ele>
        <time>2011-04-09T08:00:15.000Z</time>
      </trkpt>
      <trkpt lat="43.40228" lon="5.48097">
        <ele>489</ele>
        <time>2011-04-09T08:00:19.999Z</time>
      </trkpt>
      <trkpt lat="43.40228" lon="5.48097">
        <ele>489</ele>
        <time>2011-04-09T08:00:25.001Z</time>
      </trkpt>
      <trkpt lat="43.40228" lon="5.48097">
        <ele>489</ele>
        <time>2011-04-09T08:00:30.001Z</time>
      </trkpt>
      <trkpt lat="43.40226" lon="5.48091">
        <ele>490</ele>
        <time>2011-04-09T08:00:35.000Z</time>
      </trkpt>
      <trkpt lat="43.40222" lon="5.48085">
        <ele>490</ele>
        <time>2011-04-09T08:00:40.000Z</time>
      </trkpt>
      <trkpt lat="43.40221" lon="5.48084">
        <ele>490</ele>
        <time>2011-04-09T08:00:45.000Z</time>
      </trkpt>
      <trkpt lat="43.40225" lon="5.48078">
        <ele>501</ele>
        <time>2011-04-09T08:00:50.000Z</time>
      </trkpt>
      <trkpt lat="43.40226" lon="5.48071">
        <ele>501</ele>
        <time>2011-04-09T08:00:55.001Z</time>
      </trkpt>
      <trkpt lat="43.40226" lon="5.48071">
        <ele>501</ele>
        <time>2011-04-09T08:01:00.000Z</time>
      </trkpt>
      <trkpt lat="43.40226" lon="5.48071">
        <ele>501</ele>
        <time>2011-04-09T08:01:05.000Z</time>
      </trkpt>
      <trkpt lat="43.40226" lon="5.48071">
        <ele>501</ele>
        <time>2011-04-09T08:01:10.000Z</time>
      </trkpt>
      <trkpt lat="43.40221" lon="5.48061">
        <ele>503</ele>
        <time>2011-04-09T08:01:15.000Z</time>
      </trkpt>
      <trkpt lat="43.4022" lon="5.48061">
        <ele>503</ele>
        <time>2011-04-09T08:01:20.001Z</time>
      </trkpt>
      <trkpt lat="43.4022" lon="5.48061">
        <ele>503</ele>
        <time>2011-04-09T08:01:25.000Z</time>
      </trkpt>
      <trkpt lat="43.4022" lon="5.48061">
        <ele>503</ele>
        <time>2011-04-09T08:01:30.001Z</time>
      </trkpt>
      <trkpt lat="43.4022" lon="5.48061">
        <ele>503</ele>
        <time>2011-04-09T08:01:35.000Z</time>
      </trkpt>
      <trkpt lat="43.4022" lon="5.48061">
        <ele>503</ele>
        <time>2011-04-09T08:01:40.000Z</time>
      </trkpt>
      <trkpt lat="43.4022" lon="5.48061">
        <ele>503</ele>
        <time>2011-04-09T08:01:45.000Z</time>
      </trkpt>
      <trkpt lat="43.4022" lon="5.48061">
        <ele>503</ele>
        <time>2011-04-09T08:01:50.000Z</time>
      </trkpt>
      <trkpt lat="43.4022" lon="5.48061">
        <ele>503</ele>
        <time>2011-04-09T08:01:55.000Z</time>
      </trkpt>
      <trkpt lat="43.4022" lon="5.48061">
        <ele>503</ele>
        <time>2011-04-09T08:02:00.000Z</time>
      </trkpt>
      <trkpt lat="43.4022" lon="5.48061">
        <ele>503</ele>
        <time>2011-04-09T08:02:05.000Z</time>
      </trkpt>
      <trkpt lat="43.40219" lon="5.48034">
        <ele>505</ele>
        <time>2011-04-09T08:02:10.000Z</time>
      </trkpt>
      <trkpt lat="43.40219" lon="5.48033">
        <ele>505</ele>
        <time>2011-04-09T08:02:15.000Z</time>
      </trkpt>
      <trkpt lat="43.40215" lon="5.48027">
        <ele>506</ele>
        <time>2011-04-09T08:02:20.000Z</time>
      </trkpt>
      <trkpt lat="43.40215" lon="5.48021">
        <ele>506</ele>
        <time>2011-04-09T08:02:25.000Z</time>
      </trkpt>
      <trkpt lat="43.40215" lon="5.48021">
        <ele>506</ele>
        <time>2011-04-09T08:02:30.000Z</time>
      </trkpt>
      <trkpt lat="43.40215" lon="5.48021">
        <ele>506</ele>
        <time>2011-04-09T08:02:35.000Z</time>
      </trkpt>
      <trkpt lat="43.40215" lon="5.48021">
        <ele>506</ele>
        <time>2011-04-09T08:02:40.000Z</time>
      </trkpt>
      <trkpt lat="43.40215" lon="5.48021">
        <ele>506</ele>
        <time>2011-04-09T08:02:45.000Z</time>
      </trkpt>
      <trkpt lat="43.40209" lon="5.48009">
        <ele>507</ele>
        <time>2011-04-09T08:02:50.000Z</time>
      </trkpt>
      <trkpt lat="43.40209" lon="5.48002">
        <ele>508</ele>
        <time>2011-04-09T08:02:55.000Z</time>
      </trkpt>
      <trkpt lat="43.40209" lon="5.48002">
        <ele>508</ele>
        <time>2011-04-09T08:02:59.999Z</time>
      </trkpt>
      <trkpt lat="43.40209" lon="5.48002">
        <ele>508</ele>
        <time>2011-04-09T08:03:05.000Z</time>
      </trkpt>
      <trkpt lat="43.40209" lon="5.48002">
        <ele>508</ele>
        <time>2011-04-09T08:03:10.000Z</time>
      </trkpt>
      <trkpt lat="43.40209" lon="5.48002">
        <ele>508</ele>
        <time>2011-04-09T08:03:15.000Z</time>
      </trkpt>
      <trkpt lat="43.40209" lon="5.48002">
        <ele>508</ele>
        <time>2011-04-09T08:03:20.000Z</time>
      </trkpt>
      <trkpt lat="43.40209" lon="5.48002">
        <ele>508</ele>
        <time>2011-04-09T08:03:25.000Z</time>
      </trkpt>
      <trkpt lat="43.40209" lon="5.48002">
        <ele>508</ele>
        <time>2011-04-09T08:03:30.000Z</time>
      </trkpt>
      <trkpt lat="43.40209" lon="5.48002">
        <ele>508</ele>
        <time>2011-04-09T08:03:35.000Z</time>
      </trkpt>
      <trkpt lat="43.40209" lon="5.48002">
        <ele>508</ele>
        <time>2011-04-09T08:03:40.000Z</time>
      </trkpt>
      <trkpt lat="43.40209" lon="5.48002">
        <ele>508</ele>
        <time>2011-04-09T08:03:45.000Z</time>
      </trkpt>
      <trkpt lat="43.40209" lon="5.48002">
        <ele>508</ele>
        <time>2011-04-09T08:03:50.000Z</time>
      </trkpt>
      <trkpt lat="43.40209" lon="5.48002">
        <ele>508</ele>
        <time>2011-04-09T08:03:55.000Z</time>
      </trkpt>
      <trkpt lat="43.40209" lon="5.48002">
        <ele>508</ele>
        <time>2011-04-09T08:04:00.000Z</time>
      </trkpt>
      <trkpt lat="43.40209" lon="5.48002">
        <ele>508</ele>
        <time>2011-04-09T08:04:05.000Z</time>
      </trkpt>
      <trkpt lat="43.40209" lon="5.48002">
        <ele>508</ele>
        <time>2011-04-09T08:04:10.000Z</time>
      </trkpt>
      <trkpt lat="43.40209" lon="5.48002">
        <ele>508</ele>
        <time>2011-04-09T08:04:15.000Z</time>
      </trkpt>
      <trkpt lat="43.40209" lon="5.48002">
        <ele>508</ele>
        <time>2011-04-09T08:04:20.000Z</time>
      </trkpt>
      <trkpt lat="43.40209" lon="5.48002">
        <ele>508</ele>
        <time>2011-04-09T08:04:25.000Z</time>
      </trkpt>
      <trkpt lat="43.40209" lon="5.48002">
        <ele>508</ele>
        <time>2011-04-09T08:04:30.000Z</time>
      </trkpt>
      <trkpt lat="43.40209" lon="5.48002">
        <ele>508</ele>
        <time>2011-04-09T08:04:35.001Z</time>
      </trkpt>
      <trkpt lat="43.40209" lon="5.48002">
        <ele>508</ele>
        <time>2011-04-09T08:04:40.000Z</time>
      </trkpt>
      <trkpt lat="43.40209" lon="5.48002">
        <ele>508</ele>
        <time>2011-04-09T08:04:45.000Z</time>
      </trkpt>
      <trkpt lat="43.40209" lon="5.48002">
        <ele>508</ele>
        <time>2011-04-09T08:04:50.001Z</time>
      </trkpt>
      <trkpt lat="43.40209" lon="5.48002">
        <ele>508</ele>
        <time>2011-04-09T08:04:55.000Z</time>
      </trkpt>
      <trkpt lat="43.40209" lon="5.48002">
        <ele>508</ele>
        <time>2011-04-09T08:05:00.000Z</time>
      </trkpt>
      <trkpt lat="43.40209" lon="5.48002">
        <ele>508</ele>
        <time>2011-04-09T08:05:05.000Z</time>
      </trkpt>
      <trkpt lat="43.40209" lon="5.48002">
        <ele>508</ele>
        <time>2011-04-09T08:05:10.000Z</time>
      </trkpt>
      <trkpt lat="43.40209" lon="5.48002">
        <ele>508</ele>
        <time>2011-04-09T08:05:15.000Z</time>
      </trkpt>
      <trkpt lat="43.40209" lon="5.48002">
        <ele>508</ele>
        <time>2011-04-09T08:05:20.000Z</time>
      </trkpt>
      <trkpt lat="43.40209" lon="5.48002">
        <ele>508</ele>
        <time>2011-04-09T08:05:25.000Z</time>
      </trkpt>
      <trkpt lat="43.40209" lon="5.48002">
        <ele>508</ele>
        <time>2011-04-09T08:05:30.000Z</time>
      </trkpt>
      <trkpt lat="43.40209" lon="5.48002">
        <ele>508</ele>
        <time>2011-04-09T08:05:35.000Z</time>
      </trkpt>
      <trkpt lat="43.40209" lon="5.48002">
        <ele>508</ele>
        <time>2011-04-09T08:05:40.000Z</time>
      </trkpt>
      <trkpt lat="43.40209" lon="5.48002">
        <ele>508</ele>
        <time>2011-04-09T08:05:45.000Z</time>
      </trkpt>
      <trkpt lat="43.40209" lon="5.48002">
        <ele>508</ele>
        <time>2011-04-09T08:05:49.800Z</time>
      </trkpt>
      <trkpt lat="43.40209" lon="5.48002">
        <ele>508</ele>
        <time>2011-04-09T08:05:55.000Z</time>
      </trkpt>
      <trkpt lat="43.40209" lon="5.48002">
        <ele>508</ele>
        <time>2011-04-09T08:06:00.000Z</time>
      </trkpt>
      <trkpt lat="43.40209" lon="5.48002">
        <ele>508</ele>
        <time>2011-04-09T08:06:05.000Z</time>
      </trkpt>
      <trkpt lat="43.40209" lon="5.48002">
        <ele>508</ele>
        <time>2011-04-09T08:06:10.000Z</time>
      </trkpt>
      <trkpt lat="43.40209" lon="5.48002">
        <ele>508</ele>
        <time>2011-04-09T08:06:15.000Z</time>
      </trkpt>
      <trkpt lat="43.40209" lon="5.48002">
        <ele>508</ele>
        <time>2011-04-09T08:06:20.000Z</time>
      </trkpt>
      <trkpt lat="43.40209" lon="5.48002">
        <ele>508</ele>
        <time>2011-04-09T08:06:25.000Z</time>
      </trkpt>
      <trkpt lat="43.40209" lon="5.48002">
        <ele>508</ele>
        <time>2011-04-09T08:06:30.000Z</time>
      </trkpt>
      <trkpt lat="43.40209" lon="5.48002">
        <ele>508</ele>
        <time>2011-04-09T08:06:35.000Z</time>
      </trkpt>
      <trkpt lat="43.40209" lon="5.48002">
        <ele>508</ele>
        <time>2011-04-09T08:06:40.000Z</time>
      </trkpt>
      <trkpt lat="43.40209" lon="5.48002">
        <ele>508</ele>
        <time>2011-04-09T08:06:45.001Z</time>
      </trkpt>
      <trkpt lat="43.40209" lon="5.48002">
        <ele>508</ele>
        <time>2011-04-09T08:06:50.000Z</time>
      </trkpt>
      <trkpt lat="43.40209" lon="5.48002">
        <ele>508</ele>
        <time>2011-04-09T08:06:55.000Z</time>
      </trkpt>
      <trkpt lat="43.40209" lon="5.48002">
        <ele>508</ele>
        <time>2011-04-09T08:06:59.999Z</time>
      </trkpt>
      <trkpt lat="43.40207" lon="5.47947">
        <ele>516</ele>
        <time>2011-04-09T08:07:04.999Z</time>
      </trkpt>
      <trkpt lat="43.40206" lon="5.47947">
        <ele>516</ele>
        <time>2011-04-09T08:07:09.999Z</time>
      </trkpt>
      <trkpt lat="43.40206" lon="5.47947">
        <ele>516</ele>
        <time>2011-04-09T08:07:14.999Z</time>
      </trkpt>
      <trkpt lat="43.40209" lon="5.47941">
        <ele>516</ele>
        <time>2011-04-09T08:07:19.999Z</time>
      </trkpt>
      <trkpt lat="43.40209" lon="5.47941">
        <ele>516</ele>
        <time>2011-04-09T08:07:24.999Z</time>
      </trkpt>
      <trkpt lat="43.40209" lon="5.47941">
        <ele>516</ele>
        <time>2011-04-09T08:07:29.999Z</time>
      </trkpt>
      <trkpt lat="43.40209" lon="5.47941">
        <ele>516</ele>
        <time>2011-04-09T08:07:34.999Z</time>
      </trkpt>
      <trkpt lat="43.40209" lon="5.47941">
        <ele>516</ele>
        <time>2011-04-09T08:07:40.002Z</time>
      </trkpt>
      <trkpt lat="43.40209" lon="5.47941">
        <ele>516</ele>
        <time>2011-04-09T08:07:45.001Z</time>
      </trkpt>
      <trkpt lat="43.40209" lon="5.47941">
        <ele>516</ele>
        <time>2011-04-09T08:07:50.000Z</time>
      </trkpt>
      <trkpt lat="43.40209" lon="5.47941">
        <ele>516</ele>
        <time>2011-04-09T08:07:55.001Z</time>
      </trkpt>
      <trkpt lat="43.40209" lon="5.47941">
        <ele>516</ele>
        <time>2011-04-09T08:08:00.001Z</time>
      </trkpt>
      <trkpt lat="43.40209" lon="5.47941">
        <ele>516</ele>
        <time>2011-04-09T08:08:05.000Z</time>
      </trkpt>
      <trkpt lat="43.40195" lon="5.47922">
        <ele>518</ele>
        <time>2011-04-09T08:08:10.000Z</time>
      </trkpt>
      <trkpt lat="43.40195" lon="5.47922">
        <ele>518</ele>
        <time>2011-04-09T08:08:15.000Z</time>
      </trkpt>
      <trkpt lat="43.40195" lon="5.47922">
        <ele>518</ele>
        <time>2011-04-09T08:08:20.000Z</time>
      </trkpt>
      <trkpt lat="43.40188" lon="5.47917">
        <ele>523</ele>
        <time>2011-04-09T08:08:25.000Z</time>
      </trkpt>
      <trkpt lat="43.40187" lon="5.47916">
        <ele>523</ele>
        <time>2011-04-09T08:08:30.000Z</time>
      </trkpt>
      <trkpt lat="43.40187" lon="5.47916">
        <ele>523</ele>
        <time>2011-04-09T08:08:35.000Z</time>
      </trkpt>
      <trkpt lat="43.40187" lon="5.47916">
        <ele>523</ele>
        <time>2011-04-09T08:08:40.000Z</time>
      </trkpt>
      <trkpt lat="43.40187" lon="5.47916">
        <ele>523</ele>
        <time>2011-04-09T08:08:45.000Z</time>
      </trkpt>
      <trkpt lat="43.40187" lon="5.47916">
        <ele>523</ele>
        <time>2011-04-09T08:08:50.000Z</time>
      </trkpt>
      <trkpt lat="43.40187" lon="5.47916">
        <ele>523</ele>
        <time>2011-04-09T08:08:55.000Z</time>
      </trkpt>
      <trkpt lat="43.40187" lon="5.47916">
        <ele>523</ele>
        <time>2011-04-09T08:09:00.000Z</time>
      </trkpt>
      <trkpt lat="43.40187" lon="5.47916">
        <ele>523</ele>
        <time>2011-04-09T08:09:05.000Z</time>
      </trkpt>
      <trkpt lat="43.40187" lon="5.47916">
        <ele>523</ele>
        <time>2011-04-09T08:09:10.000Z</time>
      </trkpt>
      <trkpt lat="43.40187" lon="5.47916">
        <ele>523</ele>
        <time>2011-04-09T08:09:15.000Z</time>
      </trkpt>
      <trkpt lat="43.40187" lon="5.47916">
        <ele>523</ele>
        <time>2011-04-09T08:09:20.001Z</time>
      </trkpt>
      <trkpt lat="43.40187" lon="5.47916">
        <ele>523</ele>
        <time>2011-04-09T08:09:25.000Z</time>
      </trkpt>
      <trkpt lat="43.40187" lon="5.47916">
        <ele>523</ele>
        <time>2011-04-09T08:09:30.000Z</time>
      </trkpt>
      <trkpt lat="43.40187" lon="5.47916">
        <ele>523</ele>
        <time>2011-04-09T08:09:35.001Z</time>
      </trkpt>
      <trkpt lat="43.40187" lon="5.47916">
        <ele>523</ele>
        <time>2011-04-09T08:09:40.000Z</time>
      </trkpt>
      <trkpt lat="43.40188" lon="5.47887">
        <ele>524</ele>
        <time>2011-04-09T08:09:45.000Z</time>
      </trkpt>
      <trkpt lat="43.40189" lon="5.47886">
        <ele>524</ele>
        <time>2011-04-09T08:09:50.000Z</time>
      </trkpt>
      <trkpt lat="43.40189" lon="5.47886">
        <ele>524</ele>
        <time>2011-04-09T08:09:55.000Z</time>
      </trkpt>
      <trkpt lat="43.40184" lon="5.47882">
        <ele>524</ele>
        <time>2011-04-09T08:10:00.000Z</time>
      </trkpt>
      <trkpt lat="43.40183" lon="5.47877">
        <ele>524</ele>
        <time>2011-04-09T08:10:05.000Z</time>
      </trkpt>
      <trkpt lat="43.40182" lon="5.47871">
        <ele>525</ele>
        <time>2011-04-09T08:10:10.001Z</time>
      </trkpt>
      <trkpt lat="43.4018" lon="5.47885">
        <ele>524</ele>
        <time>2011-04-09T08:10:15.000Z</time>
      </trkpt>
      <trkpt lat="43.40178" lon="5.47883">
        <ele>524</ele>
        <time>2011-04-09T08:10:20.000Z</time>
      </trkpt>
      <trkpt lat="43.40178" lon="5.47876">
        <ele>524</ele>
        <time>2011-04-09T08:10:25.000Z</time>
      </trkpt>
      <trkpt lat="43.40178" lon="5.47875">
        <ele>524</ele>
        <time>2011-04-09T08:10:30.000Z</time>
      </trkpt>
      <trkpt lat="43.40176" lon="5.47879">
        <ele>524</ele>
        <time>2011-04-09T08:10:35.000Z</time>
      </trkpt>
      <trkpt lat="43.40176" lon="5.47879">
        <ele>524</ele>
        <time>2011-04-09T08:10:39.998Z</time>
      </trkpt>
      <trkpt lat="43.40174" lon="5.47878">
        <ele>524</ele>
        <time>2011-04-09T08:10:45.000Z</time>
      </trkpt>
      <trkpt lat="43.40174" lon="5.47879">
        <ele>524</ele>
        <time>2011-04-09T08:10:50.000Z</time>
      </trkpt>
      <trkpt lat="43.40174" lon="5.47879">
        <ele>524</ele>
        <time>2011-04-09T08:10:54.999Z</time>
      </trkpt>
      <trkpt lat="43.40174" lon="5.47879">
        <ele>524</ele>
        <time>2011-04-09T08:11:00.001Z</time>
      </trkpt>
      <trkpt lat="43.40174" lon="5.47879">
        <ele>524</ele>
        <time>2011-04-09T08:11:05.001Z</time>
      </trkpt>
      <trkpt lat="43.40174" lon="5.47879">
        <ele>524</ele>
        <time>2011-04-09T08:11:10.000Z</time>
      </trkpt>
      <trkpt lat="43.40174" lon="5.47879">
        <ele>524</ele>
        <time>2011-04-09T08:11:15.001Z</time>
      </trkpt>
      <trkpt lat="43.40174" lon="5.47879">
        <ele>524</ele>
        <time>2011-04-09T08:11:20.000Z</time>
      </trkpt>
      <trkpt lat="43.40163" lon="5.47874">
        <ele>532</ele>
        <time>2011-04-09T08:11:25.000Z</time>
      </trkpt>
      <trkpt lat="43.40165" lon="5.47871">
        <ele>532</ele>
        <time>2011-04-09T08:11:30.000Z</time>
      </trkpt>
      <trkpt lat="43.40165" lon="5.47871">
        <ele>532</ele>
        <time>2011-04-09T08:11:35.000Z</time>
      </trkpt>
      <trkpt lat="43.40168" lon="5.47864">
        <ele>525</ele>
        <time>2011-04-09T08:11:40.001Z</time>
      </trkpt>
      <trkpt lat="43.40168" lon="5.47864">
        <ele>525</ele>
        <time>2011-04-09T08:11:45.000Z</time>
      </trkpt>
      <trkpt lat="43.40162" lon="5.47859">
        <ele>532</ele>
        <time>2011-04-09T08:11:50.000Z</time>
      </trkpt>
      <trkpt lat="43.40163" lon="5.47858">
        <ele>532</ele>
        <time>2011-04-09T08:11:55.000Z</time>
      </trkpt>
      <trkpt lat="43.40163" lon="5.47858">
        <ele>532</ele>
        <time>2011-04-09T08:12:00.000Z</time>
      </trkpt>
      <trkpt lat="43.40157" lon="5.47855">
        <ele>532</ele>
        <time>2011-04-09T08:12:05.000Z</time>
      </trkpt>
      <trkpt lat="43.40154" lon="5.47859">
        <ele>532</ele>
        <time>2011-04-09T08:12:10.000Z</time>
      </trkpt>
      <trkpt lat="43.40151" lon="5.47858">
        <ele>533</ele>
        <time>2011-04-09T08:12:15.000Z</time>
      </trkpt>
      <trkpt lat="43.40148" lon="5.47855">
        <ele>533</ele>
        <time>2011-04-09T08:12:20.001Z</time>
      </trkpt>
      <trkpt lat="43.40148" lon="5.47856">
        <ele>533</ele>
        <time>2011-04-09T08:12:25.000Z</time>
      </trkpt>
      <trkpt lat="43.40148" lon="5.47856">
        <ele>533</ele>
        <time>2011-04-09T08:12:30.000Z</time>
      </trkpt>
      <trkpt lat="43.40144" lon="5.4785">
        <ele>533</ele>
        <time>2011-04-09T08:12:35.000Z</time>
      </trkpt>
      <trkpt lat="43.40143" lon="5.47847">
        <ele>534</ele>
        <time>2011-04-09T08:12:40.001Z</time>
      </trkpt>
      <trkpt lat="43.40143" lon="5.47847">
        <ele>534</ele>
        <time>2011-04-09T08:12:45.001Z</time>
      </trkpt>
      <trkpt lat="43.40143" lon="5.47847">
        <ele>534</ele>
        <time>2011-04-09T08:12:50.000Z</time>
      </trkpt>
      <trkpt lat="43.40138" lon="5.47838">
        <ele>534</ele>
        <time>2011-04-09T08:12:55.001Z</time>
      </trkpt>
      <trkpt lat="43.40136" lon="5.47834">
        <ele>535</ele>
        <time>2011-04-09T08:13:00.000Z</time>
      </trkpt>
      <trkpt lat="43.40134" lon="5.47827">
        <ele>541</ele>
        <time>2011-04-09T08:13:05.000Z</time>
      </trkpt>
      <trkpt lat="43.40131" lon="5.47825">
        <ele>541</ele>
        <time>2011-04-09T08:13:10.001Z</time>
      </trkpt>
      <trkpt lat="43.40129" lon="5.4782">
        <ele>542</ele>
        <time>2011-04-09T08:13:15.001Z</time>
      </trkpt>
      <trkpt lat="43.40126" lon="5.47814">
        <ele>543</ele>
        <time>2011-04-09T08:13:20.000Z</time>
      </trkpt>
      <trkpt lat="43.40125" lon="5.47814">
        <ele>543</ele>
        <time>2011-04-09T08:13:25.000Z</time>
      </trkpt>
      <trkpt lat="43.40125" lon="5.47814">
        <ele>543</ele>
        <time>2011-04-09T08:13:30.001Z</time>
      </trkpt>
      <trkpt lat="43.40119" lon="5.47814">
        <ele>544</ele>
        <time>2011-04-09T08:13:35.000Z</time>
      </trkpt>
      <trkpt lat="43.40115" lon="5.47808">
        <ele>545</ele>
        <time>2011-04-09T08:13:40.000Z</time>
      </trkpt>
      <trkpt lat="43.40116" lon="5.47803">
        <ele>545</ele>
        <time>2011-04-09T08:13:45.001Z</time>
      </trkpt>
      <trkpt lat="43.40115" lon="5.47795">
        <ele>545</ele>
        <time>2011-04-09T08:13:50.000Z</time>
      </trkpt>
      <trkpt lat="43.40115" lon="5.47795">
        <ele>545</ele>
        <time>2011-04-09T08:13:55.000Z</time>
      </trkpt>
      <trkpt lat="43.40112" lon="5.47785">
        <ele>546</ele>
        <time>2011-04-09T08:14:00.000Z</time>
      </trkpt>
      <trkpt lat="43.40112" lon="5.47778">
        <ele>546</ele>
        <time>2011-04-09T08:14:05.001Z</time>
      </trkpt>
      <trkpt lat="43.40111" lon="5.47771">
        <ele>547</ele>
        <time>2011-04-09T08:14:10.000Z</time>
      </trkpt>
      <trkpt lat="43.40106" lon="5.47767">
        <ele>548</ele>
        <time>2011-04-09T08:14:15.000Z</time>
      </trkpt>
      <trkpt lat="43.40103" lon="5.47765">
        <ele>549</ele>
        <time>2011-04-09T08:14:20.000Z</time>
      </trkpt>
      <trkpt lat="43.40105" lon="5.47757">
        <ele>549</ele>
        <time>2011-04-09T08:14:25.000Z</time>
      </trkpt>
      <trkpt lat="43.40105" lon="5.4775">
        <ele>553</ele>
        <time>2011-04-09T08:14:30.000Z</time>
      </trkpt>
      <trkpt lat="43.40106" lon="5.47744">
        <ele>553</ele>
        <time>2011-04-09T08:14:35.001Z</time>
      </trkpt>
      <trkpt lat="43.40103" lon="5.4774">
        <ele>554</ele>
        <time>2011-04-09T08:14:40.000Z</time>
      </trkpt>
      <trkpt lat="43.40101" lon="5.47738">
        <ele>554</ele>
        <time>2011-04-09T08:14:45.000Z</time>
      </trkpt>
      <trkpt lat="43.40101" lon="5.47738">
        <ele>554</ele>
        <time>2011-04-09T08:14:50.000Z</time>
      </trkpt>
      <trkpt lat="43.40098" lon="5.4773">
        <ele>554</ele>
        <time>2011-04-09T08:14:55.000Z</time>
      </trkpt>
      <trkpt lat="43.40098" lon="5.47727">
        <ele>554</ele>
        <time>2011-04-09T08:15:00.001Z</time>
      </trkpt>
      <trkpt lat="43.40098" lon="5.47727">
        <ele>554</ele>
        <time>2011-04-09T08:15:05.000Z</time>
      </trkpt>
      <trkpt lat="43.40102" lon="5.47715">
        <ele>553</ele>
        <time>2011-04-09T08:15:10.000Z</time>
      </trkpt>
      <trkpt lat="43.40102" lon="5.47715">
        <ele>553</ele>
        <time>2011-04-09T08:15:15.000Z</time>
      </trkpt>
      <trkpt lat="43.40102" lon="5.47708">
        <ele>554</ele>
        <time>2011-04-09T08:15:20.001Z</time>
      </trkpt>
      <trkpt lat="43.40102" lon="5.47706">
        <ele>554</ele>
        <time>2011-04-09T08:15:25.000Z</time>
      </trkpt>
      <trkpt lat="43.40102" lon="5.47706">
        <ele>554</ele>
        <time>2011-04-09T08:15:30.000Z</time>
      </trkpt>
      <trkpt lat="43.40102" lon="5.47706">
        <ele>554</ele>
        <time>2011-04-09T08:15:35.001Z</time>
      </trkpt>
      <trkpt lat="43.40102" lon="5.47706">
        <ele>554</ele>
        <time>2011-04-09T08:15:40.000Z</time>
      </trkpt>
      <trkpt lat="43.40099" lon="5.47685">
        <ele>555</ele>
        <time>2011-04-09T08:15:45.000Z</time>
      </trkpt>
      <trkpt lat="43.40098" lon="5.47676">
        <ele>556</ele>
        <time>2011-04-09T08:15:50.001Z</time>
      </trkpt>
      <trkpt lat="43.40099" lon="5.47672">
        <ele>556</ele>
        <time>2011-04-09T08:15:55.001Z</time>
      </trkpt>
      <trkpt lat="43.40099" lon="5.47672">
        <ele>556</ele>
        <time>2011-04-09T08:16:00.000Z</time>
      </trkpt>
      <trkpt lat="43.40097" lon="5.47654">
        <ele>554</ele>
        <time>2011-04-09T08:16:05.000Z</time>
      </trkpt>
      <trkpt lat="43.40101" lon="5.47647">
        <ele>553</ele>
        <time>2011-04-09T08:16:10.000Z</time>
      </trkpt>
      <trkpt lat="43.40107" lon="5.47643">
        <ele>553</ele>
        <time>2011-04-09T08:16:15.000Z</time>
      </trkpt>
      <trkpt lat="43.40113" lon="5.47639">
        <ele>552</ele>
        <time>2011-04-09T08:16:20.000Z</time>
      </trkpt>
      <trkpt lat="43.40114" lon="5.47638">
        <ele>552</ele>
        <time>2011-04-09T08:16:25.000Z</time>
      </trkpt>
      <trkpt lat="43.40118" lon="5.47627">
        <ele>551</ele>
        <time>2011-04-09T08:16:30.000Z</time>
      </trkpt>
      <trkpt lat="43.40119" lon="5.47618">
        <ele>550</ele>
        <time>2011-04-09T08:16:35.000Z</time>
      </trkpt>
      <trkpt lat="43.40119" lon="5.47618">
        <ele>550</ele>
        <time>2011-04-09T08:16:40.001Z</time>
      </trkpt>
      <trkpt lat="43.40119" lon="5.47618">
        <ele>550</ele>
        <time>2011-04-09T08:16:45.000Z</time>
      </trkpt>
      <trkpt lat="43.40115" lon="5.4761">
        <ele>550</ele>
        <time>2011-04-09T08:16:50.000Z</time>
      </trkpt>
      <trkpt lat="43.40116" lon="5.47609">
        <ele>550</ele>
        <time>2011-04-09T08:16:55.001Z</time>
      </trkpt>
      <trkpt lat="43.40116" lon="5.47609">
        <ele>550</ele>
        <time>2011-04-09T08:17:00.000Z</time>
      </trkpt>
      <trkpt lat="43.40116" lon="5.47609">
        <ele>550</ele>
        <time>2011-04-09T08:17:05.000Z</time>
      </trkpt>
      <trkpt lat="43.40116" lon="5.47609">
        <ele>550</ele>
        <time>2011-04-09T08:17:10.000Z</time>
      </trkpt>
      <trkpt lat="43.40121" lon="5.47603">
        <ele>550</ele>
        <time>2011-04-09T08:17:15.000Z</time>
      </trkpt>
      <trkpt lat="43.40121" lon="5.47601">
        <ele>549</ele>
        <time>2011-04-09T08:17:20.000Z</time>
      </trkpt>
      <trkpt lat="43.40121" lon="5.47601">
        <ele>549</ele>
        <time>2011-04-09T08:17:25.000Z</time>
      </trkpt>
      <trkpt lat="43.40121" lon="5.47601">
        <ele>549</ele>
        <time>2011-04-09T08:17:30.000Z</time>
      </trkpt>
      <trkpt lat="43.40121" lon="5.47601">
        <ele>549</ele>
        <time>2011-04-09T08:17:35.000Z</time>
      </trkpt>
      <trkpt lat="43.40121" lon="5.47601">
        <ele>549</ele>
        <time>2011-04-09T08:17:40.000Z</time>
      </trkpt>
      <trkpt lat="43.40121" lon="5.47601">
        <ele>549</ele>
        <time>2011-04-09T08:17:45.000Z</time>
      </trkpt>
      <trkpt lat="43.40121" lon="5.47601">
        <ele>549</ele>
        <time>2011-04-09T08:17:50.000Z</time>
      </trkpt>
      <trkpt lat="43.40121" lon="5.47601">
        <ele>549</ele>
        <time>2011-04-09T08:17:55.000Z</time>
      </trkpt>
      <trkpt lat="43.40121" lon="5.47601">
        <ele>549</ele>
        <time>2011-04-09T08:18:00.000Z</time>
      </trkpt>
      <trkpt lat="43.40111" lon="5.4763">
        <ele>551</ele>
        <time>2011-04-09T08:18:05.000Z</time>
      </trkpt>
      <trkpt lat="43.40109" lon="5.47634">
        <ele>552</ele>
        <time>2011-04-09T08:18:10.000Z</time>
      </trkpt>
      <trkpt lat="43.40109" lon="5.47634">
        <ele>552</ele>
        <time>2011-04-09T08:18:15.000Z</time>
      </trkpt>
      <trkpt lat="43.40109" lon="5.47634">
        <ele>552</ele>
        <time>2011-04-09T08:18:20.000Z</time>
      </trkpt>
      <trkpt lat="43.40109" lon="5.47634">
        <ele>552</ele>
        <time>2011-04-09T08:18:25.000Z</time>
      </trkpt>
      <trkpt lat="43.40109" lon="5.47634">
        <ele>552</ele>
        <time>2011-04-09T08:18:30.000Z</time>
      </trkpt>
      <trkpt lat="43.40109" lon="5.47634">
        <ele>552</ele>
        <time>2011-04-09T08:18:35.001Z</time>
      </trkpt>
      <trkpt lat="43.40109" lon="5.47634">
        <ele>552</ele>
        <time>2011-04-09T08:18:40.000Z</time>
      </trkpt>
      <trkpt lat="43.40109" lon="5.47634">
        <ele>552</ele>
        <time>2011-04-09T08:18:45.000Z</time>
      </trkpt>
      <trkpt lat="43.40109" lon="5.47634">
        <ele>552</ele>
        <time>2011-04-09T08:18:50.000Z</time>
      </trkpt>
      <trkpt lat="43.40109" lon="5.47634">
        <ele>552</ele>
        <time>2011-04-09T08:18:55.000Z</time>
      </trkpt>
      <trkpt lat="43.40109" lon="5.47634">
        <ele>552</ele>
        <time>2011-04-09T08:19:00.000Z</time>
      </trkpt>
      <trkpt lat="43.40109" lon="5.47634">
        <ele>552</ele>
        <time>2011-04-09T08:19:05.000Z</time>
      </trkpt>
      <trkpt lat="43.40109" lon="5.47634">
        <ele>552</ele>
        <time>2011-04-09T08:19:10.000Z</time>
      </trkpt>
      <trkpt lat="43.40113" lon="5.47618">
        <ele>550</ele>
        <time>2011-04-09T08:19:15.000Z</time>
      </trkpt>
      <trkpt lat="43.40109" lon="5.47616">
        <ele>550</ele>
        <time>2011-04-09T08:19:20.000Z</time>
      </trkpt>
      <trkpt lat="43.40106" lon="5.47612">
        <ele>550</ele>
        <time>2011-04-09T08:19:25.000Z</time>
      </trkpt>
      <trkpt lat="43.40106" lon="5.47612">
        <ele>550</ele>
        <time>2011-04-09T08:19:30.000Z</time>
      </trkpt>
      <trkpt lat="43.40101" lon="5.47611">
        <ele>550</ele>
        <time>2011-04-09T08:19:35.000Z</time>
      </trkpt>
      <trkpt lat="43.40098" lon="5.47609">
        <ele>550</ele>
        <time>2011-04-09T08:19:40.000Z</time>
      </trkpt>
      <trkpt lat="43.40096" lon="5.47607">
        <ele>549</ele>
        <time>2011-04-09T08:19:45.000Z</time>
      </trkpt>
      <trkpt lat="43.40096" lon="5.47607">
        <ele>549</ele>
        <time>2011-04-09T08:19:50.001Z</time>
      </trkpt>
      <trkpt lat="43.40096" lon="5.47607">
        <ele>549</ele>
        <time>2011-04-09T08:19:55.000Z</time>
      </trkpt>
      <trkpt lat="43.40096" lon="5.47607">
        <ele>549</ele>
        <time>2011-04-09T08:20:00.000Z</time>
      </trkpt>
      <trkpt lat="43.40096" lon="5.47607">
        <ele>549</ele>
        <time>2011-04-09T08:20:05.000Z</time>
      </trkpt>
      <trkpt lat="43.40096" lon="5.47607">
        <ele>549</ele>
        <time>2011-04-09T08:20:10.000Z</time>
      </trkpt>
      <trkpt lat="43.40096" lon="5.47607">
        <ele>549</ele>
        <time>2011-04-09T08:20:15.000Z</time>
      </trkpt>
      <trkpt lat="43.40096" lon="5.47607">
        <ele>549</ele>
        <time>2011-04-09T08:20:20.000Z</time>
      </trkpt>
      <trkpt lat="43.40096" lon="5.47607">
        <ele>549</ele>
        <time>2011-04-09T08:20:25.000Z</time>
      </trkpt>
      <trkpt lat="43.40096" lon="5.47607">
        <ele>549</ele>
        <time>2011-04-09T08:20:30.000Z</time>
      </trkpt>
      <trkpt lat="43.40096" lon="5.47607">
        <ele>549</ele>
        <time>2011-04-09T08:20:35.000Z</time>
      </trkpt>
      <trkpt lat="43.40096" lon="5.47607">
        <ele>549</ele>
        <time>2011-04-09T08:20:40.000Z</time>
      </trkpt>
      <trkpt lat="43.40096" lon="5.47607">
        <ele>549</ele>
        <time>2011-04-09T08:20:45.000Z</time>
      </trkpt>
      <trkpt lat="43.40099" lon="5.47614">
        <ele>550</ele>
        <time>2011-04-09T08:20:50.000Z</time>
      </trkpt>
      <trkpt lat="43.40103" lon="5.47615">
        <ele>550</ele>
        <time>2011-04-09T08:20:55.000Z</time>
      </trkpt>
      <trkpt lat="43.40105" lon="5.47619">
        <ele>550</ele>
        <time>2011-04-09T08:21:00.000Z</time>
      </trkpt>
      <trkpt lat="43.40106" lon="5.47619">
        <ele>550</ele>
        <time>2011-04-09T08:21:05.000Z</time>
      </trkpt>
      <trkpt lat="43.40113" lon="5.47621">
        <ele>551</ele>
        <time>2011-04-09T08:21:10.000Z</time>
      </trkpt>
      <trkpt lat="43.40116" lon="5.4762">
        <ele>551</ele>
        <time>2011-04-09T08:21:15.000Z</time>
      </trkpt>
      <trkpt lat="43.40116" lon="5.4762">
        <ele>551</ele>
        <time>2011-04-09T08:21:20.000Z</time>
      </trkpt>
      <trkpt lat="43.40121" lon="5.47626">
        <ele>551</ele>
        <time>2011-04-09T08:21:25.000Z</time>
      </trkpt>
      <trkpt lat="43.40125" lon="5.47622">
        <ele>551</ele>
        <time>2011-04-09T08:21:30.000Z</time>
      </trkpt>
      <trkpt lat="43.4013" lon="5.47623">
        <ele>551</ele>
        <time>2011-04-09T08:21:35.000Z</time>
      </trkpt>
      <trkpt lat="43.40133" lon="5.47623">
        <ele>551</ele>
        <time>2011-04-09T08:21:39.999Z</time>
      </trkpt>
      <trkpt lat="43.40134" lon="5.47623">
        <ele>551</ele>
        <time>2011-04-09T08:21:45.000Z</time>
      </trkpt>
      <trkpt lat="43.40142" lon="5.47616">
        <ele>550</ele>
        <time>2011-04-09T08:21:50.000Z</time>
      </trkpt>
      <trkpt lat="43.40146" lon="5.47611">
        <ele>550</ele>
        <time>2011-04-09T08:21:53.001Z</time>
      </trkpt>
      <trkpt lat="43.40149" lon="5.47609">
        <ele>550</ele>
        <time>2011-04-09T08:21:58.000Z</time>
      </trkpt>
      <trkpt lat="43.40155" lon="5.47609">
        <ele>549</ele>
        <time>2011-04-09T08:22:03.000Z</time>
      </trkpt>
      <trkpt lat="43.40157" lon="5.47609">
        <ele>549</ele>
        <time>2011-04-09T08:22:08.000Z</time>
      </trkpt>
      <trkpt lat="43.40157" lon="5.47609">
        <ele>549</ele>
        <time>2011-04-09T08:22:13.000Z</time>
      </trkpt>
      <trkpt lat="43.40157" lon="5.47609">
        <ele>549</ele>
        <time>2011-04-09T08:22:18.000Z</time>
      </trkpt>
      <trkpt lat="43.40157" lon="5.47609">
        <ele>549</ele>
        <time>2011-04-09T08:22:23.000Z</time>
      </trkpt>
      <trkpt lat="43.40157" lon="5.47609">
        <ele>549</ele>
        <time>2011-04-09T08:22:28.000Z</time>
      </trkpt>
      <trkpt lat="43.40157" lon="5.47609">
        <ele>549</ele>
        <time>2011-04-09T08:22:33.000Z</time>
      </trkpt>
      <trkpt lat="43.40157" lon="5.47609">
        <ele>549</ele>
        <time>2011-04-09T08:22:38.000Z</time>
      </trkpt>
      <trkpt lat="43.40154" lon="5.47621">
        <ele>550</ele>
        <time>2011-04-09T08:22:43.000Z</time>
      </trkpt>
      <trkpt lat="43.40152" lon="5.47624">
        <ele>550</ele>
        <time>2011-04-09T08:22:48.000Z</time>
      </trkpt>
      <trkpt lat="43.40152" lon="5.47625">
        <ele>550</ele>
        <time>2011-04-09T08:22:53.000Z</time>
      </trkpt>
      <trkpt lat="43.40152" lon="5.47625">
        <ele>550</ele>
        <time>2011-04-09T08:22:58.000Z</time>
      </trkpt>
      <trkpt lat="43.40152" lon="5.47625">
        <ele>550</ele>
        <time>2011-04-09T08:23:03.000Z</time>
      </trkpt>
      <trkpt lat="43.40152" lon="5.47625">
        <ele>550</ele>
        <time>2011-04-09T08:23:08.000Z</time>
      </trkpt>
      <trkpt lat="43.40152" lon="5.47625">
        <ele>550</ele>
        <time>2011-04-09T08:23:13.000Z</time>
      </trkpt>
      <trkpt lat="43.40152" lon="5.47625">
        <ele>550</ele>
        <time>2011-04-09T08:23:18.000Z</time>
      </trkpt>
      <trkpt lat="43.40152" lon="5.47625">
        <ele>550</ele>
        <time>2011-04-09T08:23:23.000Z</time>
      </trkpt>
      <trkpt lat="43.40161" lon="5.47616">
        <ele>550</ele>
        <time>2011-04-09T08:23:28.000Z</time>
      </trkpt>
      <trkpt lat="43.40165" lon="5.47615">
        <ele>550</ele>
        <time>2011-04-09T08:23:33.000Z</time>
      </trkpt>
      <trkpt lat="43.40165" lon="5.47615">
        <ele>550</ele>
        <time>2011-04-09T08:23:38.000Z</time>
      </trkpt>
      <trkpt lat="43.40176" lon="5.47609">
        <ele>550</ele>
        <time>2011-04-09T08:23:43.000Z</time>
      </trkpt>
      <trkpt lat="43.40181" lon="5.47611">
        <ele>550</ele>
        <time>2011-04-09T08:23:48.000Z</time>
      </trkpt>
      <trkpt lat="43.40187" lon="5.47608">
        <ele>550</ele>
        <time>2011-04-09T08:23:53.000Z</time>
      </trkpt>
      <trkpt lat="43.40188" lon="5.47607">
        <ele>550</ele>
        <time>2011-04-09T08:23:58.000Z</time>
      </trkpt>
      <trkpt lat="43.40188" lon="5.47607">
        <ele>550</ele>
        <time>2011-04-09T08:24:03.000Z</time>
      </trkpt>
      <trkpt lat="43.40188" lon="5.47607">
        <ele>550</ele>
        <time>2011-04-09T08:24:08.000Z</time>
      </trkpt>
      <trkpt lat="43.40206" lon="5.47597">
        <ele>550</ele>
        <time>2011-04-09T08:24:13.000Z</time>
      </trkpt>
      <trkpt lat="43.40208" lon="5.47595">
        <ele>550</ele>
        <time>2011-04-09T08:24:18.000Z</time>
      </trkpt>
      <trkpt lat="43.40208" lon="5.47595">
        <ele>550</ele>
        <time>2011-04-09T08:24:23.001Z</time>
      </trkpt>
      <trkpt lat="43.40213" lon="5.47602">
        <ele>551</ele>
        <time>2011-04-09T08:24:28.000Z</time>
      </trkpt>
      <trkpt lat="43.40213" lon="5.47602">
        <ele>551</ele>
        <time>2011-04-09T08:24:33.000Z</time>
      </trkpt>
      <trkpt lat="43.40213" lon="5.47602">
        <ele>551</ele>
        <time>2011-04-09T08:24:38.000Z</time>
      </trkpt>
      <trkpt lat="43.40219" lon="5.47602">
        <ele>551</ele>
        <time>2011-04-09T08:24:43.000Z</time>
      </trkpt>
      <trkpt lat="43.40224" lon="5.47601">
        <ele>551</ele>
        <time>2011-04-09T08:24:48.000Z</time>
      </trkpt>
      <trkpt lat="43.40229" lon="5.47599">
        <ele>551</ele>
        <time>2011-04-09T08:24:53.001Z</time>
      </trkpt>
      <trkpt lat="43.40233" lon="5.47599">
        <ele>551</ele>
        <time>2011-04-09T08:24:58.001Z</time>
      </trkpt>
      <trkpt lat="43.40233" lon="5.47599">
        <ele>551</ele>
        <time>2011-04-09T08:25:03.000Z</time>
      </trkpt>
      <trkpt lat="43.40241" lon="5.47605">
        <ele>551</ele>
        <time>2011-04-09T08:25:08.000Z</time>
      </trkpt>
      <trkpt lat="43.40242" lon="5.47606">
        <ele>551</ele>
        <time>2011-04-09T08:25:13.001Z</time>
      </trkpt>
      <trkpt lat="43.40247" lon="5.47602">
        <ele>551</ele>
        <time>2011-04-09T08:25:18.000Z</time>
      </trkpt>
      <trkpt lat="43.40247" lon="5.47602">
        <ele>551</ele>
        <time>2011-04-09T08:25:23.000Z</time>
      </trkpt>
      <trkpt lat="43.40256" lon="5.47602">
        <ele>561</ele>
        <time>2011-04-09T08:25:28.000Z</time>
      </trkpt>
      <trkpt lat="43.40259" lon="5.47607">
        <ele>562</ele>
        <time>2011-04-09T08:25:33.001Z</time>
      </trkpt>
      <trkpt lat="43.40261" lon="5.47608">
        <ele>563</ele>
        <time>2011-04-09T08:25:38.000Z</time>
      </trkpt>
      <trkpt lat="43.40263" lon="5.47608">
        <ele>563</ele>
        <time>2011-04-09T08:25:43.000Z</time>
      </trkpt>
      <trkpt lat="43.40263" lon="5.47608">
        <ele>563</ele>
        <time>2011-04-09T08:25:48.001Z</time>
      </trkpt>
      <trkpt lat="43.40263" lon="5.47608">
        <ele>563</ele>
        <time>2011-04-09T08:25:53.000Z</time>
      </trkpt>
      <trkpt lat="43.40263" lon="5.47608">
        <ele>563</ele>
        <time>2011-04-09T08:25:58.000Z</time>
      </trkpt>
      <trkpt lat="43.40263" lon="5.47608">
        <ele>563</ele>
        <time>2011-04-09T08:26:03.001Z</time>
      </trkpt>
      <trkpt lat="43.40263" lon="5.47608">
        <ele>563</ele>
        <time>2011-04-09T08:26:08.000Z</time>
      </trkpt>
      <trkpt lat="43.40263" lon="5.47608">
        <ele>563</ele>
        <time>2011-04-09T08:26:13.001Z</time>
      </trkpt>
      <trkpt lat="43.40263" lon="5.47608">
        <ele>563</ele>
        <time>2011-04-09T08:26:18.001Z</time>
      </trkpt>
      <trkpt lat="43.40263" lon="5.47608">
        <ele>563</ele>
        <time>2011-04-09T08:26:23.000Z</time>
      </trkpt>
      <trkpt lat="43.40263" lon="5.47608">
        <ele>563</ele>
        <time>2011-04-09T08:26:28.001Z</time>
      </trkpt>
      <trkpt lat="43.40271" lon="5.47592">
        <ele>563</ele>
        <time>2011-04-09T08:26:33.001Z</time>
      </trkpt>
      <trkpt lat="43.40272" lon="5.47592">
        <ele>564</ele>
        <time>2011-04-09T08:26:38.001Z</time>
      </trkpt>
      <trkpt lat="43.40272" lon="5.47592">
        <ele>564</ele>
        <time>2011-04-09T08:26:43.000Z</time>
      </trkpt>
      <trkpt lat="43.40272" lon="5.47592">
        <ele>564</ele>
        <time>2011-04-09T08:26:48.001Z</time>
      </trkpt>
      <trkpt lat="43.40287" lon="5.47587">
        <ele>569</ele>
        <time>2011-04-09T08:26:53.001Z</time>
      </trkpt>
      <trkpt lat="43.40291" lon="5.47582">
        <ele>573</ele>
        <time>2011-04-09T08:26:58.000Z</time>
      </trkpt>
      <trkpt lat="43.40297" lon="5.47576">
        <ele>575</ele>
        <time>2011-04-09T08:27:03.001Z</time>
      </trkpt>
      <trkpt lat="43.40298" lon="5.47577">
        <ele>575</ele>
        <time>2011-04-09T08:27:08.000Z</time>
      </trkpt>
      <trkpt lat="43.40298" lon="5.47577">
        <ele>575</ele>
        <time>2011-04-09T08:27:13.000Z</time>
      </trkpt>
      <trkpt lat="43.40303" lon="5.4758">
        <ele>577</ele>
        <time>2011-04-09T08:27:18.001Z</time>
      </trkpt>
      <trkpt lat="43.40307" lon="5.47586">
        <ele>576</ele>
        <time>2011-04-09T08:27:23.001Z</time>
      </trkpt>
      <trkpt lat="43.40306" lon="5.47588">
        <ele>575</ele>
        <time>2011-04-09T08:27:28.001Z</time>
      </trkpt>
      <trkpt lat="43.40306" lon="5.47588">
        <ele>575</ele>
        <time>2011-04-09T08:27:33.000Z</time>
      </trkpt>
      <trkpt lat="43.40306" lon="5.47588">
        <ele>575</ele>
        <time>2011-04-09T08:27:38.000Z</time>
      </trkpt>
      <trkpt lat="43.40306" lon="5.47588">
        <ele>575</ele>
        <time>2011-04-09T08:27:43.000Z</time>
      </trkpt>
      <trkpt lat="43.40306" lon="5.47588">
        <ele>575</ele>
        <time>2011-04-09T08:27:48.000Z</time>
      </trkpt>
      <trkpt lat="43.40306" lon="5.47588">
        <ele>575</ele>
        <time>2011-04-09T08:27:53.000Z</time>
      </trkpt>
      <trkpt lat="43.40306" lon="5.47588">
        <ele>575</ele>
        <time>2011-04-09T08:27:58.000Z</time>
      </trkpt>
      <trkpt lat="43.40306" lon="5.47588">
        <ele>575</ele>
        <time>2011-04-09T08:28:03.000Z</time>
      </trkpt>
      <trkpt lat="43.40306" lon="5.47588">
        <ele>575</ele>
        <time>2011-04-09T08:28:08.000Z</time>
      </trkpt>
      <trkpt lat="43.40306" lon="5.47588">
        <ele>575</ele>
        <time>2011-04-09T08:28:13.000Z</time>
      </trkpt>
      <trkpt lat="43.40306" lon="5.47587">
        <ele>575</ele>
        <time>2011-04-09T08:28:18.000Z</time>
      </trkpt>
      <trkpt lat="43.40306" lon="5.47587">
        <ele>575</ele>
        <time>2011-04-09T08:28:23.000Z</time>
      </trkpt>
      <trkpt lat="43.40306" lon="5.47587">
        <ele>575</ele>
        <time>2011-04-09T08:28:28.001Z</time>
      </trkpt>
      <trkpt lat="43.40306" lon="5.47587">
        <ele>575</ele>
        <time>2011-04-09T08:28:33.000Z</time>
      </trkpt>
      <trkpt lat="43.40306" lon="5.47587">
        <ele>575</ele>
        <time>2011-04-09T08:28:38.000Z</time>
      </trkpt>
      <trkpt lat="43.40306" lon="5.47587">
        <ele>575</ele>
        <time>2011-04-09T08:28:43.000Z</time>
      </trkpt>
      <trkpt lat="43.40306" lon="5.47587">
        <ele>575</ele>
        <time>2011-04-09T08:28:48.000Z</time>
      </trkpt>
      <trkpt lat="43.40306" lon="5.47587">
        <ele>575</ele>
        <time>2011-04-09T08:28:53.000Z</time>
      </trkpt>
      <trkpt lat="43.40306" lon="5.47587">
        <ele>575</ele>
        <time>2011-04-09T08:28:58.001Z</time>
      </trkpt>
      <trkpt lat="43.40306" lon="5.47587">
        <ele>575</ele>
        <time>2011-04-09T08:29:03.000Z</time>
      </trkpt>
      <trkpt lat="43.40306" lon="5.47587">
        <ele>575</ele>
        <time>2011-04-09T08:29:08.000Z</time>
      </trkpt>
      <trkpt lat="43.40306" lon="5.47587">
        <ele>575</ele>
        <time>2011-04-09T08:29:13.000Z</time>
      </trkpt>
      <trkpt lat="43.40306" lon="5.47587">
        <ele>575</ele>
        <time>2011-04-09T08:29:18.001Z</time>
      </trkpt>
      <trkpt lat="43.40306" lon="5.47587">
        <ele>575</ele>
        <time>2011-04-09T08:29:22.999Z</time>
      </trkpt>
      <trkpt lat="43.40306" lon="5.47587">
        <ele>575</ele>
        <time>2011-04-09T08:29:28.000Z</time>
      </trkpt>
      <trkpt lat="43.40311" lon="5.47575">
        <ele>580</ele>
        <time>2011-04-09T08:29:33.003Z</time>
      </trkpt>
      <trkpt lat="43.40312" lon="5.47575">
        <ele>580</ele>
        <time>2011-04-09T08:29:38.000Z</time>
      </trkpt>
      <trkpt lat="43.40312" lon="5.47575">
        <ele>580</ele>
        <time>2011-04-09T08:29:43.001Z</time>
      </trkpt>
      <trkpt lat="43.40312" lon="5.47575">
        <ele>580</ele>
        <time>2011-04-09T08:29:48.000Z</time>
      </trkpt>
      <trkpt lat="43.40312" lon="5.47575">
        <ele>580</ele>
        <time>2011-04-09T08:29:53.000Z</time>
      </trkpt>
      <trkpt lat="43.40312" lon="5.47575">
        <ele>580</ele>
        <time>2011-04-09T08:29:58.000Z</time>
      </trkpt>
      <trkpt lat="43.40312" lon="5.47575">
        <ele>580</ele>
        <time>2011-04-09T08:30:03.000Z</time>
      </trkpt>
      <trkpt lat="43.40312" lon="5.47575">
        <ele>580</ele>
        <time>2011-04-09T08:30:08.000Z</time>
      </trkpt>
      <trkpt lat="43.40312" lon="5.47575">
        <ele>580</ele>
        <time>2011-04-09T08:30:13.000Z</time>
      </trkpt>
      <trkpt lat="43.40312" lon="5.47575">
        <ele>580</ele>
        <time>2011-04-09T08:30:18.000Z</time>
      </trkpt>
      <trkpt lat="43.40312" lon="5.47575">
        <ele>580</ele>
        <time>2011-04-09T08:30:23.000Z</time>
      </trkpt>
      <trkpt lat="43.40312" lon="5.47575">
        <ele>580</ele>
        <time>2011-04-09T08:30:28.000Z</time>
      </trkpt>
      <trkpt lat="43.40312" lon="5.47575">
        <ele>580</ele>
        <time>2011-04-09T08:30:33.000Z</time>
      </trkpt>
      <trkpt lat="43.40312" lon="5.47575">
        <ele>580</ele>
        <time>2011-04-09T08:30:38.000Z</time>
      </trkpt>
      <trkpt lat="43.40312" lon="5.47575">
        <ele>580</ele>
        <time>2011-04-09T08:30:43.000Z</time>
      </trkpt>
      <trkpt lat="43.40312" lon="5.47575">
        <ele>580</ele>
        <time>2011-04-09T08:30:48.000Z</time>
      </trkpt>
      <trkpt lat="43.40312" lon="5.47575">
        <ele>580</ele>
        <time>2011-04-09T08:30:53.000Z</time>
      </trkpt>
      <trkpt lat="43.40312" lon="5.47575">
        <ele>580</ele>
        <time>2011-04-09T08:30:58.000Z</time>
      </trkpt>
      <trkpt lat="43.40312" lon="5.47575">
        <ele>580</ele>
        <time>2011-04-09T08:31:03.000Z</time>
      </trkpt>
      <trkpt lat="43.40312" lon="5.47575">
        <ele>580</ele>
        <time>2011-04-09T08:31:08.000Z</time>
      </trkpt>
      <trkpt lat="43.40312" lon="5.47575">
        <ele>580</ele>
        <time>2011-04-09T08:31:13.000Z</time>
      </trkpt>
      <trkpt lat="43.40312" lon="5.47575">
        <ele>580</ele>
        <time>2011-04-09T08:31:18.000Z</time>
      </trkpt>
      <trkpt lat="43.40312" lon="5.47575">
        <ele>580</ele>
        <time>2011-04-09T08:31:23.000Z</time>
      </trkpt>
      <trkpt lat="43.40312" lon="5.47575">
        <ele>580</ele>
        <time>2011-04-09T08:31:28.000Z</time>
      </trkpt>
      <trkpt lat="43.40312" lon="5.47575">
        <ele>580</ele>
        <time>2011-04-09T08:31:33.000Z</time>
      </trkpt>
      <trkpt lat="43.40312" lon="5.47575">
        <ele>580</ele>
        <time>2011-04-09T08:31:38.000Z</time>
      </trkpt>
      <trkpt lat="43.40312" lon="5.47575">
        <ele>580</ele>
        <time>2011-04-09T08:31:43.000Z</time>
      </trkpt>
      <trkpt lat="43.40312" lon="5.47575">
        <ele>580</ele>
        <time>2011-04-09T08:31:48.000Z</time>
      </trkpt>
      <trkpt lat="43.40312" lon="5.47575">
        <ele>580</ele>
        <time>2011-04-09T08:31:53.000Z</time>
      </trkpt>
      <trkpt lat="43.40312" lon="5.47575">
        <ele>580</ele>
        <time>2011-04-09T08:31:58.000Z</time>
      </trkpt>
      <trkpt lat="43.40312" lon="5.47575">
        <ele>580</ele>
        <time>2011-04-09T08:32:03.001Z</time>
      </trkpt>
      <trkpt lat="43.40312" lon="5.47575">
        <ele>580</ele>
        <time>2011-04-09T08:32:08.000Z</time>
      </trkpt>
      <trkpt lat="43.40312" lon="5.47575">
        <ele>580</ele>
        <time>2011-04-09T08:32:13.000Z</time>
      </trkpt>
      <trkpt lat="43.40312" lon="5.47575">
        <ele>580</ele>
        <time>2011-04-09T08:32:18.000Z</time>
      </trkpt>
      <trkpt lat="43.40312" lon="5.47575">
        <ele>580</ele>
        <time>2011-04-09T08:32:23.001Z</time>
      </trkpt>
      <trkpt lat="43.40312" lon="5.47575">
        <ele>580</ele>
        <time>2011-04-09T08:32:28.001Z</time>
      </trkpt>
      <trkpt lat="43.40312" lon="5.47575">
        <ele>580</ele>
        <time>2011-04-09T08:32:33.001Z</time>
      </trkpt>
      <trkpt lat="43.40312" lon="5.47575">
        <ele>580</ele>
        <time>2011-04-09T08:32:38.001Z</time>
      </trkpt>
      <trkpt lat="43.40312" lon="5.47575">
        <ele>580</ele>
        <time>2011-04-09T08:32:43.000Z</time>
      </trkpt>
      <trkpt lat="43.40312" lon="5.47575">
        <ele>580</ele>
        <time>2011-04-09T08:32:48.000Z</time>
      </trkpt>
      <trkpt lat="43.40312" lon="5.47575">
        <ele>580</ele>
        <time>2011-04-09T08:32:53.001Z</time>
      </trkpt>
      <trkpt lat="43.40312" lon="5.47575">
        <ele>580</ele>
        <time>2011-04-09T08:32:58.000Z</time>
      </trkpt>
      <trkpt lat="43.40312" lon="5.47575">
        <ele>580</ele>
        <time>2011-04-09T08:33:03.001Z</time>
      </trkpt>
      <trkpt lat="43.40312" lon="5.47575">
        <ele>580</ele>
        <time>2011-04-09T08:33:08.000Z</time>
      </trkpt>
      <trkpt lat="43.40312" lon="5.47575">
        <ele>580</ele>
        <time>2011-04-09T08:33:13.000Z</time>
      </trkpt>
      <trkpt lat="43.40312" lon="5.47575">
        <ele>580</ele>
        <time>2011-04-09T08:33:18.001Z</time>
      </trkpt>
      <trkpt lat="43.40312" lon="5.47575">
        <ele>580</ele>
        <time>2011-04-09T08:33:23.001Z</time>
      </trkpt>
      <trkpt lat="43.40312" lon="5.47575">
        <ele>580</ele>
        <time>2011-04-09T08:33:27.999Z</time>
      </trkpt>
      <trkpt lat="43.40312" lon="5.47575">
        <ele>580</ele>
        <time>2011-04-09T08:33:32.999Z</time>
      </trkpt>
      <trkpt lat="43.40312" lon="5.47575">
        <ele>580</ele>
        <time>2011-04-09T08:33:38.000Z</time>
      </trkpt>
      <trkpt lat="43.40312" lon="5.47575">
        <ele>580</ele>
        <time>2011-04-09T08:33:43.001Z</time>
      </trkpt>
      <trkpt lat="43.40312" lon="5.47575">
        <ele>580</ele>
        <time>2011-04-09T08:33:48.001Z</time>
      </trkpt>
      <trkpt lat="43.40312" lon="5.47575">
        <ele>580</ele>
        <time>2011-04-09T08:33:53.000Z</time>
      </trkpt>
      <trkpt lat="43.40312" lon="5.47575">
        <ele>580</ele>
        <time>2011-04-09T08:33:58.000Z</time>
      </trkpt>
      <trkpt lat="43.40312" lon="5.47575">
        <ele>580</ele>
        <time>2011-04-09T08:34:03.000Z</time>
      </trkpt>
      <trkpt lat="43.40312" lon="5.47575">
        <ele>580</ele>
        <time>2011-04-09T08:34:08.000Z</time>
      </trkpt>
      <trkpt lat="43.40312" lon="5.47575">
        <ele>580</ele>
        <time>2011-04-09T08:34:13.000Z</time>
      </trkpt>
      <trkpt lat="43.40312" lon="5.47575">
        <ele>580</ele>
        <time>2011-04-09T08:34:18.000Z</time>
      </trkpt>
      <trkpt lat="43.40312" lon="5.47575">
        <ele>580</ele>
        <time>2011-04-09T08:34:23.001Z</time>
      </trkpt>
      <trkpt lat="43.40312" lon="5.47575">
        <ele>580</ele>
        <time>2011-04-09T08:34:28.001Z</time>
      </trkpt>
      <trkpt lat="43.40312" lon="5.47575">
        <ele>580</ele>
        <time>2011-04-09T08:34:33.000Z</time>
      </trkpt>
      <trkpt lat="43.40312" lon="5.47575">
        <ele>580</ele>
        <time>2011-04-09T08:34:38.000Z</time>
      </trkpt>
      <trkpt lat="43.40312" lon="5.47575">
        <ele>580</ele>
        <time>2011-04-09T08:34:43.000Z</time>
      </trkpt>
      <trkpt lat="43.40312" lon="5.47575">
        <ele>580</ele>
        <time>2011-04-09T08:34:48.000Z</time>
      </trkpt>
      <trkpt lat="43.40312" lon="5.47575">
        <ele>580</ele>
        <time>2011-04-09T08:34:53.000Z</time>
      </trkpt>
      <trkpt lat="43.40312" lon="5.47575">
        <ele>580</ele>
        <time>2011-04-09T08:34:58.001Z</time>
      </trkpt>
      <trkpt lat="43.40312" lon="5.47575">
        <ele>580</ele>
        <time>2011-04-09T08:35:03.000Z</time>
      </trkpt>
      <trkpt lat="43.40312" lon="5.47575">
        <ele>580</ele>
        <time>2011-04-09T08:35:08.000Z</time>
      </trkpt>
      <trkpt lat="43.4032" lon="5.47546">
        <ele>581</ele>
        <time>2011-04-09T08:35:13.000Z</time>
      </trkpt>
      <trkpt lat="43.4032" lon="5.47546">
        <ele>581</ele>
        <time>2011-04-09T08:35:18.001Z</time>
      </trkpt>
      <trkpt lat="43.4032" lon="5.47546">
        <ele>581</ele>
        <time>2011-04-09T08:35:23.001Z</time>
      </trkpt>
      <trkpt lat="43.4032" lon="5.47546">
        <ele>581</ele>
        <time>2011-04-09T08:35:28.000Z</time>
      </trkpt>
      <trkpt lat="43.4032" lon="5.47546">
        <ele>581</ele>
        <time>2011-04-09T08:35:33.000Z</time>
      </trkpt>
      <trkpt lat="43.4032" lon="5.47546">
        <ele>581</ele>
        <time>2011-04-09T08:35:38.000Z</time>
      </trkpt>
      <trkpt lat="43.4032" lon="5.47546">
        <ele>581</ele>
        <time>2011-04-09T08:35:43.001Z</time>
      </trkpt>
      <trkpt lat="43.4032" lon="5.47546">
        <ele>581</ele>
        <time>2011-04-09T08:35:48.000Z</time>
      </trkpt>
      <trkpt lat="43.4032" lon="5.47546">
        <ele>581</ele>
        <time>2011-04-09T08:35:53.001Z</time>
      </trkpt>
      <trkpt lat="43.4032" lon="5.47546">
        <ele>581</ele>
        <time>2011-04-09T08:35:58.000Z</time>
      </trkpt>
      <trkpt lat="43.4032" lon="5.47546">
        <ele>581</ele>
        <time>2011-04-09T08:36:03.001Z</time>
      </trkpt>
      <trkpt lat="43.4032" lon="5.47546">
        <ele>581</ele>
        <time>2011-04-09T08:36:08.000Z</time>
      </trkpt>
      <trkpt lat="43.4032" lon="5.47546">
        <ele>581</ele>
        <time>2011-04-09T08:36:13.000Z</time>
      </trkpt>
      <trkpt lat="43.4032" lon="5.47546">
        <ele>581</ele>
        <time>2011-04-09T08:36:18.001Z</time>
      </trkpt>
      <trkpt lat="43.4032" lon="5.47546">
        <ele>581</ele>
        <time>2011-04-09T08:36:22.801Z</time>
      </trkpt>
      <trkpt lat="43.4032" lon="5.47546">
        <ele>581</ele>
        <time>2011-04-09T08:36:28.000Z</time>
      </trkpt>
      <trkpt lat="43.4032" lon="5.47546">
        <ele>581</ele>
        <time>2011-04-09T08:36:33.000Z</time>
      </trkpt>
      <trkpt lat="43.40327" lon="5.47522">
        <ele>588</ele>
        <time>2011-04-09T08:36:38.000Z</time>
      </trkpt>
      <trkpt lat="43.40331" lon="5.4752">
        <ele>589</ele>
        <time>2011-04-09T08:36:43.001Z</time>
      </trkpt>
      <trkpt lat="43.40331" lon="5.4752">
        <ele>589</ele>
        <time>2011-04-09T08:36:48.000Z</time>
      </trkpt>
      <trkpt lat="43.40331" lon="5.4752">
        <ele>589</ele>
        <time>2011-04-09T08:36:53.000Z</time>
      </trkpt>
      <trkpt lat="43.40333" lon="5.4752">
        <ele>590</ele>
        <time>2011-04-09T08:36:58.000Z</time>
      </trkpt>
      <trkpt lat="43.40333" lon="5.47523">
        <ele>588</ele>
        <time>2011-04-09T08:37:03.000Z</time>
      </trkpt>
      <trkpt lat="43.40333" lon="5.47523">
        <ele>588</ele>
        <time>2011-04-09T08:37:08.000Z</time>
      </trkpt>
      <trkpt lat="43.40327" lon="5.47519">
        <ele>589</ele>
        <time>2011-04-09T08:37:13.000Z</time>
      </trkpt>
      <trkpt lat="43.40327" lon="5.47519">
        <ele>589</ele>
        <time>2011-04-09T08:37:17.999Z</time>
      </trkpt>
      <trkpt lat="43.40327" lon="5.47519">
        <ele>589</ele>
        <time>2011-04-09T08:37:22.999Z</time>
      </trkpt>
      <trkpt lat="43.40327" lon="5.47519">
        <ele>589</ele>
        <time>2011-04-09T08:37:27.999Z</time>
      </trkpt>
      <trkpt lat="43.40327" lon="5.47519">
        <ele>589</ele>
        <time>2011-04-09T08:37:32.999Z</time>
      </trkpt>
      <trkpt lat="43.40327" lon="5.47519">
        <ele>589</ele>
        <time>2011-04-09T08:37:38.000Z</time>
      </trkpt>
      <trkpt lat="43.40327" lon="5.47519">
        <ele>589</ele>
        <time>2011-04-09T08:37:42.999Z</time>
      </trkpt>
      <trkpt lat="43.40327" lon="5.47519">
        <ele>589</ele>
        <time>2011-04-09T08:37:47.999Z</time>
      </trkpt>
      <trkpt lat="43.40327" lon="5.47519">
        <ele>589</ele>
        <time>2011-04-09T08:37:52.999Z</time>
      </trkpt>
      <trkpt lat="43.40327" lon="5.47519">
        <ele>589</ele>
        <time>2011-04-09T08:37:57.999Z</time>
      </trkpt>
      <trkpt lat="43.40327" lon="5.47519">
        <ele>589</ele>
        <time>2011-04-09T08:38:02.999Z</time>
      </trkpt>
      <trkpt lat="43.40327" lon="5.47519">
        <ele>589</ele>
        <time>2011-04-09T08:38:08.000Z</time>
      </trkpt>
      <trkpt lat="43.40327" lon="5.47519">
        <ele>589</ele>
        <time>2011-04-09T08:38:13.002Z</time>
      </trkpt>
      <trkpt lat="43.40327" lon="5.47519">
        <ele>589</ele>
        <time>2011-04-09T08:38:18.001Z</time>
      </trkpt>
      <trkpt lat="43.40327" lon="5.47519">
        <ele>589</ele>
        <time>2011-04-09T08:38:23.001Z</time>
      </trkpt>
      <trkpt lat="43.40327" lon="5.47519">
        <ele>589</ele>
        <time>2011-04-09T08:38:28.000Z</time>
      </trkpt>
      <trkpt lat="43.40327" lon="5.47519">
        <ele>589</ele>
        <time>2011-04-09T08:38:33.000Z</time>
      </trkpt>
      <trkpt lat="43.40327" lon="5.47519">
        <ele>589</ele>
        <time>2011-04-09T08:38:38.000Z</time>
      </trkpt>
      <trkpt lat="43.40327" lon="5.47519">
        <ele>589</ele>
        <time>2011-04-09T08:38:43.000Z</time>
      </trkpt>
      <trkpt lat="43.40327" lon="5.47519">
        <ele>589</ele>
        <time>2011-04-09T08:38:48.001Z</time>
      </trkpt>
      <trkpt lat="43.40332" lon="5.47487">
        <ele>596</ele>
        <time>2011-04-09T08:38:53.000Z</time>
      </trkpt>
      <trkpt lat="43.40331" lon="5.47484">
        <ele>594</ele>
        <time>2011-04-09T08:38:58.001Z</time>
      </trkpt>
      <trkpt lat="43.40331" lon="5.47484">
        <ele>594</ele>
        <time>2011-04-09T08:39:03.001Z</time>
      </trkpt>
      <trkpt lat="43.40331" lon="5.47484">
        <ele>594</ele>
        <time>2011-04-09T08:39:08.000Z</time>
      </trkpt>
      <trkpt lat="43.40331" lon="5.47484">
        <ele>594</ele>
        <time>2011-04-09T08:39:13.001Z</time>
      </trkpt>
      <trkpt lat="43.40331" lon="5.47484">
        <ele>594</ele>
        <time>2011-04-09T08:39:18.000Z</time>
      </trkpt>
      <trkpt lat="43.40331" lon="5.47484">
        <ele>594</ele>
        <time>2011-04-09T08:39:23.000Z</time>
      </trkpt>
      <trkpt lat="43.40331" lon="5.47484">
        <ele>594</ele>
        <time>2011-04-09T08:39:28.000Z</time>
      </trkpt>
      <trkpt lat="43.40331" lon="5.47484">
        <ele>594</ele>
        <time>2011-04-09T08:39:33.000Z</time>
      </trkpt>
      <trkpt lat="43.40331" lon="5.47484">
        <ele>594</ele>
        <time>2011-04-09T08:39:38.000Z</time>
      </trkpt>
      <trkpt lat="43.40339" lon="5.47485">
        <ele>615</ele>
        <time>2011-04-09T08:39:43.001Z</time>
      </trkpt>
      <trkpt lat="43.40339" lon="5.47485">
        <ele>615</ele>
        <time>2011-04-09T08:39:48.000Z</time>
      </trkpt>
      <trkpt lat="43.40339" lon="5.47485">
        <ele>615</ele>
        <time>2011-04-09T08:39:53.000Z</time>
      </trkpt>
      <trkpt lat="43.40339" lon="5.47485">
        <ele>615</ele>
        <time>2011-04-09T08:39:58.000Z</time>
      </trkpt>
      <trkpt lat="43.40339" lon="5.47485">
        <ele>615</ele>
        <time>2011-04-09T08:40:03.000Z</time>
      </trkpt>
      <trkpt lat="43.40339" lon="5.47485">
        <ele>615</ele>
        <time>2011-04-09T08:40:08.000Z</time>
      </trkpt>
      <trkpt lat="43.40339" lon="5.47485">
        <ele>615</ele>
        <time>2011-04-09T08:40:13.000Z</time>
      </trkpt>
      <trkpt lat="43.40339" lon="5.47485">
        <ele>615</ele>
        <time>2011-04-09T08:40:18.000Z</time>
      </trkpt>
      <trkpt lat="43.40339" lon="5.47485">
        <ele>615</ele>
        <time>2011-04-09T08:40:23.000Z</time>
      </trkpt>
      <trkpt lat="43.40339" lon="5.47485">
        <ele>615</ele>
        <time>2011-04-09T08:40:28.000Z</time>
      </trkpt>
      <trkpt lat="43.40339" lon="5.47485">
        <ele>615</ele>
        <time>2011-04-09T08:40:33.000Z</time>
      </trkpt>
      <trkpt lat="43.40339" lon="5.47485">
        <ele>615</ele>
        <time>2011-04-09T08:40:38.001Z</time>
      </trkpt>
      <trkpt lat="43.40339" lon="5.47485">
        <ele>615</ele>
        <time>2011-04-09T08:40:42.800Z</time>
      </trkpt>
      <trkpt lat="43.40339" lon="5.47485">
        <ele>615</ele>
        <time>2011-04-09T08:40:48.000Z</time>
      </trkpt>
      <trkpt lat="43.40339" lon="5.47485">
        <ele>615</ele>
        <time>2011-04-09T08:40:53.001Z</time>
      </trkpt>
      <trkpt lat="43.40339" lon="5.47485">
        <ele>615</ele>
        <time>2011-04-09T08:40:58.001Z</time>
      </trkpt>
      <trkpt lat="43.40339" lon="5.47485">
        <ele>615</ele>
        <time>2011-04-09T08:41:03.000Z</time>
      </trkpt>
      <trkpt lat="43.40325" lon="5.47471">
        <ele>589</ele>
        <time>2011-04-09T08:41:08.000Z</time>
      </trkpt>
      <trkpt lat="43.4032" lon="5.47476">
        <ele>589</ele>
        <time>2011-04-09T08:41:12.999Z</time>
      </trkpt>
      <trkpt lat="43.40319" lon="5.47476">
        <ele>589</ele>
        <time>2011-04-09T08:41:18.000Z</time>
      </trkpt>
      <trkpt lat="43.40314" lon="5.47476">
        <ele>587</ele>
        <time>2011-04-09T08:41:23.000Z</time>
      </trkpt>
      <trkpt lat="43.40314" lon="5.47476">
        <ele>587</ele>
        <time>2011-04-09T08:41:28.000Z</time>
      </trkpt>
      <trkpt lat="43.40314" lon="5.47476">
        <ele>587</ele>
        <time>2011-04-09T08:41:33.000Z</time>
      </trkpt>
      <trkpt lat="43.40314" lon="5.47476">
        <ele>587</ele>
        <time>2011-04-09T08:41:38.000Z</time>
      </trkpt>
      <trkpt lat="43.40314" lon="5.47476">
        <ele>587</ele>
        <time>2011-04-09T08:41:43.000Z</time>
      </trkpt>
      <trkpt lat="43.40314" lon="5.47476">
        <ele>587</ele>
        <time>2011-04-09T08:41:48.000Z</time>
      </trkpt>
      <trkpt lat="43.40314" lon="5.47476">
        <ele>587</ele>
        <time>2011-04-09T08:41:52.999Z</time>
      </trkpt>
      <trkpt lat="43.40314" lon="5.47476">
        <ele>587</ele>
        <time>2011-04-09T08:41:58.000Z</time>
      </trkpt>
      <trkpt lat="43.40314" lon="5.47476">
        <ele>587</ele>
        <time>2011-04-09T08:42:03.000Z</time>
      </trkpt>
      <trkpt lat="43.40314" lon="5.47476">
        <ele>587</ele>
        <time>2011-04-09T08:42:08.000Z</time>
      </trkpt>
      <trkpt lat="43.40314" lon="5.47476">
        <ele>587</ele>
        <time>2011-04-09T08:42:13.000Z</time>
      </trkpt>
      <trkpt lat="43.40314" lon="5.47476">
        <ele>587</ele>
        <time>2011-04-09T08:42:18.000Z</time>
      </trkpt>
      <trkpt lat="43.40316" lon="5.47445">
        <ele>588</ele>
        <time>2011-04-09T08:42:23.000Z</time>
      </trkpt>
      <trkpt lat="43.40316" lon="5.4744">
        <ele>589</ele>
        <time>2011-04-09T08:42:28.000Z</time>
      </trkpt>
      <trkpt lat="43.40315" lon="5.4744">
        <ele>589</ele>
        <time>2011-04-09T08:42:33.000Z</time>
      </trkpt>
      <trkpt lat="43.40315" lon="5.4744">
        <ele>589</ele>
        <time>2011-04-09T08:42:38.000Z</time>
      </trkpt>
      <trkpt lat="43.40315" lon="5.4744">
        <ele>589</ele>
        <time>2011-04-09T08:42:43.000Z</time>
      </trkpt>
      <trkpt lat="43.40315" lon="5.4744">
        <ele>589</ele>
        <time>2011-04-09T08:42:48.000Z</time>
      </trkpt>
      <trkpt lat="43.40315" lon="5.4744">
        <ele>589</ele>
        <time>2011-04-09T08:42:53.000Z</time>
      </trkpt>
      <trkpt lat="43.40315" lon="5.4744">
        <ele>589</ele>
        <time>2011-04-09T08:42:58.001Z</time>
      </trkpt>
      <trkpt lat="43.40315" lon="5.4744">
        <ele>589</ele>
        <time>2011-04-09T08:43:03.000Z</time>
      </trkpt>
      <trkpt lat="43.40315" lon="5.4744">
        <ele>589</ele>
        <time>2011-04-09T08:43:08.000Z</time>
      </trkpt>
      <trkpt lat="43.40315" lon="5.4744">
        <ele>589</ele>
        <time>2011-04-09T08:43:13.001Z</time>
      </trkpt>
      <trkpt lat="43.40315" lon="5.4744">
        <ele>589</ele>
        <time>2011-04-09T08:43:18.001Z</time>
      </trkpt>
      <trkpt lat="43.40315" lon="5.4744">
        <ele>589</ele>
        <time>2011-04-09T08:43:23.001Z</time>
      </trkpt>
      <trkpt lat="43.40315" lon="5.4744">
        <ele>589</ele>
        <time>2011-04-09T08:43:28.001Z</time>
      </trkpt>
      <trkpt lat="43.40315" lon="5.4744">
        <ele>589</ele>
        <time>2011-04-09T08:43:33.001Z</time>
      </trkpt>
      <trkpt lat="43.40318" lon="5.47445">
        <ele>589</ele>
        <time>2011-04-09T08:43:38.001Z</time>
      </trkpt>
      <trkpt lat="43.4032" lon="5.47441">
        <ele>591</ele>
        <time>2011-04-09T08:43:43.000Z</time>
      </trkpt>
      <trkpt lat="43.40322" lon="5.47441">
        <ele>591</ele>
        <time>2011-04-09T08:43:48.001Z</time>
      </trkpt>
      <trkpt lat="43.40327" lon="5.47434">
        <ele>595</ele>
        <time>2011-04-09T08:43:53.001Z</time>
      </trkpt>
      <trkpt lat="43.40326" lon="5.47429">
        <ele>598</ele>
        <time>2011-04-09T08:43:58.001Z</time>
      </trkpt>
      <trkpt lat="43.40325" lon="5.47427">
        <ele>598</ele>
        <time>2011-04-09T08:44:03.001Z</time>
      </trkpt>
      <trkpt lat="43.40325" lon="5.47427">
        <ele>598</ele>
        <time>2011-04-09T08:44:07.998Z</time>
      </trkpt>
      <trkpt lat="43.40325" lon="5.47427">
        <ele>598</ele>
        <time>2011-04-09T08:44:13.000Z</time>
      </trkpt>
      <trkpt lat="43.40329" lon="5.47418">
        <ele>606</ele>
        <time>2011-04-09T08:44:18.000Z</time>
      </trkpt>
      <trkpt lat="43.40329" lon="5.47418">
        <ele>606</ele>
        <time>2011-04-09T08:44:23.000Z</time>
      </trkpt>
      <trkpt lat="43.40329" lon="5.47418">
        <ele>606</ele>
        <time>2011-04-09T08:44:28.000Z</time>
      </trkpt>
      <trkpt lat="43.40329" lon="5.47418">
        <ele>606</ele>
        <time>2011-04-09T08:44:33.000Z</time>
      </trkpt>
      <trkpt lat="43.40329" lon="5.47418">
        <ele>606</ele>
        <time>2011-04-09T08:44:38.000Z</time>
      </trkpt>
      <trkpt lat="43.40329" lon="5.47418">
        <ele>606</ele>
        <time>2011-04-09T08:44:43.000Z</time>
      </trkpt>
      <trkpt lat="43.40329" lon="5.47418">
        <ele>606</ele>
        <time>2011-04-09T08:44:48.001Z</time>
      </trkpt>
      <trkpt lat="43.40329" lon="5.47418">
        <ele>606</ele>
        <time>2011-04-09T08:44:53.001Z</time>
      </trkpt>
      <trkpt lat="43.40329" lon="5.47418">
        <ele>606</ele>
        <time>2011-04-09T08:44:58.000Z</time>
      </trkpt>
      <trkpt lat="43.40329" lon="5.47418">
        <ele>606</ele>
        <time>2011-04-09T08:45:03.001Z</time>
      </trkpt>
      <trkpt lat="43.40329" lon="5.47418">
        <ele>606</ele>
        <time>2011-04-09T08:45:08.000Z</time>
      </trkpt>
      <trkpt lat="43.40329" lon="5.47418">
        <ele>606</ele>
        <time>2011-04-09T08:45:13.000Z</time>
      </trkpt>
      <trkpt lat="43.40335" lon="5.47425">
        <ele>616</ele>
        <time>2011-04-09T08:45:17.999Z</time>
      </trkpt>
      <trkpt lat="43.40335" lon="5.47425">
        <ele>616</ele>
        <time>2011-04-09T08:45:23.000Z</time>
      </trkpt>
      <trkpt lat="43.40335" lon="5.47425">
        <ele>616</ele>
        <time>2011-04-09T08:45:27.999Z</time>
      </trkpt>
      <trkpt lat="43.40335" lon="5.47425">
        <ele>616</ele>
        <time>2011-04-09T08:45:32.999Z</time>
      </trkpt>
      <trkpt lat="43.40335" lon="5.47425">
        <ele>616</ele>
        <time>2011-04-09T08:45:38.000Z</time>
      </trkpt>
      <trkpt lat="43.40335" lon="5.47425">
        <ele>616</ele>
        <time>2011-04-09T08:45:43.000Z</time>
      </trkpt>
      <trkpt lat="43.40335" lon="5.47425">
        <ele>616</ele>
        <time>2011-04-09T08:45:48.000Z</time>
      </trkpt>
      <trkpt lat="43.40335" lon="5.47425">
        <ele>616</ele>
        <time>2011-04-09T08:45:53.000Z</time>
      </trkpt>
      <trkpt lat="43.40335" lon="5.47425">
        <ele>616</ele>
        <time>2011-04-09T08:45:57.999Z</time>
      </trkpt>
      <trkpt lat="43.40335" lon="5.47425">
        <ele>616</ele>
        <time>2011-04-09T08:46:03.002Z</time>
      </trkpt>
      <trkpt lat="43.40335" lon="5.47425">
        <ele>616</ele>
        <time>2011-04-09T08:46:07.999Z</time>
      </trkpt>
      <trkpt lat="43.40335" lon="5.47425">
        <ele>616</ele>
        <time>2011-04-09T08:46:12.999Z</time>
      </trkpt>
      <trkpt lat="43.40335" lon="5.47425">
        <ele>616</ele>
        <time>2011-04-09T08:46:18.000Z</time>
      </trkpt>
      <trkpt lat="43.40335" lon="5.47425">
        <ele>616</ele>
        <time>2011-04-09T08:46:22.999Z</time>
      </trkpt>
      <trkpt lat="43.40335" lon="5.47425">
        <ele>616</ele>
        <time>2011-04-09T08:46:28.000Z</time>
      </trkpt>
      <trkpt lat="43.40335" lon="5.47425">
        <ele>616</ele>
        <time>2011-04-09T08:46:33.000Z</time>
      </trkpt>
      <trkpt lat="43.40335" lon="5.47425">
        <ele>616</ele>
        <time>2011-04-09T08:46:37.999Z</time>
      </trkpt>
      <trkpt lat="43.40335" lon="5.47425">
        <ele>616</ele>
        <time>2011-04-09T08:46:43.001Z</time>
      </trkpt>
      <trkpt lat="43.40335" lon="5.47425">
        <ele>616</ele>
        <time>2011-04-09T08:46:48.000Z</time>
      </trkpt>
      <trkpt lat="43.40335" lon="5.47425">
        <ele>616</ele>
        <time>2011-04-09T08:46:53.000Z</time>
      </trkpt>
      <trkpt lat="43.40335" lon="5.47425">
        <ele>616</ele>
        <time>2011-04-09T08:46:58.000Z</time>
      </trkpt>
      <trkpt lat="43.40335" lon="5.47425">
        <ele>616</ele>
        <time>2011-04-09T08:47:03.003Z</time>
      </trkpt>
      <trkpt lat="43.40335" lon="5.47425">
        <ele>616</ele>
        <time>2011-04-09T08:47:08.000Z</time>
      </trkpt>
      <trkpt lat="43.40335" lon="5.47425">
        <ele>616</ele>
        <time>2011-04-09T08:47:13.000Z</time>
      </trkpt>
      <trkpt lat="43.40335" lon="5.47425">
        <ele>616</ele>
        <time>2011-04-09T08:47:18.000Z</time>
      </trkpt>
      <trkpt lat="43.40335" lon="5.47425">
        <ele>616</ele>
        <time>2011-04-09T08:47:23.000Z</time>
      </trkpt>
      <trkpt lat="43.40335" lon="5.47425">
        <ele>616</ele>
        <time>2011-04-09T08:47:27.800Z</time>
      </trkpt>
      <trkpt lat="43.40345" lon="5.47414">
        <ele>617</ele>
        <time>2011-04-09T08:47:33.000Z</time>
      </trkpt>
      <trkpt lat="43.40345" lon="5.47414">
        <ele>617</ele>
        <time>2011-04-09T08:47:38.000Z</time>
      </trkpt>
      <trkpt lat="43.40345" lon="5.47414">
        <ele>617</ele>
        <time>2011-04-09T08:47:43.000Z</time>
      </trkpt>
      <trkpt lat="43.40345" lon="5.47414">
        <ele>617</ele>
        <time>2011-04-09T08:47:48.000Z</time>
      </trkpt>
      <trkpt lat="43.40345" lon="5.47414">
        <ele>617</ele>
        <time>2011-04-09T08:47:53.000Z</time>
      </trkpt>
      <trkpt lat="43.40362" lon="5.47426">
        <ele>623</ele>
        <time>2011-04-09T08:47:57.999Z</time>
      </trkpt>
      <trkpt lat="43.40361" lon="5.47426">
        <ele>622</ele>
        <time>2011-04-09T08:48:03.000Z</time>
      </trkpt>
      <trkpt lat="43.40361" lon="5.47426">
        <ele>622</ele>
        <time>2011-04-09T08:48:08.000Z</time>
      </trkpt>
      <trkpt lat="43.40361" lon="5.47426">
        <ele>622</ele>
        <time>2011-04-09T08:48:13.000Z</time>
      </trkpt>
      <trkpt lat="43.40361" lon="5.47426">
        <ele>622</ele>
        <time>2011-04-09T08:48:18.000Z</time>
      </trkpt>
      <trkpt lat="43.40361" lon="5.47426">
        <ele>622</ele>
        <time>2011-04-09T08:48:23.001Z</time>
      </trkpt>
      <trkpt lat="43.40361" lon="5.47426">
        <ele>622</ele>
        <time>2011-04-09T08:48:28.000Z</time>
      </trkpt>
      <trkpt lat="43.40361" lon="5.47426">
        <ele>622</ele>
        <time>2011-04-09T08:48:33.000Z</time>
      </trkpt>
      <trkpt lat="43.40361" lon="5.47426">
        <ele>622</ele>
        <time>2011-04-09T08:48:38.001Z</time>
      </trkpt>
      <trkpt lat="43.40361" lon="5.47426">
        <ele>622</ele>
        <time>2011-04-09T08:48:43.000Z</time>
      </trkpt>
      <trkpt lat="43.40361" lon="5.47426">
        <ele>622</ele>
        <time>2011-04-09T08:48:48.000Z</time>
      </trkpt>
      <trkpt lat="43.40361" lon="5.47426">
        <ele>622</ele>
        <time>2011-04-09T08:48:53.000Z</time>
      </trkpt>
      <trkpt lat="43.40358" lon="5.47424">
        <ele>622</ele>
        <time>2011-04-09T08:48:58.000Z</time>
      </trkpt>
      <trkpt lat="43.40357" lon="5.47424">
        <ele>621</ele>
        <time>2011-04-09T08:49:03.000Z</time>
      </trkpt>
      <trkpt lat="43.40354" lon="5.47422">
        <ele>620</ele>
        <time>2011-04-09T08:49:08.000Z</time>
      </trkpt>
      <trkpt lat="43.40354" lon="5.47421">
        <ele>620</ele>
        <time>2011-04-09T08:49:13.000Z</time>
      </trkpt>
      <trkpt lat="43.40354" lon="5.47421">
        <ele>620</ele>
        <time>2011-04-09T08:49:18.000Z</time>
      </trkpt>
      <trkpt lat="43.40358" lon="5.47411">
        <ele>621</ele>
        <time>2011-04-09T08:49:23.000Z</time>
      </trkpt>
      <trkpt lat="43.40359" lon="5.47411">
        <ele>621</ele>
        <time>2011-04-09T08:49:28.000Z</time>
      </trkpt>
      <trkpt lat="43.40359" lon="5.47411">
        <ele>621</ele>
        <time>2011-04-09T08:49:33.000Z</time>
      </trkpt>
      <trkpt lat="43.40359" lon="5.47411">
        <ele>621</ele>
        <time>2011-04-09T08:49:38.000Z</time>
      </trkpt>
      <trkpt lat="43.40359" lon="5.47411">
        <ele>621</ele>
        <time>2011-04-09T08:49:43.000Z</time>
      </trkpt>
      <trkpt lat="43.40352" lon="5.47407">
        <ele>619</ele>
        <time>2011-04-09T08:49:48.001Z</time>
      </trkpt>
      <trkpt lat="43.40352" lon="5.47407">
        <ele>619</ele>
        <time>2011-04-09T08:49:53.000Z</time>
      </trkpt>
      <trkpt lat="43.40352" lon="5.47407">
        <ele>619</ele>
        <time>2011-04-09T08:49:58.000Z</time>
      </trkpt>
      <trkpt lat="43.40352" lon="5.47407">
        <ele>619</ele>
        <time>2011-04-09T08:50:03.001Z</time>
      </trkpt>
      <trkpt lat="43.40352" lon="5.47407">
        <ele>619</ele>
        <time>2011-04-09T08:50:08.000Z</time>
      </trkpt>
      <trkpt lat="43.40352" lon="5.47407">
        <ele>619</ele>
        <time>2011-04-09T08:50:13.000Z</time>
      </trkpt>
      <trkpt lat="43.40352" lon="5.47407">
        <ele>619</ele>
        <time>2011-04-09T08:50:18.000Z</time>
      </trkpt>
      <trkpt lat="43.40352" lon="5.47407">
        <ele>619</ele>
        <time>2011-04-09T08:50:23.000Z</time>
      </trkpt>
      <trkpt lat="43.40352" lon="5.47407">
        <ele>619</ele>
        <time>2011-04-09T08:50:28.000Z</time>
      </trkpt>
      <trkpt lat="43.40352" lon="5.47407">
        <ele>619</ele>
        <time>2011-04-09T08:50:33.000Z</time>
      </trkpt>
      <trkpt lat="43.40352" lon="5.47407">
        <ele>619</ele>
        <time>2011-04-09T08:50:38.000Z</time>
      </trkpt>
      <trkpt lat="43.40352" lon="5.47407">
        <ele>619</ele>
        <time>2011-04-09T08:50:43.001Z</time>
      </trkpt>
      <trkpt lat="43.40352" lon="5.47407">
        <ele>619</ele>
        <time>2011-04-09T08:50:48.000Z</time>
      </trkpt>
      <trkpt lat="43.40352" lon="5.47407">
        <ele>619</ele>
        <time>2011-04-09T08:50:53.000Z</time>
      </trkpt>
      <trkpt lat="43.40352" lon="5.47407">
        <ele>619</ele>
        <time>2011-04-09T08:50:58.001Z</time>
      </trkpt>
      <trkpt lat="43.40352" lon="5.47407">
        <ele>619</ele>
        <time>2011-04-09T08:51:03.000Z</time>
      </trkpt>
      <trkpt lat="43.40352" lon="5.47407">
        <ele>619</ele>
        <time>2011-04-09T08:51:08.000Z</time>
      </trkpt>
      <trkpt lat="43.40352" lon="5.47407">
        <ele>619</ele>
        <time>2011-04-09T08:51:12.999Z</time>
      </trkpt>
      <trkpt lat="43.40352" lon="5.47407">
        <ele>619</ele>
        <time>2011-04-09T08:51:18.000Z</time>
      </trkpt>
      <trkpt lat="43.40352" lon="5.47407">
        <ele>619</ele>
        <time>2011-04-09T08:51:23.000Z</time>
      </trkpt>
      <trkpt lat="43.40352" lon="5.47407">
        <ele>619</ele>
        <time>2011-04-09T08:51:28.000Z</time>
      </trkpt>
      <trkpt lat="43.40352" lon="5.47407">
        <ele>619</ele>
        <time>2011-04-09T08:51:33.000Z</time>
      </trkpt>
      <trkpt lat="43.40352" lon="5.47407">
        <ele>619</ele>
        <time>2011-04-09T08:51:38.000Z</time>
      </trkpt>
      <trkpt lat="43.4038" lon="5.47406">
        <ele>627</ele>
        <time>2011-04-09T08:51:43.000Z</time>
      </trkpt>
      <trkpt lat="43.40381" lon="5.47406">
        <ele>627</ele>
        <time>2011-04-09T08:51:48.000Z</time>
      </trkpt>
      <trkpt lat="43.40381" lon="5.47406">
        <ele>627</ele>
        <time>2011-04-09T08:51:53.000Z</time>
      </trkpt>
      <trkpt lat="43.40381" lon="5.47406">
        <ele>627</ele>
        <time>2011-04-09T08:51:58.000Z</time>
      </trkpt>
      <trkpt lat="43.40381" lon="5.47406">
        <ele>627</ele>
        <time>2011-04-09T08:52:03.001Z</time>
      </trkpt>
      <trkpt lat="43.40371" lon="5.47404">
        <ele>624</ele>
        <time>2011-04-09T08:52:08.000Z</time>
      </trkpt>
      <trkpt lat="43.40371" lon="5.47404">
        <ele>624</ele>
        <time>2011-04-09T08:52:13.000Z</time>
      </trkpt>
      <trkpt lat="43.40371" lon="5.47404">
        <ele>624</ele>
        <time>2011-04-09T08:52:18.000Z</time>
      </trkpt>
      <trkpt lat="43.40371" lon="5.47404">
        <ele>624</ele>
        <time>2011-04-09T08:52:23.000Z</time>
      </trkpt>
      <trkpt lat="43.40371" lon="5.47404">
        <ele>624</ele>
        <time>2011-04-09T08:52:28.000Z</time>
      </trkpt>
      <trkpt lat="43.40371" lon="5.47404">
        <ele>624</ele>
        <time>2011-04-09T08:52:33.000Z</time>
      </trkpt>
      <trkpt lat="43.40366" lon="5.47403">
        <ele>623</ele>
        <time>2011-04-09T08:52:38.000Z</time>
      </trkpt>
      <trkpt lat="43.40374" lon="5.47407">
        <ele>625</ele>
        <time>2011-04-09T08:52:43.000Z</time>
      </trkpt>
      <trkpt lat="43.40374" lon="5.47407">
        <ele>625</ele>
        <time>2011-04-09T08:52:48.000Z</time>
      </trkpt>
      <trkpt lat="43.40374" lon="5.47407">
        <ele>625</ele>
        <time>2011-04-09T08:52:53.001Z</time>
      </trkpt>
      <trkpt lat="43.40374" lon="5.47407">
        <ele>625</ele>
        <time>2011-04-09T08:52:58.000Z</time>
      </trkpt>
      <trkpt lat="43.40374" lon="5.47407">
        <ele>625</ele>
        <time>2011-04-09T08:53:03.000Z</time>
      </trkpt>
      <trkpt lat="43.40374" lon="5.47407">
        <ele>625</ele>
        <time>2011-04-09T08:53:08.000Z</time>
      </trkpt>
      <trkpt lat="43.40374" lon="5.47407">
        <ele>625</ele>
        <time>2011-04-09T08:53:13.000Z</time>
      </trkpt>
      <trkpt lat="43.40374" lon="5.47407">
        <ele>625</ele>
        <time>2011-04-09T08:53:18.000Z</time>
      </trkpt>
      <trkpt lat="43.40374" lon="5.47407">
        <ele>625</ele>
        <time>2011-04-09T08:53:23.000Z</time>
      </trkpt>
      <trkpt lat="43.40374" lon="5.47407">
        <ele>625</ele>
        <time>2011-04-09T08:53:28.000Z</time>
      </trkpt>
      <trkpt lat="43.40374" lon="5.47407">
        <ele>625</ele>
        <time>2011-04-09T08:53:33.000Z</time>
      </trkpt>
      <trkpt lat="43.40374" lon="5.47407">
        <ele>625</ele>
        <time>2011-04-09T08:53:38.000Z</time>
      </trkpt>
      <trkpt lat="43.40374" lon="5.47407">
        <ele>625</ele>
        <time>2011-04-09T08:53:43.000Z</time>
      </trkpt>
      <trkpt lat="43.40374" lon="5.47407">
        <ele>625</ele>
        <time>2011-04-09T08:53:48.000Z</time>
      </trkpt>
      <trkpt lat="43.40374" lon="5.47407">
        <ele>625</ele>
        <time>2011-04-09T08:53:53.000Z</time>
      </trkpt>
      <trkpt lat="43.40374" lon="5.47407">
        <ele>625</ele>
        <time>2011-04-09T08:53:58.000Z</time>
      </trkpt>
      <trkpt lat="43.40374" lon="5.47407">
        <ele>625</ele>
        <time>2011-04-09T08:54:03.000Z</time>
      </trkpt>
      <trkpt lat="43.40374" lon="5.47407">
        <ele>625</ele>
        <time>2011-04-09T08:54:08.000Z</time>
      </trkpt>
      <trkpt lat="43.40374" lon="5.47407">
        <ele>625</ele>
        <time>2011-04-09T08:54:13.000Z</time>
      </trkpt>
      <trkpt lat="43.40374" lon="5.47407">
        <ele>625</ele>
        <time>2011-04-09T08:54:18.000Z</time>
      </trkpt>
      <trkpt lat="43.40374" lon="5.47407">
        <ele>625</ele>
        <time>2011-04-09T08:54:23.000Z</time>
      </trkpt>
      <trkpt lat="43.40367" lon="5.47398">
        <ele>623</ele>
        <time>2011-04-09T08:54:28.000Z</time>
      </trkpt>
      <trkpt lat="43.4037" lon="5.47392">
        <ele>624</ele>
        <time>2011-04-09T08:54:33.000Z</time>
      </trkpt>
      <trkpt lat="43.40369" lon="5.4739">
        <ele>624</ele>
        <time>2011-04-09T08:54:38.000Z</time>
      </trkpt>
      <trkpt lat="43.40377" lon="5.47388">
        <ele>625</ele>
        <time>2011-04-09T08:54:43.000Z</time>
      </trkpt>
      <trkpt lat="43.40379" lon="5.47388">
        <ele>626</ele>
        <time>2011-04-09T08:54:48.000Z</time>
      </trkpt>
      <trkpt lat="43.40379" lon="5.47388">
        <ele>626</ele>
        <time>2011-04-09T08:54:53.000Z</time>
      </trkpt>
      <trkpt lat="43.40379" lon="5.47388">
        <ele>626</ele>
        <time>2011-04-09T08:54:58.000Z</time>
      </trkpt>
      <trkpt lat="43.40379" lon="5.47388">
        <ele>626</ele>
        <time>2011-04-09T08:55:03.000Z</time>
      </trkpt>
      <trkpt lat="43.40374" lon="5.47389">
        <ele>625</ele>
        <time>2011-04-09T08:55:08.000Z</time>
      </trkpt>
      <trkpt lat="43.40373" lon="5.4739">
        <ele>625</ele>
        <time>2011-04-09T08:55:13.000Z</time>
      </trkpt>
      <trkpt lat="43.40372" lon="5.47392">
        <ele>624</ele>
        <time>2011-04-09T08:55:18.000Z</time>
      </trkpt>
      <trkpt lat="43.40367" lon="5.4739">
        <ele>623</ele>
        <time>2011-04-09T08:55:23.000Z</time>
      </trkpt>
      <trkpt lat="43.40368" lon="5.47383">
        <ele>623</ele>
        <time>2011-04-09T08:55:28.000Z</time>
      </trkpt>
      <trkpt lat="43.40368" lon="5.47382">
        <ele>623</ele>
        <time>2011-04-09T08:55:33.000Z</time>
      </trkpt>
      <trkpt lat="43.40368" lon="5.47382">
        <ele>623</ele>
        <time>2011-04-09T08:55:38.000Z</time>
      </trkpt>
      <trkpt lat="43.40374" lon="5.47381">
        <ele>625</ele>
        <time>2011-04-09T08:55:43.000Z</time>
      </trkpt>
      <trkpt lat="43.40374" lon="5.47382">
        <ele>625</ele>
        <time>2011-04-09T08:55:48.000Z</time>
      </trkpt>
      <trkpt lat="43.40374" lon="5.47382">
        <ele>625</ele>
        <time>2011-04-09T08:55:52.999Z</time>
      </trkpt>
      <trkpt lat="43.40374" lon="5.47392">
        <ele>625</ele>
        <time>2011-04-09T08:55:58.000Z</time>
      </trkpt>
      <trkpt lat="43.40374" lon="5.47394">
        <ele>625</ele>
        <time>2011-04-09T08:56:03.000Z</time>
      </trkpt>
      <trkpt lat="43.40374" lon="5.47394">
        <ele>625</ele>
        <time>2011-04-09T08:56:08.000Z</time>
      </trkpt>
      <trkpt lat="43.40374" lon="5.47394">
        <ele>625</ele>
        <time>2011-04-09T08:56:13.000Z</time>
      </trkpt>
      <trkpt lat="43.40374" lon="5.47394">
        <ele>625</ele>
        <time>2011-04-09T08:56:18.000Z</time>
      </trkpt>
      <trkpt lat="43.40365" lon="5.47386">
        <ele>623</ele>
        <time>2011-04-09T08:56:23.000Z</time>
      </trkpt>
      <trkpt lat="43.40364" lon="5.47386">
        <ele>623</ele>
        <time>2011-04-09T08:56:28.000Z</time>
      </trkpt>
      <trkpt lat="43.40364" lon="5.47386">
        <ele>623</ele>
        <time>2011-04-09T08:56:33.000Z</time>
      </trkpt>
      <trkpt lat="43.40368" lon="5.47376">
        <ele>623</ele>
        <time>2011-04-09T08:56:37.800Z</time>
      </trkpt>
      <trkpt lat="43.40368" lon="5.47376">
        <ele>623</ele>
        <time>2011-04-09T08:56:43.000Z</time>
      </trkpt>
      <trkpt lat="43.40368" lon="5.47376">
        <ele>623</ele>
        <time>2011-04-09T08:56:48.000Z</time>
      </trkpt>
      <trkpt lat="43.4037" lon="5.47356">
        <ele>623</ele>
        <time>2011-04-09T08:56:53.000Z</time>
      </trkpt>
      <trkpt lat="43.40372" lon="5.4735">
        <ele>623</ele>
        <time>2011-04-09T08:56:58.002Z</time>
      </trkpt>
      <trkpt lat="43.40373" lon="5.47347">
        <ele>623</ele>
        <time>2011-04-09T08:57:03.000Z</time>
      </trkpt>
      <trkpt lat="43.40374" lon="5.47339">
        <ele>623</ele>
        <time>2011-04-09T08:57:08.000Z</time>
      </trkpt>
      <trkpt lat="43.40375" lon="5.47335">
        <ele>623</ele>
        <time>2011-04-09T08:57:13.000Z</time>
      </trkpt>
      <trkpt lat="43.40375" lon="5.47335">
        <ele>623</ele>
        <time>2011-04-09T08:57:18.000Z</time>
      </trkpt>
      <trkpt lat="43.40375" lon="5.47335">
        <ele>623</ele>
        <time>2011-04-09T08:57:23.000Z</time>
      </trkpt>
      <trkpt lat="43.40375" lon="5.47332">
        <ele>618</ele>
        <time>2011-04-09T08:57:28.000Z</time>
      </trkpt>
      <trkpt lat="43.40379" lon="5.47333">
        <ele>624</ele>
        <time>2011-04-09T08:57:33.000Z</time>
      </trkpt>
      <trkpt lat="43.40379" lon="5.47333">
        <ele>619</ele>
        <time>2011-04-09T08:57:38.000Z</time>
      </trkpt>
      <trkpt lat="43.40379" lon="5.47333">
        <ele>619</ele>
        <time>2011-04-09T08:57:43.000Z</time>
      </trkpt>
      <trkpt lat="43.40379" lon="5.47333">
        <ele>619</ele>
        <time>2011-04-09T08:57:48.000Z</time>
      </trkpt>
      <trkpt lat="43.40379" lon="5.47333">
        <ele>619</ele>
        <time>2011-04-09T08:57:53.000Z</time>
      </trkpt>
      <trkpt lat="43.40379" lon="5.47333">
        <ele>619</ele>
        <time>2011-04-09T08:57:58.000Z</time>
      </trkpt>
      <trkpt lat="43.40379" lon="5.47333">
        <ele>619</ele>
        <time>2011-04-09T08:58:03.000Z</time>
      </trkpt>
      <trkpt lat="43.40379" lon="5.47333">
        <ele>619</ele>
        <time>2011-04-09T08:58:08.000Z</time>
      </trkpt>
      <trkpt lat="43.40379" lon="5.47333">
        <ele>619</ele>
        <time>2011-04-09T08:58:13.000Z</time>
      </trkpt>
      <trkpt lat="43.40379" lon="5.47333">
        <ele>619</ele>
        <time>2011-04-09T08:58:18.000Z</time>
      </trkpt>
      <trkpt lat="43.40379" lon="5.47341">
        <ele>624</ele>
        <time>2011-04-09T08:58:23.000Z</time>
      </trkpt>
      <trkpt lat="43.4038" lon="5.47338">
        <ele>625</ele>
        <time>2011-04-09T08:58:28.000Z</time>
      </trkpt>
      <trkpt lat="43.4038" lon="5.47338">
        <ele>625</ele>
        <time>2011-04-09T08:58:33.000Z</time>
      </trkpt>
      <trkpt lat="43.4038" lon="5.47338">
        <ele>625</ele>
        <time>2011-04-09T08:58:38.000Z</time>
      </trkpt>
      <trkpt lat="43.40377" lon="5.47337">
        <ele>624</ele>
        <time>2011-04-09T08:58:43.000Z</time>
      </trkpt>
      <trkpt lat="43.40371" lon="5.47337">
        <ele>622</ele>
        <time>2011-04-09T08:58:48.000Z</time>
      </trkpt>
      <trkpt lat="43.40371" lon="5.47339">
        <ele>622</ele>
        <time>2011-04-09T08:58:53.000Z</time>
      </trkpt>
      <trkpt lat="43.40372" lon="5.47341">
        <ele>623</ele>
        <time>2011-04-09T08:58:58.000Z</time>
      </trkpt>
      <trkpt lat="43.40372" lon="5.47341">
        <ele>623</ele>
        <time>2011-04-09T08:59:03.000Z</time>
      </trkpt>
      <trkpt lat="43.40374" lon="5.4735">
        <ele>623</ele>
        <time>2011-04-09T08:59:08.000Z</time>
      </trkpt>
      <trkpt lat="43.40375" lon="5.4735">
        <ele>624</ele>
        <time>2011-04-09T08:59:13.000Z</time>
      </trkpt>
      <trkpt lat="43.40375" lon="5.4735">
        <ele>624</ele>
        <time>2011-04-09T08:59:18.000Z</time>
      </trkpt>
      <trkpt lat="43.40375" lon="5.4735">
        <ele>624</ele>
        <time>2011-04-09T08:59:23.000Z</time>
      </trkpt>
      <trkpt lat="43.4037" lon="5.47353">
        <ele>623</ele>
        <time>2011-04-09T08:59:27.999Z</time>
      </trkpt>
      <trkpt lat="43.40369" lon="5.47353">
        <ele>622</ele>
        <time>2011-04-09T08:59:32.999Z</time>
      </trkpt>
      <trkpt lat="43.40369" lon="5.47353">
        <ele>622</ele>
        <time>2011-04-09T08:59:38.000Z</time>
      </trkpt>
      <trkpt lat="43.40369" lon="5.47353">
        <ele>622</ele>
        <time>2011-04-09T08:59:43.000Z</time>
      </trkpt>
      <trkpt lat="43.40369" lon="5.47353">
        <ele>622</ele>
        <time>2011-04-09T08:59:47.999Z</time>
      </trkpt>
      <trkpt lat="43.40369" lon="5.47353">
        <ele>622</ele>
        <time>2011-04-09T08:59:52.800Z</time>
      </trkpt>
      <trkpt lat="43.4037" lon="5.47352">
        <ele>623</ele>
        <time>2011-04-09T08:59:58.000Z</time>
      </trkpt>
      <trkpt lat="43.4037" lon="5.47352">
        <ele>623</ele>
        <time>2011-04-09T09:00:03.000Z</time>
      </trkpt>
      <trkpt lat="43.4037" lon="5.47352">
        <ele>623</ele>
        <time>2011-04-09T09:00:08.000Z</time>
      </trkpt>
      <trkpt lat="43.4037" lon="5.47352">
        <ele>623</ele>
        <time>2011-04-09T09:00:13.000Z</time>
      </trkpt>
      <trkpt lat="43.4037" lon="5.47352">
        <ele>623</ele>
        <time>2011-04-09T09:00:18.000Z</time>
      </trkpt>
      <trkpt lat="43.4037" lon="5.47352">
        <ele>623</ele>
        <time>2011-04-09T09:00:23.000Z</time>
      </trkpt>
      <trkpt lat="43.4037" lon="5.47352">
        <ele>623</ele>
        <time>2011-04-09T09:00:28.000Z</time>
      </trkpt>
      <trkpt lat="43.4037" lon="5.47352">
        <ele>623</ele>
        <time>2011-04-09T09:00:33.000Z</time>
      </trkpt>
      <trkpt lat="43.4037" lon="5.47352">
        <ele>623</ele>
        <time>2011-04-09T09:00:38.000Z</time>
      </trkpt>
      <trkpt lat="43.4037" lon="5.47352">
        <ele>623</ele>
        <time>2011-04-09T09:00:43.000Z</time>
      </trkpt>
      <trkpt lat="43.4037" lon="5.47352">
        <ele>623</ele>
        <time>2011-04-09T09:00:48.000Z</time>
      </trkpt>
      <trkpt lat="43.4037" lon="5.47352">
        <ele>623</ele>
        <time>2011-04-09T09:00:53.000Z</time>
      </trkpt>
      <trkpt lat="43.4037" lon="5.47352">
        <ele>623</ele>
        <time>2011-04-09T09:00:58.000Z</time>
      </trkpt>
      <trkpt lat="43.4037" lon="5.47352">
        <ele>623</ele>
        <time>2011-04-09T09:01:03.000Z</time>
      </trkpt>
      <trkpt lat="43.4037" lon="5.47352">
        <ele>623</ele>
        <time>2011-04-09T09:01:08.000Z</time>
      </trkpt>
      <trkpt lat="43.4037" lon="5.47352">
        <ele>623</ele>
        <time>2011-04-09T09:01:13.000Z</time>
      </trkpt>
      <trkpt lat="43.4037" lon="5.47352">
        <ele>623</ele>
        <time>2011-04-09T09:01:18.000Z</time>
      </trkpt>
      <trkpt lat="43.4037" lon="5.47352">
        <ele>623</ele>
        <time>2011-04-09T09:01:23.000Z</time>
      </trkpt>
      <trkpt lat="43.4037" lon="5.47352">
        <ele>623</ele>
        <time>2011-04-09T09:01:28.000Z</time>
      </trkpt>
      <trkpt lat="43.4036" lon="5.47365">
        <ele>621</ele>
        <time>2011-04-09T09:06:20.561Z</time>
      </trkpt>
      <trkpt lat="43.40378" lon="5.47346">
        <ele>624</ele>
        <time>2011-04-09T09:06:24.000Z</time>
      </trkpt>
      <trkpt lat="43.40378" lon="5.47346">
        <ele>624</ele>
        <time>2011-04-09T09:06:29.000Z</time>
      </trkpt>
      <trkpt lat="43.40378" lon="5.47346">
        <ele>624</ele>
        <time>2011-04-09T09:06:34.000Z</time>
      </trkpt>
      <trkpt lat="43.40378" lon="5.47346">
        <ele>624</ele>
        <time>2011-04-09T09:06:39.000Z</time>
      </trkpt>
      <trkpt lat="43.40378" lon="5.47346">
        <ele>624</ele>
        <time>2011-04-09T09:06:44.000Z</time>
      </trkpt>
      <trkpt lat="43.40378" lon="5.47346">
        <ele>624</ele>
        <time>2011-04-09T09:06:49.000Z</time>
      </trkpt>
      <trkpt lat="43.40378" lon="5.47346">
        <ele>624</ele>
        <time>2011-04-09T09:06:54.000Z</time>
      </trkpt>
      <trkpt lat="43.40378" lon="5.47346">
        <ele>624</ele>
        <time>2011-04-09T09:06:58.800Z</time>
      </trkpt>
      <trkpt lat="43.40378" lon="5.47346">
        <ele>624</ele>
        <time>2011-04-09T09:07:04.000Z</time>
      </trkpt>
      <trkpt lat="43.40378" lon="5.47346">
        <ele>624</ele>
        <time>2011-04-09T09:07:09.000Z</time>
      </trkpt>
      <trkpt lat="43.40378" lon="5.47346">
        <ele>624</ele>
        <time>2011-04-09T09:07:14.000Z</time>
      </trkpt>
      <trkpt lat="43.40378" lon="5.47346">
        <ele>624</ele>
        <time>2011-04-09T09:07:19.000Z</time>
      </trkpt>
      <trkpt lat="43.40378" lon="5.47346">
        <ele>624</ele>
        <time>2011-04-09T09:07:24.000Z</time>
      </trkpt>
      <trkpt lat="43.40378" lon="5.47346">
        <ele>624</ele>
        <time>2011-04-09T09:07:28.800Z</time>
      </trkpt>
      <trkpt lat="43.40378" lon="5.47346">
        <ele>624</ele>
        <time>2011-04-09T09:07:34.000Z</time>
      </trkpt>
      <trkpt lat="43.40378" lon="5.47346">
        <ele>624</ele>
        <time>2011-04-09T09:07:39.000Z</time>
      </trkpt>
      <trkpt lat="43.40378" lon="5.47346">
        <ele>624</ele>
        <time>2011-04-09T09:07:44.000Z</time>
      </trkpt>
      <trkpt lat="43.40378" lon="5.47346">
        <ele>624</ele>
        <time>2011-04-09T09:07:49.000Z</time>
      </trkpt>
      <trkpt lat="43.40378" lon="5.47346">
        <ele>624</ele>
        <time>2011-04-09T09:07:54.000Z</time>
      </trkpt>
      <trkpt lat="43.40378" lon="5.47346">
        <ele>624</ele>
        <time>2011-04-09T09:07:58.999Z</time>
      </trkpt>
      <trkpt lat="43.40378" lon="5.47346">
        <ele>624</ele>
        <time>2011-04-09T09:08:03.999Z</time>
      </trkpt>
      <trkpt lat="43.40378" lon="5.47346">
        <ele>624</ele>
        <time>2011-04-09T09:08:09.000Z</time>
      </trkpt>
      <trkpt lat="43.4038" lon="5.47352">
        <ele>625</ele>
        <time>2011-04-09T09:08:13.999Z</time>
      </trkpt>
      <trkpt lat="43.4038" lon="5.47352">
        <ele>625</ele>
        <time>2011-04-09T09:08:18.999Z</time>
      </trkpt>
      <trkpt lat="43.4038" lon="5.47352">
        <ele>625</ele>
        <time>2011-04-09T09:08:24.000Z</time>
      </trkpt>
      <trkpt lat="43.4038" lon="5.47352">
        <ele>625</ele>
        <time>2011-04-09T09:08:29.000Z</time>
      </trkpt>
      <trkpt lat="43.4038" lon="5.47352">
        <ele>625</ele>
        <time>2011-04-09T09:08:34.000Z</time>
      </trkpt>
      <trkpt lat="43.4038" lon="5.47352">
        <ele>625</ele>
        <time>2011-04-09T09:08:39.000Z</time>
      </trkpt>
      <trkpt lat="43.4038" lon="5.47352">
        <ele>625</ele>
        <time>2011-04-09T09:08:43.999Z</time>
      </trkpt>
      <trkpt lat="43.4038" lon="5.47352">
        <ele>625</ele>
        <time>2011-04-09T09:08:49.000Z</time>
      </trkpt>
      <trkpt lat="43.4038" lon="5.47352">
        <ele>625</ele>
        <time>2011-04-09T09:08:54.000Z</time>
      </trkpt>
      <trkpt lat="43.4038" lon="5.47352">
        <ele>625</ele>
        <time>2011-04-09T09:08:58.999Z</time>
      </trkpt>
      <trkpt lat="43.4038" lon="5.47352">
        <ele>625</ele>
        <time>2011-04-09T09:09:04.000Z</time>
      </trkpt>
      <trkpt lat="43.4038" lon="5.47352">
        <ele>625</ele>
        <time>2011-04-09T09:09:09.000Z</time>
      </trkpt>
      <trkpt lat="43.4038" lon="5.47352">
        <ele>625</ele>
        <time>2011-04-09T09:09:14.000Z</time>
      </trkpt>
      <trkpt lat="43.4038" lon="5.47352">
        <ele>625</ele>
        <time>2011-04-09T09:09:19.000Z</time>
      </trkpt>
      <trkpt lat="43.4038" lon="5.47352">
        <ele>625</ele>
        <time>2011-04-09T09:09:24.000Z</time>
      </trkpt>
      <trkpt lat="43.4038" lon="5.47352">
        <ele>625</ele>
        <time>2011-04-09T09:09:29.000Z</time>
      </trkpt>
      <trkpt lat="43.4038" lon="5.47352">
        <ele>625</ele>
        <time>2011-04-09T09:09:34.001Z</time>
      </trkpt>
      <trkpt lat="43.4038" lon="5.47352">
        <ele>625</ele>
        <time>2011-04-09T09:09:39.001Z</time>
      </trkpt>
      <trkpt lat="43.4038" lon="5.47352">
        <ele>625</ele>
        <time>2011-04-09T09:09:44.000Z</time>
      </trkpt>
      <trkpt lat="43.40385" lon="5.47344">
        <ele>626</ele>
        <time>2011-04-09T09:09:49.001Z</time>
      </trkpt>
      <trkpt lat="43.40387" lon="5.47351">
        <ele>626</ele>
        <time>2011-04-09T09:09:54.001Z</time>
      </trkpt>
      <trkpt lat="43.40387" lon="5.47353">
        <ele>626</ele>
        <time>2011-04-09T09:09:59.001Z</time>
      </trkpt>
      <trkpt lat="43.40387" lon="5.47353">
        <ele>626</ele>
        <time>2011-04-09T09:10:04.001Z</time>
      </trkpt>
      <trkpt lat="43.40388" lon="5.47361">
        <ele>626</ele>
        <time>2011-04-09T09:10:09.000Z</time>
      </trkpt>
      <trkpt lat="43.40389" lon="5.47362">
        <ele>626</ele>
        <time>2011-04-09T09:10:14.000Z</time>
      </trkpt>
      <trkpt lat="43.40389" lon="5.47362">
        <ele>626</ele>
        <time>2011-04-09T09:10:19.001Z</time>
      </trkpt>
      <trkpt lat="43.40389" lon="5.47362">
        <ele>626</ele>
        <time>2011-04-09T09:10:24.000Z</time>
      </trkpt>
      <trkpt lat="43.40389" lon="5.47362">
        <ele>626</ele>
        <time>2011-04-09T09:10:29.000Z</time>
      </trkpt>
      <trkpt lat="43.40386" lon="5.47374">
        <ele>626</ele>
        <time>2011-04-09T09:10:34.001Z</time>
      </trkpt>
      <trkpt lat="43.40388" lon="5.47375">
        <ele>627</ele>
        <time>2011-04-09T09:10:39.000Z</time>
      </trkpt>
      <trkpt lat="43.40388" lon="5.47375">
        <ele>627</ele>
        <time>2011-04-09T09:10:44.000Z</time>
      </trkpt>
      <trkpt lat="43.40392" lon="5.47385">
        <ele>628</ele>
        <time>2011-04-09T09:10:49.000Z</time>
      </trkpt>
      <trkpt lat="43.40392" lon="5.47385">
        <ele>628</ele>
        <time>2011-04-09T09:10:54.000Z</time>
      </trkpt>
      <trkpt lat="43.40392" lon="5.47385">
        <ele>628</ele>
        <time>2011-04-09T09:10:59.000Z</time>
      </trkpt>
      <trkpt lat="43.40392" lon="5.47385">
        <ele>628</ele>
        <time>2011-04-09T09:11:04.001Z</time>
      </trkpt>
      <trkpt lat="43.40392" lon="5.47385">
        <ele>628</ele>
        <time>2011-04-09T09:11:09.000Z</time>
      </trkpt>
      <trkpt lat="43.40392" lon="5.47385">
        <ele>628</ele>
        <time>2011-04-09T09:11:14.000Z</time>
      </trkpt>
      <trkpt lat="43.40392" lon="5.47385">
        <ele>628</ele>
        <time>2011-04-09T09:11:19.000Z</time>
      </trkpt>
      <trkpt lat="43.40392" lon="5.47385">
        <ele>628</ele>
        <time>2011-04-09T09:11:24.001Z</time>
      </trkpt>
      <trkpt lat="43.40392" lon="5.47385">
        <ele>628</ele>
        <time>2011-04-09T09:11:29.001Z</time>
      </trkpt>
      <trkpt lat="43.40392" lon="5.47385">
        <ele>628</ele>
        <time>2011-04-09T09:11:34.001Z</time>
      </trkpt>
      <trkpt lat="43.40392" lon="5.47385">
        <ele>628</ele>
        <time>2011-04-09T09:11:39.001Z</time>
      </trkpt>
      <trkpt lat="43.40387" lon="5.47397">
        <ele>628</ele>
        <time>2011-04-09T09:11:44.001Z</time>
      </trkpt>
      <trkpt lat="43.40387" lon="5.47397">
        <ele>628</ele>
        <time>2011-04-09T09:11:49.000Z</time>
      </trkpt>
      <trkpt lat="43.40387" lon="5.47397">
        <ele>628</ele>
        <time>2011-04-09T09:11:54.001Z</time>
      </trkpt>
      <trkpt lat="43.40387" lon="5.47397">
        <ele>628</ele>
        <time>2011-04-09T09:11:59.000Z</time>
      </trkpt>
      <trkpt lat="43.40387" lon="5.47397">
        <ele>628</ele>
        <time>2011-04-09T09:12:04.000Z</time>
      </trkpt>
      <trkpt lat="43.40387" lon="5.47397">
        <ele>628</ele>
        <time>2011-04-09T09:12:09.000Z</time>
      </trkpt>
      <trkpt lat="43.40387" lon="5.47397">
        <ele>628</ele>
        <time>2011-04-09T09:12:14.000Z</time>
      </trkpt>
      <trkpt lat="43.40387" lon="5.47397">
        <ele>628</ele>
        <time>2011-04-09T09:12:19.001Z</time>
      </trkpt>
      <trkpt lat="43.40407" lon="5.47396">
        <ele>632</ele>
        <time>2011-04-09T09:12:24.000Z</time>
      </trkpt>
      <trkpt lat="43.40407" lon="5.47396">
        <ele>632</ele>
        <time>2011-04-09T09:12:29.000Z</time>
      </trkpt>
      <trkpt lat="43.40407" lon="5.47396">
        <ele>632</ele>
        <time>2011-04-09T09:12:34.001Z</time>
      </trkpt>
      <trkpt lat="43.40409" lon="5.47395">
        <ele>632</ele>
        <time>2011-04-09T09:12:39.001Z</time>
      </trkpt>
      <trkpt lat="43.40403" lon="5.47396">
        <ele>632</ele>
        <time>2011-04-09T09:12:44.000Z</time>
      </trkpt>
      <trkpt lat="43.40403" lon="5.47396">
        <ele>632</ele>
        <time>2011-04-09T09:12:49.000Z</time>
      </trkpt>
      <trkpt lat="43.40403" lon="5.47396">
        <ele>632</ele>
        <time>2011-04-09T09:12:54.001Z</time>
      </trkpt>
      <trkpt lat="43.40403" lon="5.47396">
        <ele>632</ele>
        <time>2011-04-09T09:12:59.001Z</time>
      </trkpt>
      <trkpt lat="43.40403" lon="5.47396">
        <ele>632</ele>
        <time>2011-04-09T09:13:04.001Z</time>
      </trkpt>
      <trkpt lat="43.40403" lon="5.47396">
        <ele>632</ele>
        <time>2011-04-09T09:13:09.000Z</time>
      </trkpt>
      <trkpt lat="43.40403" lon="5.47396">
        <ele>632</ele>
        <time>2011-04-09T09:13:13.999Z</time>
      </trkpt>
      <trkpt lat="43.40403" lon="5.47396">
        <ele>632</ele>
        <time>2011-04-09T09:13:19.000Z</time>
      </trkpt>
      <trkpt lat="43.40403" lon="5.47396">
        <ele>632</ele>
        <time>2011-04-09T09:13:24.000Z</time>
      </trkpt>
      <trkpt lat="43.40403" lon="5.47396">
        <ele>632</ele>
        <time>2011-04-09T09:13:29.000Z</time>
      </trkpt>
      <trkpt lat="43.40403" lon="5.47396">
        <ele>632</ele>
        <time>2011-04-09T09:13:34.000Z</time>
      </trkpt>
      <trkpt lat="43.40403" lon="5.47396">
        <ele>632</ele>
        <time>2011-04-09T09:13:38.999Z</time>
      </trkpt>
      <trkpt lat="43.40403" lon="5.47396">
        <ele>632</ele>
        <time>2011-04-09T09:13:44.000Z</time>
      </trkpt>
      <trkpt lat="43.40403" lon="5.47396">
        <ele>632</ele>
        <time>2011-04-09T09:13:48.999Z</time>
      </trkpt>
      <trkpt lat="43.40403" lon="5.47396">
        <ele>632</ele>
        <time>2011-04-09T09:13:53.999Z</time>
      </trkpt>
      <trkpt lat="43.40403" lon="5.47396">
        <ele>632</ele>
        <time>2011-04-09T09:13:58.999Z</time>
      </trkpt>
      <trkpt lat="43.40403" lon="5.47396">
        <ele>632</ele>
        <time>2011-04-09T09:14:04.000Z</time>
      </trkpt>
      <trkpt lat="43.40403" lon="5.47396">
        <ele>632</ele>
        <time>2011-04-09T09:14:09.000Z</time>
      </trkpt>
      <trkpt lat="43.40403" lon="5.47396">
        <ele>632</ele>
        <time>2011-04-09T09:14:14.000Z</time>
      </trkpt>
      <trkpt lat="43.40403" lon="5.47396">
        <ele>632</ele>
        <time>2011-04-09T09:14:19.001Z</time>
      </trkpt>
      <trkpt lat="43.40403" lon="5.47396">
        <ele>632</ele>
        <time>2011-04-09T09:14:24.000Z</time>
      </trkpt>
      <trkpt lat="43.40403" lon="5.47396">
        <ele>632</ele>
        <time>2011-04-09T09:14:29.000Z</time>
      </trkpt>
      <trkpt lat="43.40403" lon="5.47396">
        <ele>632</ele>
        <time>2011-04-09T09:14:34.000Z</time>
      </trkpt>
      <trkpt lat="43.40403" lon="5.47396">
        <ele>632</ele>
        <time>2011-04-09T09:14:39.001Z</time>
      </trkpt>
      <trkpt lat="43.40403" lon="5.47396">
        <ele>632</ele>
        <time>2011-04-09T09:14:44.001Z</time>
      </trkpt>
      <trkpt lat="43.40403" lon="5.47396">
        <ele>632</ele>
        <time>2011-04-09T09:14:49.001Z</time>
      </trkpt>
      <trkpt lat="43.40422" lon="5.47403">
        <ele>632</ele>
        <time>2011-04-09T09:14:54.000Z</time>
      </trkpt>
      <trkpt lat="43.40422" lon="5.47403">
        <ele>632</ele>
        <time>2011-04-09T09:14:59.000Z</time>
      </trkpt>
      <trkpt lat="43.40422" lon="5.47403">
        <ele>632</ele>
        <time>2011-04-09T09:15:04.001Z</time>
      </trkpt>
      <trkpt lat="43.40427" lon="5.47403">
        <ele>631</ele>
        <time>2011-04-09T09:15:09.000Z</time>
      </trkpt>
      <trkpt lat="43.40427" lon="5.47404">
        <ele>631</ele>
        <time>2011-04-09T09:15:14.000Z</time>
      </trkpt>
      <trkpt lat="43.40427" lon="5.47404">
        <ele>631</ele>
        <time>2011-04-09T09:15:19.000Z</time>
      </trkpt>
      <trkpt lat="43.40427" lon="5.47404">
        <ele>631</ele>
        <time>2011-04-09T09:15:24.000Z</time>
      </trkpt>
      <trkpt lat="43.40427" lon="5.47404">
        <ele>631</ele>
        <time>2011-04-09T09:15:29.000Z</time>
      </trkpt>
      <trkpt lat="43.40429" lon="5.47408">
        <ele>632</ele>
        <time>2011-04-09T09:15:34.000Z</time>
      </trkpt>
      <trkpt lat="43.40428" lon="5.47407">
        <ele>632</ele>
        <time>2011-04-09T09:15:39.000Z</time>
      </trkpt>
      <trkpt lat="43.40433" lon="5.47415">
        <ele>631</ele>
        <time>2011-04-09T09:15:44.000Z</time>
      </trkpt>
      <trkpt lat="43.40433" lon="5.47416">
        <ele>631</ele>
        <time>2011-04-09T09:15:49.000Z</time>
      </trkpt>
      <trkpt lat="43.40433" lon="5.47416">
        <ele>631</ele>
        <time>2011-04-09T09:15:54.000Z</time>
      </trkpt>
      <trkpt lat="43.40433" lon="5.47416">
        <ele>631</ele>
        <time>2011-04-09T09:15:59.000Z</time>
      </trkpt>
      <trkpt lat="43.40433" lon="5.47416">
        <ele>631</ele>
        <time>2011-04-09T09:16:04.000Z</time>
      </trkpt>
      <trkpt lat="43.40439" lon="5.47423">
        <ele>631</ele>
        <time>2011-04-09T09:16:09.000Z</time>
      </trkpt>
      <trkpt lat="43.40439" lon="5.47424">
        <ele>631</ele>
        <time>2011-04-09T09:16:14.000Z</time>
      </trkpt>
      <trkpt lat="43.40439" lon="5.47424">
        <ele>631</ele>
        <time>2011-04-09T09:16:19.000Z</time>
      </trkpt>
      <trkpt lat="43.40439" lon="5.47424">
        <ele>631</ele>
        <time>2011-04-09T09:16:24.000Z</time>
      </trkpt>
      <trkpt lat="43.40439" lon="5.47424">
        <ele>631</ele>
        <time>2011-04-09T09:16:29.000Z</time>
      </trkpt>
      <trkpt lat="43.40439" lon="5.47424">
        <ele>631</ele>
        <time>2011-04-09T09:16:34.001Z</time>
      </trkpt>
      <trkpt lat="43.40431" lon="5.47428">
        <ele>633</ele>
        <time>2011-04-09T09:16:39.001Z</time>
      </trkpt>
      <trkpt lat="43.40431" lon="5.47426">
        <ele>634</ele>
        <time>2011-04-09T09:16:44.001Z</time>
      </trkpt>
      <trkpt lat="43.40431" lon="5.47426">
        <ele>634</ele>
        <time>2011-04-09T09:16:49.001Z</time>
      </trkpt>
      <trkpt lat="43.40431" lon="5.47426">
        <ele>634</ele>
        <time>2011-04-09T09:16:54.000Z</time>
      </trkpt>
      <trkpt lat="43.40431" lon="5.47426">
        <ele>634</ele>
        <time>2011-04-09T09:16:59.000Z</time>
      </trkpt>
      <trkpt lat="43.40431" lon="5.47426">
        <ele>634</ele>
        <time>2011-04-09T09:17:04.001Z</time>
      </trkpt>
      <trkpt lat="43.40431" lon="5.47426">
        <ele>634</ele>
        <time>2011-04-09T09:17:09.001Z</time>
      </trkpt>
      <trkpt lat="43.40431" lon="5.47426">
        <ele>634</ele>
        <time>2011-04-09T09:17:14.001Z</time>
      </trkpt>
      <trkpt lat="43.40426" lon="5.47418">
        <ele>637</ele>
        <time>2011-04-09T09:17:19.000Z</time>
      </trkpt>
      <trkpt lat="43.40421" lon="5.47413">
        <ele>638</ele>
        <time>2011-04-09T09:17:24.000Z</time>
      </trkpt>
      <trkpt lat="43.40419" lon="5.47412">
        <ele>639</ele>
        <time>2011-04-09T09:17:29.000Z</time>
      </trkpt>
      <trkpt lat="43.40419" lon="5.47412">
        <ele>639</ele>
        <time>2011-04-09T09:17:34.000Z</time>
      </trkpt>
      <trkpt lat="43.40419" lon="5.47412">
        <ele>639</ele>
        <time>2011-04-09T09:17:39.000Z</time>
      </trkpt>
      <trkpt lat="43.40419" lon="5.47412">
        <ele>639</ele>
        <time>2011-04-09T09:17:44.000Z</time>
      </trkpt>
      <trkpt lat="43.40419" lon="5.47412">
        <ele>639</ele>
        <time>2011-04-09T09:17:48.999Z</time>
      </trkpt>
      <trkpt lat="43.40419" lon="5.47412">
        <ele>639</ele>
        <time>2011-04-09T09:17:53.999Z</time>
      </trkpt>
      <trkpt lat="43.40412" lon="5.47412">
        <ele>639</ele>
        <time>2011-04-09T09:17:59.000Z</time>
      </trkpt>
      <trkpt lat="43.40412" lon="5.47415">
        <ele>640</ele>
        <time>2011-04-09T09:18:04.001Z</time>
      </trkpt>
      <trkpt lat="43.40409" lon="5.47418">
        <ele>639</ele>
        <time>2011-04-09T09:18:09.000Z</time>
      </trkpt>
      <trkpt lat="43.40409" lon="5.47418">
        <ele>639</ele>
        <time>2011-04-09T09:18:14.000Z</time>
      </trkpt>
      <trkpt lat="43.40409" lon="5.47418">
        <ele>639</ele>
        <time>2011-04-09T09:18:19.000Z</time>
      </trkpt>
      <trkpt lat="43.40409" lon="5.47418">
        <ele>639</ele>
        <time>2011-04-09T09:18:24.001Z</time>
      </trkpt>
      <trkpt lat="43.40409" lon="5.47418">
        <ele>639</ele>
        <time>2011-04-09T09:18:29.000Z</time>
      </trkpt>
      <trkpt lat="43.40406" lon="5.47432">
        <ele>634</ele>
        <time>2011-04-09T09:18:34.000Z</time>
      </trkpt>
      <trkpt lat="43.40406" lon="5.47435">
        <ele>633</ele>
        <time>2011-04-09T09:18:39.000Z</time>
      </trkpt>
      <trkpt lat="43.40406" lon="5.47435">
        <ele>633</ele>
        <time>2011-04-09T09:18:44.000Z</time>
      </trkpt>
      <trkpt lat="43.40406" lon="5.47435">
        <ele>633</ele>
        <time>2011-04-09T09:18:49.001Z</time>
      </trkpt>
      <trkpt lat="43.40404" lon="5.47433">
        <ele>634</ele>
        <time>2011-04-09T09:18:54.001Z</time>
      </trkpt>
      <trkpt lat="43.40404" lon="5.47433">
        <ele>634</ele>
        <time>2011-04-09T09:18:59.000Z</time>
      </trkpt>
      <trkpt lat="43.40404" lon="5.47433">
        <ele>634</ele>
        <time>2011-04-09T09:19:04.001Z</time>
      </trkpt>
      <trkpt lat="43.40404" lon="5.47433">
        <ele>634</ele>
        <time>2011-04-09T09:19:09.001Z</time>
      </trkpt>
      <trkpt lat="43.40404" lon="5.47433">
        <ele>634</ele>
        <time>2011-04-09T09:19:14.001Z</time>
      </trkpt>
      <trkpt lat="43.40404" lon="5.47433">
        <ele>634</ele>
        <time>2011-04-09T09:19:19.000Z</time>
      </trkpt>
      <trkpt lat="43.40404" lon="5.47433">
        <ele>634</ele>
        <time>2011-04-09T09:19:24.000Z</time>
      </trkpt>
      <trkpt lat="43.40404" lon="5.47433">
        <ele>634</ele>
        <time>2011-04-09T09:19:29.001Z</time>
      </trkpt>
      <trkpt lat="43.40404" lon="5.47433">
        <ele>634</ele>
        <time>2011-04-09T09:19:34.001Z</time>
      </trkpt>
      <trkpt lat="43.40404" lon="5.47433">
        <ele>634</ele>
        <time>2011-04-09T09:19:39.001Z</time>
      </trkpt>
      <trkpt lat="43.40404" lon="5.47433">
        <ele>634</ele>
        <time>2011-04-09T09:19:44.001Z</time>
      </trkpt>
      <trkpt lat="43.40404" lon="5.47433">
        <ele>634</ele>
        <time>2011-04-09T09:19:49.001Z</time>
      </trkpt>
      <trkpt lat="43.40404" lon="5.47433">
        <ele>634</ele>
        <time>2011-04-09T09:19:54.001Z</time>
      </trkpt>
      <trkpt lat="43.40404" lon="5.47433">
        <ele>634</ele>
        <time>2011-04-09T09:19:59.001Z</time>
      </trkpt>
      <trkpt lat="43.40404" lon="5.47433">
        <ele>634</ele>
        <time>2011-04-09T09:20:04.000Z</time>
      </trkpt>
      <trkpt lat="43.40404" lon="5.47433">
        <ele>634</ele>
        <time>2011-04-09T09:20:09.001Z</time>
      </trkpt>
      <trkpt lat="43.40413" lon="5.47448">
        <ele>632</ele>
        <time>2011-04-09T09:20:14.001Z</time>
      </trkpt>
      <trkpt lat="43.40413" lon="5.47447">
        <ele>632</ele>
        <time>2011-04-09T09:20:19.000Z</time>
      </trkpt>
      <trkpt lat="43.40413" lon="5.47447">
        <ele>632</ele>
        <time>2011-04-09T09:20:24.001Z</time>
      </trkpt>
      <trkpt lat="43.40413" lon="5.47447">
        <ele>632</ele>
        <time>2011-04-09T09:20:29.001Z</time>
      </trkpt>
      <trkpt lat="43.40413" lon="5.47447">
        <ele>632</ele>
        <time>2011-04-09T09:20:34.001Z</time>
      </trkpt>
      <trkpt lat="43.40413" lon="5.47447">
        <ele>632</ele>
        <time>2011-04-09T09:20:39.000Z</time>
      </trkpt>
      <trkpt lat="43.40413" lon="5.47447">
        <ele>632</ele>
        <time>2011-04-09T09:20:44.001Z</time>
      </trkpt>
      <trkpt lat="43.40413" lon="5.47447">
        <ele>632</ele>
        <time>2011-04-09T09:20:49.000Z</time>
      </trkpt>
      <trkpt lat="43.40413" lon="5.47447">
        <ele>632</ele>
        <time>2011-04-09T09:20:54.000Z</time>
      </trkpt>
      <trkpt lat="43.40406" lon="5.47441">
        <ele>632</ele>
        <time>2011-04-09T09:20:59.000Z</time>
      </trkpt>
      <trkpt lat="43.40409" lon="5.47441">
        <ele>633</ele>
        <time>2011-04-09T09:21:04.000Z</time>
      </trkpt>
      <trkpt lat="43.40409" lon="5.47441">
        <ele>633</ele>
        <time>2011-04-09T09:21:09.001Z</time>
      </trkpt>
      <trkpt lat="43.40409" lon="5.47441">
        <ele>633</ele>
        <time>2011-04-09T09:21:14.000Z</time>
      </trkpt>
      <trkpt lat="43.40407" lon="5.47439">
        <ele>633</ele>
        <time>2011-04-09T09:21:19.001Z</time>
      </trkpt>
      <trkpt lat="43.40403" lon="5.47437">
        <ele>632</ele>
        <time>2011-04-09T09:21:24.000Z</time>
      </trkpt>
      <trkpt lat="43.404" lon="5.47434">
        <ele>632</ele>
        <time>2011-04-09T09:21:28.999Z</time>
      </trkpt>
      <trkpt lat="43.40402" lon="5.47431">
        <ele>633</ele>
        <time>2011-04-09T09:21:33.999Z</time>
      </trkpt>
      <trkpt lat="43.40402" lon="5.47431">
        <ele>633</ele>
        <time>2011-04-09T09:21:38.999Z</time>
      </trkpt>
      <trkpt lat="43.40402" lon="5.47431">
        <ele>633</ele>
        <time>2011-04-09T09:21:43.999Z</time>
      </trkpt>
      <trkpt lat="43.40402" lon="5.47431">
        <ele>633</ele>
        <time>2011-04-09T09:21:48.999Z</time>
      </trkpt>
      <trkpt lat="43.40402" lon="5.47431">
        <ele>633</ele>
        <time>2011-04-09T09:21:54.000Z</time>
      </trkpt>
      <trkpt lat="43.40402" lon="5.47431">
        <ele>633</ele>
        <time>2011-04-09T09:21:58.999Z</time>
      </trkpt>
      <trkpt lat="43.40402" lon="5.47431">
        <ele>633</ele>
        <time>2011-04-09T09:22:04.000Z</time>
      </trkpt>
      <trkpt lat="43.40402" lon="5.47431">
        <ele>633</ele>
        <time>2011-04-09T09:22:09.000Z</time>
      </trkpt>
      <trkpt lat="43.40402" lon="5.47431">
        <ele>633</ele>
        <time>2011-04-09T09:22:14.000Z</time>
      </trkpt>
      <trkpt lat="43.40404" lon="5.47408">
        <ele>634</ele>
        <time>2011-04-09T09:22:19.000Z</time>
      </trkpt>
      <trkpt lat="43.40403" lon="5.47405">
        <ele>633</ele>
        <time>2011-04-09T09:22:23.999Z</time>
      </trkpt>
      <trkpt lat="43.40413" lon="5.47398">
        <ele>633</ele>
        <time>2011-04-09T09:22:29.000Z</time>
      </trkpt>
      <trkpt lat="43.40419" lon="5.47394">
        <ele>629</ele>
        <time>2011-04-09T09:22:34.000Z</time>
      </trkpt>
      <trkpt lat="43.40419" lon="5.47394">
        <ele>629</ele>
        <time>2011-04-09T09:22:39.001Z</time>
      </trkpt>
      <trkpt lat="43.40419" lon="5.47394">
        <ele>629</ele>
        <time>2011-04-09T09:22:44.000Z</time>
      </trkpt>
      <trkpt lat="43.40419" lon="5.47394">
        <ele>629</ele>
        <time>2011-04-09T09:22:49.000Z</time>
      </trkpt>
      <trkpt lat="43.40433" lon="5.4741">
        <ele>630</ele>
        <time>2011-04-09T09:22:54.001Z</time>
      </trkpt>
      <trkpt lat="43.40433" lon="5.4741">
        <ele>630</ele>
        <time>2011-04-09T09:22:59.001Z</time>
      </trkpt>
      <trkpt lat="43.4044" lon="5.47413">
        <ele>627</ele>
        <time>2011-04-09T09:23:04.001Z</time>
      </trkpt>
      <trkpt lat="43.40442" lon="5.47416">
        <ele>627</ele>
        <time>2011-04-09T09:23:09.001Z</time>
      </trkpt>
      <trkpt lat="43.40442" lon="5.47416">
        <ele>627</ele>
        <time>2011-04-09T09:23:14.001Z</time>
      </trkpt>
      <trkpt lat="43.40442" lon="5.47416">
        <ele>627</ele>
        <time>2011-04-09T09:23:19.000Z</time>
      </trkpt>
      <trkpt lat="43.40439" lon="5.47424">
        <ele>631</ele>
        <time>2011-04-09T09:23:24.001Z</time>
      </trkpt>
      <trkpt lat="43.40439" lon="5.47424">
        <ele>631</ele>
        <time>2011-04-09T09:23:29.001Z</time>
      </trkpt>
      <trkpt lat="43.40439" lon="5.47424">
        <ele>631</ele>
        <time>2011-04-09T09:23:34.001Z</time>
      </trkpt>
      <trkpt lat="43.40439" lon="5.47424">
        <ele>631</ele>
        <time>2011-04-09T09:23:39.001Z</time>
      </trkpt>
      <trkpt lat="43.40439" lon="5.47424">
        <ele>631</ele>
        <time>2011-04-09T09:23:44.000Z</time>
      </trkpt>
      <trkpt lat="43.40439" lon="5.47424">
        <ele>631</ele>
        <time>2011-04-09T09:23:49.001Z</time>
      </trkpt>
      <trkpt lat="43.40439" lon="5.47424">
        <ele>631</ele>
        <time>2011-04-09T09:23:54.000Z</time>
      </trkpt>
      <trkpt lat="43.40439" lon="5.47424">
        <ele>631</ele>
        <time>2011-04-09T09:23:59.000Z</time>
      </trkpt>
      <trkpt lat="43.40439" lon="5.47424">
        <ele>631</ele>
        <time>2011-04-09T09:24:04.000Z</time>
      </trkpt>
      <trkpt lat="43.40439" lon="5.47424">
        <ele>631</ele>
        <time>2011-04-09T09:24:09.000Z</time>
      </trkpt>
      <trkpt lat="43.40439" lon="5.47424">
        <ele>631</ele>
        <time>2011-04-09T09:24:14.000Z</time>
      </trkpt>
      <trkpt lat="43.40439" lon="5.47424">
        <ele>631</ele>
        <time>2011-04-09T09:24:19.000Z</time>
      </trkpt>
      <trkpt lat="43.40439" lon="5.47424">
        <ele>631</ele>
        <time>2011-04-09T09:24:24.000Z</time>
      </trkpt>
      <trkpt lat="43.40439" lon="5.47424">
        <ele>631</ele>
        <time>2011-04-09T09:24:29.001Z</time>
      </trkpt>
      <trkpt lat="43.40437" lon="5.47433">
        <ele>631</ele>
        <time>2011-04-09T09:24:34.000Z</time>
      </trkpt>
      <trkpt lat="43.40437" lon="5.47433">
        <ele>631</ele>
        <time>2011-04-09T09:24:39.000Z</time>
      </trkpt>
      <trkpt lat="43.40437" lon="5.47433">
        <ele>631</ele>
        <time>2011-04-09T09:24:44.000Z</time>
      </trkpt>
      <trkpt lat="43.40437" lon="5.47433">
        <ele>631</ele>
        <time>2011-04-09T09:24:49.000Z</time>
      </trkpt>
      <trkpt lat="43.40437" lon="5.47433">
        <ele>631</ele>
        <time>2011-04-09T09:24:54.000Z</time>
      </trkpt>
      <trkpt lat="43.40437" lon="5.47433">
        <ele>631</ele>
        <time>2011-04-09T09:24:59.000Z</time>
      </trkpt>
      <trkpt lat="43.40437" lon="5.47433">
        <ele>631</ele>
        <time>2011-04-09T09:25:04.000Z</time>
      </trkpt>
      <trkpt lat="43.40437" lon="5.47433">
        <ele>631</ele>
        <time>2011-04-09T09:25:09.001Z</time>
      </trkpt>
      <trkpt lat="43.40437" lon="5.47433">
        <ele>631</ele>
        <time>2011-04-09T09:25:14.000Z</time>
      </trkpt>
      <trkpt lat="43.40437" lon="5.47433">
        <ele>631</ele>
        <time>2011-04-09T09:25:19.001Z</time>
      </trkpt>
      <trkpt lat="43.40439" lon="5.47456">
        <ele>629</ele>
        <time>2011-04-09T09:25:24.000Z</time>
      </trkpt>
      <trkpt lat="43.40438" lon="5.47458">
        <ele>629</ele>
        <time>2011-04-09T09:25:29.000Z</time>
      </trkpt>
      <trkpt lat="43.40438" lon="5.47458">
        <ele>629</ele>
        <time>2011-04-09T09:25:34.000Z</time>
      </trkpt>
      <trkpt lat="43.40438" lon="5.47458">
        <ele>629</ele>
        <time>2011-04-09T09:25:39.001Z</time>
      </trkpt>
      <trkpt lat="43.40438" lon="5.47458">
        <ele>629</ele>
        <time>2011-04-09T09:25:44.001Z</time>
      </trkpt>
      <trkpt lat="43.40438" lon="5.47458">
        <ele>629</ele>
        <time>2011-04-09T09:25:49.001Z</time>
      </trkpt>
      <trkpt lat="43.40438" lon="5.47458">
        <ele>629</ele>
        <time>2011-04-09T09:25:54.001Z</time>
      </trkpt>
      <trkpt lat="43.40438" lon="5.47458">
        <ele>629</ele>
        <time>2011-04-09T09:25:59.000Z</time>
      </trkpt>
      <trkpt lat="43.40438" lon="5.47458">
        <ele>629</ele>
        <time>2011-04-09T09:26:04.001Z</time>
      </trkpt>
      <trkpt lat="43.40456" lon="5.47474">
        <ele>625</ele>
        <time>2011-04-09T09:26:09.001Z</time>
      </trkpt>
      <trkpt lat="43.40457" lon="5.47472">
        <ele>625</ele>
        <time>2011-04-09T09:26:14.000Z</time>
      </trkpt>
      <trkpt lat="43.40458" lon="5.47473">
        <ele>625</ele>
        <time>2011-04-09T09:26:19.000Z</time>
      </trkpt>
      <trkpt lat="43.40466" lon="5.47473">
        <ele>623</ele>
        <time>2011-04-09T09:26:24.000Z</time>
      </trkpt>
      <trkpt lat="43.40466" lon="5.47473">
        <ele>623</ele>
        <time>2011-04-09T09:26:29.000Z</time>
      </trkpt>
      <trkpt lat="43.40466" lon="5.47481">
        <ele>623</ele>
        <time>2011-04-09T09:26:34.000Z</time>
      </trkpt>
      <trkpt lat="43.40466" lon="5.47486">
        <ele>623</ele>
        <time>2011-04-09T09:26:39.000Z</time>
      </trkpt>
      <trkpt lat="43.40467" lon="5.47488">
        <ele>623</ele>
        <time>2011-04-09T09:26:44.000Z</time>
      </trkpt>
      <trkpt lat="43.40469" lon="5.47489">
        <ele>622</ele>
        <time>2011-04-09T09:26:49.000Z</time>
      </trkpt>
      <trkpt lat="43.40469" lon="5.47489">
        <ele>622</ele>
        <time>2011-04-09T09:26:54.004Z</time>
      </trkpt>
      <trkpt lat="43.40469" lon="5.47489">
        <ele>622</ele>
        <time>2011-04-09T09:26:59.001Z</time>
      </trkpt>
      <trkpt lat="43.40468" lon="5.47496">
        <ele>622</ele>
        <time>2011-04-09T09:27:04.001Z</time>
      </trkpt>
      <trkpt lat="43.40465" lon="5.47497">
        <ele>623</ele>
        <time>2011-04-09T09:27:09.000Z</time>
      </trkpt>
      <trkpt lat="43.40465" lon="5.47497">
        <ele>623</ele>
        <time>2011-04-09T09:27:14.001Z</time>
      </trkpt>
      <trkpt lat="43.40465" lon="5.47497">
        <ele>623</ele>
        <time>2011-04-09T09:27:19.001Z</time>
      </trkpt>
      <trkpt lat="43.40465" lon="5.47497">
        <ele>623</ele>
        <time>2011-04-09T09:27:24.001Z</time>
      </trkpt>
      <trkpt lat="43.40465" lon="5.47497">
        <ele>623</ele>
        <time>2011-04-09T09:27:29.001Z</time>
      </trkpt>
      <trkpt lat="43.40465" lon="5.47497">
        <ele>623</ele>
        <time>2011-04-09T09:27:34.001Z</time>
      </trkpt>
      <trkpt lat="43.40465" lon="5.47497">
        <ele>623</ele>
        <time>2011-04-09T09:27:39.000Z</time>
      </trkpt>
      <trkpt lat="43.40465" lon="5.47497">
        <ele>623</ele>
        <time>2011-04-09T09:27:44.001Z</time>
      </trkpt>
      <trkpt lat="43.40465" lon="5.47497">
        <ele>623</ele>
        <time>2011-04-09T09:27:49.001Z</time>
      </trkpt>
      <trkpt lat="43.40465" lon="5.47497">
        <ele>623</ele>
        <time>2011-04-09T09:27:54.000Z</time>
      </trkpt>
      <trkpt lat="43.40465" lon="5.47497">
        <ele>623</ele>
        <time>2011-04-09T09:27:59.000Z</time>
      </trkpt>
      <trkpt lat="43.40465" lon="5.47497">
        <ele>623</ele>
        <time>2011-04-09T09:28:04.000Z</time>
      </trkpt>
      <trkpt lat="43.40465" lon="5.47497">
        <ele>623</ele>
        <time>2011-04-09T09:28:09.001Z</time>
      </trkpt>
      <trkpt lat="43.40465" lon="5.47497">
        <ele>623</ele>
        <time>2011-04-09T09:28:14.001Z</time>
      </trkpt>
      <trkpt lat="43.40465" lon="5.47497">
        <ele>623</ele>
        <time>2011-04-09T09:28:19.001Z</time>
      </trkpt>
      <trkpt lat="43.40465" lon="5.47497">
        <ele>623</ele>
        <time>2011-04-09T09:28:24.001Z</time>
      </trkpt>
      <trkpt lat="43.40465" lon="5.47497">
        <ele>623</ele>
        <time>2011-04-09T09:28:28.801Z</time>
      </trkpt>
      <trkpt lat="43.40495" lon="5.47463">
        <ele>619</ele>
        <time>2011-04-09T09:28:34.000Z</time>
      </trkpt>
      <trkpt lat="43.40498" lon="5.4746">
        <ele>618</ele>
        <time>2011-04-09T09:28:39.000Z</time>
      </trkpt>
      <trkpt lat="43.40498" lon="5.4746">
        <ele>618</ele>
        <time>2011-04-09T09:28:44.000Z</time>
      </trkpt>
      <trkpt lat="43.40498" lon="5.4746">
        <ele>618</ele>
        <time>2011-04-09T09:28:49.000Z</time>
      </trkpt>
      <trkpt lat="43.40501" lon="5.47442">
        <ele>598</ele>
        <time>2011-04-09T09:28:54.000Z</time>
      </trkpt>
      <trkpt lat="43.40499" lon="5.47433">
        <ele>614</ele>
        <time>2011-04-09T09:28:59.001Z</time>
      </trkpt>
      <trkpt lat="43.40497" lon="5.47426">
        <ele>611</ele>
        <time>2011-04-09T09:29:04.001Z</time>
      </trkpt>
      <trkpt lat="43.40492" lon="5.4742">
        <ele>611</ele>
        <time>2011-04-09T09:29:09.001Z</time>
      </trkpt>
      <trkpt lat="43.40489" lon="5.47411">
        <ele>610</ele>
        <time>2011-04-09T09:29:14.001Z</time>
      </trkpt>
      <trkpt lat="43.40486" lon="5.47408">
        <ele>612</ele>
        <time>2011-04-09T09:29:19.001Z</time>
      </trkpt>
      <trkpt lat="43.40482" lon="5.47401">
        <ele>613</ele>
        <time>2011-04-09T09:29:24.000Z</time>
      </trkpt>
      <trkpt lat="43.4048" lon="5.47394">
        <ele>614</ele>
        <time>2011-04-09T09:29:29.001Z</time>
      </trkpt>
      <trkpt lat="43.40479" lon="5.47386">
        <ele>614</ele>
        <time>2011-04-09T09:29:34.000Z</time>
      </trkpt>
      <trkpt lat="43.40479" lon="5.47377">
        <ele>614</ele>
        <time>2011-04-09T09:29:39.001Z</time>
      </trkpt>
      <trkpt lat="43.40477" lon="5.47369">
        <ele>613</ele>
        <time>2011-04-09T09:29:44.001Z</time>
      </trkpt>
      <trkpt lat="43.40471" lon="5.4736">
        <ele>613</ele>
        <time>2011-04-09T09:29:49.001Z</time>
      </trkpt>
      <trkpt lat="43.40467" lon="5.47355">
        <ele>614</ele>
        <time>2011-04-09T09:29:54.001Z</time>
      </trkpt>
      <trkpt lat="43.40465" lon="5.47349">
        <ele>614</ele>
        <time>2011-04-09T09:29:59.001Z</time>
      </trkpt>
      <trkpt lat="43.40462" lon="5.47343">
        <ele>615</ele>
        <time>2011-04-09T09:30:04.001Z</time>
      </trkpt>
      <trkpt lat="43.40457" lon="5.47339">
        <ele>617</ele>
        <time>2011-04-09T09:30:09.000Z</time>
      </trkpt>
      <trkpt lat="43.40453" lon="5.47331">
        <ele>611</ele>
        <time>2011-04-09T09:30:14.001Z</time>
      </trkpt>
      <trkpt lat="43.40452" lon="5.47323">
        <ele>612</ele>
        <time>2011-04-09T09:30:19.001Z</time>
      </trkpt>
      <trkpt lat="43.40449" lon="5.47312">
        <ele>612</ele>
        <time>2011-04-09T09:30:24.000Z</time>
      </trkpt>
      <trkpt lat="43.40447" lon="5.47303">
        <ele>611</ele>
        <time>2011-04-09T09:30:29.000Z</time>
      </trkpt>
      <trkpt lat="43.40444" lon="5.47295">
        <ele>611</ele>
        <time>2011-04-09T09:30:34.000Z</time>
      </trkpt>
      <trkpt lat="43.40436" lon="5.4729">
        <ele>613</ele>
        <time>2011-04-09T09:30:39.000Z</time>
      </trkpt>
      <trkpt lat="43.40429" lon="5.47286">
        <ele>613</ele>
        <time>2011-04-09T09:30:44.000Z</time>
      </trkpt>
      <trkpt lat="43.40426" lon="5.4728">
        <ele>614</ele>
        <time>2011-04-09T09:30:49.000Z</time>
      </trkpt>
      <trkpt lat="43.40422" lon="5.47273">
        <ele>614</ele>
        <time>2011-04-09T09:30:54.000Z</time>
      </trkpt>
      <trkpt lat="43.40419" lon="5.47265">
        <ele>616</ele>
        <time>2011-04-09T09:30:59.000Z</time>
      </trkpt>
      <trkpt lat="43.40415" lon="5.47256">
        <ele>620</ele>
        <time>2011-04-09T09:31:04.000Z</time>
      </trkpt>
      <trkpt lat="43.40413" lon="5.47251">
        <ele>620</ele>
        <time>2011-04-09T09:31:09.000Z</time>
      </trkpt>
      <trkpt lat="43.40413" lon="5.47251">
        <ele>620</ele>
        <time>2011-04-09T09:31:14.000Z</time>
      </trkpt>
      <trkpt lat="43.4041" lon="5.4724">
        <ele>615</ele>
        <time>2011-04-09T09:31:19.000Z</time>
      </trkpt>
      <trkpt lat="43.4041" lon="5.47228">
        <ele>612</ele>
        <time>2011-04-09T09:31:24.000Z</time>
      </trkpt>
      <trkpt lat="43.40413" lon="5.47219">
        <ele>610</ele>
        <time>2011-04-09T09:31:29.000Z</time>
      </trkpt>
      <trkpt lat="43.40418" lon="5.47215">
        <ele>610</ele>
        <time>2011-04-09T09:31:34.000Z</time>
      </trkpt>
      <trkpt lat="43.40418" lon="5.47211">
        <ele>610</ele>
        <time>2011-04-09T09:31:38.999Z</time>
      </trkpt>
      <trkpt lat="43.40418" lon="5.47204">
        <ele>610</ele>
        <time>2011-04-09T09:31:43.999Z</time>
      </trkpt>
      <trkpt lat="43.40421" lon="5.47196">
        <ele>610</ele>
        <time>2011-04-09T09:31:48.999Z</time>
      </trkpt>
      <trkpt lat="43.40425" lon="5.47187">
        <ele>610</ele>
        <time>2011-04-09T09:31:54.000Z</time>
      </trkpt>
      <trkpt lat="43.40428" lon="5.47179">
        <ele>610</ele>
        <time>2011-04-09T09:31:58.999Z</time>
      </trkpt>
      <trkpt lat="43.40432" lon="5.47172">
        <ele>610</ele>
        <time>2011-04-09T09:32:04.000Z</time>
      </trkpt>
      <trkpt lat="43.40435" lon="5.47165">
        <ele>612</ele>
        <time>2011-04-09T09:32:09.000Z</time>
      </trkpt>
      <trkpt lat="43.40436" lon="5.47163">
        <ele>612</ele>
        <time>2011-04-09T09:32:13.999Z</time>
      </trkpt>
      <trkpt lat="43.40436" lon="5.47163">
        <ele>612</ele>
        <time>2011-04-09T09:32:18.999Z</time>
      </trkpt>
      <trkpt lat="43.40436" lon="5.47163">
        <ele>612</ele>
        <time>2011-04-09T09:32:23.999Z</time>
      </trkpt>
      <trkpt lat="43.40436" lon="5.47163">
        <ele>612</ele>
        <time>2011-04-09T09:32:28.999Z</time>
      </trkpt>
      <trkpt lat="43.40452" lon="5.47151">
        <ele>612</ele>
        <time>2011-04-09T09:32:33.999Z</time>
      </trkpt>
      <trkpt lat="43.40456" lon="5.47148">
        <ele>611</ele>
        <time>2011-04-09T09:32:39.000Z</time>
      </trkpt>
      <trkpt lat="43.4046" lon="5.47148">
        <ele>611</ele>
        <time>2011-04-09T09:32:44.000Z</time>
      </trkpt>
      <trkpt lat="43.40461" lon="5.47148">
        <ele>611</ele>
        <time>2011-04-09T09:32:48.999Z</time>
      </trkpt>
      <trkpt lat="43.40461" lon="5.47148">
        <ele>611</ele>
        <time>2011-04-09T09:32:54.000Z</time>
      </trkpt>
      <trkpt lat="43.40461" lon="5.47148">
        <ele>611</ele>
        <time>2011-04-09T09:32:59.001Z</time>
      </trkpt>
      <trkpt lat="43.40478" lon="5.47138">
        <ele>611</ele>
        <time>2011-04-09T09:33:04.001Z</time>
      </trkpt>
      <trkpt lat="43.4048" lon="5.47138">
        <ele>611</ele>
        <time>2011-04-09T09:33:09.001Z</time>
      </trkpt>
      <trkpt lat="43.4048" lon="5.47138">
        <ele>611</ele>
        <time>2011-04-09T09:33:14.001Z</time>
      </trkpt>
      <trkpt lat="43.40486" lon="5.47126">
        <ele>612</ele>
        <time>2011-04-09T09:33:19.000Z</time>
      </trkpt>
      <trkpt lat="43.40486" lon="5.47124">
        <ele>612</ele>
        <time>2011-04-09T09:33:24.001Z</time>
      </trkpt>
      <trkpt lat="43.40487" lon="5.47116">
        <ele>613</ele>
        <time>2011-04-09T09:33:29.001Z</time>
      </trkpt>
      <trkpt lat="43.40487" lon="5.47116">
        <ele>613</ele>
        <time>2011-04-09T09:33:33.999Z</time>
      </trkpt>
      <trkpt lat="43.40488" lon="5.47109">
        <ele>614</ele>
        <time>2011-04-09T09:33:38.999Z</time>
      </trkpt>
      <trkpt lat="43.4049" lon="5.47103">
        <ele>615</ele>
        <time>2011-04-09T09:33:44.000Z</time>
      </trkpt>
      <trkpt lat="43.40492" lon="5.47096">
        <ele>616</ele>
        <time>2011-04-09T09:33:49.000Z</time>
      </trkpt>
      <trkpt lat="43.40496" lon="5.47088">
        <ele>618</ele>
        <time>2011-04-09T09:33:53.999Z</time>
      </trkpt>
      <trkpt lat="43.40498" lon="5.47081">
        <ele>620</ele>
        <time>2011-04-09T09:33:59.000Z</time>
      </trkpt>
      <trkpt lat="43.40502" lon="5.47075">
        <ele>617</ele>
        <time>2011-04-09T09:34:04.000Z</time>
      </trkpt>
      <trkpt lat="43.40502" lon="5.47075">
        <ele>617</ele>
        <time>2011-04-09T09:34:08.999Z</time>
      </trkpt>
      <trkpt lat="43.40509" lon="5.47063">
        <ele>615</ele>
        <time>2011-04-09T09:34:13.999Z</time>
      </trkpt>
      <trkpt lat="43.40509" lon="5.47063">
        <ele>615</ele>
        <time>2011-04-09T09:34:18.999Z</time>
      </trkpt>
      <trkpt lat="43.4051" lon="5.4705">
        <ele>615</ele>
        <time>2011-04-09T09:34:24.000Z</time>
      </trkpt>
      <trkpt lat="43.40511" lon="5.47042">
        <ele>615</ele>
        <time>2011-04-09T09:34:29.000Z</time>
      </trkpt>
      <trkpt lat="43.4051" lon="5.47039">
        <ele>616</ele>
        <time>2011-04-09T09:34:34.000Z</time>
      </trkpt>
      <trkpt lat="43.4051" lon="5.47039">
        <ele>616</ele>
        <time>2011-04-09T09:34:38.999Z</time>
      </trkpt>
      <trkpt lat="43.4051" lon="5.47039">
        <ele>616</ele>
        <time>2011-04-09T09:34:43.999Z</time>
      </trkpt>
      <trkpt lat="43.40509" lon="5.47018">
        <ele>620</ele>
        <time>2011-04-09T09:34:48.999Z</time>
      </trkpt>
      <trkpt lat="43.40508" lon="5.47009">
        <ele>623</ele>
        <time>2011-04-09T09:34:54.000Z</time>
      </trkpt>
      <trkpt lat="43.40507" lon="5.47">
        <ele>628</ele>
        <time>2011-04-09T09:34:59.000Z</time>
      </trkpt>
      <trkpt lat="43.40507" lon="5.46994">
        <ele>628</ele>
        <time>2011-04-09T09:35:04.000Z</time>
      </trkpt>
      <trkpt lat="43.40507" lon="5.46988">
        <ele>628</ele>
        <time>2011-04-09T09:35:09.000Z</time>
      </trkpt>
      <trkpt lat="43.40508" lon="5.4698">
        <ele>627</ele>
        <time>2011-04-09T09:35:14.000Z</time>
      </trkpt>
      <trkpt lat="43.4051" lon="5.46973">
        <ele>627</ele>
        <time>2011-04-09T09:35:19.000Z</time>
      </trkpt>
      <trkpt lat="43.40511" lon="5.46965">
        <ele>628</ele>
        <time>2011-04-09T09:35:23.999Z</time>
      </trkpt>
      <trkpt lat="43.40514" lon="5.46959">
        <ele>628</ele>
        <time>2011-04-09T09:35:29.000Z</time>
      </trkpt>
      <trkpt lat="43.40519" lon="5.46956">
        <ele>628</ele>
        <time>2011-04-09T09:35:33.999Z</time>
      </trkpt>
      <trkpt lat="43.40523" lon="5.46951">
        <ele>628</ele>
        <time>2011-04-09T09:35:39.000Z</time>
      </trkpt>
      <trkpt lat="43.40526" lon="5.46943">
        <ele>628</ele>
        <time>2011-04-09T09:35:44.000Z</time>
      </trkpt>
      <trkpt lat="43.40528" lon="5.46937">
        <ele>629</ele>
        <time>2011-04-09T09:35:49.000Z</time>
      </trkpt>
      <trkpt lat="43.4053" lon="5.46927">
        <ele>629</ele>
        <time>2011-04-09T09:35:54.001Z</time>
      </trkpt>
      <trkpt lat="43.40535" lon="5.46919">
        <ele>629</ele>
        <time>2011-04-09T09:35:59.000Z</time>
      </trkpt>
      <trkpt lat="43.40536" lon="5.46913">
        <ele>638</ele>
        <time>2011-04-09T09:36:04.001Z</time>
      </trkpt>
      <trkpt lat="43.40537" lon="5.46903">
        <ele>638</ele>
        <time>2011-04-09T09:36:09.001Z</time>
      </trkpt>
      <trkpt lat="43.40542" lon="5.4688">
        <ele>639</ele>
        <time>2011-04-09T09:36:14.000Z</time>
      </trkpt>
      <trkpt lat="43.40543" lon="5.46874">
        <ele>640</ele>
        <time>2011-04-09T09:36:19.000Z</time>
      </trkpt>
      <trkpt lat="43.40544" lon="5.46867">
        <ele>640</ele>
        <time>2011-04-09T09:36:24.001Z</time>
      </trkpt>
      <trkpt lat="43.40547" lon="5.46862">
        <ele>640</ele>
        <time>2011-04-09T09:36:29.001Z</time>
      </trkpt>
      <trkpt lat="43.40547" lon="5.46861">
        <ele>640</ele>
        <time>2011-04-09T09:36:34.000Z</time>
      </trkpt>
      <trkpt lat="43.40552" lon="5.46852">
        <ele>639</ele>
        <time>2011-04-09T09:36:39.001Z</time>
      </trkpt>
      <trkpt lat="43.40557" lon="5.46852">
        <ele>638</ele>
        <time>2011-04-09T09:36:44.001Z</time>
      </trkpt>
      <trkpt lat="43.40562" lon="5.46853">
        <ele>637</ele>
        <time>2011-04-09T09:36:49.001Z</time>
      </trkpt>
      <trkpt lat="43.40569" lon="5.46849">
        <ele>636</ele>
        <time>2011-04-09T09:36:54.001Z</time>
      </trkpt>
      <trkpt lat="43.40574" lon="5.46848">
        <ele>635</ele>
        <time>2011-04-09T09:36:59.001Z</time>
      </trkpt>
      <trkpt lat="43.40578" lon="5.46844">
        <ele>634</ele>
        <time>2011-04-09T09:37:04.001Z</time>
      </trkpt>
      <trkpt lat="43.40582" lon="5.46839">
        <ele>633</ele>
        <time>2011-04-09T09:37:09.001Z</time>
      </trkpt>
      <trkpt lat="43.40589" lon="5.46837">
        <ele>627</ele>
        <time>2011-04-09T09:37:14.001Z</time>
      </trkpt>
      <trkpt lat="43.40595" lon="5.46834">
        <ele>625</ele>
        <time>2011-04-09T09:37:19.001Z</time>
      </trkpt>
      <trkpt lat="43.40597" lon="5.46833">
        <ele>626</ele>
        <time>2011-04-09T09:37:24.001Z</time>
      </trkpt>
      <trkpt lat="43.40603" lon="5.46828">
        <ele>624</ele>
        <time>2011-04-09T09:37:29.001Z</time>
      </trkpt>
      <trkpt lat="43.40608" lon="5.46821">
        <ele>623</ele>
        <time>2011-04-09T09:37:34.001Z</time>
      </trkpt>
      <trkpt lat="43.40609" lon="5.46813">
        <ele>622</ele>
        <time>2011-04-09T09:37:39.001Z</time>
      </trkpt>
      <trkpt lat="43.40606" lon="5.46809">
        <ele>622</ele>
        <time>2011-04-09T09:37:44.000Z</time>
      </trkpt>
      <trkpt lat="43.40606" lon="5.46809">
        <ele>622</ele>
        <time>2011-04-09T09:37:49.000Z</time>
      </trkpt>
      <trkpt lat="43.40606" lon="5.46809">
        <ele>622</ele>
        <time>2011-04-09T09:37:54.000Z</time>
      </trkpt>
      <trkpt lat="43.40606" lon="5.46809">
        <ele>622</ele>
        <time>2011-04-09T09:37:59.000Z</time>
      </trkpt>
      <trkpt lat="43.40606" lon="5.46809">
        <ele>622</ele>
        <time>2011-04-09T09:38:04.000Z</time>
      </trkpt>
      <trkpt lat="43.40606" lon="5.46809">
        <ele>622</ele>
        <time>2011-04-09T09:38:09.000Z</time>
      </trkpt>
      <trkpt lat="43.40606" lon="5.46809">
        <ele>622</ele>
        <time>2011-04-09T09:38:13.999Z</time>
      </trkpt>
      <trkpt lat="43.40606" lon="5.46809">
        <ele>622</ele>
        <time>2011-04-09T09:38:19.000Z</time>
      </trkpt>
      <trkpt lat="43.40606" lon="5.46809">
        <ele>622</ele>
        <time>2011-04-09T09:38:24.000Z</time>
      </trkpt>
      <trkpt lat="43.40606" lon="5.46809">
        <ele>622</ele>
        <time>2011-04-09T09:38:29.000Z</time>
      </trkpt>
      <trkpt lat="43.40599" lon="5.46808">
        <ele>623</ele>
        <time>2011-04-09T09:38:34.000Z</time>
      </trkpt>
      <trkpt lat="43.40598" lon="5.46808">
        <ele>623</ele>
        <time>2011-04-09T09:38:39.000Z</time>
      </trkpt>
      <trkpt lat="43.40598" lon="5.46808">
        <ele>623</ele>
        <time>2011-04-09T09:38:44.000Z</time>
      </trkpt>
      <trkpt lat="43.40598" lon="5.46808">
        <ele>623</ele>
        <time>2011-04-09T09:38:49.000Z</time>
      </trkpt>
      <trkpt lat="43.40598" lon="5.46808">
        <ele>623</ele>
        <time>2011-04-09T09:38:54.000Z</time>
      </trkpt>
      <trkpt lat="43.40598" lon="5.468">
        <ele>622</ele>
        <time>2011-04-09T09:38:59.000Z</time>
      </trkpt>
      <trkpt lat="43.40593" lon="5.46797">
        <ele>623</ele>
        <time>2011-04-09T09:39:04.000Z</time>
      </trkpt>
      <trkpt lat="43.40588" lon="5.46796">
        <ele>623</ele>
        <time>2011-04-09T09:39:09.000Z</time>
      </trkpt>
      <trkpt lat="43.40584" lon="5.46792">
        <ele>623</ele>
        <time>2011-04-09T09:39:13.999Z</time>
      </trkpt>
      <trkpt lat="43.40581" lon="5.46788">
        <ele>642</ele>
        <time>2011-04-09T09:39:19.000Z</time>
      </trkpt>
      <trkpt lat="43.4058" lon="5.46786">
        <ele>642</ele>
        <time>2011-04-09T09:39:24.000Z</time>
      </trkpt>
      <trkpt lat="43.4058" lon="5.46786">
        <ele>642</ele>
        <time>2011-04-09T09:39:29.000Z</time>
      </trkpt>
      <trkpt lat="43.4058" lon="5.46786">
        <ele>642</ele>
        <time>2011-04-09T09:39:34.000Z</time>
      </trkpt>
      <trkpt lat="43.40569" lon="5.46779">
        <ele>643</ele>
        <time>2011-04-09T09:39:39.000Z</time>
      </trkpt>
      <trkpt lat="43.40565" lon="5.46775">
        <ele>643</ele>
        <time>2011-04-09T09:39:44.000Z</time>
      </trkpt>
      <trkpt lat="43.40562" lon="5.46768">
        <ele>643</ele>
        <time>2011-04-09T09:39:48.999Z</time>
      </trkpt>
      <trkpt lat="43.4056" lon="5.46762">
        <ele>643</ele>
        <time>2011-04-09T09:39:54.000Z</time>
      </trkpt>
      <trkpt lat="43.4056" lon="5.4676">
        <ele>643</ele>
        <time>2011-04-09T09:39:59.000Z</time>
      </trkpt>
      <trkpt lat="43.4056" lon="5.4676">
        <ele>643</ele>
        <time>2011-04-09T09:40:04.000Z</time>
      </trkpt>
      <trkpt lat="43.40555" lon="5.46744">
        <ele>644</ele>
        <time>2011-04-09T09:40:09.000Z</time>
      </trkpt>
      <trkpt lat="43.40551" lon="5.4674">
        <ele>645</ele>
        <time>2011-04-09T09:40:14.000Z</time>
      </trkpt>
      <trkpt lat="43.4055" lon="5.46736">
        <ele>645</ele>
        <time>2011-04-09T09:40:19.000Z</time>
      </trkpt>
      <trkpt lat="43.40551" lon="5.46732">
        <ele>645</ele>
        <time>2011-04-09T09:40:24.000Z</time>
      </trkpt>
      <trkpt lat="43.40551" lon="5.46732">
        <ele>645</ele>
        <time>2011-04-09T09:40:29.000Z</time>
      </trkpt>
      <trkpt lat="43.40551" lon="5.46732">
        <ele>645</ele>
        <time>2011-04-09T09:40:33.999Z</time>
      </trkpt>
      <trkpt lat="43.40551" lon="5.46732">
        <ele>645</ele>
        <time>2011-04-09T09:40:39.000Z</time>
      </trkpt>
      <trkpt lat="43.40551" lon="5.46732">
        <ele>645</ele>
        <time>2011-04-09T09:40:44.000Z</time>
      </trkpt>
      <trkpt lat="43.40551" lon="5.46732">
        <ele>645</ele>
        <time>2011-04-09T09:40:49.000Z</time>
      </trkpt>
      <trkpt lat="43.40543" lon="5.4671">
        <ele>647</ele>
        <time>2011-04-09T09:40:54.000Z</time>
      </trkpt>
      <trkpt lat="43.40541" lon="5.46705">
        <ele>647</ele>
        <time>2011-04-09T09:40:58.800Z</time>
      </trkpt>
      <trkpt lat="43.40543" lon="5.46699">
        <ele>646</ele>
        <time>2011-04-09T09:41:04.000Z</time>
      </trkpt>
      <trkpt lat="43.40543" lon="5.46699">
        <ele>646</ele>
        <time>2011-04-09T09:41:09.000Z</time>
      </trkpt>
      <trkpt lat="43.40543" lon="5.46699">
        <ele>646</ele>
        <time>2011-04-09T09:41:14.000Z</time>
      </trkpt>
      <trkpt lat="43.40543" lon="5.46699">
        <ele>646</ele>
        <time>2011-04-09T09:41:19.000Z</time>
      </trkpt>
      <trkpt lat="43.40543" lon="5.46699">
        <ele>646</ele>
        <time>2011-04-09T09:41:24.000Z</time>
      </trkpt>
      <trkpt lat="43.40543" lon="5.46699">
        <ele>646</ele>
        <time>2011-04-09T09:41:29.000Z</time>
      </trkpt>
      <trkpt lat="43.40543" lon="5.46699">
        <ele>646</ele>
        <time>2011-04-09T09:41:34.000Z</time>
      </trkpt>
      <trkpt lat="43.40543" lon="5.46699">
        <ele>646</ele>
        <time>2011-04-09T09:41:39.000Z</time>
      </trkpt>
      <trkpt lat="43.40543" lon="5.46699">
        <ele>646</ele>
        <time>2011-04-09T09:41:44.000Z</time>
      </trkpt>
      <trkpt lat="43.40543" lon="5.46699">
        <ele>646</ele>
        <time>2011-04-09T09:41:49.000Z</time>
      </trkpt>
      <trkpt lat="43.40543" lon="5.46699">
        <ele>646</ele>
        <time>2011-04-09T09:41:54.000Z</time>
      </trkpt>
      <trkpt lat="43.40539" lon="5.46693">
        <ele>647</ele>
        <time>2011-04-09T09:41:59.000Z</time>
      </trkpt>
      <trkpt lat="43.40548" lon="5.46687">
        <ele>645</ele>
        <time>2011-04-09T09:42:04.000Z</time>
      </trkpt>
      <trkpt lat="43.40549" lon="5.46684">
        <ele>645</ele>
        <time>2011-04-09T09:42:09.000Z</time>
      </trkpt>
      <trkpt lat="43.40549" lon="5.46684">
        <ele>645</ele>
        <time>2011-04-09T09:42:14.000Z</time>
      </trkpt>
      <trkpt lat="43.40549" lon="5.46684">
        <ele>645</ele>
        <time>2011-04-09T09:42:19.001Z</time>
      </trkpt>
      <trkpt lat="43.40554" lon="5.46668">
        <ele>643</ele>
        <time>2011-04-09T09:42:24.001Z</time>
      </trkpt>
      <trkpt lat="43.40551" lon="5.4667">
        <ele>644</ele>
        <time>2011-04-09T09:42:29.001Z</time>
      </trkpt>
      <trkpt lat="43.40551" lon="5.4667">
        <ele>644</ele>
        <time>2011-04-09T09:42:34.001Z</time>
      </trkpt>
      <trkpt lat="43.40551" lon="5.4667">
        <ele>644</ele>
        <time>2011-04-09T09:42:39.001Z</time>
      </trkpt>
      <trkpt lat="43.40551" lon="5.4667">
        <ele>644</ele>
        <time>2011-04-09T09:42:44.001Z</time>
      </trkpt>
      <trkpt lat="43.40551" lon="5.4667">
        <ele>644</ele>
        <time>2011-04-09T09:42:49.000Z</time>
      </trkpt>
      <trkpt lat="43.40551" lon="5.4667">
        <ele>644</ele>
        <time>2011-04-09T09:42:54.000Z</time>
      </trkpt>
      <trkpt lat="43.40551" lon="5.4667">
        <ele>644</ele>
        <time>2011-04-09T09:42:59.000Z</time>
      </trkpt>
      <trkpt lat="43.40551" lon="5.4667">
        <ele>644</ele>
        <time>2011-04-09T09:43:04.000Z</time>
      </trkpt>
      <trkpt lat="43.40551" lon="5.4667">
        <ele>644</ele>
        <time>2011-04-09T09:43:09.000Z</time>
      </trkpt>
      <trkpt lat="43.40551" lon="5.4667">
        <ele>644</ele>
        <time>2011-04-09T09:43:14.000Z</time>
      </trkpt>
      <trkpt lat="43.40551" lon="5.4667">
        <ele>644</ele>
        <time>2011-04-09T09:43:19.000Z</time>
      </trkpt>
      <trkpt lat="43.40551" lon="5.4667">
        <ele>644</ele>
        <time>2011-04-09T09:43:24.000Z</time>
      </trkpt>
      <trkpt lat="43.40551" lon="5.4667">
        <ele>644</ele>
        <time>2011-04-09T09:43:29.000Z</time>
      </trkpt>
      <trkpt lat="43.40537" lon="5.46617">
        <ele>645</ele>
        <time>2011-04-09T09:43:34.000Z</time>
      </trkpt>
      <trkpt lat="43.40536" lon="5.46607">
        <ele>645</ele>
        <time>2011-04-09T09:43:39.000Z</time>
      </trkpt>
      <trkpt lat="43.40532" lon="5.46602">
        <ele>645</ele>
        <time>2011-04-09T09:43:44.000Z</time>
      </trkpt>
      <trkpt lat="43.4053" lon="5.46594">
        <ele>646</ele>
        <time>2011-04-09T09:43:49.000Z</time>
      </trkpt>
      <trkpt lat="43.40531" lon="5.46586">
        <ele>646</ele>
        <time>2011-04-09T09:43:54.000Z</time>
      </trkpt>
      <trkpt lat="43.40531" lon="5.46582">
        <ele>644</ele>
        <time>2011-04-09T09:43:59.000Z</time>
      </trkpt>
      <trkpt lat="43.40533" lon="5.46572">
        <ele>644</ele>
        <time>2011-04-09T09:44:04.000Z</time>
      </trkpt>
      <trkpt lat="43.40532" lon="5.46564">
        <ele>644</ele>
        <time>2011-04-09T09:44:09.000Z</time>
      </trkpt>
      <trkpt lat="43.40532" lon="5.46557">
        <ele>644</ele>
        <time>2011-04-09T09:44:14.000Z</time>
      </trkpt>
      <trkpt lat="43.40531" lon="5.46548">
        <ele>643</ele>
        <time>2011-04-09T09:44:19.000Z</time>
      </trkpt>
      <trkpt lat="43.40527" lon="5.46543">
        <ele>644</ele>
        <time>2011-04-09T09:44:24.000Z</time>
      </trkpt>
      <trkpt lat="43.40526" lon="5.4654">
        <ele>644</ele>
        <time>2011-04-09T09:44:29.000Z</time>
      </trkpt>
      <trkpt lat="43.40526" lon="5.4654">
        <ele>644</ele>
        <time>2011-04-09T09:44:33.999Z</time>
      </trkpt>
      <trkpt lat="43.40526" lon="5.46535">
        <ele>644</ele>
        <time>2011-04-09T09:44:39.000Z</time>
      </trkpt>
      <trkpt lat="43.40525" lon="5.46533">
        <ele>644</ele>
        <time>2011-04-09T09:44:43.999Z</time>
      </trkpt>
      <trkpt lat="43.40525" lon="5.46533">
        <ele>644</ele>
        <time>2011-04-09T09:44:49.000Z</time>
      </trkpt>
      <trkpt lat="43.40525" lon="5.46533">
        <ele>644</ele>
        <time>2011-04-09T09:44:54.000Z</time>
      </trkpt>
      <trkpt lat="43.40525" lon="5.46533">
        <ele>644</ele>
        <time>2011-04-09T09:44:59.000Z</time>
      </trkpt>
      <trkpt lat="43.40525" lon="5.46533">
        <ele>644</ele>
        <time>2011-04-09T09:45:04.000Z</time>
      </trkpt>
      <trkpt lat="43.40525" lon="5.46533">
        <ele>644</ele>
        <time>2011-04-09T09:45:09.000Z</time>
      </trkpt>
      <trkpt lat="43.40522" lon="5.46519">
        <ele>644</ele>
        <time>2011-04-09T09:45:14.000Z</time>
      </trkpt>
      <trkpt lat="43.40519" lon="5.46513">
        <ele>645</ele>
        <time>2011-04-09T09:45:19.000Z</time>
      </trkpt>
      <trkpt lat="43.4052" lon="5.46506">
        <ele>645</ele>
        <time>2011-04-09T09:45:24.000Z</time>
      </trkpt>
      <trkpt lat="43.40516" lon="5.46501">
        <ele>646</ele>
        <time>2011-04-09T09:45:29.000Z</time>
      </trkpt>
      <trkpt lat="43.40516" lon="5.46499">
        <ele>645</ele>
        <time>2011-04-09T09:45:34.000Z</time>
      </trkpt>
      <trkpt lat="43.40516" lon="5.46499">
        <ele>645</ele>
        <time>2011-04-09T09:45:39.000Z</time>
      </trkpt>
      <trkpt lat="43.40516" lon="5.46486">
        <ele>645</ele>
        <time>2011-04-09T09:45:43.999Z</time>
      </trkpt>
      <trkpt lat="43.40514" lon="5.46483">
        <ele>645</ele>
        <time>2011-04-09T09:45:49.000Z</time>
      </trkpt>
      <trkpt lat="43.40511" lon="5.46482">
        <ele>645</ele>
        <time>2011-04-09T09:45:53.999Z</time>
      </trkpt>
      <trkpt lat="43.4051" lon="5.46475">
        <ele>644</ele>
        <time>2011-04-09T09:45:59.000Z</time>
      </trkpt>
      <trkpt lat="43.40509" lon="5.46475">
        <ele>644</ele>
        <time>2011-04-09T09:46:04.000Z</time>
      </trkpt>
      <trkpt lat="43.40509" lon="5.46475">
        <ele>644</ele>
        <time>2011-04-09T09:46:09.000Z</time>
      </trkpt>
      <trkpt lat="43.40509" lon="5.46475">
        <ele>644</ele>
        <time>2011-04-09T09:46:14.000Z</time>
      </trkpt>
      <trkpt lat="43.40509" lon="5.46475">
        <ele>644</ele>
        <time>2011-04-09T09:46:19.000Z</time>
      </trkpt>
      <trkpt lat="43.40509" lon="5.46475">
        <ele>644</ele>
        <time>2011-04-09T09:46:24.000Z</time>
      </trkpt>
      <trkpt lat="43.40509" lon="5.46475">
        <ele>644</ele>
        <time>2011-04-09T09:46:29.000Z</time>
      </trkpt>
      <trkpt lat="43.40523" lon="5.46441">
        <ele>643</ele>
        <time>2011-04-09T09:46:34.000Z</time>
      </trkpt>
      <trkpt lat="43.40525" lon="5.46437">
        <ele>643</ele>
        <time>2011-04-09T09:46:39.000Z</time>
      </trkpt>
      <trkpt lat="43.40525" lon="5.46437">
        <ele>643</ele>
        <time>2011-04-09T09:46:44.000Z</time>
      </trkpt>
      <trkpt lat="43.40525" lon="5.46437">
        <ele>643</ele>
        <time>2011-04-09T09:46:49.000Z</time>
      </trkpt>
      <trkpt lat="43.40525" lon="5.46437">
        <ele>643</ele>
        <time>2011-04-09T09:46:54.000Z</time>
      </trkpt>
      <trkpt lat="43.40525" lon="5.46437">
        <ele>643</ele>
        <time>2011-04-09T09:46:59.000Z</time>
      </trkpt>
      <trkpt lat="43.40525" lon="5.46437">
        <ele>643</ele>
        <time>2011-04-09T09:47:04.000Z</time>
      </trkpt>
      <trkpt lat="43.40525" lon="5.46437">
        <ele>643</ele>
        <time>2011-04-09T09:47:09.000Z</time>
      </trkpt>
      <trkpt lat="43.40525" lon="5.46437">
        <ele>643</ele>
        <time>2011-04-09T09:47:14.000Z</time>
      </trkpt>
      <trkpt lat="43.40525" lon="5.46437">
        <ele>643</ele>
        <time>2011-04-09T09:47:19.000Z</time>
      </trkpt>
      <trkpt lat="43.40525" lon="5.46437">
        <ele>643</ele>
        <time>2011-04-09T09:47:24.000Z</time>
      </trkpt>
      <trkpt lat="43.40525" lon="5.46437">
        <ele>643</ele>
        <time>2011-04-09T09:47:29.000Z</time>
      </trkpt>
      <trkpt lat="43.40525" lon="5.46437">
        <ele>643</ele>
        <time>2011-04-09T09:47:34.000Z</time>
      </trkpt>
      <trkpt lat="43.40522" lon="5.46408">
        <ele>644</ele>
        <time>2011-04-09T09:47:39.000Z</time>
      </trkpt>
      <trkpt lat="43.40524" lon="5.46402">
        <ele>643</ele>
        <time>2011-04-09T09:47:44.000Z</time>
      </trkpt>
      <trkpt lat="43.40526" lon="5.46396">
        <ele>643</ele>
        <time>2011-04-09T09:47:49.000Z</time>
      </trkpt>
      <trkpt lat="43.40526" lon="5.4639">
        <ele>643</ele>
        <time>2011-04-09T09:47:54.000Z</time>
      </trkpt>
      <trkpt lat="43.40526" lon="5.46384">
        <ele>643</ele>
        <time>2011-04-09T09:47:59.000Z</time>
      </trkpt>
      <trkpt lat="43.40527" lon="5.46376">
        <ele>643</ele>
        <time>2011-04-09T09:48:04.000Z</time>
      </trkpt>
      <trkpt lat="43.40529" lon="5.46374">
        <ele>643</ele>
        <time>2011-04-09T09:48:09.000Z</time>
      </trkpt>
      <trkpt lat="43.40529" lon="5.46374">
        <ele>643</ele>
        <time>2011-04-09T09:48:14.000Z</time>
      </trkpt>
      <trkpt lat="43.40531" lon="5.46365">
        <ele>643</ele>
        <time>2011-04-09T09:48:18.999Z</time>
      </trkpt>
      <trkpt lat="43.4053" lon="5.46358">
        <ele>643</ele>
        <time>2011-04-09T09:48:24.000Z</time>
      </trkpt>
      <trkpt lat="43.40528" lon="5.46356">
        <ele>643</ele>
        <time>2011-04-09T09:48:28.999Z</time>
      </trkpt>
      <trkpt lat="43.40527" lon="5.46347">
        <ele>644</ele>
        <time>2011-04-09T09:48:34.000Z</time>
      </trkpt>
      <trkpt lat="43.40527" lon="5.46346">
        <ele>644</ele>
        <time>2011-04-09T09:48:39.000Z</time>
      </trkpt>
      <trkpt lat="43.40527" lon="5.46346">
        <ele>644</ele>
        <time>2011-04-09T09:48:44.000Z</time>
      </trkpt>
      <trkpt lat="43.40527" lon="5.46346">
        <ele>644</ele>
        <time>2011-04-09T09:48:49.000Z</time>
      </trkpt>
      <trkpt lat="43.4053" lon="5.46332">
        <ele>645</ele>
        <time>2011-04-09T09:48:54.000Z</time>
      </trkpt>
      <trkpt lat="43.4053" lon="5.46325">
        <ele>645</ele>
        <time>2011-04-09T09:48:59.000Z</time>
      </trkpt>
      <trkpt lat="43.4053" lon="5.46325">
        <ele>645</ele>
        <time>2011-04-09T09:49:04.000Z</time>
      </trkpt>
      <trkpt lat="43.4053" lon="5.46325">
        <ele>645</ele>
        <time>2011-04-09T09:49:09.000Z</time>
      </trkpt>
      <trkpt lat="43.4053" lon="5.46325">
        <ele>645</ele>
        <time>2011-04-09T09:49:14.000Z</time>
      </trkpt>
      <trkpt lat="43.4053" lon="5.46325">
        <ele>645</ele>
        <time>2011-04-09T09:49:19.000Z</time>
      </trkpt>
      <trkpt lat="43.4053" lon="5.46325">
        <ele>645</ele>
        <time>2011-04-09T09:49:24.000Z</time>
      </trkpt>
      <trkpt lat="43.4053" lon="5.46325">
        <ele>645</ele>
        <time>2011-04-09T09:49:29.000Z</time>
      </trkpt>
      <trkpt lat="43.40524" lon="5.46311">
        <ele>646</ele>
        <time>2011-04-09T09:49:34.000Z</time>
      </trkpt>
      <trkpt lat="43.40524" lon="5.4631">
        <ele>646</ele>
        <time>2011-04-09T09:49:39.000Z</time>
      </trkpt>
      <trkpt lat="43.40524" lon="5.4631">
        <ele>646</ele>
        <time>2011-04-09T09:49:44.000Z</time>
      </trkpt>
      <trkpt lat="43.40524" lon="5.46299">
        <ele>646</ele>
        <time>2011-04-09T09:49:49.000Z</time>
      </trkpt>
      <trkpt lat="43.40523" lon="5.46294">
        <ele>646</ele>
        <time>2011-04-09T09:49:54.000Z</time>
      </trkpt>
      <trkpt lat="43.40521" lon="5.46287">
        <ele>646</ele>
        <time>2011-04-09T09:49:59.000Z</time>
      </trkpt>
      <trkpt lat="43.40522" lon="5.46285">
        <ele>646</ele>
        <time>2011-04-09T09:50:04.000Z</time>
      </trkpt>
      <trkpt lat="43.40518" lon="5.4628">
        <ele>647</ele>
        <time>2011-04-09T09:50:09.000Z</time>
      </trkpt>
      <trkpt lat="43.40518" lon="5.46279">
        <ele>647</ele>
        <time>2011-04-09T09:50:14.000Z</time>
      </trkpt>
      <trkpt lat="43.40518" lon="5.46279">
        <ele>647</ele>
        <time>2011-04-09T09:50:19.000Z</time>
      </trkpt>
      <trkpt lat="43.40518" lon="5.46279">
        <ele>647</ele>
        <time>2011-04-09T09:50:24.000Z</time>
      </trkpt>
      <trkpt lat="43.40518" lon="5.46279">
        <ele>647</ele>
        <time>2011-04-09T09:50:29.000Z</time>
      </trkpt>
      <trkpt lat="43.40518" lon="5.46279">
        <ele>647</ele>
        <time>2011-04-09T09:50:34.000Z</time>
      </trkpt>
      <trkpt lat="43.40522" lon="5.46276">
        <ele>647</ele>
        <time>2011-04-09T09:50:39.000Z</time>
      </trkpt>
      <trkpt lat="43.40522" lon="5.46276">
        <ele>647</ele>
        <time>2011-04-09T09:50:44.000Z</time>
      </trkpt>
      <trkpt lat="43.40522" lon="5.46276">
        <ele>647</ele>
        <time>2011-04-09T09:50:49.000Z</time>
      </trkpt>
      <trkpt lat="43.40522" lon="5.46276">
        <ele>647</ele>
        <time>2011-04-09T09:50:54.000Z</time>
      </trkpt>
      <trkpt lat="43.40524" lon="5.46271">
        <ele>647</ele>
        <time>2011-04-09T09:50:59.000Z</time>
      </trkpt>
      <trkpt lat="43.40524" lon="5.46271">
        <ele>647</ele>
        <time>2011-04-09T09:51:04.000Z</time>
      </trkpt>
      <trkpt lat="43.40524" lon="5.46271">
        <ele>647</ele>
        <time>2011-04-09T09:51:09.000Z</time>
      </trkpt>
      <trkpt lat="43.40524" lon="5.46271">
        <ele>647</ele>
        <time>2011-04-09T09:51:14.000Z</time>
      </trkpt>
      <trkpt lat="43.40524" lon="5.46271">
        <ele>647</ele>
        <time>2011-04-09T09:51:19.000Z</time>
      </trkpt>
      <trkpt lat="43.40524" lon="5.46271">
        <ele>647</ele>
        <time>2011-04-09T09:51:24.000Z</time>
      </trkpt>
      <trkpt lat="43.40524" lon="5.46271">
        <ele>647</ele>
        <time>2011-04-09T09:51:29.000Z</time>
      </trkpt>
      <trkpt lat="43.40524" lon="5.46271">
        <ele>647</ele>
        <time>2011-04-09T09:51:34.000Z</time>
      </trkpt>
      <trkpt lat="43.40524" lon="5.46271">
        <ele>647</ele>
        <time>2011-04-09T09:51:39.000Z</time>
      </trkpt>
      <trkpt lat="43.40524" lon="5.46271">
        <ele>647</ele>
        <time>2011-04-09T09:51:44.000Z</time>
      </trkpt>
      <trkpt lat="43.40524" lon="5.46271">
        <ele>647</ele>
        <time>2011-04-09T09:51:49.000Z</time>
      </trkpt>
      <trkpt lat="43.40524" lon="5.46271">
        <ele>647</ele>
        <time>2011-04-09T09:51:54.000Z</time>
      </trkpt>
      <trkpt lat="43.40524" lon="5.46271">
        <ele>647</ele>
        <time>2011-04-09T09:51:59.000Z</time>
      </trkpt>
      <trkpt lat="43.40524" lon="5.46271">
        <ele>647</ele>
        <time>2011-04-09T09:52:04.000Z</time>
      </trkpt>
      <trkpt lat="43.40524" lon="5.46271">
        <ele>647</ele>
        <time>2011-04-09T09:52:09.000Z</time>
      </trkpt>
      <trkpt lat="43.40524" lon="5.46271">
        <ele>647</ele>
        <time>2011-04-09T09:52:14.000Z</time>
      </trkpt>
      <trkpt lat="43.40524" lon="5.46271">
        <ele>647</ele>
        <time>2011-04-09T09:52:19.000Z</time>
      </trkpt>
      <trkpt lat="43.40524" lon="5.46271">
        <ele>647</ele>
        <time>2011-04-09T09:52:24.000Z</time>
      </trkpt>
      <trkpt lat="43.40524" lon="5.46271">
        <ele>647</ele>
        <time>2011-04-09T09:52:29.000Z</time>
      </trkpt>
      <trkpt lat="43.40524" lon="5.46271">
        <ele>647</ele>
        <time>2011-04-09T09:52:34.000Z</time>
      </trkpt>
      <trkpt lat="43.40524" lon="5.46271">
        <ele>647</ele>
        <time>2011-04-09T09:52:39.000Z</time>
      </trkpt>
      <trkpt lat="43.40524" lon="5.46271">
        <ele>647</ele>
        <time>2011-04-09T09:52:44.000Z</time>
      </trkpt>
      <trkpt lat="43.40524" lon="5.46271">
        <ele>647</ele>
        <time>2011-04-09T09:52:49.000Z</time>
      </trkpt>
      <trkpt lat="43.40524" lon="5.46271">
        <ele>647</ele>
        <time>2011-04-09T09:52:54.000Z</time>
      </trkpt>
      <trkpt lat="43.40524" lon="5.46271">
        <ele>647</ele>
        <time>2011-04-09T09:52:59.000Z</time>
      </trkpt>
      <trkpt lat="43.40524" lon="5.46271">
        <ele>647</ele>
        <time>2011-04-09T09:53:04.000Z</time>
      </trkpt>
      <trkpt lat="43.40524" lon="5.46271">
        <ele>647</ele>
        <time>2011-04-09T09:53:09.000Z</time>
      </trkpt>
      <trkpt lat="43.40524" lon="5.46271">
        <ele>647</ele>
        <time>2011-04-09T09:53:14.000Z</time>
      </trkpt>
      <trkpt lat="43.40524" lon="5.46271">
        <ele>647</ele>
        <time>2011-04-09T09:53:19.000Z</time>
      </trkpt>
      <trkpt lat="43.40524" lon="5.46271">
        <ele>647</ele>
        <time>2011-04-09T09:53:24.000Z</time>
      </trkpt>
      <trkpt lat="43.40524" lon="5.46271">
        <ele>647</ele>
        <time>2011-04-09T09:53:29.000Z</time>
      </trkpt>
      <trkpt lat="43.40524" lon="5.46271">
        <ele>647</ele>
        <time>2011-04-09T09:53:34.000Z</time>
      </trkpt>
      <trkpt lat="43.40524" lon="5.46271">
        <ele>647</ele>
        <time>2011-04-09T09:53:39.000Z</time>
      </trkpt>
      <trkpt lat="43.40524" lon="5.46271">
        <ele>647</ele>
        <time>2011-04-09T09:53:44.000Z</time>
      </trkpt>
      <trkpt lat="43.40524" lon="5.46271">
        <ele>647</ele>
        <time>2011-04-09T09:53:49.000Z</time>
      </trkpt>
      <trkpt lat="43.40524" lon="5.46271">
        <ele>647</ele>
        <time>2011-04-09T09:53:54.000Z</time>
      </trkpt>
      <trkpt lat="43.40524" lon="5.46271">
        <ele>647</ele>
        <time>2011-04-09T09:53:59.000Z</time>
      </trkpt>
      <trkpt lat="43.40524" lon="5.46271">
        <ele>647</ele>
        <time>2011-04-09T09:54:04.000Z</time>
      </trkpt>
      <trkpt lat="43.40524" lon="5.46271">
        <ele>647</ele>
        <time>2011-04-09T09:54:09.000Z</time>
      </trkpt>
      <trkpt lat="43.40524" lon="5.46271">
        <ele>647</ele>
        <time>2011-04-09T09:54:14.000Z</time>
      </trkpt>
      <trkpt lat="43.40524" lon="5.46271">
        <ele>647</ele>
        <time>2011-04-09T09:54:19.000Z</time>
      </trkpt>
      <trkpt lat="43.40524" lon="5.46271">
        <ele>647</ele>
        <time>2011-04-09T09:54:24.000Z</time>
      </trkpt>
      <trkpt lat="43.40524" lon="5.46271">
        <ele>647</ele>
        <time>2011-04-09T09:54:29.000Z</time>
      </trkpt>
      <trkpt lat="43.40524" lon="5.46271">
        <ele>647</ele>
        <time>2011-04-09T09:54:34.000Z</time>
      </trkpt>
      <trkpt lat="43.40524" lon="5.46271">
        <ele>647</ele>
        <time>2011-04-09T09:54:39.000Z</time>
      </trkpt>
      <trkpt lat="43.40524" lon="5.46271">
        <ele>647</ele>
        <time>2011-04-09T09:54:44.000Z</time>
      </trkpt>
      <trkpt lat="43.40524" lon="5.46271">
        <ele>647</ele>
        <time>2011-04-09T09:54:49.000Z</time>
      </trkpt>
      <trkpt lat="43.40524" lon="5.46271">
        <ele>647</ele>
        <time>2011-04-09T09:54:54.000Z</time>
      </trkpt>
      <trkpt lat="43.40524" lon="5.46271">
        <ele>647</ele>
        <time>2011-04-09T09:54:59.000Z</time>
      </trkpt>
      <trkpt lat="43.40524" lon="5.46271">
        <ele>647</ele>
        <time>2011-04-09T09:55:04.000Z</time>
      </trkpt>
      <trkpt lat="43.40524" lon="5.46271">
        <ele>647</ele>
        <time>2011-04-09T09:55:09.000Z</time>
      </trkpt>
      <trkpt lat="43.40524" lon="5.46271">
        <ele>647</ele>
        <time>2011-04-09T09:55:14.000Z</time>
      </trkpt>
      <trkpt lat="43.40524" lon="5.46271">
        <ele>647</ele>
        <time>2011-04-09T09:55:19.000Z</time>
      </trkpt>
      <trkpt lat="43.40524" lon="5.46271">
        <ele>647</ele>
        <time>2011-04-09T09:55:24.000Z</time>
      </trkpt>
      <trkpt lat="43.40524" lon="5.46271">
        <ele>647</ele>
        <time>2011-04-09T09:55:29.000Z</time>
      </trkpt>
      <trkpt lat="43.40524" lon="5.46271">
        <ele>647</ele>
        <time>2011-04-09T09:55:33.999Z</time>
      </trkpt>
      <trkpt lat="43.40524" lon="5.46271">
        <ele>647</ele>
        <time>2011-04-09T09:55:38.999Z</time>
      </trkpt>
      <trkpt lat="43.40524" lon="5.46271">
        <ele>647</ele>
        <time>2011-04-09T09:55:43.999Z</time>
      </trkpt>
      <trkpt lat="43.40524" lon="5.46271">
        <ele>647</ele>
        <time>2011-04-09T09:55:48.999Z</time>
      </trkpt>
      <trkpt lat="43.40531" lon="5.46259">
        <ele>647</ele>
        <time>2011-04-09T09:58:56.858Z</time>
      </trkpt>
      <trkpt lat="43.4053" lon="5.46251">
        <ele>647</ele>
        <time>2011-04-09T09:59:02.000Z</time>
      </trkpt>
      <trkpt lat="43.4053" lon="5.46251">
        <ele>647</ele>
        <time>2011-04-09T09:59:07.000Z</time>
      </trkpt>
      <trkpt lat="43.4053" lon="5.46251">
        <ele>647</ele>
        <time>2011-04-09T09:59:12.000Z</time>
      </trkpt>
      <trkpt lat="43.4053" lon="5.46251">
        <ele>647</ele>
        <time>2011-04-09T09:59:17.000Z</time>
      </trkpt>
      <trkpt lat="43.4053" lon="5.46251">
        <ele>647</ele>
        <time>2011-04-09T09:59:22.000Z</time>
      </trkpt>
      <trkpt lat="43.4053" lon="5.46251">
        <ele>647</ele>
        <time>2011-04-09T09:59:27.000Z</time>
      </trkpt>
      <trkpt lat="43.4053" lon="5.46251">
        <ele>647</ele>
        <time>2011-04-09T09:59:32.000Z</time>
      </trkpt>
      <trkpt lat="43.4053" lon="5.46251">
        <ele>647</ele>
        <time>2011-04-09T09:59:37.000Z</time>
      </trkpt>
      <trkpt lat="43.4053" lon="5.46251">
        <ele>647</ele>
        <time>2011-04-09T09:59:42.000Z</time>
      </trkpt>
      <trkpt lat="43.4053" lon="5.46251">
        <ele>647</ele>
        <time>2011-04-09T09:59:47.000Z</time>
      </trkpt>
      <trkpt lat="43.4053" lon="5.46251">
        <ele>647</ele>
        <time>2011-04-09T09:59:52.000Z</time>
      </trkpt>
      <trkpt lat="43.4053" lon="5.46251">
        <ele>647</ele>
        <time>2011-04-09T09:59:57.002Z</time>
      </trkpt>
      <trkpt lat="43.4053" lon="5.46251">
        <ele>647</ele>
        <time>2011-04-09T10:00:02.000Z</time>
      </trkpt>
      <trkpt lat="43.4053" lon="5.46251">
        <ele>647</ele>
        <time>2011-04-09T10:00:07.000Z</time>
      </trkpt>
      <trkpt lat="43.4053" lon="5.46251">
        <ele>647</ele>
        <time>2011-04-09T10:00:12.000Z</time>
      </trkpt>
      <trkpt lat="43.4053" lon="5.46251">
        <ele>647</ele>
        <time>2011-04-09T10:00:16.999Z</time>
      </trkpt>
      <trkpt lat="43.40535" lon="5.46278">
        <ele>645</ele>
        <time>2011-04-09T10:00:22.000Z</time>
      </trkpt>
      <trkpt lat="43.40535" lon="5.46278">
        <ele>645</ele>
        <time>2011-04-09T10:00:27.000Z</time>
      </trkpt>
      <trkpt lat="43.40535" lon="5.46278">
        <ele>645</ele>
        <time>2011-04-09T10:00:32.000Z</time>
      </trkpt>
      <trkpt lat="43.40535" lon="5.46278">
        <ele>645</ele>
        <time>2011-04-09T10:00:37.000Z</time>
      </trkpt>
      <trkpt lat="43.40535" lon="5.46278">
        <ele>645</ele>
        <time>2011-04-09T10:00:42.000Z</time>
      </trkpt>
      <trkpt lat="43.40535" lon="5.46278">
        <ele>645</ele>
        <time>2011-04-09T10:00:47.000Z</time>
      </trkpt>
      <trkpt lat="43.40535" lon="5.46278">
        <ele>645</ele>
        <time>2011-04-09T10:00:51.999Z</time>
      </trkpt>
      <trkpt lat="43.40535" lon="5.46278">
        <ele>645</ele>
        <time>2011-04-09T10:00:56.999Z</time>
      </trkpt>
      <trkpt lat="43.40535" lon="5.46278">
        <ele>645</ele>
        <time>2011-04-09T10:01:01.999Z</time>
      </trkpt>
      <trkpt lat="43.40535" lon="5.46278">
        <ele>645</ele>
        <time>2011-04-09T10:01:06.999Z</time>
      </trkpt>
      <trkpt lat="43.40535" lon="5.46278">
        <ele>645</ele>
        <time>2011-04-09T10:01:11.999Z</time>
      </trkpt>
      <trkpt lat="43.40535" lon="5.46278">
        <ele>645</ele>
        <time>2011-04-09T10:01:16.999Z</time>
      </trkpt>
      <trkpt lat="43.40535" lon="5.46278">
        <ele>645</ele>
        <time>2011-04-09T10:01:21.999Z</time>
      </trkpt>
      <trkpt lat="43.40535" lon="5.46278">
        <ele>645</ele>
        <time>2011-04-09T10:01:26.999Z</time>
      </trkpt>
      <trkpt lat="43.40535" lon="5.46278">
        <ele>645</ele>
        <time>2011-04-09T10:01:31.999Z</time>
      </trkpt>
      <trkpt lat="43.40535" lon="5.46278">
        <ele>645</ele>
        <time>2011-04-09T10:01:36.999Z</time>
      </trkpt>
      <trkpt lat="43.40535" lon="5.46278">
        <ele>645</ele>
        <time>2011-04-09T10:01:41.999Z</time>
      </trkpt>
      <trkpt lat="43.40535" lon="5.46278">
        <ele>645</ele>
        <time>2011-04-09T10:01:46.999Z</time>
      </trkpt>
      <trkpt lat="43.40535" lon="5.46278">
        <ele>645</ele>
        <time>2011-04-09T10:01:51.999Z</time>
      </trkpt>
      <trkpt lat="43.40535" lon="5.46278">
        <ele>645</ele>
        <time>2011-04-09T10:01:56.999Z</time>
      </trkpt>
      <trkpt lat="43.40535" lon="5.46278">
        <ele>645</ele>
        <time>2011-04-09T10:02:01.999Z</time>
      </trkpt>
      <trkpt lat="43.40535" lon="5.46278">
        <ele>645</ele>
        <time>2011-04-09T10:02:06.999Z</time>
      </trkpt>
      <trkpt lat="43.40535" lon="5.46278">
        <ele>645</ele>
        <time>2011-04-09T10:02:12.000Z</time>
      </trkpt>
      <trkpt lat="43.40535" lon="5.46278">
        <ele>645</ele>
        <time>2011-04-09T10:02:17.000Z</time>
      </trkpt>
      <trkpt lat="43.40535" lon="5.46278">
        <ele>645</ele>
        <time>2011-04-09T10:02:22.000Z</time>
      </trkpt>
      <trkpt lat="43.40535" lon="5.46278">
        <ele>645</ele>
        <time>2011-04-09T10:02:27.000Z</time>
      </trkpt>
      <trkpt lat="43.40537" lon="5.46238">
        <ele>645</ele>
        <time>2011-04-09T10:02:32.000Z</time>
      </trkpt>
      <trkpt lat="43.40537" lon="5.46238">
        <ele>645</ele>
        <time>2011-04-09T10:02:37.000Z</time>
      </trkpt>
      <trkpt lat="43.40537" lon="5.46238">
        <ele>645</ele>
        <time>2011-04-09T10:02:42.000Z</time>
      </trkpt>
      <trkpt lat="43.40537" lon="5.46238">
        <ele>645</ele>
        <time>2011-04-09T10:02:47.000Z</time>
      </trkpt>
      <trkpt lat="43.40537" lon="5.46238">
        <ele>645</ele>
        <time>2011-04-09T10:02:52.000Z</time>
      </trkpt>
      <trkpt lat="43.40537" lon="5.46238">
        <ele>645</ele>
        <time>2011-04-09T10:02:57.000Z</time>
      </trkpt>
      <trkpt lat="43.40537" lon="5.46238">
        <ele>645</ele>
        <time>2011-04-09T10:03:02.000Z</time>
      </trkpt>
      <trkpt lat="43.40537" lon="5.46238">
        <ele>645</ele>
        <time>2011-04-09T10:03:07.000Z</time>
      </trkpt>
      <trkpt lat="43.40537" lon="5.46238">
        <ele>645</ele>
        <time>2011-04-09T10:03:12.000Z</time>
      </trkpt>
      <trkpt lat="43.40537" lon="5.46238">
        <ele>645</ele>
        <time>2011-04-09T10:03:17.000Z</time>
      </trkpt>
      <trkpt lat="43.40537" lon="5.46238">
        <ele>645</ele>
        <time>2011-04-09T10:03:22.000Z</time>
      </trkpt>
      <trkpt lat="43.40537" lon="5.46238">
        <ele>645</ele>
        <time>2011-04-09T10:03:27.000Z</time>
      </trkpt>
      <trkpt lat="43.40537" lon="5.46238">
        <ele>645</ele>
        <time>2011-04-09T10:03:32.000Z</time>
      </trkpt>
      <trkpt lat="43.40537" lon="5.46238">
        <ele>645</ele>
        <time>2011-04-09T10:03:37.000Z</time>
      </trkpt>
      <trkpt lat="43.40537" lon="5.46238">
        <ele>645</ele>
        <time>2011-04-09T10:03:42.000Z</time>
      </trkpt>
      <trkpt lat="43.40537" lon="5.46238">
        <ele>645</ele>
        <time>2011-04-09T10:03:47.000Z</time>
      </trkpt>
      <trkpt lat="43.40537" lon="5.46238">
        <ele>645</ele>
        <time>2011-04-09T10:03:52.000Z</time>
      </trkpt>
      <trkpt lat="43.40537" lon="5.46238">
        <ele>645</ele>
        <time>2011-04-09T10:03:57.000Z</time>
      </trkpt>
      <trkpt lat="43.40537" lon="5.46238">
        <ele>645</ele>
        <time>2011-04-09T10:04:02.001Z</time>
      </trkpt>
      <trkpt lat="43.40537" lon="5.46238">
        <ele>645</ele>
        <time>2011-04-09T10:04:07.001Z</time>
      </trkpt>
      <trkpt lat="43.40537" lon="5.46238">
        <ele>645</ele>
        <time>2011-04-09T10:04:12.001Z</time>
      </trkpt>
      <trkpt lat="43.40537" lon="5.46238">
        <ele>645</ele>
        <time>2011-04-09T10:04:17.001Z</time>
      </trkpt>
      <trkpt lat="43.40537" lon="5.46238">
        <ele>645</ele>
        <time>2011-04-09T10:04:22.001Z</time>
      </trkpt>
      <trkpt lat="43.40537" lon="5.46238">
        <ele>645</ele>
        <time>2011-04-09T10:04:27.001Z</time>
      </trkpt>
      <trkpt lat="43.40537" lon="5.46238">
        <ele>645</ele>
        <time>2011-04-09T10:04:32.000Z</time>
      </trkpt>
      <trkpt lat="43.40537" lon="5.46238">
        <ele>645</ele>
        <time>2011-04-09T10:04:37.001Z</time>
      </trkpt>
      <trkpt lat="43.40537" lon="5.46238">
        <ele>645</ele>
        <time>2011-04-09T10:04:42.000Z</time>
      </trkpt>
      <trkpt lat="43.40537" lon="5.46238">
        <ele>645</ele>
        <time>2011-04-09T10:04:47.000Z</time>
      </trkpt>
      <trkpt lat="43.40537" lon="5.46238">
        <ele>645</ele>
        <time>2011-04-09T10:04:51.999Z</time>
      </trkpt>
      <trkpt lat="43.40537" lon="5.46238">
        <ele>645</ele>
        <time>2011-04-09T10:04:56.999Z</time>
      </trkpt>
      <trkpt lat="43.40537" lon="5.46238">
        <ele>645</ele>
        <time>2011-04-09T10:05:01.999Z</time>
      </trkpt>
      <trkpt lat="43.40537" lon="5.46238">
        <ele>645</ele>
        <time>2011-04-09T10:05:06.999Z</time>
      </trkpt>
      <trkpt lat="43.40537" lon="5.46238">
        <ele>645</ele>
        <time>2011-04-09T10:05:12.000Z</time>
      </trkpt>
      <trkpt lat="43.40537" lon="5.46238">
        <ele>645</ele>
        <time>2011-04-09T10:05:17.000Z</time>
      </trkpt>
      <trkpt lat="43.40537" lon="5.46238">
        <ele>645</ele>
        <time>2011-04-09T10:05:21.999Z</time>
      </trkpt>
      <trkpt lat="43.40537" lon="5.46238">
        <ele>645</ele>
        <time>2011-04-09T10:05:26.999Z</time>
      </trkpt>
      <trkpt lat="43.40537" lon="5.46238">
        <ele>645</ele>
        <time>2011-04-09T10:05:31.999Z</time>
      </trkpt>
      <trkpt lat="43.40537" lon="5.46238">
        <ele>645</ele>
        <time>2011-04-09T10:05:36.999Z</time>
      </trkpt>
      <trkpt lat="43.40537" lon="5.46238">
        <ele>645</ele>
        <time>2011-04-09T10:05:42.000Z</time>
      </trkpt>
      <trkpt lat="43.40537" lon="5.46238">
        <ele>645</ele>
        <time>2011-04-09T10:05:47.000Z</time>
      </trkpt>
      <trkpt lat="43.40537" lon="5.46238">
        <ele>645</ele>
        <time>2011-04-09T10:05:52.000Z</time>
      </trkpt>
      <trkpt lat="43.40574" lon="5.46273">
        <ele>640</ele>
        <time>2011-04-09T10:06:41.677Z</time>
      </trkpt>
      <trkpt lat="43.40562" lon="5.46255">
        <ele>641</ele>
        <time>2011-04-09T10:07:14.064Z</time>
      </trkpt>
      <trkpt lat="43.40571" lon="5.46257">
        <ele>639</ele>
        <time>2011-04-09T10:07:19.000Z</time>
      </trkpt>
      <trkpt lat="43.40571" lon="5.46257">
        <ele>639</ele>
        <time>2011-04-09T10:07:24.000Z</time>
      </trkpt>
      <trkpt lat="43.40571" lon="5.46257">
        <ele>639</ele>
        <time>2011-04-09T10:07:29.000Z</time>
      </trkpt>
      <trkpt lat="43.40571" lon="5.46257">
        <ele>639</ele>
        <time>2011-04-09T10:07:34.000Z</time>
      </trkpt>
      <trkpt lat="43.40571" lon="5.46257">
        <ele>639</ele>
        <time>2011-04-09T10:07:39.000Z</time>
      </trkpt>
      <trkpt lat="43.40541" lon="5.46266">
        <ele>645</ele>
        <time>2011-04-09T10:07:54.116Z</time>
      </trkpt>
      <trkpt lat="43.40542" lon="5.46269">
        <ele>644</ele>
        <time>2011-04-09T10:07:58.000Z</time>
      </trkpt>
      <trkpt lat="43.40542" lon="5.46269">
        <ele>644</ele>
        <time>2011-04-09T10:08:03.000Z</time>
      </trkpt>
      <trkpt lat="43.40542" lon="5.46269">
        <ele>644</ele>
        <time>2011-04-09T10:08:07.999Z</time>
      </trkpt>
      <trkpt lat="43.40542" lon="5.46269">
        <ele>644</ele>
        <time>2011-04-09T10:08:12.999Z</time>
      </trkpt>
      <trkpt lat="43.40542" lon="5.46269">
        <ele>644</ele>
        <time>2011-04-09T10:08:17.999Z</time>
      </trkpt>
      <trkpt lat="43.40542" lon="5.46269">
        <ele>644</ele>
        <time>2011-04-09T10:08:22.999Z</time>
      </trkpt>
      <trkpt lat="43.40542" lon="5.46269">
        <ele>644</ele>
        <time>2011-04-09T10:08:27.799Z</time>
      </trkpt>
      <trkpt lat="43.40542" lon="5.46269">
        <ele>644</ele>
        <time>2011-04-09T10:08:32.000Z</time>
      </trkpt>
      <trkpt lat="43.40542" lon="5.46269">
        <ele>644</ele>
        <time>2011-04-09T10:08:37.000Z</time>
      </trkpt>
      <trkpt lat="43.40542" lon="5.46269">
        <ele>644</ele>
        <time>2011-04-09T10:08:42.000Z</time>
      </trkpt>
      <trkpt lat="43.40542" lon="5.46269">
        <ele>644</ele>
        <time>2011-04-09T10:08:47.000Z</time>
      </trkpt>
      <trkpt lat="43.40542" lon="5.46269">
        <ele>644</ele>
        <time>2011-04-09T10:08:52.000Z</time>
      </trkpt>
      <trkpt lat="43.40542" lon="5.46269">
        <ele>644</ele>
        <time>2011-04-09T10:08:57.000Z</time>
      </trkpt>
      <trkpt lat="43.40542" lon="5.46269">
        <ele>644</ele>
        <time>2011-04-09T10:09:02.000Z</time>
      </trkpt>
      <trkpt lat="43.40542" lon="5.46269">
        <ele>644</ele>
        <time>2011-04-09T10:09:07.000Z</time>
      </trkpt>
      <trkpt lat="43.40542" lon="5.46269">
        <ele>644</ele>
        <time>2011-04-09T10:09:11.999Z</time>
      </trkpt>
      <trkpt lat="43.40542" lon="5.46269">
        <ele>644</ele>
        <time>2011-04-09T10:09:16.999Z</time>
      </trkpt>
      <trkpt lat="43.40547" lon="5.46286">
        <ele>644</ele>
        <time>2011-04-09T10:09:21.999Z</time>
      </trkpt>
      <trkpt lat="43.40547" lon="5.46286">
        <ele>644</ele>
        <time>2011-04-09T10:09:27.000Z</time>
      </trkpt>
      <trkpt lat="43.4055" lon="5.46282">
        <ele>643</ele>
        <time>2011-04-09T10:09:32.000Z</time>
      </trkpt>
      <trkpt lat="43.4055" lon="5.46282">
        <ele>643</ele>
        <time>2011-04-09T10:09:36.999Z</time>
      </trkpt>
      <trkpt lat="43.4055" lon="5.46282">
        <ele>643</ele>
        <time>2011-04-09T10:09:41.799Z</time>
      </trkpt>
      <trkpt lat="43.4055" lon="5.46282">
        <ele>643</ele>
        <time>2011-04-09T10:09:46.000Z</time>
      </trkpt>
      <trkpt lat="43.4055" lon="5.46282">
        <ele>643</ele>
        <time>2011-04-09T10:09:51.000Z</time>
      </trkpt>
      <trkpt lat="43.4055" lon="5.46282">
        <ele>643</ele>
        <time>2011-04-09T10:09:56.000Z</time>
      </trkpt>
      <trkpt lat="43.4055" lon="5.46282">
        <ele>643</ele>
        <time>2011-04-09T10:10:01.000Z</time>
      </trkpt>
      <trkpt lat="43.4055" lon="5.46282">
        <ele>643</ele>
        <time>2011-04-09T10:10:06.000Z</time>
      </trkpt>
      <trkpt lat="43.4055" lon="5.46282">
        <ele>643</ele>
        <time>2011-04-09T10:10:11.000Z</time>
      </trkpt>
      <trkpt lat="43.4055" lon="5.46282">
        <ele>643</ele>
        <time>2011-04-09T10:10:16.000Z</time>
      </trkpt>
      <trkpt lat="43.4055" lon="5.46282">
        <ele>643</ele>
        <time>2011-04-09T10:10:21.000Z</time>
      </trkpt>
      <trkpt lat="43.4055" lon="5.46282">
        <ele>643</ele>
        <time>2011-04-09T10:10:26.000Z</time>
      </trkpt>
      <trkpt lat="43.4055" lon="5.46282">
        <ele>643</ele>
        <time>2011-04-09T10:10:31.000Z</time>
      </trkpt>
      <trkpt lat="43.4055" lon="5.46282">
        <ele>643</ele>
        <time>2011-04-09T10:10:36.000Z</time>
      </trkpt>
      <trkpt lat="43.4055" lon="5.46282">
        <ele>643</ele>
        <time>2011-04-09T10:10:41.000Z</time>
      </trkpt>
      <trkpt lat="43.4055" lon="5.46282">
        <ele>643</ele>
        <time>2011-04-09T10:10:46.000Z</time>
      </trkpt>
      <trkpt lat="43.4055" lon="5.46282">
        <ele>643</ele>
        <time>2011-04-09T10:10:51.000Z</time>
      </trkpt>
      <trkpt lat="43.4055" lon="5.46282">
        <ele>643</ele>
        <time>2011-04-09T10:10:56.000Z</time>
      </trkpt>
      <trkpt lat="43.4055" lon="5.46282">
        <ele>643</ele>
        <time>2011-04-09T10:11:01.000Z</time>
      </trkpt>
      <trkpt lat="43.4055" lon="5.46282">
        <ele>643</ele>
        <time>2011-04-09T10:11:06.000Z</time>
      </trkpt>
      <trkpt lat="43.4055" lon="5.46282">
        <ele>643</ele>
        <time>2011-04-09T10:11:11.001Z</time>
      </trkpt>
      <trkpt lat="43.4055" lon="5.46282">
        <ele>643</ele>
        <time>2011-04-09T10:11:16.000Z</time>
      </trkpt>
      <trkpt lat="43.4055" lon="5.46282">
        <ele>643</ele>
        <time>2011-04-09T10:11:21.000Z</time>
      </trkpt>
      <trkpt lat="43.4055" lon="5.46282">
        <ele>643</ele>
        <time>2011-04-09T10:11:26.000Z</time>
      </trkpt>
      <trkpt lat="43.4055" lon="5.46282">
        <ele>643</ele>
        <time>2011-04-09T10:11:31.000Z</time>
      </trkpt>
      <trkpt lat="43.4055" lon="5.46282">
        <ele>643</ele>
        <time>2011-04-09T10:11:36.000Z</time>
      </trkpt>
      <trkpt lat="43.4055" lon="5.46282">
        <ele>643</ele>
        <time>2011-04-09T10:11:41.000Z</time>
      </trkpt>
      <trkpt lat="43.4055" lon="5.46282">
        <ele>643</ele>
        <time>2011-04-09T10:11:46.000Z</time>
      </trkpt>
      <trkpt lat="43.4055" lon="5.46282">
        <ele>643</ele>
        <time>2011-04-09T10:11:51.000Z</time>
      </trkpt>
      <trkpt lat="43.4055" lon="5.46282">
        <ele>643</ele>
        <time>2011-04-09T10:11:56.000Z</time>
      </trkpt>
      <trkpt lat="43.4055" lon="5.46282">
        <ele>643</ele>
        <time>2011-04-09T10:12:01.000Z</time>
      </trkpt>
      <trkpt lat="43.4055" lon="5.46282">
        <ele>643</ele>
        <time>2011-04-09T10:12:06.000Z</time>
      </trkpt>
      <trkpt lat="43.4055" lon="5.46282">
        <ele>643</ele>
        <time>2011-04-09T10:12:11.000Z</time>
      </trkpt>
      <trkpt lat="43.4055" lon="5.46282">
        <ele>643</ele>
        <time>2011-04-09T10:12:16.000Z</time>
      </trkpt>
      <trkpt lat="43.4055" lon="5.46282">
        <ele>643</ele>
        <time>2011-04-09T10:12:21.000Z</time>
      </trkpt>
      <trkpt lat="43.4055" lon="5.46282">
        <ele>643</ele>
        <time>2011-04-09T10:12:26.000Z</time>
      </trkpt>
      <trkpt lat="43.4055" lon="5.46282">
        <ele>643</ele>
        <time>2011-04-09T10:12:31.000Z</time>
      </trkpt>
      <trkpt lat="43.4055" lon="5.46282">
        <ele>643</ele>
        <time>2011-04-09T10:12:36.000Z</time>
      </trkpt>
      <trkpt lat="43.4055" lon="5.46282">
        <ele>643</ele>
        <time>2011-04-09T10:12:41.000Z</time>
      </trkpt>
      <trkpt lat="43.4055" lon="5.46282">
        <ele>643</ele>
        <time>2011-04-09T10:12:46.000Z</time>
      </trkpt>
      <trkpt lat="43.4055" lon="5.46282">
        <ele>643</ele>
        <time>2011-04-09T10:12:51.000Z</time>
      </trkpt>
      <trkpt lat="43.4055" lon="5.46282">
        <ele>643</ele>
        <time>2011-04-09T10:12:56.000Z</time>
      </trkpt>
      <trkpt lat="43.4055" lon="5.46282">
        <ele>643</ele>
        <time>2011-04-09T10:13:01.000Z</time>
      </trkpt>
      <trkpt lat="43.4055" lon="5.46282">
        <ele>643</ele>
        <time>2011-04-09T10:13:06.000Z</time>
      </trkpt>
      <trkpt lat="43.4055" lon="5.46282">
        <ele>643</ele>
        <time>2011-04-09T10:13:11.000Z</time>
      </trkpt>
      <trkpt lat="43.4055" lon="5.46282">
        <ele>643</ele>
        <time>2011-04-09T10:13:16.000Z</time>
      </trkpt>
      <trkpt lat="43.4055" lon="5.46282">
        <ele>643</ele>
        <time>2011-04-09T10:13:21.000Z</time>
      </trkpt>
      <trkpt lat="43.4055" lon="5.46282">
        <ele>643</ele>
        <time>2011-04-09T10:13:26.000Z</time>
      </trkpt>
      <trkpt lat="43.4055" lon="5.46282">
        <ele>643</ele>
        <time>2011-04-09T10:13:31.000Z</time>
      </trkpt>
      <trkpt lat="43.4055" lon="5.46282">
        <ele>643</ele>
        <time>2011-04-09T10:13:36.000Z</time>
      </trkpt>
      <trkpt lat="43.4055" lon="5.46282">
        <ele>643</ele>
        <time>2011-04-09T10:13:41.000Z</time>
      </trkpt>
      <trkpt lat="43.4055" lon="5.46282">
        <ele>643</ele>
        <time>2011-04-09T10:13:46.000Z</time>
      </trkpt>
      <trkpt lat="43.4055" lon="5.46282">
        <ele>643</ele>
        <time>2011-04-09T10:13:51.000Z</time>
      </trkpt>
      <trkpt lat="43.4055" lon="5.46282">
        <ele>643</ele>
        <time>2011-04-09T10:13:56.000Z</time>
      </trkpt>
      <trkpt lat="43.4053" lon="5.46274">
        <ele>646</ele>
        <time>2011-04-09T10:14:01.000Z</time>
      </trkpt>
      <trkpt lat="43.40528" lon="5.46273">
        <ele>646</ele>
        <time>2011-04-09T10:14:06.000Z</time>
      </trkpt>
      <trkpt lat="43.40523" lon="5.46268">
        <ele>648</ele>
        <time>2011-04-09T10:14:11.000Z</time>
      </trkpt>
      <trkpt lat="43.40523" lon="5.46268">
        <ele>648</ele>
        <time>2011-04-09T10:14:16.000Z</time>
      </trkpt>
      <trkpt lat="43.40523" lon="5.46268">
        <ele>648</ele>
        <time>2011-04-09T10:14:21.000Z</time>
      </trkpt>
      <trkpt lat="43.40523" lon="5.46268">
        <ele>648</ele>
        <time>2011-04-09T10:14:26.000Z</time>
      </trkpt>
      <trkpt lat="43.40523" lon="5.46268">
        <ele>648</ele>
        <time>2011-04-09T10:14:31.000Z</time>
      </trkpt>
      <trkpt lat="43.40523" lon="5.46268">
        <ele>648</ele>
        <time>2011-04-09T10:14:36.000Z</time>
      </trkpt>
      <trkpt lat="43.40523" lon="5.46268">
        <ele>648</ele>
        <time>2011-04-09T10:14:41.000Z</time>
      </trkpt>
      <trkpt lat="43.40523" lon="5.46268">
        <ele>648</ele>
        <time>2011-04-09T10:14:46.000Z</time>
      </trkpt>
      <trkpt lat="43.40523" lon="5.46268">
        <ele>648</ele>
        <time>2011-04-09T10:14:51.000Z</time>
      </trkpt>
      <trkpt lat="43.40523" lon="5.46268">
        <ele>648</ele>
        <time>2011-04-09T10:14:56.000Z</time>
      </trkpt>
      <trkpt lat="43.40523" lon="5.46268">
        <ele>648</ele>
        <time>2011-04-09T10:15:01.000Z</time>
      </trkpt>
      <trkpt lat="43.40523" lon="5.46268">
        <ele>648</ele>
        <time>2011-04-09T10:15:06.000Z</time>
      </trkpt>
      <trkpt lat="43.40523" lon="5.46268">
        <ele>648</ele>
        <time>2011-04-09T10:15:11.000Z</time>
      </trkpt>
      <trkpt lat="43.40523" lon="5.46268">
        <ele>648</ele>
        <time>2011-04-09T10:15:16.000Z</time>
      </trkpt>
      <trkpt lat="43.40515" lon="5.46276">
        <ele>648</ele>
        <time>2011-04-09T10:15:21.000Z</time>
      </trkpt>
      <trkpt lat="43.40514" lon="5.46275">
        <ele>648</ele>
        <time>2011-04-09T10:15:26.000Z</time>
      </trkpt>
      <trkpt lat="43.40514" lon="5.46275">
        <ele>648</ele>
        <time>2011-04-09T10:15:31.000Z</time>
      </trkpt>
      <trkpt lat="43.40514" lon="5.46275">
        <ele>648</ele>
        <time>2011-04-09T10:15:36.000Z</time>
      </trkpt>
      <trkpt lat="43.40514" lon="5.46275">
        <ele>648</ele>
        <time>2011-04-09T10:15:41.000Z</time>
      </trkpt>
      <trkpt lat="43.40514" lon="5.46275">
        <ele>648</ele>
        <time>2011-04-09T10:15:46.000Z</time>
      </trkpt>
      <trkpt lat="43.40514" lon="5.46275">
        <ele>648</ele>
        <time>2011-04-09T10:15:51.000Z</time>
      </trkpt>
      <trkpt lat="43.40514" lon="5.46275">
        <ele>648</ele>
        <time>2011-04-09T10:15:56.000Z</time>
      </trkpt>
      <trkpt lat="43.40514" lon="5.46275">
        <ele>648</ele>
        <time>2011-04-09T10:16:01.000Z</time>
      </trkpt>
      <trkpt lat="43.40514" lon="5.46275">
        <ele>648</ele>
        <time>2011-04-09T10:16:06.000Z</time>
      </trkpt>
      <trkpt lat="43.40501" lon="5.46278">
        <ele>649</ele>
        <time>2011-04-09T10:16:11.000Z</time>
      </trkpt>
      <trkpt lat="43.40497" lon="5.46277">
        <ele>643</ele>
        <time>2011-04-09T10:16:16.000Z</time>
      </trkpt>
      <trkpt lat="43.40495" lon="5.46273">
        <ele>644</ele>
        <time>2011-04-09T10:16:21.000Z</time>
      </trkpt>
      <trkpt lat="43.40495" lon="5.46273">
        <ele>644</ele>
        <time>2011-04-09T10:16:26.000Z</time>
      </trkpt>
      <trkpt lat="43.40495" lon="5.46273">
        <ele>644</ele>
        <time>2011-04-09T10:16:31.000Z</time>
      </trkpt>
      <trkpt lat="43.40494" lon="5.46271">
        <ele>645</ele>
        <time>2011-04-09T10:16:37.000Z</time>
      </trkpt>
      <trkpt lat="43.40498" lon="5.46275">
        <ele>644</ele>
        <time>2011-04-09T10:16:42.000Z</time>
      </trkpt>
      <trkpt lat="43.40498" lon="5.46275">
        <ele>644</ele>
        <time>2011-04-09T10:16:47.000Z</time>
      </trkpt>
      <trkpt lat="43.40498" lon="5.46275">
        <ele>644</ele>
        <time>2011-04-09T10:16:52.000Z</time>
      </trkpt>
      <trkpt lat="43.40498" lon="5.46275">
        <ele>644</ele>
        <time>2011-04-09T10:16:57.000Z</time>
      </trkpt>
      <trkpt lat="43.40498" lon="5.46275">
        <ele>644</ele>
        <time>2011-04-09T10:17:02.000Z</time>
      </trkpt>
      <trkpt lat="43.40489" lon="5.46281">
        <ele>641</ele>
        <time>2011-04-09T10:17:07.000Z</time>
      </trkpt>
      <trkpt lat="43.40489" lon="5.46281">
        <ele>641</ele>
        <time>2011-04-09T10:17:12.000Z</time>
      </trkpt>
      <trkpt lat="43.40481" lon="5.46278">
        <ele>640</ele>
        <time>2011-04-09T10:17:17.000Z</time>
      </trkpt>
      <trkpt lat="43.4048" lon="5.46279">
        <ele>640</ele>
        <time>2011-04-09T10:17:22.000Z</time>
      </trkpt>
      <trkpt lat="43.4048" lon="5.46279">
        <ele>640</ele>
        <time>2011-04-09T10:17:27.000Z</time>
      </trkpt>
      <trkpt lat="43.40477" lon="5.46284">
        <ele>639</ele>
        <time>2011-04-09T10:17:32.000Z</time>
      </trkpt>
      <trkpt lat="43.40477" lon="5.46284">
        <ele>639</ele>
        <time>2011-04-09T10:17:37.000Z</time>
      </trkpt>
      <trkpt lat="43.40477" lon="5.46284">
        <ele>639</ele>
        <time>2011-04-09T10:17:42.000Z</time>
      </trkpt>
      <trkpt lat="43.40477" lon="5.46284">
        <ele>639</ele>
        <time>2011-04-09T10:17:47.000Z</time>
      </trkpt>
      <trkpt lat="43.40477" lon="5.46284">
        <ele>639</ele>
        <time>2011-04-09T10:17:52.000Z</time>
      </trkpt>
      <trkpt lat="43.40477" lon="5.46284">
        <ele>639</ele>
        <time>2011-04-09T10:17:57.000Z</time>
      </trkpt>
      <trkpt lat="43.40477" lon="5.46284">
        <ele>639</ele>
        <time>2011-04-09T10:18:02.000Z</time>
      </trkpt>
      <trkpt lat="43.40477" lon="5.46284">
        <ele>639</ele>
        <time>2011-04-09T10:18:07.000Z</time>
      </trkpt>
      <trkpt lat="43.40477" lon="5.46284">
        <ele>639</ele>
        <time>2011-04-09T10:18:12.000Z</time>
      </trkpt>
      <trkpt lat="43.40477" lon="5.46284">
        <ele>639</ele>
        <time>2011-04-09T10:18:17.000Z</time>
      </trkpt>
      <trkpt lat="43.40477" lon="5.46284">
        <ele>639</ele>
        <time>2011-04-09T10:18:22.000Z</time>
      </trkpt>
      <trkpt lat="43.40477" lon="5.46284">
        <ele>639</ele>
        <time>2011-04-09T10:18:27.000Z</time>
      </trkpt>
      <trkpt lat="43.40477" lon="5.46284">
        <ele>639</ele>
        <time>2011-04-09T10:18:32.000Z</time>
      </trkpt>
      <trkpt lat="43.40477" lon="5.46284">
        <ele>639</ele>
        <time>2011-04-09T10:18:37.000Z</time>
      </trkpt>
      <trkpt lat="43.40477" lon="5.46284">
        <ele>639</ele>
        <time>2011-04-09T10:18:42.000Z</time>
      </trkpt>
      <trkpt lat="43.40477" lon="5.46284">
        <ele>639</ele>
        <time>2011-04-09T10:18:47.000Z</time>
      </trkpt>
      <trkpt lat="43.40477" lon="5.46284">
        <ele>639</ele>
        <time>2011-04-09T10:18:52.000Z</time>
      </trkpt>
      <trkpt lat="43.40477" lon="5.46284">
        <ele>639</ele>
        <time>2011-04-09T10:18:57.000Z</time>
      </trkpt>
      <trkpt lat="43.40477" lon="5.46284">
        <ele>639</ele>
        <time>2011-04-09T10:19:02.000Z</time>
      </trkpt>
      <trkpt lat="43.40477" lon="5.46284">
        <ele>639</ele>
        <time>2011-04-09T10:19:07.000Z</time>
      </trkpt>
      <trkpt lat="43.40477" lon="5.46284">
        <ele>639</ele>
        <time>2011-04-09T10:19:12.003Z</time>
      </trkpt>
      <trkpt lat="43.40454" lon="5.46275">
        <ele>634</ele>
        <time>2011-04-09T10:19:17.000Z</time>
      </trkpt>
      <trkpt lat="43.40454" lon="5.46275">
        <ele>634</ele>
        <time>2011-04-09T10:19:22.000Z</time>
      </trkpt>
      <trkpt lat="43.40454" lon="5.46275">
        <ele>634</ele>
        <time>2011-04-09T10:19:27.000Z</time>
      </trkpt>
      <trkpt lat="43.40454" lon="5.46275">
        <ele>634</ele>
        <time>2011-04-09T10:19:32.000Z</time>
      </trkpt>
      <trkpt lat="43.40454" lon="5.46275">
        <ele>634</ele>
        <time>2011-04-09T10:19:37.000Z</time>
      </trkpt>
      <trkpt lat="43.40454" lon="5.46275">
        <ele>634</ele>
        <time>2011-04-09T10:19:42.000Z</time>
      </trkpt>
      <trkpt lat="43.40454" lon="5.46275">
        <ele>634</ele>
        <time>2011-04-09T10:19:47.000Z</time>
      </trkpt>
      <trkpt lat="43.40454" lon="5.46275">
        <ele>634</ele>
        <time>2011-04-09T10:19:52.000Z</time>
      </trkpt>
      <trkpt lat="43.40439" lon="5.46271">
        <ele>630</ele>
        <time>2011-04-09T10:19:57.000Z</time>
      </trkpt>
      <trkpt lat="43.40439" lon="5.46273">
        <ele>630</ele>
        <time>2011-04-09T10:20:02.000Z</time>
      </trkpt>
      <trkpt lat="43.40439" lon="5.46274">
        <ele>630</ele>
        <time>2011-04-09T10:20:07.000Z</time>
      </trkpt>
      <trkpt lat="43.40439" lon="5.46274">
        <ele>630</ele>
        <time>2011-04-09T10:20:12.000Z</time>
      </trkpt>
      <trkpt lat="43.40439" lon="5.46274">
        <ele>630</ele>
        <time>2011-04-09T10:20:17.000Z</time>
      </trkpt>
      <trkpt lat="43.40439" lon="5.46274">
        <ele>630</ele>
        <time>2011-04-09T10:20:22.000Z</time>
      </trkpt>
      <trkpt lat="43.40439" lon="5.46274">
        <ele>630</ele>
        <time>2011-04-09T10:20:27.000Z</time>
      </trkpt>
      <trkpt lat="43.40439" lon="5.46274">
        <ele>630</ele>
        <time>2011-04-09T10:20:32.000Z</time>
      </trkpt>
      <trkpt lat="43.40439" lon="5.46274">
        <ele>630</ele>
        <time>2011-04-09T10:20:37.000Z</time>
      </trkpt>
      <trkpt lat="43.40439" lon="5.46274">
        <ele>630</ele>
        <time>2011-04-09T10:20:42.000Z</time>
      </trkpt>
      <trkpt lat="43.40439" lon="5.46274">
        <ele>630</ele>
        <time>2011-04-09T10:20:47.000Z</time>
      </trkpt>
      <trkpt lat="43.40431" lon="5.4629">
        <ele>628</ele>
        <time>2011-04-09T10:20:52.000Z</time>
      </trkpt>
      <trkpt lat="43.4043" lon="5.46289">
        <ele>628</ele>
        <time>2011-04-09T10:20:57.000Z</time>
      </trkpt>
      <trkpt lat="43.4043" lon="5.46289">
        <ele>628</ele>
        <time>2011-04-09T10:21:02.000Z</time>
      </trkpt>
      <trkpt lat="43.4043" lon="5.46289">
        <ele>628</ele>
        <time>2011-04-09T10:21:07.000Z</time>
      </trkpt>
      <trkpt lat="43.4043" lon="5.46289">
        <ele>628</ele>
        <time>2011-04-09T10:21:12.000Z</time>
      </trkpt>
      <trkpt lat="43.4043" lon="5.46289">
        <ele>628</ele>
        <time>2011-04-09T10:21:17.000Z</time>
      </trkpt>
      <trkpt lat="43.4043" lon="5.46289">
        <ele>628</ele>
        <time>2011-04-09T10:21:22.000Z</time>
      </trkpt>
      <trkpt lat="43.4042" lon="5.46284">
        <ele>627</ele>
        <time>2011-04-09T10:21:27.000Z</time>
      </trkpt>
      <trkpt lat="43.4042" lon="5.46284">
        <ele>627</ele>
        <time>2011-04-09T10:21:32.000Z</time>
      </trkpt>
      <trkpt lat="43.4042" lon="5.46284">
        <ele>627</ele>
        <time>2011-04-09T10:21:37.001Z</time>
      </trkpt>
      <trkpt lat="43.4042" lon="5.46284">
        <ele>627</ele>
        <time>2011-04-09T10:21:42.000Z</time>
      </trkpt>
      <trkpt lat="43.40417" lon="5.46293">
        <ele>626</ele>
        <time>2011-04-09T10:21:47.000Z</time>
      </trkpt>
      <trkpt lat="43.40417" lon="5.46293">
        <ele>626</ele>
        <time>2011-04-09T10:21:52.000Z</time>
      </trkpt>
      <trkpt lat="43.4041" lon="5.46292">
        <ele>604</ele>
        <time>2011-04-09T10:21:57.000Z</time>
      </trkpt>
      <trkpt lat="43.4041" lon="5.46292">
        <ele>604</ele>
        <time>2011-04-09T10:22:01.800Z</time>
      </trkpt>
      <trkpt lat="43.4041" lon="5.46292">
        <ele>604</ele>
        <time>2011-04-09T10:22:07.000Z</time>
      </trkpt>
      <trkpt lat="43.4041" lon="5.46292">
        <ele>604</ele>
        <time>2011-04-09T10:22:12.000Z</time>
      </trkpt>
      <trkpt lat="43.40398" lon="5.46287">
        <ele>604</ele>
        <time>2011-04-09T10:22:17.000Z</time>
      </trkpt>
      <trkpt lat="43.40398" lon="5.46287">
        <ele>604</ele>
        <time>2011-04-09T10:22:22.000Z</time>
      </trkpt>
      <trkpt lat="43.40396" lon="5.46289">
        <ele>603</ele>
        <time>2011-04-09T10:22:27.001Z</time>
      </trkpt>
      <trkpt lat="43.4039" lon="5.46286">
        <ele>602</ele>
        <time>2011-04-09T10:22:32.000Z</time>
      </trkpt>
      <trkpt lat="43.40387" lon="5.46284">
        <ele>602</ele>
        <time>2011-04-09T10:22:37.000Z</time>
      </trkpt>
      <trkpt lat="43.40387" lon="5.46285">
        <ele>602</ele>
        <time>2011-04-09T10:22:42.000Z</time>
      </trkpt>
      <trkpt lat="43.40387" lon="5.46285">
        <ele>602</ele>
        <time>2011-04-09T10:22:47.001Z</time>
      </trkpt>
      <trkpt lat="43.40387" lon="5.46285">
        <ele>602</ele>
        <time>2011-04-09T10:22:52.001Z</time>
      </trkpt>
      <trkpt lat="43.40387" lon="5.46285">
        <ele>602</ele>
        <time>2011-04-09T10:22:57.000Z</time>
      </trkpt>
      <trkpt lat="43.40383" lon="5.46279">
        <ele>602</ele>
        <time>2011-04-09T10:23:02.000Z</time>
      </trkpt>
      <trkpt lat="43.40382" lon="5.46281">
        <ele>601</ele>
        <time>2011-04-09T10:23:07.000Z</time>
      </trkpt>
      <trkpt lat="43.40381" lon="5.46283">
        <ele>601</ele>
        <time>2011-04-09T10:23:12.000Z</time>
      </trkpt>
      <trkpt lat="43.40381" lon="5.46283">
        <ele>601</ele>
        <time>2011-04-09T10:23:17.000Z</time>
      </trkpt>
      <trkpt lat="43.40378" lon="5.46295">
        <ele>599</ele>
        <time>2011-04-09T10:23:22.000Z</time>
      </trkpt>
      <trkpt lat="43.40378" lon="5.46298">
        <ele>599</ele>
        <time>2011-04-09T10:23:27.000Z</time>
      </trkpt>
      <trkpt lat="43.40378" lon="5.46298">
        <ele>599</ele>
        <time>2011-04-09T10:23:32.000Z</time>
      </trkpt>
      <trkpt lat="43.40378" lon="5.46298">
        <ele>599</ele>
        <time>2011-04-09T10:23:37.000Z</time>
      </trkpt>
      <trkpt lat="43.40378" lon="5.46298">
        <ele>599</ele>
        <time>2011-04-09T10:23:42.000Z</time>
      </trkpt>
      <trkpt lat="43.40374" lon="5.46307">
        <ele>597</ele>
        <time>2011-04-09T10:23:47.000Z</time>
      </trkpt>
      <trkpt lat="43.4037" lon="5.46308">
        <ele>597</ele>
        <time>2011-04-09T10:23:52.000Z</time>
      </trkpt>
      <trkpt lat="43.40364" lon="5.46309">
        <ele>595</ele>
        <time>2011-04-09T10:23:57.000Z</time>
      </trkpt>
      <trkpt lat="43.40363" lon="5.46314">
        <ele>594</ele>
        <time>2011-04-09T10:24:02.000Z</time>
      </trkpt>
      <trkpt lat="43.4036" lon="5.46318">
        <ele>593</ele>
        <time>2011-04-09T10:24:07.000Z</time>
      </trkpt>
      <trkpt lat="43.40354" lon="5.46314">
        <ele>592</ele>
        <time>2011-04-09T10:24:12.000Z</time>
      </trkpt>
      <trkpt lat="43.40353" lon="5.46314">
        <ele>592</ele>
        <time>2011-04-09T10:24:17.000Z</time>
      </trkpt>
      <trkpt lat="43.40353" lon="5.46314">
        <ele>592</ele>
        <time>2011-04-09T10:24:22.000Z</time>
      </trkpt>
      <trkpt lat="43.40353" lon="5.46314">
        <ele>592</ele>
        <time>2011-04-09T10:24:27.000Z</time>
      </trkpt>
      <trkpt lat="43.40353" lon="5.46314">
        <ele>592</ele>
        <time>2011-04-09T10:24:32.000Z</time>
      </trkpt>
      <trkpt lat="43.40353" lon="5.46314">
        <ele>592</ele>
        <time>2011-04-09T10:24:37.000Z</time>
      </trkpt>
      <trkpt lat="43.40353" lon="5.46314">
        <ele>592</ele>
        <time>2011-04-09T10:24:42.000Z</time>
      </trkpt>
      <trkpt lat="43.40353" lon="5.46314">
        <ele>592</ele>
        <time>2011-04-09T10:24:47.000Z</time>
      </trkpt>
      <trkpt lat="43.40353" lon="5.46314">
        <ele>592</ele>
        <time>2011-04-09T10:24:52.000Z</time>
      </trkpt>
      <trkpt lat="43.40353" lon="5.46314">
        <ele>592</ele>
        <time>2011-04-09T10:24:57.000Z</time>
      </trkpt>
      <trkpt lat="43.40353" lon="5.46314">
        <ele>592</ele>
        <time>2011-04-09T10:25:02.000Z</time>
      </trkpt>
      <trkpt lat="43.40355" lon="5.46324">
        <ele>591</ele>
        <time>2011-04-09T10:25:07.000Z</time>
      </trkpt>
      <trkpt lat="43.40354" lon="5.46324">
        <ele>590</ele>
        <time>2011-04-09T10:25:12.000Z</time>
      </trkpt>
      <trkpt lat="43.40354" lon="5.46324">
        <ele>590</ele>
        <time>2011-04-09T10:25:17.000Z</time>
      </trkpt>
      <trkpt lat="43.40354" lon="5.46324">
        <ele>590</ele>
        <time>2011-04-09T10:25:22.000Z</time>
      </trkpt>
      <trkpt lat="43.40354" lon="5.46324">
        <ele>590</ele>
        <time>2011-04-09T10:25:27.000Z</time>
      </trkpt>
      <trkpt lat="43.40354" lon="5.46324">
        <ele>590</ele>
        <time>2011-04-09T10:25:32.000Z</time>
      </trkpt>
      <trkpt lat="43.40354" lon="5.46324">
        <ele>590</ele>
        <time>2011-04-09T10:25:37.000Z</time>
      </trkpt>
      <trkpt lat="43.40354" lon="5.46324">
        <ele>590</ele>
        <time>2011-04-09T10:25:42.000Z</time>
      </trkpt>
      <trkpt lat="43.40354" lon="5.46324">
        <ele>590</ele>
        <time>2011-04-09T10:25:47.000Z</time>
      </trkpt>
      <trkpt lat="43.40354" lon="5.46324">
        <ele>590</ele>
        <time>2011-04-09T10:25:52.000Z</time>
      </trkpt>
      <trkpt lat="43.40354" lon="5.46324">
        <ele>590</ele>
        <time>2011-04-09T10:25:57.000Z</time>
      </trkpt>
      <trkpt lat="43.40354" lon="5.46324">
        <ele>590</ele>
        <time>2011-04-09T10:26:02.000Z</time>
      </trkpt>
      <trkpt lat="43.40354" lon="5.46324">
        <ele>590</ele>
        <time>2011-04-09T10:26:07.000Z</time>
      </trkpt>
      <trkpt lat="43.40354" lon="5.46324">
        <ele>590</ele>
        <time>2011-04-09T10:26:12.000Z</time>
      </trkpt>
      <trkpt lat="43.40354" lon="5.46324">
        <ele>590</ele>
        <time>2011-04-09T10:26:17.000Z</time>
      </trkpt>
      <trkpt lat="43.40354" lon="5.46324">
        <ele>590</ele>
        <time>2011-04-09T10:26:22.000Z</time>
      </trkpt>
      <trkpt lat="43.40354" lon="5.46324">
        <ele>590</ele>
        <time>2011-04-09T10:26:27.000Z</time>
      </trkpt>
      <trkpt lat="43.40354" lon="5.46324">
        <ele>590</ele>
        <time>2011-04-09T10:26:32.000Z</time>
      </trkpt>
      <trkpt lat="43.40354" lon="5.46324">
        <ele>590</ele>
        <time>2011-04-09T10:26:37.000Z</time>
      </trkpt>
      <trkpt lat="43.40337" lon="5.46328">
        <ele>581</ele>
        <time>2011-04-09T10:26:42.000Z</time>
      </trkpt>
      <trkpt lat="43.40332" lon="5.46327">
        <ele>574</ele>
        <time>2011-04-09T10:26:47.000Z</time>
      </trkpt>
      <trkpt lat="43.40329" lon="5.46328">
        <ele>574</ele>
        <time>2011-04-09T10:26:52.006Z</time>
      </trkpt>
      <trkpt lat="43.40326" lon="5.46325">
        <ele>573</ele>
        <time>2011-04-09T10:26:57.000Z</time>
      </trkpt>
      <trkpt lat="43.40326" lon="5.46324">
        <ele>573</ele>
        <time>2011-04-09T10:27:02.000Z</time>
      </trkpt>
      <trkpt lat="43.40326" lon="5.46324">
        <ele>573</ele>
        <time>2011-04-09T10:27:07.000Z</time>
      </trkpt>
      <trkpt lat="43.40326" lon="5.46324">
        <ele>573</ele>
        <time>2011-04-09T10:27:12.000Z</time>
      </trkpt>
      <trkpt lat="43.40312" lon="5.46321">
        <ele>571</ele>
        <time>2011-04-09T10:27:17.000Z</time>
      </trkpt>
      <trkpt lat="43.40312" lon="5.46322">
        <ele>571</ele>
        <time>2011-04-09T10:27:21.800Z</time>
      </trkpt>
      <trkpt lat="43.40312" lon="5.46322">
        <ele>571</ele>
        <time>2011-04-09T10:27:27.000Z</time>
      </trkpt>
      <trkpt lat="43.40312" lon="5.46322">
        <ele>571</ele>
        <time>2011-04-09T10:27:32.000Z</time>
      </trkpt>
      <trkpt lat="43.40312" lon="5.46322">
        <ele>571</ele>
        <time>2011-04-09T10:27:37.000Z</time>
      </trkpt>
      <trkpt lat="43.40312" lon="5.46322">
        <ele>571</ele>
        <time>2011-04-09T10:27:42.000Z</time>
      </trkpt>
      <trkpt lat="43.40312" lon="5.46322">
        <ele>571</ele>
        <time>2011-04-09T10:27:47.000Z</time>
      </trkpt>
      <trkpt lat="43.40312" lon="5.46322">
        <ele>571</ele>
        <time>2011-04-09T10:27:52.000Z</time>
      </trkpt>
      <trkpt lat="43.40312" lon="5.46322">
        <ele>571</ele>
        <time>2011-04-09T10:27:57.000Z</time>
      </trkpt>
      <trkpt lat="43.40312" lon="5.46322">
        <ele>571</ele>
        <time>2011-04-09T10:28:02.000Z</time>
      </trkpt>
      <trkpt lat="43.40312" lon="5.46322">
        <ele>571</ele>
        <time>2011-04-09T10:28:07.000Z</time>
      </trkpt>
      <trkpt lat="43.40312" lon="5.46322">
        <ele>571</ele>
        <time>2011-04-09T10:28:12.000Z</time>
      </trkpt>
      <trkpt lat="43.40312" lon="5.46322">
        <ele>571</ele>
        <time>2011-04-09T10:28:17.000Z</time>
      </trkpt>
      <trkpt lat="43.40312" lon="5.46322">
        <ele>571</ele>
        <time>2011-04-09T10:28:22.000Z</time>
      </trkpt>
      <trkpt lat="43.40312" lon="5.46322">
        <ele>571</ele>
        <time>2011-04-09T10:28:27.000Z</time>
      </trkpt>
      <trkpt lat="43.40312" lon="5.46322">
        <ele>571</ele>
        <time>2011-04-09T10:28:32.000Z</time>
      </trkpt>
      <trkpt lat="43.40312" lon="5.46322">
        <ele>571</ele>
        <time>2011-04-09T10:28:37.000Z</time>
      </trkpt>
      <trkpt lat="43.40312" lon="5.46322">
        <ele>571</ele>
        <time>2011-04-09T10:28:42.000Z</time>
      </trkpt>
      <trkpt lat="43.40312" lon="5.46322">
        <ele>571</ele>
        <time>2011-04-09T10:28:47.000Z</time>
      </trkpt>
      <trkpt lat="43.40288" lon="5.4631">
        <ele>566</ele>
        <time>2011-04-09T10:28:52.000Z</time>
      </trkpt>
      <trkpt lat="43.40286" lon="5.46315">
        <ele>565</ele>
        <time>2011-04-09T10:28:57.002Z</time>
      </trkpt>
      <trkpt lat="43.40282" lon="5.46316">
        <ele>564</ele>
        <time>2011-04-09T10:29:02.000Z</time>
      </trkpt>
      <trkpt lat="43.4028" lon="5.46316">
        <ele>564</ele>
        <time>2011-04-09T10:29:07.001Z</time>
      </trkpt>
      <trkpt lat="43.40276" lon="5.46316">
        <ele>563</ele>
        <time>2011-04-09T10:29:12.001Z</time>
      </trkpt>
      <trkpt lat="43.40272" lon="5.46313">
        <ele>562</ele>
        <time>2011-04-09T10:29:17.000Z</time>
      </trkpt>
      <trkpt lat="43.40268" lon="5.46316">
        <ele>560</ele>
        <time>2011-04-09T10:29:22.000Z</time>
      </trkpt>
      <trkpt lat="43.40264" lon="5.46318">
        <ele>559</ele>
        <time>2011-04-09T10:29:27.000Z</time>
      </trkpt>
      <trkpt lat="43.40259" lon="5.46318">
        <ele>558</ele>
        <time>2011-04-09T10:29:32.000Z</time>
      </trkpt>
      <trkpt lat="43.40255" lon="5.46317">
        <ele>557</ele>
        <time>2011-04-09T10:29:37.001Z</time>
      </trkpt>
      <trkpt lat="43.40251" lon="5.46314">
        <ele>558</ele>
        <time>2011-04-09T10:29:42.001Z</time>
      </trkpt>
      <trkpt lat="43.40248" lon="5.46311">
        <ele>544</ele>
        <time>2011-04-09T10:29:46.801Z</time>
      </trkpt>
      <trkpt lat="43.40248" lon="5.46311">
        <ele>544</ele>
        <time>2011-04-09T10:29:52.000Z</time>
      </trkpt>
      <trkpt lat="43.40248" lon="5.46311">
        <ele>544</ele>
        <time>2011-04-09T10:29:57.000Z</time>
      </trkpt>
      <trkpt lat="43.40234" lon="5.46318">
        <ele>543</ele>
        <time>2011-04-09T10:30:01.999Z</time>
      </trkpt>
      <trkpt lat="43.40234" lon="5.46318">
        <ele>543</ele>
        <time>2011-04-09T10:30:07.000Z</time>
      </trkpt>
      <trkpt lat="43.40229" lon="5.46317">
        <ele>542</ele>
        <time>2011-04-09T10:30:12.000Z</time>
      </trkpt>
      <trkpt lat="43.40227" lon="5.46318">
        <ele>542</ele>
        <time>2011-04-09T10:30:17.000Z</time>
      </trkpt>
      <trkpt lat="43.40227" lon="5.46318">
        <ele>542</ele>
        <time>2011-04-09T10:30:22.000Z</time>
      </trkpt>
      <trkpt lat="43.40227" lon="5.46318">
        <ele>542</ele>
        <time>2011-04-09T10:30:27.000Z</time>
      </trkpt>
      <trkpt lat="43.40215" lon="5.46312">
        <ele>540</ele>
        <time>2011-04-09T10:30:33.000Z</time>
      </trkpt>
      <trkpt lat="43.40212" lon="5.46318">
        <ele>539</ele>
        <time>2011-04-09T10:30:38.000Z</time>
      </trkpt>
      <trkpt lat="43.40211" lon="5.46319">
        <ele>539</ele>
        <time>2011-04-09T10:30:43.000Z</time>
      </trkpt>
      <trkpt lat="43.40211" lon="5.46319">
        <ele>539</ele>
        <time>2011-04-09T10:30:48.000Z</time>
      </trkpt>
      <trkpt lat="43.40211" lon="5.46319">
        <ele>539</ele>
        <time>2011-04-09T10:30:53.000Z</time>
      </trkpt>
      <trkpt lat="43.40211" lon="5.46319">
        <ele>539</ele>
        <time>2011-04-09T10:30:58.000Z</time>
      </trkpt>
      <trkpt lat="43.40211" lon="5.46319">
        <ele>539</ele>
        <time>2011-04-09T10:31:03.000Z</time>
      </trkpt>
      <trkpt lat="43.40211" lon="5.46319">
        <ele>539</ele>
        <time>2011-04-09T10:31:09.000Z</time>
      </trkpt>
      <trkpt lat="43.40211" lon="5.46319">
        <ele>539</ele>
        <time>2011-04-09T10:31:13.999Z</time>
      </trkpt>
      <trkpt lat="43.40211" lon="5.46319">
        <ele>539</ele>
        <time>2011-04-09T10:31:18.999Z</time>
      </trkpt>
      <trkpt lat="43.40212" lon="5.46323">
        <ele>539</ele>
        <time>2011-04-09T10:31:23.999Z</time>
      </trkpt>
      <trkpt lat="43.4021" lon="5.46322">
        <ele>539</ele>
        <time>2011-04-09T10:31:28.999Z</time>
      </trkpt>
      <trkpt lat="43.4021" lon="5.46322">
        <ele>539</ele>
        <time>2011-04-09T10:31:34.000Z</time>
      </trkpt>
      <trkpt lat="43.4021" lon="5.46322">
        <ele>539</ele>
        <time>2011-04-09T10:31:38.799Z</time>
      </trkpt>
      <trkpt lat="43.40181" lon="5.46312">
        <ele>534</ele>
        <time>2011-04-09T10:31:44.000Z</time>
      </trkpt>
      <trkpt lat="43.40177" lon="5.46311">
        <ele>534</ele>
        <time>2011-04-09T10:31:49.000Z</time>
      </trkpt>
      <trkpt lat="43.40177" lon="5.46311">
        <ele>534</ele>
        <time>2011-04-09T10:31:54.998Z</time>
      </trkpt>
      <trkpt lat="43.40177" lon="5.46311">
        <ele>534</ele>
        <time>2011-04-09T10:31:59.999Z</time>
      </trkpt>
      <trkpt lat="43.40177" lon="5.46311">
        <ele>534</ele>
        <time>2011-04-09T10:32:04.999Z</time>
      </trkpt>
      <trkpt lat="43.40177" lon="5.46311">
        <ele>534</ele>
        <time>2011-04-09T10:32:10.000Z</time>
      </trkpt>
      <trkpt lat="43.40177" lon="5.46311">
        <ele>534</ele>
        <time>2011-04-09T10:32:15.000Z</time>
      </trkpt>
      <trkpt lat="43.40174" lon="5.46328">
        <ele>529</ele>
        <time>2011-04-09T10:32:20.000Z</time>
      </trkpt>
      <trkpt lat="43.40163" lon="5.46326">
        <ele>523</ele>
        <time>2011-04-09T10:32:25.000Z</time>
      </trkpt>
      <trkpt lat="43.40163" lon="5.46326">
        <ele>523</ele>
        <time>2011-04-09T10:32:30.000Z</time>
      </trkpt>
      <trkpt lat="43.40163" lon="5.46326">
        <ele>523</ele>
        <time>2011-04-09T10:32:35.000Z</time>
      </trkpt>
      <trkpt lat="43.40163" lon="5.46326">
        <ele>523</ele>
        <time>2011-04-09T10:32:40.000Z</time>
      </trkpt>
      <trkpt lat="43.40163" lon="5.46326">
        <ele>523</ele>
        <time>2011-04-09T10:32:45.000Z</time>
      </trkpt>
      <trkpt lat="43.40163" lon="5.46326">
        <ele>523</ele>
        <time>2011-04-09T10:32:50.000Z</time>
      </trkpt>
      <trkpt lat="43.40163" lon="5.46326">
        <ele>523</ele>
        <time>2011-04-09T10:32:56.000Z</time>
      </trkpt>
      <trkpt lat="43.40163" lon="5.46326">
        <ele>523</ele>
        <time>2011-04-09T10:33:01.000Z</time>
      </trkpt>
      <trkpt lat="43.40163" lon="5.46326">
        <ele>523</ele>
        <time>2011-04-09T10:33:06.000Z</time>
      </trkpt>
      <trkpt lat="43.40163" lon="5.46326">
        <ele>523</ele>
        <time>2011-04-09T10:33:11.000Z</time>
      </trkpt>
      <trkpt lat="43.40163" lon="5.46326">
        <ele>523</ele>
        <time>2011-04-09T10:33:17.000Z</time>
      </trkpt>
      <trkpt lat="43.40163" lon="5.46326">
        <ele>523</ele>
        <time>2011-04-09T10:33:22.000Z</time>
      </trkpt>
      <trkpt lat="43.40163" lon="5.46326">
        <ele>523</ele>
        <time>2011-04-09T10:33:27.000Z</time>
      </trkpt>
      <trkpt lat="43.40163" lon="5.46326">
        <ele>523</ele>
        <time>2011-04-09T10:33:33.000Z</time>
      </trkpt>
      <trkpt lat="43.40163" lon="5.46326">
        <ele>523</ele>
        <time>2011-04-09T10:33:38.000Z</time>
      </trkpt>
      <trkpt lat="43.40148" lon="5.4633">
        <ele>522</ele>
        <time>2011-04-09T10:33:43.000Z</time>
      </trkpt>
      <trkpt lat="43.40145" lon="5.46332">
        <ele>521</ele>
        <time>2011-04-09T10:33:48.000Z</time>
      </trkpt>
      <trkpt lat="43.40145" lon="5.46332">
        <ele>521</ele>
        <time>2011-04-09T10:33:53.000Z</time>
      </trkpt>
      <trkpt lat="43.40139" lon="5.46333">
        <ele>521</ele>
        <time>2011-04-09T10:33:58.000Z</time>
      </trkpt>
      <trkpt lat="43.40134" lon="5.46333">
        <ele>520</ele>
        <time>2011-04-09T10:34:03.000Z</time>
      </trkpt>
      <trkpt lat="43.40129" lon="5.46332">
        <ele>520</ele>
        <time>2011-04-09T10:34:08.000Z</time>
      </trkpt>
      <trkpt lat="43.40129" lon="5.46332">
        <ele>520</ele>
        <time>2011-04-09T10:34:13.000Z</time>
      </trkpt>
      <trkpt lat="43.40129" lon="5.46332">
        <ele>520</ele>
        <time>2011-04-09T10:34:18.000Z</time>
      </trkpt>
      <trkpt lat="43.40129" lon="5.46332">
        <ele>520</ele>
        <time>2011-04-09T10:34:22.999Z</time>
      </trkpt>
      <trkpt lat="43.40118" lon="5.46322">
        <ele>518</ele>
        <time>2011-04-09T10:34:28.000Z</time>
      </trkpt>
      <trkpt lat="43.40118" lon="5.46322">
        <ele>518</ele>
        <time>2011-04-09T10:34:32.999Z</time>
      </trkpt>
      <trkpt lat="43.40118" lon="5.46322">
        <ele>518</ele>
        <time>2011-04-09T10:34:38.000Z</time>
      </trkpt>
      <trkpt lat="43.40116" lon="5.46315">
        <ele>518</ele>
        <time>2011-04-09T10:34:42.999Z</time>
      </trkpt>
      <trkpt lat="43.40116" lon="5.46313">
        <ele>518</ele>
        <time>2011-04-09T10:34:48.000Z</time>
      </trkpt>
      <trkpt lat="43.40104" lon="5.46301">
        <ele>517</ele>
        <time>2011-04-09T10:34:53.000Z</time>
      </trkpt>
      <trkpt lat="43.40106" lon="5.46291">
        <ele>517</ele>
        <time>2011-04-09T10:34:58.000Z</time>
      </trkpt>
      <trkpt lat="43.40106" lon="5.46291">
        <ele>517</ele>
        <time>2011-04-09T10:35:03.000Z</time>
      </trkpt>
      <trkpt lat="43.40106" lon="5.46291">
        <ele>517</ele>
        <time>2011-04-09T10:35:08.999Z</time>
      </trkpt>
      <trkpt lat="43.40104" lon="5.4628">
        <ele>517</ele>
        <time>2011-04-09T10:35:14.000Z</time>
      </trkpt>
      <trkpt lat="43.40105" lon="5.46279">
        <ele>517</ele>
        <time>2011-04-09T10:35:19.000Z</time>
      </trkpt>
      <trkpt lat="43.40101" lon="5.46271">
        <ele>516</ele>
        <time>2011-04-09T10:35:25.000Z</time>
      </trkpt>
      <trkpt lat="43.40101" lon="5.46271">
        <ele>516</ele>
        <time>2011-04-09T10:35:30.000Z</time>
      </trkpt>
      <trkpt lat="43.40101" lon="5.46271">
        <ele>516</ele>
        <time>2011-04-09T10:35:35.001Z</time>
      </trkpt>
      <trkpt lat="43.40101" lon="5.46261">
        <ele>515</ele>
        <time>2011-04-09T10:35:40.000Z</time>
      </trkpt>
      <trkpt lat="43.40099" lon="5.46255">
        <ele>514</ele>
        <time>2011-04-09T10:35:45.000Z</time>
      </trkpt>
      <trkpt lat="43.40095" lon="5.46248">
        <ele>514</ele>
        <time>2011-04-09T10:35:51.001Z</time>
      </trkpt>
      <trkpt lat="43.40092" lon="5.46243">
        <ele>514</ele>
        <time>2011-04-09T10:35:56.001Z</time>
      </trkpt>
      <trkpt lat="43.40091" lon="5.46242">
        <ele>514</ele>
        <time>2011-04-09T10:36:01.000Z</time>
      </trkpt>
      <trkpt lat="43.40088" lon="5.46229">
        <ele>516</ele>
        <time>2011-04-09T10:36:06.000Z</time>
      </trkpt>
      <trkpt lat="43.40085" lon="5.46222">
        <ele>517</ele>
        <time>2011-04-09T10:36:12.001Z</time>
      </trkpt>
      <trkpt lat="43.40084" lon="5.46217">
        <ele>517</ele>
        <time>2011-04-09T10:36:17.001Z</time>
      </trkpt>
      <trkpt lat="43.40083" lon="5.46217">
        <ele>507</ele>
        <time>2011-04-09T10:36:22.000Z</time>
      </trkpt>
      <trkpt lat="43.40083" lon="5.46217">
        <ele>507</ele>
        <time>2011-04-09T10:36:27.000Z</time>
      </trkpt>
      <trkpt lat="43.40083" lon="5.46217">
        <ele>507</ele>
        <time>2011-04-09T10:36:32.000Z</time>
      </trkpt>
      <trkpt lat="43.40083" lon="5.46217">
        <ele>507</ele>
        <time>2011-04-09T10:36:37.000Z</time>
      </trkpt>
      <trkpt lat="43.40083" lon="5.46217">
        <ele>507</ele>
        <time>2011-04-09T10:36:42.000Z</time>
      </trkpt>
      <trkpt lat="43.40071" lon="5.46206">
        <ele>507</ele>
        <time>2011-04-09T10:36:47.000Z</time>
      </trkpt>
      <trkpt lat="43.40067" lon="5.46204">
        <ele>507</ele>
        <time>2011-04-09T10:36:52.000Z</time>
      </trkpt>
      <trkpt lat="43.40067" lon="5.46204">
        <ele>507</ele>
        <time>2011-04-09T10:36:57.000Z</time>
      </trkpt>
      <trkpt lat="43.40067" lon="5.46204">
        <ele>507</ele>
        <time>2011-04-09T10:37:02.000Z</time>
      </trkpt>
      <trkpt lat="43.40051" lon="5.46198">
        <ele>506</ele>
        <time>2011-04-09T10:37:07.000Z</time>
      </trkpt>
      <trkpt lat="43.40051" lon="5.46198">
        <ele>506</ele>
        <time>2011-04-09T10:37:13.001Z</time>
      </trkpt>
      <trkpt lat="43.40051" lon="5.46198">
        <ele>506</ele>
        <time>2011-04-09T10:37:18.001Z</time>
      </trkpt>
      <trkpt lat="43.40051" lon="5.46198">
        <ele>506</ele>
        <time>2011-04-09T10:37:23.000Z</time>
      </trkpt>
      <trkpt lat="43.40051" lon="5.46198">
        <ele>506</ele>
        <time>2011-04-09T10:37:28.000Z</time>
      </trkpt>
      <trkpt lat="43.40051" lon="5.46198">
        <ele>506</ele>
        <time>2011-04-09T10:37:34.000Z</time>
      </trkpt>
      <trkpt lat="43.40039" lon="5.46202">
        <ele>506</ele>
        <time>2011-04-09T10:37:38.800Z</time>
      </trkpt>
      <trkpt lat="43.40039" lon="5.46202">
        <ele>506</ele>
        <time>2011-04-09T10:37:44.000Z</time>
      </trkpt>
      <trkpt lat="43.40027" lon="5.46205">
        <ele>505</ele>
        <time>2011-04-09T10:37:49.000Z</time>
      </trkpt>
      <trkpt lat="43.4002" lon="5.46211">
        <ele>504</ele>
        <time>2011-04-09T10:37:55.000Z</time>
      </trkpt>
      <trkpt lat="43.40019" lon="5.46215">
        <ele>504</ele>
        <time>2011-04-09T10:38:00.000Z</time>
      </trkpt>
      <trkpt lat="43.40016" lon="5.46221">
        <ele>503</ele>
        <time>2011-04-09T10:38:05.000Z</time>
      </trkpt>
      <trkpt lat="43.40011" lon="5.46225">
        <ele>503</ele>
        <time>2011-04-09T10:38:10.000Z</time>
      </trkpt>
      <trkpt lat="43.40011" lon="5.46224">
        <ele>503</ele>
        <time>2011-04-09T10:38:15.000Z</time>
      </trkpt>
      <trkpt lat="43.40013" lon="5.46226">
        <ele>503</ele>
        <time>2011-04-09T10:38:21.000Z</time>
      </trkpt>
      <trkpt lat="43.40013" lon="5.46226">
        <ele>503</ele>
        <time>2011-04-09T10:38:26.000Z</time>
      </trkpt>
      <trkpt lat="43.40009" lon="5.46224">
        <ele>503</ele>
        <time>2011-04-09T10:38:31.000Z</time>
      </trkpt>
      <trkpt lat="43.40004" lon="5.46218">
        <ele>503</ele>
        <time>2011-04-09T10:38:36.000Z</time>
      </trkpt>
      <trkpt lat="43.39999" lon="5.46213">
        <ele>496</ele>
        <time>2011-04-09T10:38:41.000Z</time>
      </trkpt>
      <trkpt lat="43.39995" lon="5.46212">
        <ele>496</ele>
        <time>2011-04-09T10:38:46.000Z</time>
      </trkpt>
      <trkpt lat="43.39991" lon="5.46214">
        <ele>496</ele>
        <time>2011-04-09T10:38:51.000Z</time>
      </trkpt>
      <trkpt lat="43.39986" lon="5.46214">
        <ele>496</ele>
        <time>2011-04-09T10:38:56.000Z</time>
      </trkpt>
      <trkpt lat="43.39986" lon="5.46214">
        <ele>496</ele>
        <time>2011-04-09T10:39:01.000Z</time>
      </trkpt>
      <trkpt lat="43.39986" lon="5.46214">
        <ele>496</ele>
        <time>2011-04-09T10:39:06.000Z</time>
      </trkpt>
      <trkpt lat="43.39986" lon="5.46214">
        <ele>496</ele>
        <time>2011-04-09T10:39:12.000Z</time>
      </trkpt>
      <trkpt lat="43.39986" lon="5.46214">
        <ele>496</ele>
        <time>2011-04-09T10:39:17.000Z</time>
      </trkpt>
      <trkpt lat="43.39966" lon="5.46226">
        <ele>494</ele>
        <time>2011-04-09T10:39:22.000Z</time>
      </trkpt>
      <trkpt lat="43.39961" lon="5.46224">
        <ele>494</ele>
        <time>2011-04-09T10:39:27.000Z</time>
      </trkpt>
      <trkpt lat="43.39954" lon="5.46225">
        <ele>493</ele>
        <time>2011-04-09T10:39:32.000Z</time>
      </trkpt>
      <trkpt lat="43.39953" lon="5.46225">
        <ele>493</ele>
        <time>2011-04-09T10:39:36.999Z</time>
      </trkpt>
      <trkpt lat="43.39947" lon="5.46227">
        <ele>492</ele>
        <time>2011-04-09T10:39:42.000Z</time>
      </trkpt>
      <trkpt lat="43.39943" lon="5.46224">
        <ele>492</ele>
        <time>2011-04-09T10:39:47.000Z</time>
      </trkpt>
      <trkpt lat="43.39943" lon="5.46224">
        <ele>492</ele>
        <time>2011-04-09T10:39:52.000Z</time>
      </trkpt>
      <trkpt lat="43.39943" lon="5.46224">
        <ele>492</ele>
        <time>2011-04-09T10:39:57.000Z</time>
      </trkpt>
      <trkpt lat="43.39934" lon="5.46211">
        <ele>492</ele>
        <time>2011-04-09T10:40:02.000Z</time>
      </trkpt>
      <trkpt lat="43.39934" lon="5.4621">
        <ele>492</ele>
        <time>2011-04-09T10:40:07.000Z</time>
      </trkpt>
      <trkpt lat="43.39931" lon="5.46201">
        <ele>493</ele>
        <time>2011-04-09T10:40:12.000Z</time>
      </trkpt>
      <trkpt lat="43.39929" lon="5.462">
        <ele>493</ele>
        <time>2011-04-09T10:40:17.000Z</time>
      </trkpt>
      <trkpt lat="43.39929" lon="5.462">
        <ele>493</ele>
        <time>2011-04-09T10:40:22.000Z</time>
      </trkpt>
      <trkpt lat="43.39929" lon="5.462">
        <ele>493</ele>
        <time>2011-04-09T10:40:27.000Z</time>
      </trkpt>
      <trkpt lat="43.39929" lon="5.462">
        <ele>493</ele>
        <time>2011-04-09T10:40:31.999Z</time>
      </trkpt>
      <trkpt lat="43.39929" lon="5.462">
        <ele>493</ele>
        <time>2011-04-09T10:40:37.000Z</time>
      </trkpt>
      <trkpt lat="43.39929" lon="5.462">
        <ele>493</ele>
        <time>2011-04-09T10:40:42.000Z</time>
      </trkpt>
      <trkpt lat="43.39929" lon="5.462">
        <ele>493</ele>
        <time>2011-04-09T10:40:47.000Z</time>
      </trkpt>
      <trkpt lat="43.39929" lon="5.462">
        <ele>493</ele>
        <time>2011-04-09T10:40:52.000Z</time>
      </trkpt>
      <trkpt lat="43.39929" lon="5.462">
        <ele>493</ele>
        <time>2011-04-09T10:40:57.000Z</time>
      </trkpt>
      <trkpt lat="43.39929" lon="5.462">
        <ele>493</ele>
        <time>2011-04-09T10:41:02.000Z</time>
      </trkpt>
      <trkpt lat="43.39929" lon="5.462">
        <ele>493</ele>
        <time>2011-04-09T10:41:07.000Z</time>
      </trkpt>
      <trkpt lat="43.39901" lon="5.46187">
        <ele>487</ele>
        <time>2011-04-09T10:41:12.000Z</time>
      </trkpt>
      <trkpt lat="43.39898" lon="5.4619">
        <ele>486</ele>
        <time>2011-04-09T10:41:17.000Z</time>
      </trkpt>
      <trkpt lat="43.39898" lon="5.4619">
        <ele>486</ele>
        <time>2011-04-09T10:41:22.000Z</time>
      </trkpt>
      <trkpt lat="43.39898" lon="5.4619">
        <ele>486</ele>
        <time>2011-04-09T10:41:27.000Z</time>
      </trkpt>
      <trkpt lat="43.39898" lon="5.4619">
        <ele>486</ele>
        <time>2011-04-09T10:41:33.001Z</time>
      </trkpt>
      <trkpt lat="43.39898" lon="5.4619">
        <ele>486</ele>
        <time>2011-04-09T10:41:38.001Z</time>
      </trkpt>
      <trkpt lat="43.39898" lon="5.4619">
        <ele>486</ele>
        <time>2011-04-09T10:41:43.001Z</time>
      </trkpt>
      <trkpt lat="43.39898" lon="5.4619">
        <ele>486</ele>
        <time>2011-04-09T10:41:48.001Z</time>
      </trkpt>
      <trkpt lat="43.39898" lon="5.4619">
        <ele>486</ele>
        <time>2011-04-09T10:41:53.001Z</time>
      </trkpt>
      <trkpt lat="43.39898" lon="5.4619">
        <ele>486</ele>
        <time>2011-04-09T10:41:58.000Z</time>
      </trkpt>
      <trkpt lat="43.39898" lon="5.4619">
        <ele>486</ele>
        <time>2011-04-09T10:42:02.999Z</time>
      </trkpt>
      <trkpt lat="43.39874" lon="5.46192">
        <ele>484</ele>
        <time>2011-04-09T10:42:08.000Z</time>
      </trkpt>
      <trkpt lat="43.39869" lon="5.4619">
        <ele>484</ele>
        <time>2011-04-09T10:42:12.999Z</time>
      </trkpt>
      <trkpt lat="43.39865" lon="5.46194">
        <ele>484</ele>
        <time>2011-04-09T10:42:17.999Z</time>
      </trkpt>
      <trkpt lat="43.39864" lon="5.46191">
        <ele>484</ele>
        <time>2011-04-09T10:42:22.999Z</time>
      </trkpt>
      <trkpt lat="43.39857" lon="5.46192">
        <ele>484</ele>
        <time>2011-04-09T10:42:28.000Z</time>
      </trkpt>
      <trkpt lat="43.39852" lon="5.46193">
        <ele>483</ele>
        <time>2011-04-09T10:42:33.000Z</time>
      </trkpt>
      <trkpt lat="43.39852" lon="5.46193">
        <ele>483</ele>
        <time>2011-04-09T10:42:38.000Z</time>
      </trkpt>
      <trkpt lat="43.39839" lon="5.46195">
        <ele>483</ele>
        <time>2011-04-09T10:42:43.999Z</time>
      </trkpt>
      <trkpt lat="43.39836" lon="5.46194">
        <ele>483</ele>
        <time>2011-04-09T10:42:49.000Z</time>
      </trkpt>
      <trkpt lat="43.39836" lon="5.46194">
        <ele>483</ele>
        <time>2011-04-09T10:42:54.000Z</time>
      </trkpt>
      <trkpt lat="43.39836" lon="5.46194">
        <ele>483</ele>
        <time>2011-04-09T10:42:59.000Z</time>
      </trkpt>
      <trkpt lat="43.39836" lon="5.46194">
        <ele>483</ele>
        <time>2011-04-09T10:43:04.000Z</time>
      </trkpt>
      <trkpt lat="43.39836" lon="5.46194">
        <ele>483</ele>
        <time>2011-04-09T10:43:09.000Z</time>
      </trkpt>
      <trkpt lat="43.39836" lon="5.46194">
        <ele>483</ele>
        <time>2011-04-09T10:43:14.000Z</time>
      </trkpt>
      <trkpt lat="43.39836" lon="5.46194">
        <ele>483</ele>
        <time>2011-04-09T10:43:19.000Z</time>
      </trkpt>
      <trkpt lat="43.39836" lon="5.46194">
        <ele>483</ele>
        <time>2011-04-09T10:43:25.000Z</time>
      </trkpt>
      <trkpt lat="43.39825" lon="5.46214">
        <ele>479</ele>
        <time>2011-04-09T10:43:30.000Z</time>
      </trkpt>
      <trkpt lat="43.39824" lon="5.46217">
        <ele>478</ele>
        <time>2011-04-09T10:43:35.000Z</time>
      </trkpt>
      <trkpt lat="43.39824" lon="5.46217">
        <ele>478</ele>
        <time>2011-04-09T10:43:39.999Z</time>
      </trkpt>
      <trkpt lat="43.39824" lon="5.46217">
        <ele>478</ele>
        <time>2011-04-09T10:43:45.000Z</time>
      </trkpt>
      <trkpt lat="43.39824" lon="5.46217">
        <ele>478</ele>
        <time>2011-04-09T10:43:50.000Z</time>
      </trkpt>
      <trkpt lat="43.39812" lon="5.46217">
        <ele>478</ele>
        <time>2011-04-09T10:43:55.999Z</time>
      </trkpt>
      <trkpt lat="43.39809" lon="5.46221">
        <ele>478</ele>
        <time>2011-04-09T10:44:01.000Z</time>
      </trkpt>
      <trkpt lat="43.39804" lon="5.4622">
        <ele>478</ele>
        <time>2011-04-09T10:44:06.000Z</time>
      </trkpt>
      <trkpt lat="43.39804" lon="5.4622">
        <ele>478</ele>
        <time>2011-04-09T10:44:11.000Z</time>
      </trkpt>
      <trkpt lat="43.39804" lon="5.4622">
        <ele>478</ele>
        <time>2011-04-09T10:44:16.000Z</time>
      </trkpt>
      <trkpt lat="43.39797" lon="5.46218">
        <ele>478</ele>
        <time>2011-04-09T10:44:21.000Z</time>
      </trkpt>
      <trkpt lat="43.39792" lon="5.46221">
        <ele>478</ele>
        <time>2011-04-09T10:44:26.000Z</time>
      </trkpt>
      <trkpt lat="43.39789" lon="5.46218">
        <ele>478</ele>
        <time>2011-04-09T10:44:31.000Z</time>
      </trkpt>
      <trkpt lat="43.39788" lon="5.46218">
        <ele>478</ele>
        <time>2011-04-09T10:44:36.000Z</time>
      </trkpt>
      <trkpt lat="43.39784" lon="5.46224">
        <ele>477</ele>
        <time>2011-04-09T10:44:41.000Z</time>
      </trkpt>
      <trkpt lat="43.39783" lon="5.46224">
        <ele>477</ele>
        <time>2011-04-09T10:44:46.000Z</time>
      </trkpt>
      <trkpt lat="43.39783" lon="5.46224">
        <ele>477</ele>
        <time>2011-04-09T10:44:50.800Z</time>
      </trkpt>
      <trkpt lat="43.39783" lon="5.46224">
        <ele>477</ele>
        <time>2011-04-09T10:44:56.000Z</time>
      </trkpt>
      <trkpt lat="43.39783" lon="5.46224">
        <ele>477</ele>
        <time>2011-04-09T10:45:01.000Z</time>
      </trkpt>
      <trkpt lat="43.39777" lon="5.46231">
        <ele>475</ele>
        <time>2011-04-09T10:45:06.000Z</time>
      </trkpt>
      <trkpt lat="43.39776" lon="5.46232">
        <ele>475</ele>
        <time>2011-04-09T10:45:11.000Z</time>
      </trkpt>
      <trkpt lat="43.39776" lon="5.46232">
        <ele>475</ele>
        <time>2011-04-09T10:45:17.001Z</time>
      </trkpt>
      <trkpt lat="43.39764" lon="5.46241">
        <ele>471</ele>
        <time>2011-04-09T10:45:22.000Z</time>
      </trkpt>
      <trkpt lat="43.39764" lon="5.46245">
        <ele>470</ele>
        <time>2011-04-09T10:45:27.000Z</time>
      </trkpt>
      <trkpt lat="43.39765" lon="5.46245">
        <ele>471</ele>
        <time>2011-04-09T10:45:32.000Z</time>
      </trkpt>
      <trkpt lat="43.39765" lon="5.46245">
        <ele>471</ele>
        <time>2011-04-09T10:45:37.000Z</time>
      </trkpt>
      <trkpt lat="43.39762" lon="5.46255">
        <ele>464</ele>
        <time>2011-04-09T10:45:42.000Z</time>
      </trkpt>
      <trkpt lat="43.39762" lon="5.46258">
        <ele>464</ele>
        <time>2011-04-09T10:45:47.000Z</time>
      </trkpt>
      <trkpt lat="43.39762" lon="5.46258">
        <ele>464</ele>
        <time>2011-04-09T10:45:52.000Z</time>
      </trkpt>
      <trkpt lat="43.39755" lon="5.46259">
        <ele>463</ele>
        <time>2011-04-09T10:45:57.000Z</time>
      </trkpt>
      <trkpt lat="43.39753" lon="5.46264">
        <ele>463</ele>
        <time>2011-04-09T10:46:02.000Z</time>
      </trkpt>
      <trkpt lat="43.39753" lon="5.46271">
        <ele>463</ele>
        <time>2011-04-09T10:46:07.000Z</time>
      </trkpt>
      <trkpt lat="43.39749" lon="5.46278">
        <ele>460</ele>
        <time>2011-04-09T10:46:12.000Z</time>
      </trkpt>
      <trkpt lat="43.39748" lon="5.46278">
        <ele>460</ele>
        <time>2011-04-09T10:46:17.000Z</time>
      </trkpt>
      <trkpt lat="43.39744" lon="5.46285">
        <ele>459</ele>
        <time>2011-04-09T10:46:22.000Z</time>
      </trkpt>
      <trkpt lat="43.39744" lon="5.46291">
        <ele>458</ele>
        <time>2011-04-09T10:46:27.000Z</time>
      </trkpt>
      <trkpt lat="43.39741" lon="5.46296">
        <ele>458</ele>
        <time>2011-04-09T10:46:32.000Z</time>
      </trkpt>
      <trkpt lat="43.39738" lon="5.46301">
        <ele>457</ele>
        <time>2011-04-09T10:46:37.000Z</time>
      </trkpt>
      <trkpt lat="43.39737" lon="5.46304">
        <ele>457</ele>
        <time>2011-04-09T10:46:42.000Z</time>
      </trkpt>
      <trkpt lat="43.39731" lon="5.46304">
        <ele>457</ele>
        <time>2011-04-09T10:46:47.000Z</time>
      </trkpt>
      <trkpt lat="43.39728" lon="5.46305">
        <ele>457</ele>
        <time>2011-04-09T10:46:52.000Z</time>
      </trkpt>
      <trkpt lat="43.39722" lon="5.46308">
        <ele>457</ele>
        <time>2011-04-09T10:46:57.000Z</time>
      </trkpt>
      <trkpt lat="43.39719" lon="5.46312">
        <ele>457</ele>
        <time>2011-04-09T10:47:02.000Z</time>
      </trkpt>
      <trkpt lat="43.39719" lon="5.46312">
        <ele>457</ele>
        <time>2011-04-09T10:47:07.000Z</time>
      </trkpt>
      <trkpt lat="43.39712" lon="5.46319">
        <ele>456</ele>
        <time>2011-04-09T10:47:12.000Z</time>
      </trkpt>
      <trkpt lat="43.39711" lon="5.46321">
        <ele>456</ele>
        <time>2011-04-09T10:47:17.000Z</time>
      </trkpt>
      <trkpt lat="43.39706" lon="5.46324">
        <ele>456</ele>
        <time>2011-04-09T10:47:22.000Z</time>
      </trkpt>
      <trkpt lat="43.39703" lon="5.46327">
        <ele>456</ele>
        <time>2011-04-09T10:47:27.000Z</time>
      </trkpt>
      <trkpt lat="43.39703" lon="5.46328">
        <ele>456</ele>
        <time>2011-04-09T10:47:32.000Z</time>
      </trkpt>
      <trkpt lat="43.397" lon="5.46332">
        <ele>456</ele>
        <time>2011-04-09T10:47:37.000Z</time>
      </trkpt>
      <trkpt lat="43.397" lon="5.46332">
        <ele>456</ele>
        <time>2011-04-09T10:47:42.000Z</time>
      </trkpt>
      <trkpt lat="43.39699" lon="5.46339">
        <ele>446</ele>
        <time>2011-04-09T10:47:47.000Z</time>
      </trkpt>
      <trkpt lat="43.39699" lon="5.46339">
        <ele>446</ele>
        <time>2011-04-09T10:47:52.000Z</time>
      </trkpt>
      <trkpt lat="43.39695" lon="5.46352">
        <ele>445</ele>
        <time>2011-04-09T10:47:57.000Z</time>
      </trkpt>
      <trkpt lat="43.39696" lon="5.46354">
        <ele>445</ele>
        <time>2011-04-09T10:48:02.000Z</time>
      </trkpt>
      <trkpt lat="43.39696" lon="5.46354">
        <ele>445</ele>
        <time>2011-04-09T10:48:07.000Z</time>
      </trkpt>
      <trkpt lat="43.39692" lon="5.46372">
        <ele>444</ele>
        <time>2011-04-09T10:48:12.000Z</time>
      </trkpt>
      <trkpt lat="43.39692" lon="5.46372">
        <ele>444</ele>
        <time>2011-04-09T10:48:17.000Z</time>
      </trkpt>
      <trkpt lat="43.39692" lon="5.46372">
        <ele>444</ele>
        <time>2011-04-09T10:48:23.000Z</time>
      </trkpt>
      <trkpt lat="43.39694" lon="5.4639">
        <ele>443</ele>
        <time>2011-04-09T10:48:28.000Z</time>
      </trkpt>
      <trkpt lat="43.39694" lon="5.4639">
        <ele>443</ele>
        <time>2011-04-09T10:48:33.000Z</time>
      </trkpt>
      <trkpt lat="43.39694" lon="5.4639">
        <ele>443</ele>
        <time>2011-04-09T10:48:39.000Z</time>
      </trkpt>
      <trkpt lat="43.39692" lon="5.46405">
        <ele>442</ele>
        <time>2011-04-09T10:48:44.000Z</time>
      </trkpt>
      <trkpt lat="43.39693" lon="5.46412">
        <ele>442</ele>
        <time>2011-04-09T10:48:49.000Z</time>
      </trkpt>
      <trkpt lat="43.39693" lon="5.46417">
        <ele>437</ele>
        <time>2011-04-09T10:48:54.000Z</time>
      </trkpt>
      <trkpt lat="43.39693" lon="5.46417">
        <ele>437</ele>
        <time>2011-04-09T10:48:59.000Z</time>
      </trkpt>
      <trkpt lat="43.39691" lon="5.46424">
        <ele>437</ele>
        <time>2011-04-09T10:49:04.000Z</time>
      </trkpt>
      <trkpt lat="43.39689" lon="5.46429">
        <ele>437</ele>
        <time>2011-04-09T10:49:09.000Z</time>
      </trkpt>
      <trkpt lat="43.39689" lon="5.46429">
        <ele>437</ele>
        <time>2011-04-09T10:49:14.000Z</time>
      </trkpt>
      <trkpt lat="43.39689" lon="5.46429">
        <ele>437</ele>
        <time>2011-04-09T10:49:19.000Z</time>
      </trkpt>
      <trkpt lat="43.39694" lon="5.46439">
        <ele>436</ele>
        <time>2011-04-09T10:49:24.000Z</time>
      </trkpt>
      <trkpt lat="43.39697" lon="5.46444">
        <ele>436</ele>
        <time>2011-04-09T10:49:29.000Z</time>
      </trkpt>
      <trkpt lat="43.397" lon="5.46451">
        <ele>436</ele>
        <time>2011-04-09T10:49:34.000Z</time>
      </trkpt>
      <trkpt lat="43.39701" lon="5.46456">
        <ele>435</ele>
        <time>2011-04-09T10:49:39.000Z</time>
      </trkpt>
      <trkpt lat="43.39704" lon="5.46458">
        <ele>435</ele>
        <time>2011-04-09T10:49:44.000Z</time>
      </trkpt>
      <trkpt lat="43.39704" lon="5.46458">
        <ele>435</ele>
        <time>2011-04-09T10:49:49.000Z</time>
      </trkpt>
      <trkpt lat="43.39704" lon="5.46458">
        <ele>435</ele>
        <time>2011-04-09T10:49:54.000Z</time>
      </trkpt>
      <trkpt lat="43.39704" lon="5.46458">
        <ele>435</ele>
        <time>2011-04-09T10:49:59.000Z</time>
      </trkpt>
      <trkpt lat="43.39704" lon="5.46458">
        <ele>435</ele>
        <time>2011-04-09T10:50:04.000Z</time>
      </trkpt>
      <trkpt lat="43.39705" lon="5.46482">
        <ele>434</ele>
        <time>2011-04-09T10:50:09.000Z</time>
      </trkpt>
      <trkpt lat="43.39705" lon="5.46482">
        <ele>434</ele>
        <time>2011-04-09T10:50:14.000Z</time>
      </trkpt>
      <trkpt lat="43.39705" lon="5.46482">
        <ele>434</ele>
        <time>2011-04-09T10:50:19.000Z</time>
      </trkpt>
      <trkpt lat="43.39706" lon="5.465">
        <ele>431</ele>
        <time>2011-04-09T10:50:24.000Z</time>
      </trkpt>
      <trkpt lat="43.39705" lon="5.46504">
        <ele>431</ele>
        <time>2011-04-09T10:50:29.000Z</time>
      </trkpt>
      <trkpt lat="43.39705" lon="5.46504">
        <ele>431</ele>
        <time>2011-04-09T10:50:34.000Z</time>
      </trkpt>
      <trkpt lat="43.39705" lon="5.46504">
        <ele>431</ele>
        <time>2011-04-09T10:50:39.000Z</time>
      </trkpt>
      <trkpt lat="43.39705" lon="5.46504">
        <ele>431</ele>
        <time>2011-04-09T10:50:44.000Z</time>
      </trkpt>
      <trkpt lat="43.39705" lon="5.46504">
        <ele>431</ele>
        <time>2011-04-09T10:50:50.000Z</time>
      </trkpt>
      <trkpt lat="43.39705" lon="5.46504">
        <ele>431</ele>
        <time>2011-04-09T10:50:55.000Z</time>
      </trkpt>
      <trkpt lat="43.39705" lon="5.46504">
        <ele>431</ele>
        <time>2011-04-09T10:51:00.000Z</time>
      </trkpt>
      <trkpt lat="43.39688" lon="5.46534">
        <ele>431</ele>
        <time>2011-04-09T10:51:05.000Z</time>
      </trkpt>
      <trkpt lat="43.39688" lon="5.4654">
        <ele>430</ele>
        <time>2011-04-09T10:51:10.000Z</time>
      </trkpt>
      <trkpt lat="43.39688" lon="5.4654">
        <ele>430</ele>
        <time>2011-04-09T10:51:15.000Z</time>
      </trkpt>
      <trkpt lat="43.39683" lon="5.46548">
        <ele>430</ele>
        <time>2011-04-09T10:51:20.000Z</time>
      </trkpt>
      <trkpt lat="43.39677" lon="5.4655">
        <ele>430</ele>
        <time>2011-04-09T10:51:25.000Z</time>
      </trkpt>
      <trkpt lat="43.39677" lon="5.46558">
        <ele>430</ele>
        <time>2011-04-09T10:51:30.000Z</time>
      </trkpt>
      <trkpt lat="43.39676" lon="5.46564">
        <ele>430</ele>
        <time>2011-04-09T10:51:35.000Z</time>
      </trkpt>
      <trkpt lat="43.39677" lon="5.46566">
        <ele>429</ele>
        <time>2011-04-09T10:51:40.000Z</time>
      </trkpt>
      <trkpt lat="43.39677" lon="5.46566">
        <ele>429</ele>
        <time>2011-04-09T10:51:45.000Z</time>
      </trkpt>
      <trkpt lat="43.3968" lon="5.46576">
        <ele>429</ele>
        <time>2011-04-09T10:51:50.000Z</time>
      </trkpt>
      <trkpt lat="43.3968" lon="5.46577">
        <ele>429</ele>
        <time>2011-04-09T10:51:55.000Z</time>
      </trkpt>
      <trkpt lat="43.3968" lon="5.46577">
        <ele>429</ele>
        <time>2011-04-09T10:52:00.000Z</time>
      </trkpt>
      <trkpt lat="43.39681" lon="5.46583">
        <ele>429</ele>
        <time>2011-04-09T10:52:05.000Z</time>
      </trkpt>
      <trkpt lat="43.39681" lon="5.46583">
        <ele>429</ele>
        <time>2011-04-09T10:52:10.000Z</time>
      </trkpt>
      <trkpt lat="43.39681" lon="5.46591">
        <ele>428</ele>
        <time>2011-04-09T10:52:15.000Z</time>
      </trkpt>
      <trkpt lat="43.3968" lon="5.46594">
        <ele>428</ele>
        <time>2011-04-09T10:52:20.000Z</time>
      </trkpt>
      <trkpt lat="43.3968" lon="5.46594">
        <ele>428</ele>
        <time>2011-04-09T10:52:25.000Z</time>
      </trkpt>
      <trkpt lat="43.39675" lon="5.46602">
        <ele>428</ele>
        <time>2011-04-09T10:52:30.000Z</time>
      </trkpt>
      <trkpt lat="43.39673" lon="5.46605">
        <ele>428</ele>
        <time>2011-04-09T10:52:35.000Z</time>
      </trkpt>
      <trkpt lat="43.3967" lon="5.46614">
        <ele>427</ele>
        <time>2011-04-09T10:52:40.003Z</time>
      </trkpt>
      <trkpt lat="43.39669" lon="5.46617">
        <ele>427</ele>
        <time>2011-04-09T10:52:45.000Z</time>
      </trkpt>
      <trkpt lat="43.39664" lon="5.46627">
        <ele>430</ele>
        <time>2011-04-09T10:52:50.000Z</time>
      </trkpt>
      <trkpt lat="43.39664" lon="5.46631">
        <ele>430</ele>
        <time>2011-04-09T10:52:55.000Z</time>
      </trkpt>
      <trkpt lat="43.39659" lon="5.46642">
        <ele>428</ele>
        <time>2011-04-09T10:53:00.000Z</time>
      </trkpt>
      <trkpt lat="43.39657" lon="5.46651">
        <ele>427</ele>
        <time>2011-04-09T10:53:05.000Z</time>
      </trkpt>
      <trkpt lat="43.39655" lon="5.46659">
        <ele>426</ele>
        <time>2011-04-09T10:53:10.000Z</time>
      </trkpt>
      <trkpt lat="43.39657" lon="5.46666">
        <ele>424</ele>
        <time>2011-04-09T10:53:15.000Z</time>
      </trkpt>
      <trkpt lat="43.39658" lon="5.46675">
        <ele>421</ele>
        <time>2011-04-09T10:53:20.000Z</time>
      </trkpt>
      <trkpt lat="43.39658" lon="5.46679">
        <ele>421</ele>
        <time>2011-04-09T10:53:25.000Z</time>
      </trkpt>
      <trkpt lat="43.39658" lon="5.46684">
        <ele>421</ele>
        <time>2011-04-09T10:53:30.000Z</time>
      </trkpt>
      <trkpt lat="43.39658" lon="5.46687">
        <ele>421</ele>
        <time>2011-04-09T10:53:35.000Z</time>
      </trkpt>
      <trkpt lat="43.39653" lon="5.46694">
        <ele>422</ele>
        <time>2011-04-09T10:53:40.000Z</time>
      </trkpt>
      <trkpt lat="43.39651" lon="5.46695">
        <ele>422</ele>
        <time>2011-04-09T10:53:45.000Z</time>
      </trkpt>
      <trkpt lat="43.39646" lon="5.467">
        <ele>422</ele>
        <time>2011-04-09T10:53:50.000Z</time>
      </trkpt>
      <trkpt lat="43.39644" lon="5.46702">
        <ele>422</ele>
        <time>2011-04-09T10:53:55.000Z</time>
      </trkpt>
      <trkpt lat="43.39644" lon="5.46702">
        <ele>422</ele>
        <time>2011-04-09T10:54:00.000Z</time>
      </trkpt>
      <trkpt lat="43.39644" lon="5.46702">
        <ele>422</ele>
        <time>2011-04-09T10:54:05.000Z</time>
      </trkpt>
      <trkpt lat="43.39638" lon="5.46709">
        <ele>422</ele>
        <time>2011-04-09T10:54:10.000Z</time>
      </trkpt>
      <trkpt lat="43.39636" lon="5.46716">
        <ele>422</ele>
        <time>2011-04-09T10:54:15.000Z</time>
      </trkpt>
      <trkpt lat="43.39632" lon="5.46718">
        <ele>422</ele>
        <time>2011-04-09T10:54:20.000Z</time>
      </trkpt>
      <trkpt lat="43.39629" lon="5.46718">
        <ele>422</ele>
        <time>2011-04-09T10:54:25.000Z</time>
      </trkpt>
      <trkpt lat="43.39627" lon="5.46719">
        <ele>422</ele>
        <time>2011-04-09T10:54:30.000Z</time>
      </trkpt>
      <trkpt lat="43.39627" lon="5.46719">
        <ele>422</ele>
        <time>2011-04-09T10:54:35.000Z</time>
      </trkpt>
      <trkpt lat="43.39627" lon="5.46719">
        <ele>422</ele>
        <time>2011-04-09T10:54:40.000Z</time>
      </trkpt>
      <trkpt lat="43.39629" lon="5.46733">
        <ele>421</ele>
        <time>2011-04-09T10:54:45.000Z</time>
      </trkpt>
      <trkpt lat="43.39629" lon="5.46735">
        <ele>421</ele>
        <time>2011-04-09T10:54:50.000Z</time>
      </trkpt>
      <trkpt lat="43.39629" lon="5.46735">
        <ele>421</ele>
        <time>2011-04-09T10:54:55.000Z</time>
      </trkpt>
      <trkpt lat="43.39622" lon="5.46746">
        <ele>421</ele>
        <time>2011-04-09T10:55:00.000Z</time>
      </trkpt>
      <trkpt lat="43.3962" lon="5.46751">
        <ele>418</ele>
        <time>2011-04-09T10:55:05.000Z</time>
      </trkpt>
      <trkpt lat="43.39615" lon="5.46754">
        <ele>418</ele>
        <time>2011-04-09T10:55:10.000Z</time>
      </trkpt>
      <trkpt lat="43.39615" lon="5.46754">
        <ele>418</ele>
        <time>2011-04-09T10:55:15.000Z</time>
      </trkpt>
      <trkpt lat="43.39615" lon="5.46754">
        <ele>418</ele>
        <time>2011-04-09T10:55:20.000Z</time>
      </trkpt>
      <trkpt lat="43.39615" lon="5.46754">
        <ele>418</ele>
        <time>2011-04-09T10:55:25.000Z</time>
      </trkpt>
      <trkpt lat="43.39608" lon="5.46774">
        <ele>417</ele>
        <time>2011-04-09T10:55:30.000Z</time>
      </trkpt>
      <trkpt lat="43.39607" lon="5.46781">
        <ele>417</ele>
        <time>2011-04-09T10:55:35.000Z</time>
      </trkpt>
      <trkpt lat="43.39606" lon="5.46785">
        <ele>417</ele>
        <time>2011-04-09T10:55:40.002Z</time>
      </trkpt>
      <trkpt lat="43.39604" lon="5.46792">
        <ele>417</ele>
        <time>2011-04-09T10:55:45.000Z</time>
      </trkpt>
      <trkpt lat="43.39603" lon="5.46797">
        <ele>416</ele>
        <time>2011-04-09T10:55:50.000Z</time>
      </trkpt>
      <trkpt lat="43.39603" lon="5.46799">
        <ele>416</ele>
        <time>2011-04-09T10:55:55.000Z</time>
      </trkpt>
      <trkpt lat="43.39599" lon="5.46806">
        <ele>416</ele>
        <time>2011-04-09T10:56:00.000Z</time>
      </trkpt>
      <trkpt lat="43.39598" lon="5.46813">
        <ele>415</ele>
        <time>2011-04-09T10:56:03.000Z</time>
      </trkpt>
      <trkpt lat="43.39595" lon="5.46816">
        <ele>414</ele>
        <time>2011-04-09T10:56:08.000Z</time>
      </trkpt>
      <trkpt lat="43.39595" lon="5.46816">
        <ele>414</ele>
        <time>2011-04-09T10:56:13.000Z</time>
      </trkpt>
      <trkpt lat="43.39595" lon="5.46816">
        <ele>414</ele>
        <time>2011-04-09T10:56:18.000Z</time>
      </trkpt>
      <trkpt lat="43.39595" lon="5.46816">
        <ele>414</ele>
        <time>2011-04-09T10:56:22.999Z</time>
      </trkpt>
      <trkpt lat="43.39595" lon="5.46816">
        <ele>414</ele>
        <time>2011-04-09T10:56:28.000Z</time>
      </trkpt>
      <trkpt lat="43.39588" lon="5.46839">
        <ele>412</ele>
        <time>2011-04-09T10:56:33.000Z</time>
      </trkpt>
      <trkpt lat="43.39587" lon="5.46833">
        <ele>411</ele>
        <time>2011-04-09T10:56:38.000Z</time>
      </trkpt>
      <trkpt lat="43.39587" lon="5.46833">
        <ele>411</ele>
        <time>2011-04-09T10:56:43.000Z</time>
      </trkpt>
      <trkpt lat="43.39587" lon="5.46833">
        <ele>411</ele>
        <time>2011-04-09T10:56:48.000Z</time>
      </trkpt>
      <trkpt lat="43.3958" lon="5.46845">
        <ele>412</ele>
        <time>2011-04-09T10:56:53.000Z</time>
      </trkpt>
      <trkpt lat="43.39578" lon="5.46847">
        <ele>412</ele>
        <time>2011-04-09T10:56:58.000Z</time>
      </trkpt>
      <trkpt lat="43.39574" lon="5.46849">
        <ele>413</ele>
        <time>2011-04-09T10:57:03.000Z</time>
      </trkpt>
      <trkpt lat="43.39574" lon="5.46849">
        <ele>413</ele>
        <time>2011-04-09T10:57:08.000Z</time>
      </trkpt>
      <trkpt lat="43.39574" lon="5.46849">
        <ele>413</ele>
        <time>2011-04-09T10:57:13.000Z</time>
      </trkpt>
      <trkpt lat="43.39574" lon="5.46849">
        <ele>413</ele>
        <time>2011-04-09T10:57:18.000Z</time>
      </trkpt>
      <trkpt lat="43.39574" lon="5.46849">
        <ele>413</ele>
        <time>2011-04-09T10:57:23.000Z</time>
      </trkpt>
      <trkpt lat="43.39574" lon="5.46849">
        <ele>413</ele>
        <time>2011-04-09T10:57:28.000Z</time>
      </trkpt>
      <trkpt lat="43.39558" lon="5.46859">
        <ele>414</ele>
        <time>2011-04-09T10:57:33.000Z</time>
      </trkpt>
      <trkpt lat="43.39554" lon="5.46858">
        <ele>414</ele>
        <time>2011-04-09T10:57:38.000Z</time>
      </trkpt>
      <trkpt lat="43.39551" lon="5.46862">
        <ele>414</ele>
        <time>2011-04-09T10:57:43.000Z</time>
      </trkpt>
      <trkpt lat="43.39551" lon="5.46862">
        <ele>414</ele>
        <time>2011-04-09T10:57:48.000Z</time>
      </trkpt>
      <trkpt lat="43.39551" lon="5.46862">
        <ele>414</ele>
        <time>2011-04-09T10:57:53.000Z</time>
      </trkpt>
      <trkpt lat="43.39551" lon="5.46862">
        <ele>414</ele>
        <time>2011-04-09T10:57:58.000Z</time>
      </trkpt>
      <trkpt lat="43.39551" lon="5.46862">
        <ele>414</ele>
        <time>2011-04-09T10:58:03.000Z</time>
      </trkpt>
      <trkpt lat="43.39551" lon="5.46862">
        <ele>414</ele>
        <time>2011-04-09T10:58:08.000Z</time>
      </trkpt>
      <trkpt lat="43.39525" lon="5.46879">
        <ele>414</ele>
        <time>2011-04-09T10:58:13.000Z</time>
      </trkpt>
      <trkpt lat="43.39525" lon="5.46884">
        <ele>414</ele>
        <time>2011-04-09T10:58:18.000Z</time>
      </trkpt>
      <trkpt lat="43.39525" lon="5.46884">
        <ele>414</ele>
        <time>2011-04-09T10:58:23.000Z</time>
      </trkpt>
      <trkpt lat="43.39525" lon="5.46884">
        <ele>414</ele>
        <time>2011-04-09T10:58:27.800Z</time>
      </trkpt>
      <trkpt lat="43.39525" lon="5.46884">
        <ele>414</ele>
        <time>2011-04-09T10:58:33.000Z</time>
      </trkpt>
      <trkpt lat="43.39525" lon="5.46884">
        <ele>414</ele>
        <time>2011-04-09T10:58:38.000Z</time>
      </trkpt>
      <trkpt lat="43.39521" lon="5.46907">
        <ele>412</ele>
        <time>2011-04-09T10:58:43.000Z</time>
      </trkpt>
      <trkpt lat="43.39523" lon="5.46915">
        <ele>412</ele>
        <time>2011-04-09T10:58:48.000Z</time>
      </trkpt>
      <trkpt lat="43.39523" lon="5.46922">
        <ele>407</ele>
        <time>2011-04-09T10:58:53.000Z</time>
      </trkpt>
      <trkpt lat="43.39524" lon="5.46922">
        <ele>407</ele>
        <time>2011-04-09T10:58:58.000Z</time>
      </trkpt>
      <trkpt lat="43.39524" lon="5.46922">
        <ele>407</ele>
        <time>2011-04-09T10:59:03.000Z</time>
      </trkpt>
      <trkpt lat="43.3952" lon="5.4693">
        <ele>407</ele>
        <time>2011-04-09T10:59:08.000Z</time>
      </trkpt>
      <trkpt lat="43.39519" lon="5.46933">
        <ele>407</ele>
        <time>2011-04-09T10:59:13.000Z</time>
      </trkpt>
      <trkpt lat="43.3952" lon="5.4694">
        <ele>407</ele>
        <time>2011-04-09T10:59:18.000Z</time>
      </trkpt>
      <trkpt lat="43.3952" lon="5.46944">
        <ele>406</ele>
        <time>2011-04-09T10:59:23.000Z</time>
      </trkpt>
      <trkpt lat="43.39517" lon="5.46948">
        <ele>406</ele>
        <time>2011-04-09T10:59:28.000Z</time>
      </trkpt>
      <trkpt lat="43.39518" lon="5.46956">
        <ele>406</ele>
        <time>2011-04-09T10:59:33.000Z</time>
      </trkpt>
      <trkpt lat="43.39517" lon="5.46963">
        <ele>405</ele>
        <time>2011-04-09T10:59:38.000Z</time>
      </trkpt>
      <trkpt lat="43.39513" lon="5.46967">
        <ele>405</ele>
        <time>2011-04-09T10:59:43.000Z</time>
      </trkpt>
      <trkpt lat="43.3951" lon="5.46971">
        <ele>404</ele>
        <time>2011-04-09T10:59:48.000Z</time>
      </trkpt>
      <trkpt lat="43.3951" lon="5.46971">
        <ele>404</ele>
        <time>2011-04-09T10:59:53.000Z</time>
      </trkpt>
      <trkpt lat="43.3951" lon="5.46971">
        <ele>404</ele>
        <time>2011-04-09T10:59:58.000Z</time>
      </trkpt>
      <trkpt lat="43.39508" lon="5.46987">
        <ele>402</ele>
        <time>2011-04-09T11:00:03.000Z</time>
      </trkpt>
      <trkpt lat="43.39508" lon="5.46994">
        <ele>401</ele>
        <time>2011-04-09T11:00:08.000Z</time>
      </trkpt>
      <trkpt lat="43.39508" lon="5.46994">
        <ele>401</ele>
        <time>2011-04-09T11:00:13.000Z</time>
      </trkpt>
      <trkpt lat="43.39504" lon="5.47001">
        <ele>399</ele>
        <time>2011-04-09T11:00:18.000Z</time>
      </trkpt>
      <trkpt lat="43.39502" lon="5.47011">
        <ele>400</ele>
        <time>2011-04-09T11:00:23.000Z</time>
      </trkpt>
      <trkpt lat="43.39499" lon="5.47017">
        <ele>400</ele>
        <time>2011-04-09T11:00:28.000Z</time>
      </trkpt>
      <trkpt lat="43.39499" lon="5.47023">
        <ele>400</ele>
        <time>2011-04-09T11:00:33.000Z</time>
      </trkpt>
      <trkpt lat="43.39492" lon="5.47023">
        <ele>400</ele>
        <time>2011-04-09T11:00:38.000Z</time>
      </trkpt>
      <trkpt lat="43.39492" lon="5.47029">
        <ele>401</ele>
        <time>2011-04-09T11:00:42.999Z</time>
      </trkpt>
      <trkpt lat="43.39492" lon="5.47029">
        <ele>401</ele>
        <time>2011-04-09T11:00:48.000Z</time>
      </trkpt>
      <trkpt lat="43.39489" lon="5.47038">
        <ele>401</ele>
        <time>2011-04-09T11:00:53.000Z</time>
      </trkpt>
      <trkpt lat="43.39485" lon="5.47041">
        <ele>401</ele>
        <time>2011-04-09T11:00:58.000Z</time>
      </trkpt>
      <trkpt lat="43.39485" lon="5.47045">
        <ele>401</ele>
        <time>2011-04-09T11:01:03.000Z</time>
      </trkpt>
      <trkpt lat="43.39483" lon="5.47048">
        <ele>401</ele>
        <time>2011-04-09T11:01:08.000Z</time>
      </trkpt>
      <trkpt lat="43.3948" lon="5.47051">
        <ele>401</ele>
        <time>2011-04-09T11:01:13.000Z</time>
      </trkpt>
      <trkpt lat="43.39474" lon="5.47053">
        <ele>401</ele>
        <time>2011-04-09T11:01:18.000Z</time>
      </trkpt>
      <trkpt lat="43.39472" lon="5.47054">
        <ele>401</ele>
        <time>2011-04-09T11:01:23.000Z</time>
      </trkpt>
      <trkpt lat="43.39472" lon="5.47059">
        <ele>401</ele>
        <time>2011-04-09T11:01:28.000Z</time>
      </trkpt>
      <trkpt lat="43.39468" lon="5.47067">
        <ele>401</ele>
        <time>2011-04-09T11:01:33.000Z</time>
      </trkpt>
      <trkpt lat="43.39466" lon="5.47075">
        <ele>400</ele>
        <time>2011-04-09T11:01:37.997Z</time>
      </trkpt>
      <trkpt lat="43.39461" lon="5.47078">
        <ele>400</ele>
        <time>2011-04-09T11:01:43.000Z</time>
      </trkpt>
      <trkpt lat="43.39459" lon="5.4708">
        <ele>400</ele>
        <time>2011-04-09T11:01:48.000Z</time>
      </trkpt>
      <trkpt lat="43.39459" lon="5.4708">
        <ele>400</ele>
        <time>2011-04-09T11:01:53.000Z</time>
      </trkpt>
      <trkpt lat="43.39452" lon="5.47083">
        <ele>400</ele>
        <time>2011-04-09T11:01:58.000Z</time>
      </trkpt>
      <trkpt lat="43.39446" lon="5.47085">
        <ele>400</ele>
        <time>2011-04-09T11:02:03.000Z</time>
      </trkpt>
      <trkpt lat="43.39446" lon="5.4709">
        <ele>400</ele>
        <time>2011-04-09T11:02:08.000Z</time>
      </trkpt>
      <trkpt lat="43.39445" lon="5.47091">
        <ele>400</ele>
        <time>2011-04-09T11:02:13.000Z</time>
      </trkpt>
      <trkpt lat="43.3944" lon="5.47099">
        <ele>400</ele>
        <time>2011-04-09T11:02:18.000Z</time>
      </trkpt>
      <trkpt lat="43.3944" lon="5.471">
        <ele>400</ele>
        <time>2011-04-09T11:02:23.000Z</time>
      </trkpt>
      <trkpt lat="43.3944" lon="5.471">
        <ele>400</ele>
        <time>2011-04-09T11:02:28.000Z</time>
      </trkpt>
      <trkpt lat="43.3944" lon="5.471">
        <ele>400</ele>
        <time>2011-04-09T11:02:33.000Z</time>
      </trkpt>
      <trkpt lat="43.3944" lon="5.471">
        <ele>400</ele>
        <time>2011-04-09T11:02:38.000Z</time>
      </trkpt>
      <trkpt lat="43.39425" lon="5.47114">
        <ele>400</ele>
        <time>2011-04-09T11:02:43.000Z</time>
      </trkpt>
      <trkpt lat="43.39416" lon="5.47118">
        <ele>398</ele>
        <time>2011-04-09T11:02:48.000Z</time>
      </trkpt>
      <trkpt lat="43.39412" lon="5.47123">
        <ele>398</ele>
        <time>2011-04-09T11:02:53.000Z</time>
      </trkpt>
      <trkpt lat="43.39406" lon="5.47124">
        <ele>398</ele>
        <time>2011-04-09T11:02:58.000Z</time>
      </trkpt>
      <trkpt lat="43.39404" lon="5.47122">
        <ele>398</ele>
        <time>2011-04-09T11:03:03.000Z</time>
      </trkpt>
      <trkpt lat="43.39404" lon="5.47122">
        <ele>398</ele>
        <time>2011-04-09T11:03:08.000Z</time>
      </trkpt>
      <trkpt lat="43.39404" lon="5.47122">
        <ele>398</ele>
        <time>2011-04-09T11:03:13.000Z</time>
      </trkpt>
      <trkpt lat="43.39395" lon="5.47126">
        <ele>398</ele>
        <time>2011-04-09T11:03:18.000Z</time>
      </trkpt>
      <trkpt lat="43.3939" lon="5.47126">
        <ele>398</ele>
        <time>2011-04-09T11:03:23.000Z</time>
      </trkpt>
      <trkpt lat="43.39387" lon="5.47128">
        <ele>398</ele>
        <time>2011-04-09T11:03:28.000Z</time>
      </trkpt>
      <trkpt lat="43.39387" lon="5.47128">
        <ele>398</ele>
        <time>2011-04-09T11:03:33.000Z</time>
      </trkpt>
      <trkpt lat="43.39387" lon="5.47128">
        <ele>398</ele>
        <time>2011-04-09T11:03:38.000Z</time>
      </trkpt>
      <trkpt lat="43.39378" lon="5.47138">
        <ele>398</ele>
        <time>2011-04-09T11:03:43.000Z</time>
      </trkpt>
      <trkpt lat="43.39378" lon="5.47138">
        <ele>398</ele>
        <time>2011-04-09T11:03:48.000Z</time>
      </trkpt>
      <trkpt lat="43.3937" lon="5.4714">
        <ele>398</ele>
        <time>2011-04-09T11:03:53.000Z</time>
      </trkpt>
      <trkpt lat="43.39368" lon="5.4714">
        <ele>398</ele>
        <time>2011-04-09T11:03:58.000Z</time>
      </trkpt>
      <trkpt lat="43.39368" lon="5.4714">
        <ele>398</ele>
        <time>2011-04-09T11:04:03.000Z</time>
      </trkpt>
      <trkpt lat="43.39368" lon="5.4714">
        <ele>398</ele>
        <time>2011-04-09T11:04:08.000Z</time>
      </trkpt>
      <trkpt lat="43.39352" lon="5.47144">
        <ele>397</ele>
        <time>2011-04-09T11:04:13.000Z</time>
      </trkpt>
      <trkpt lat="43.39345" lon="5.47144">
        <ele>397</ele>
        <time>2011-04-09T11:04:18.000Z</time>
      </trkpt>
      <trkpt lat="43.39337" lon="5.47143">
        <ele>397</ele>
        <time>2011-04-09T11:04:23.000Z</time>
      </trkpt>
      <trkpt lat="43.39337" lon="5.47147">
        <ele>396</ele>
        <time>2011-04-09T11:04:28.000Z</time>
      </trkpt>
      <trkpt lat="43.39337" lon="5.47147">
        <ele>396</ele>
        <time>2011-04-09T11:04:33.000Z</time>
      </trkpt>
      <trkpt lat="43.39332" lon="5.47147">
        <ele>400</ele>
        <time>2011-04-09T11:04:38.000Z</time>
      </trkpt>
      <trkpt lat="43.39326" lon="5.47147">
        <ele>400</ele>
        <time>2011-04-09T11:04:43.000Z</time>
      </trkpt>
      <trkpt lat="43.39318" lon="5.47149">
        <ele>400</ele>
        <time>2011-04-09T11:04:48.000Z</time>
      </trkpt>
      <trkpt lat="43.39315" lon="5.47156">
        <ele>400</ele>
        <time>2011-04-09T11:04:53.000Z</time>
      </trkpt>
      <trkpt lat="43.39312" lon="5.47158">
        <ele>400</ele>
        <time>2011-04-09T11:04:58.000Z</time>
      </trkpt>
      <trkpt lat="43.39311" lon="5.47157">
        <ele>400</ele>
        <time>2011-04-09T11:05:03.000Z</time>
      </trkpt>
      <trkpt lat="43.39306" lon="5.47158">
        <ele>401</ele>
        <time>2011-04-09T11:05:08.000Z</time>
      </trkpt>
      <trkpt lat="43.39301" lon="5.47163">
        <ele>401</ele>
        <time>2011-04-09T11:05:13.000Z</time>
      </trkpt>
      <trkpt lat="43.39294" lon="5.47165">
        <ele>401</ele>
        <time>2011-04-09T11:05:18.000Z</time>
      </trkpt>
      <trkpt lat="43.3929" lon="5.47165">
        <ele>401</ele>
        <time>2011-04-09T11:05:23.000Z</time>
      </trkpt>
      <trkpt lat="43.3929" lon="5.47165">
        <ele>401</ele>
        <time>2011-04-09T11:05:28.000Z</time>
      </trkpt>
      <trkpt lat="43.3929" lon="5.47165">
        <ele>401</ele>
        <time>2011-04-09T11:05:33.000Z</time>
      </trkpt>
      <trkpt lat="43.39274" lon="5.47175">
        <ele>395</ele>
        <time>2011-04-09T11:05:38.000Z</time>
      </trkpt>
      <trkpt lat="43.39268" lon="5.47174">
        <ele>394</ele>
        <time>2011-04-09T11:05:43.001Z</time>
      </trkpt>
      <trkpt lat="43.39264" lon="5.47175">
        <ele>394</ele>
        <time>2011-04-09T11:05:48.000Z</time>
      </trkpt>
      <trkpt lat="43.39258" lon="5.47176">
        <ele>394</ele>
        <time>2011-04-09T11:05:53.001Z</time>
      </trkpt>
      <trkpt lat="43.39254" lon="5.4718">
        <ele>394</ele>
        <time>2011-04-09T11:05:58.000Z</time>
      </trkpt>
      <trkpt lat="43.3925" lon="5.47181">
        <ele>391</ele>
        <time>2011-04-09T11:06:03.000Z</time>
      </trkpt>
      <trkpt lat="43.39244" lon="5.47185">
        <ele>391</ele>
        <time>2011-04-09T11:06:08.000Z</time>
      </trkpt>
      <trkpt lat="43.39241" lon="5.47186">
        <ele>391</ele>
        <time>2011-04-09T11:06:13.001Z</time>
      </trkpt>
      <trkpt lat="43.3924" lon="5.47191">
        <ele>390</ele>
        <time>2011-04-09T11:06:18.000Z</time>
      </trkpt>
      <trkpt lat="43.39236" lon="5.47196">
        <ele>390</ele>
        <time>2011-04-09T11:06:23.000Z</time>
      </trkpt>
      <trkpt lat="43.39234" lon="5.47198">
        <ele>390</ele>
        <time>2011-04-09T11:06:28.000Z</time>
      </trkpt>
      <trkpt lat="43.39228" lon="5.47203">
        <ele>389</ele>
        <time>2011-04-09T11:06:33.000Z</time>
      </trkpt>
      <trkpt lat="43.39223" lon="5.47208">
        <ele>389</ele>
        <time>2011-04-09T11:06:38.000Z</time>
      </trkpt>
      <trkpt lat="43.39216" lon="5.47211">
        <ele>388</ele>
        <time>2011-04-09T11:06:43.000Z</time>
      </trkpt>
      <trkpt lat="43.39211" lon="5.47211">
        <ele>388</ele>
        <time>2011-04-09T11:06:48.000Z</time>
      </trkpt>
      <trkpt lat="43.39211" lon="5.47211">
        <ele>388</ele>
        <time>2011-04-09T11:06:53.000Z</time>
      </trkpt>
      <trkpt lat="43.39211" lon="5.47211">
        <ele>388</ele>
        <time>2011-04-09T11:06:58.000Z</time>
      </trkpt>
      <trkpt lat="43.39211" lon="5.47211">
        <ele>388</ele>
        <time>2011-04-09T11:07:03.001Z</time>
      </trkpt>
      <trkpt lat="43.39211" lon="5.47211">
        <ele>388</ele>
        <time>2011-04-09T11:07:08.000Z</time>
      </trkpt>
      <trkpt lat="43.39211" lon="5.47211">
        <ele>388</ele>
        <time>2011-04-09T11:07:13.000Z</time>
      </trkpt>
      <trkpt lat="43.392" lon="5.47221">
        <ele>387</ele>
        <time>2011-04-09T11:07:18.001Z</time>
      </trkpt>
      <trkpt lat="43.39198" lon="5.47221">
        <ele>387</ele>
        <time>2011-04-09T11:07:23.000Z</time>
      </trkpt>
      <trkpt lat="43.39198" lon="5.47221">
        <ele>387</ele>
        <time>2011-04-09T11:07:28.000Z</time>
      </trkpt>
      <trkpt lat="43.39198" lon="5.47221">
        <ele>387</ele>
        <time>2011-04-09T11:07:33.000Z</time>
      </trkpt>
      <trkpt lat="43.39198" lon="5.47221">
        <ele>387</ele>
        <time>2011-04-09T11:07:38.000Z</time>
      </trkpt>
      <trkpt lat="43.39198" lon="5.47221">
        <ele>387</ele>
        <time>2011-04-09T11:07:43.001Z</time>
      </trkpt>
      <trkpt lat="43.39198" lon="5.47221">
        <ele>387</ele>
        <time>2011-04-09T11:07:48.000Z</time>
      </trkpt>
      <trkpt lat="43.39198" lon="5.47221">
        <ele>387</ele>
        <time>2011-04-09T11:07:53.000Z</time>
      </trkpt>
      <trkpt lat="43.39198" lon="5.47221">
        <ele>387</ele>
        <time>2011-04-09T11:07:58.001Z</time>
      </trkpt>
      <trkpt lat="43.39198" lon="5.47221">
        <ele>387</ele>
        <time>2011-04-09T11:08:03.001Z</time>
      </trkpt>
      <trkpt lat="43.39198" lon="5.47221">
        <ele>387</ele>
        <time>2011-04-09T11:08:08.000Z</time>
      </trkpt>
      <trkpt lat="43.39198" lon="5.47221">
        <ele>387</ele>
        <time>2011-04-09T11:08:13.000Z</time>
      </trkpt>
      <trkpt lat="43.39198" lon="5.47221">
        <ele>387</ele>
        <time>2011-04-09T11:08:18.000Z</time>
      </trkpt>
      <trkpt lat="43.39198" lon="5.47221">
        <ele>387</ele>
        <time>2011-04-09T11:08:23.000Z</time>
      </trkpt>
      <trkpt lat="43.39198" lon="5.47221">
        <ele>387</ele>
        <time>2011-04-09T11:08:28.000Z</time>
      </trkpt>
      <trkpt lat="43.39198" lon="5.47221">
        <ele>387</ele>
        <time>2011-04-09T11:08:33.000Z</time>
      </trkpt>
      <trkpt lat="43.39198" lon="5.47221">
        <ele>387</ele>
        <time>2011-04-09T11:08:38.000Z</time>
      </trkpt>
      <trkpt lat="43.39198" lon="5.47221">
        <ele>387</ele>
        <time>2011-04-09T11:08:43.001Z</time>
      </trkpt>
      <trkpt lat="43.39198" lon="5.47221">
        <ele>387</ele>
        <time>2011-04-09T11:08:48.001Z</time>
      </trkpt>
      <trkpt lat="43.39198" lon="5.47221">
        <ele>387</ele>
        <time>2011-04-09T11:08:53.000Z</time>
      </trkpt>
      <trkpt lat="43.39198" lon="5.47221">
        <ele>387</ele>
        <time>2011-04-09T11:08:58.000Z</time>
      </trkpt>
      <trkpt lat="43.39198" lon="5.47221">
        <ele>387</ele>
        <time>2011-04-09T11:09:03.000Z</time>
      </trkpt>
      <trkpt lat="43.39198" lon="5.47221">
        <ele>387</ele>
        <time>2011-04-09T11:09:08.000Z</time>
      </trkpt>
      <trkpt lat="43.39198" lon="5.47221">
        <ele>387</ele>
        <time>2011-04-09T11:09:13.000Z</time>
      </trkpt>
      <trkpt lat="43.39198" lon="5.47221">
        <ele>387</ele>
        <time>2011-04-09T11:09:18.000Z</time>
      </trkpt>
      <trkpt lat="43.39184" lon="5.47235">
        <ele>384</ele>
        <time>2011-04-09T11:09:23.000Z</time>
      </trkpt>
      <trkpt lat="43.39182" lon="5.47232">
        <ele>384</ele>
        <time>2011-04-09T11:09:28.000Z</time>
      </trkpt>
      <trkpt lat="43.39182" lon="5.47232">
        <ele>384</ele>
        <time>2011-04-09T11:09:33.000Z</time>
      </trkpt>
      <trkpt lat="43.39174" lon="5.4723">
        <ele>383</ele>
        <time>2011-04-09T11:09:38.000Z</time>
      </trkpt>
      <trkpt lat="43.3917" lon="5.47233">
        <ele>383</ele>
        <time>2011-04-09T11:09:43.000Z</time>
      </trkpt>
      <trkpt lat="43.39168" lon="5.47235">
        <ele>382</ele>
        <time>2011-04-09T11:09:48.000Z</time>
      </trkpt>
      <trkpt lat="43.39168" lon="5.47235">
        <ele>382</ele>
        <time>2011-04-09T11:09:53.000Z</time>
      </trkpt>
      <trkpt lat="43.39161" lon="5.47227">
        <ele>380</ele>
        <time>2011-04-09T11:09:58.000Z</time>
      </trkpt>
      <trkpt lat="43.3916" lon="5.47226">
        <ele>380</ele>
        <time>2011-04-09T11:10:03.001Z</time>
      </trkpt>
      <trkpt lat="43.3916" lon="5.47226">
        <ele>380</ele>
        <time>2011-04-09T11:10:08.000Z</time>
      </trkpt>
      <trkpt lat="43.3916" lon="5.47226">
        <ele>380</ele>
        <time>2011-04-09T11:10:13.000Z</time>
      </trkpt>
      <trkpt lat="43.3916" lon="5.47226">
        <ele>380</ele>
        <time>2011-04-09T11:10:18.000Z</time>
      </trkpt>
      <trkpt lat="43.39144" lon="5.47237">
        <ele>379</ele>
        <time>2011-04-09T11:10:23.001Z</time>
      </trkpt>
      <trkpt lat="43.39142" lon="5.47243">
        <ele>378</ele>
        <time>2011-04-09T11:10:28.000Z</time>
      </trkpt>
      <trkpt lat="43.39143" lon="5.47242">
        <ele>378</ele>
        <time>2011-04-09T11:10:33.001Z</time>
      </trkpt>
      <trkpt lat="43.39143" lon="5.47242">
        <ele>378</ele>
        <time>2011-04-09T11:10:38.000Z</time>
      </trkpt>
      <trkpt lat="43.39143" lon="5.47242">
        <ele>378</ele>
        <time>2011-04-09T11:10:42.800Z</time>
      </trkpt>
      <trkpt lat="43.39143" lon="5.47242">
        <ele>378</ele>
        <time>2011-04-09T11:10:48.000Z</time>
      </trkpt>
      <trkpt lat="43.39143" lon="5.47242">
        <ele>378</ele>
        <time>2011-04-09T11:10:53.000Z</time>
      </trkpt>
      <trkpt lat="43.39143" lon="5.47242">
        <ele>378</ele>
        <time>2011-04-09T11:10:58.001Z</time>
      </trkpt>
      <trkpt lat="43.39143" lon="5.47242">
        <ele>378</ele>
        <time>2011-04-09T11:11:02.801Z</time>
      </trkpt>
      <trkpt lat="43.39143" lon="5.47242">
        <ele>378</ele>
        <time>2011-04-09T11:11:08.000Z</time>
      </trkpt>
      <trkpt lat="43.39143" lon="5.47242">
        <ele>378</ele>
        <time>2011-04-09T11:11:13.000Z</time>
      </trkpt>
      <trkpt lat="43.39143" lon="5.47242">
        <ele>378</ele>
        <time>2011-04-09T11:11:18.001Z</time>
      </trkpt>
      <trkpt lat="43.39123" lon="5.47244">
        <ele>377</ele>
        <time>2011-04-09T11:11:23.000Z</time>
      </trkpt>
      <trkpt lat="43.39116" lon="5.4724">
        <ele>377</ele>
        <time>2011-04-09T11:11:28.000Z</time>
      </trkpt>
      <trkpt lat="43.39113" lon="5.47239">
        <ele>377</ele>
        <time>2011-04-09T11:11:32.997Z</time>
      </trkpt>
      <trkpt lat="43.39113" lon="5.47239">
        <ele>377</ele>
        <time>2011-04-09T11:11:38.000Z</time>
      </trkpt>
      <trkpt lat="43.39113" lon="5.47239">
        <ele>377</ele>
        <time>2011-04-09T11:11:43.000Z</time>
      </trkpt>
      <trkpt lat="43.39113" lon="5.47239">
        <ele>377</ele>
        <time>2011-04-09T11:11:48.000Z</time>
      </trkpt>
      <trkpt lat="43.39113" lon="5.47239">
        <ele>377</ele>
        <time>2011-04-09T11:11:53.000Z</time>
      </trkpt>
      <trkpt lat="43.39113" lon="5.47239">
        <ele>377</ele>
        <time>2011-04-09T11:11:58.000Z</time>
      </trkpt>
      <trkpt lat="43.39113" lon="5.47239">
        <ele>377</ele>
        <time>2011-04-09T11:12:03.000Z</time>
      </trkpt>
      <trkpt lat="43.39113" lon="5.47239">
        <ele>377</ele>
        <time>2011-04-09T11:12:08.000Z</time>
      </trkpt>
      <trkpt lat="43.39113" lon="5.47239">
        <ele>377</ele>
        <time>2011-04-09T11:12:13.001Z</time>
      </trkpt>
      <trkpt lat="43.39113" lon="5.47239">
        <ele>377</ele>
        <time>2011-04-09T11:12:17.800Z</time>
      </trkpt>
      <trkpt lat="43.39112" lon="5.47231">
        <ele>377</ele>
        <time>2011-04-09T11:12:23.000Z</time>
      </trkpt>
      <trkpt lat="43.39105" lon="5.47225">
        <ele>377</ele>
        <time>2011-04-09T11:12:28.000Z</time>
      </trkpt>
      <trkpt lat="43.39102" lon="5.47228">
        <ele>377</ele>
        <time>2011-04-09T11:12:33.000Z</time>
      </trkpt>
      <trkpt lat="43.39101" lon="5.47228">
        <ele>376</ele>
        <time>2011-04-09T11:12:38.000Z</time>
      </trkpt>
      <trkpt lat="43.39095" lon="5.47226">
        <ele>376</ele>
        <time>2011-04-09T11:12:43.000Z</time>
      </trkpt>
      <trkpt lat="43.39091" lon="5.47224">
        <ele>376</ele>
        <time>2011-04-09T11:12:48.000Z</time>
      </trkpt>
      <trkpt lat="43.39091" lon="5.47224">
        <ele>376</ele>
        <time>2011-04-09T11:12:53.001Z</time>
      </trkpt>
      <trkpt lat="43.39091" lon="5.47224">
        <ele>376</ele>
        <time>2011-04-09T11:12:58.000Z</time>
      </trkpt>
      <trkpt lat="43.39091" lon="5.47224">
        <ele>376</ele>
        <time>2011-04-09T11:13:03.001Z</time>
      </trkpt>
      <trkpt lat="43.39076" lon="5.47217">
        <ele>376</ele>
        <time>2011-04-09T11:13:08.000Z</time>
      </trkpt>
      <trkpt lat="43.39076" lon="5.47217">
        <ele>376</ele>
        <time>2011-04-09T11:13:13.001Z</time>
      </trkpt>
      <trkpt lat="43.39069" lon="5.4722">
        <ele>376</ele>
        <time>2011-04-09T11:13:18.001Z</time>
      </trkpt>
      <trkpt lat="43.39066" lon="5.4722">
        <ele>376</ele>
        <time>2011-04-09T11:13:23.001Z</time>
      </trkpt>
      <trkpt lat="43.39066" lon="5.4722">
        <ele>376</ele>
        <time>2011-04-09T11:13:28.000Z</time>
      </trkpt>
      <trkpt lat="43.39066" lon="5.4722">
        <ele>376</ele>
        <time>2011-04-09T11:13:33.000Z</time>
      </trkpt>
      <trkpt lat="43.39054" lon="5.47232">
        <ele>375</ele>
        <time>2011-04-09T11:13:38.001Z</time>
      </trkpt>
      <trkpt lat="43.39051" lon="5.47234">
        <ele>375</ele>
        <time>2011-04-09T11:13:43.000Z</time>
      </trkpt>
      <trkpt lat="43.39046" lon="5.4724">
        <ele>374</ele>
        <time>2011-04-09T11:13:48.001Z</time>
      </trkpt>
      <trkpt lat="43.39042" lon="5.47242">
        <ele>374</ele>
        <time>2011-04-09T11:13:53.001Z</time>
      </trkpt>
      <trkpt lat="43.3904" lon="5.47249">
        <ele>374</ele>
        <time>2011-04-09T11:13:58.000Z</time>
      </trkpt>
      <trkpt lat="43.39037" lon="5.47257">
        <ele>373</ele>
        <time>2011-04-09T11:14:03.001Z</time>
      </trkpt>
      <trkpt lat="43.39035" lon="5.47262">
        <ele>373</ele>
        <time>2011-04-09T11:14:08.000Z</time>
      </trkpt>
      <trkpt lat="43.39032" lon="5.47267">
        <ele>373</ele>
        <time>2011-04-09T11:14:13.000Z</time>
      </trkpt>
      <trkpt lat="43.39026" lon="5.47271">
        <ele>373</ele>
        <time>2011-04-09T11:14:18.001Z</time>
      </trkpt>
      <trkpt lat="43.39024" lon="5.47276">
        <ele>373</ele>
        <time>2011-04-09T11:14:23.001Z</time>
      </trkpt>
      <trkpt lat="43.39018" lon="5.47278">
        <ele>373</ele>
        <time>2011-04-09T11:14:28.001Z</time>
      </trkpt>
      <trkpt lat="43.39014" lon="5.47283">
        <ele>373</ele>
        <time>2011-04-09T11:14:33.000Z</time>
      </trkpt>
      <trkpt lat="43.39011" lon="5.47283">
        <ele>373</ele>
        <time>2011-04-09T11:14:38.000Z</time>
      </trkpt>
      <trkpt lat="43.39006" lon="5.4729">
        <ele>373</ele>
        <time>2011-04-09T11:14:42.999Z</time>
      </trkpt>
      <trkpt lat="43.39005" lon="5.4729">
        <ele>373</ele>
        <time>2011-04-09T11:14:48.000Z</time>
      </trkpt>
      <trkpt lat="43.38997" lon="5.47292">
        <ele>370</ele>
        <time>2011-04-09T11:14:53.000Z</time>
      </trkpt>
      <trkpt lat="43.38995" lon="5.47297">
        <ele>370</ele>
        <time>2011-04-09T11:14:58.000Z</time>
      </trkpt>
      <trkpt lat="43.38988" lon="5.47302">
        <ele>370</ele>
        <time>2011-04-09T11:15:03.000Z</time>
      </trkpt>
      <trkpt lat="43.38985" lon="5.47306">
        <ele>370</ele>
        <time>2011-04-09T11:15:07.999Z</time>
      </trkpt>
      <trkpt lat="43.38981" lon="5.4731">
        <ele>370</ele>
        <time>2011-04-09T11:15:13.000Z</time>
      </trkpt>
      <trkpt lat="43.38981" lon="5.4731">
        <ele>370</ele>
        <time>2011-04-09T11:15:18.000Z</time>
      </trkpt>
      <trkpt lat="43.38974" lon="5.47315">
        <ele>370</ele>
        <time>2011-04-09T11:15:22.999Z</time>
      </trkpt>
      <trkpt lat="43.38968" lon="5.47316">
        <ele>370</ele>
        <time>2011-04-09T11:15:27.999Z</time>
      </trkpt>
      <trkpt lat="43.38963" lon="5.47318">
        <ele>370</ele>
        <time>2011-04-09T11:15:33.000Z</time>
      </trkpt>
      <trkpt lat="43.38963" lon="5.47319">
        <ele>369</ele>
        <time>2011-04-09T11:15:38.000Z</time>
      </trkpt>
      <trkpt lat="43.38963" lon="5.47319">
        <ele>369</ele>
        <time>2011-04-09T11:15:43.000Z</time>
      </trkpt>
      <trkpt lat="43.38948" lon="5.47326">
        <ele>368</ele>
        <time>2011-04-09T11:15:48.000Z</time>
      </trkpt>
      <trkpt lat="43.38944" lon="5.47332">
        <ele>367</ele>
        <time>2011-04-09T11:15:53.000Z</time>
      </trkpt>
      <trkpt lat="43.38942" lon="5.47334">
        <ele>367</ele>
        <time>2011-04-09T11:15:58.000Z</time>
      </trkpt>
      <trkpt lat="43.38942" lon="5.47334">
        <ele>367</ele>
        <time>2011-04-09T11:16:03.000Z</time>
      </trkpt>
      <trkpt lat="43.38942" lon="5.47334">
        <ele>367</ele>
        <time>2011-04-09T11:16:08.000Z</time>
      </trkpt>
      <trkpt lat="43.38928" lon="5.47347">
        <ele>366</ele>
        <time>2011-04-09T11:16:13.000Z</time>
      </trkpt>
      <trkpt lat="43.38923" lon="5.47351">
        <ele>366</ele>
        <time>2011-04-09T11:16:18.000Z</time>
      </trkpt>
      <trkpt lat="43.38919" lon="5.47355">
        <ele>366</ele>
        <time>2011-04-09T11:16:23.000Z</time>
      </trkpt>
      <trkpt lat="43.38917" lon="5.47361">
        <ele>367</ele>
        <time>2011-04-09T11:16:28.000Z</time>
      </trkpt>
      <trkpt lat="43.38914" lon="5.47368">
        <ele>362</ele>
        <time>2011-04-09T11:16:33.000Z</time>
      </trkpt>
      <trkpt lat="43.38907" lon="5.47377">
        <ele>362</ele>
        <time>2011-04-09T11:16:38.000Z</time>
      </trkpt>
      <trkpt lat="43.38904" lon="5.47381">
        <ele>362</ele>
        <time>2011-04-09T11:16:43.000Z</time>
      </trkpt>
      <trkpt lat="43.38901" lon="5.47384">
        <ele>362</ele>
        <time>2011-04-09T11:16:48.000Z</time>
      </trkpt>
      <trkpt lat="43.38899" lon="5.47391">
        <ele>362</ele>
        <time>2011-04-09T11:16:53.000Z</time>
      </trkpt>
      <trkpt lat="43.38895" lon="5.47398">
        <ele>362</ele>
        <time>2011-04-09T11:16:58.000Z</time>
      </trkpt>
      <trkpt lat="43.3889" lon="5.47403">
        <ele>362</ele>
        <time>2011-04-09T11:17:03.000Z</time>
      </trkpt>
      <trkpt lat="43.38884" lon="5.47407">
        <ele>361</ele>
        <time>2011-04-09T11:17:08.000Z</time>
      </trkpt>
      <trkpt lat="43.3888" lon="5.47414">
        <ele>361</ele>
        <time>2011-04-09T11:17:13.000Z</time>
      </trkpt>
      <trkpt lat="43.3888" lon="5.47415">
        <ele>361</ele>
        <time>2011-04-09T11:17:18.000Z</time>
      </trkpt>
      <trkpt lat="43.3888" lon="5.47415">
        <ele>361</ele>
        <time>2011-04-09T11:17:23.000Z</time>
      </trkpt>
      <trkpt lat="43.38869" lon="5.47425">
        <ele>362</ele>
        <time>2011-04-09T11:17:28.000Z</time>
      </trkpt>
      <trkpt lat="43.38867" lon="5.47426">
        <ele>362</ele>
        <time>2011-04-09T11:17:33.000Z</time>
      </trkpt>
      <trkpt lat="43.38864" lon="5.47429">
        <ele>362</ele>
        <time>2011-04-09T11:17:38.000Z</time>
      </trkpt>
      <trkpt lat="43.38856" lon="5.47434">
        <ele>362</ele>
        <time>2011-04-09T11:17:43.000Z</time>
      </trkpt>
      <trkpt lat="43.38854" lon="5.47437">
        <ele>362</ele>
        <time>2011-04-09T11:17:48.000Z</time>
      </trkpt>
      <trkpt lat="43.38852" lon="5.47446">
        <ele>362</ele>
        <time>2011-04-09T11:17:53.000Z</time>
      </trkpt>
      <trkpt lat="43.38849" lon="5.47448">
        <ele>362</ele>
        <time>2011-04-09T11:17:57.800Z</time>
      </trkpt>
      <trkpt lat="43.38849" lon="5.47448">
        <ele>362</ele>
        <time>2011-04-09T11:18:03.000Z</time>
      </trkpt>
      <trkpt lat="43.38849" lon="5.47448">
        <ele>362</ele>
        <time>2011-04-09T11:18:08.000Z</time>
      </trkpt>
      <trkpt lat="43.38822" lon="5.47458">
        <ele>358</ele>
        <time>2011-04-09T11:18:13.000Z</time>
      </trkpt>
      <trkpt lat="43.38822" lon="5.47458">
        <ele>358</ele>
        <time>2011-04-09T11:18:18.000Z</time>
      </trkpt>
      <trkpt lat="43.38812" lon="5.47456">
        <ele>358</ele>
        <time>2011-04-09T11:18:23.000Z</time>
      </trkpt>
      <trkpt lat="43.38807" lon="5.47455">
        <ele>358</ele>
        <time>2011-04-09T11:18:28.000Z</time>
      </trkpt>
      <trkpt lat="43.38801" lon="5.47458">
        <ele>358</ele>
        <time>2011-04-09T11:18:33.000Z</time>
      </trkpt>
      <trkpt lat="43.38796" lon="5.4746">
        <ele>358</ele>
        <time>2011-04-09T11:18:38.000Z</time>
      </trkpt>
      <trkpt lat="43.38796" lon="5.47464">
        <ele>358</ele>
        <time>2011-04-09T11:18:43.000Z</time>
      </trkpt>
      <trkpt lat="43.38796" lon="5.47464">
        <ele>358</ele>
        <time>2011-04-09T11:18:48.000Z</time>
      </trkpt>
      <trkpt lat="43.38789" lon="5.4747">
        <ele>358</ele>
        <time>2011-04-09T11:18:53.000Z</time>
      </trkpt>
      <trkpt lat="43.38788" lon="5.4747">
        <ele>358</ele>
        <time>2011-04-09T11:18:58.000Z</time>
      </trkpt>
      <trkpt lat="43.38788" lon="5.4747">
        <ele>358</ele>
        <time>2011-04-09T11:19:03.000Z</time>
      </trkpt>
      <trkpt lat="43.38777" lon="5.47475">
        <ele>357</ele>
        <time>2011-04-09T11:19:08.000Z</time>
      </trkpt>
      <trkpt lat="43.38773" lon="5.47474">
        <ele>356</ele>
        <time>2011-04-09T11:19:13.000Z</time>
      </trkpt>
      <trkpt lat="43.38767" lon="5.47478">
        <ele>355</ele>
        <time>2011-04-09T11:19:17.999Z</time>
      </trkpt>
      <trkpt lat="43.38759" lon="5.4748">
        <ele>355</ele>
        <time>2011-04-09T11:19:23.000Z</time>
      </trkpt>
      <trkpt lat="43.38752" lon="5.47482">
        <ele>354</ele>
        <time>2011-04-09T11:19:28.000Z</time>
      </trkpt>
      <trkpt lat="43.38748" lon="5.47487">
        <ele>354</ele>
        <time>2011-04-09T11:19:33.000Z</time>
      </trkpt>
      <trkpt lat="43.38746" lon="5.4749">
        <ele>353</ele>
        <time>2011-04-09T11:19:38.000Z</time>
      </trkpt>
      <trkpt lat="43.38745" lon="5.47492">
        <ele>353</ele>
        <time>2011-04-09T11:19:43.000Z</time>
      </trkpt>
      <trkpt lat="43.38741" lon="5.47494">
        <ele>353</ele>
        <time>2011-04-09T11:19:48.000Z</time>
      </trkpt>
      <trkpt lat="43.38737" lon="5.47494">
        <ele>354</ele>
        <time>2011-04-09T11:19:53.000Z</time>
      </trkpt>
      <trkpt lat="43.38734" lon="5.47498">
        <ele>354</ele>
        <time>2011-04-09T11:19:58.000Z</time>
      </trkpt>
      <trkpt lat="43.38733" lon="5.47499">
        <ele>355</ele>
        <time>2011-04-09T11:20:03.000Z</time>
      </trkpt>
      <trkpt lat="43.38733" lon="5.47499">
        <ele>355</ele>
        <time>2011-04-09T11:20:08.000Z</time>
      </trkpt>
      <trkpt lat="43.38726" lon="5.47507">
        <ele>350</ele>
        <time>2011-04-09T11:20:13.000Z</time>
      </trkpt>
      <trkpt lat="43.38723" lon="5.47512">
        <ele>350</ele>
        <time>2011-04-09T11:20:17.999Z</time>
      </trkpt>
      <trkpt lat="43.38721" lon="5.47516">
        <ele>350</ele>
        <time>2011-04-09T11:20:23.000Z</time>
      </trkpt>
      <trkpt lat="43.38721" lon="5.47517">
        <ele>350</ele>
        <time>2011-04-09T11:20:28.000Z</time>
      </trkpt>
      <trkpt lat="43.3872" lon="5.47523">
        <ele>350</ele>
        <time>2011-04-09T11:20:33.000Z</time>
      </trkpt>
      <trkpt lat="43.38717" lon="5.47526">
        <ele>350</ele>
        <time>2011-04-09T11:20:38.001Z</time>
      </trkpt>
      <trkpt lat="43.38717" lon="5.47526">
        <ele>350</ele>
        <time>2011-04-09T11:20:43.001Z</time>
      </trkpt>
      <trkpt lat="43.38713" lon="5.47535">
        <ele>350</ele>
        <time>2011-04-09T11:20:47.999Z</time>
      </trkpt>
      <trkpt lat="43.38711" lon="5.47539">
        <ele>350</ele>
        <time>2011-04-09T11:20:53.000Z</time>
      </trkpt>
      <trkpt lat="43.3871" lon="5.47541">
        <ele>350</ele>
        <time>2011-04-09T11:20:58.000Z</time>
      </trkpt>
      <trkpt lat="43.38707" lon="5.47547">
        <ele>350</ele>
        <time>2011-04-09T11:21:03.000Z</time>
      </trkpt>
      <trkpt lat="43.38705" lon="5.47552">
        <ele>349</ele>
        <time>2011-04-09T11:21:08.000Z</time>
      </trkpt>
      <trkpt lat="43.38702" lon="5.47554">
        <ele>349</ele>
        <time>2011-04-09T11:21:13.000Z</time>
      </trkpt>
      <trkpt lat="43.38697" lon="5.47559">
        <ele>348</ele>
        <time>2011-04-09T11:21:18.000Z</time>
      </trkpt>
      <trkpt lat="43.38697" lon="5.47559">
        <ele>348</ele>
        <time>2011-04-09T11:21:22.999Z</time>
      </trkpt>
      <trkpt lat="43.38689" lon="5.47565">
        <ele>347</ele>
        <time>2011-04-09T11:21:28.000Z</time>
      </trkpt>
      <trkpt lat="43.38688" lon="5.47569">
        <ele>346</ele>
        <time>2011-04-09T11:21:33.000Z</time>
      </trkpt>
      <trkpt lat="43.38685" lon="5.47576">
        <ele>345</ele>
        <time>2011-04-09T11:21:38.000Z</time>
      </trkpt>
      <trkpt lat="43.38681" lon="5.47579">
        <ele>344</ele>
        <time>2011-04-09T11:21:43.000Z</time>
      </trkpt>
      <trkpt lat="43.3868" lon="5.4758">
        <ele>343</ele>
        <time>2011-04-09T11:21:48.000Z</time>
      </trkpt>
      <trkpt lat="43.38674" lon="5.47585">
        <ele>341</ele>
        <time>2011-04-09T11:21:53.000Z</time>
      </trkpt>
      <trkpt lat="43.38674" lon="5.47586">
        <ele>342</ele>
        <time>2011-04-09T11:21:58.000Z</time>
      </trkpt>
      <trkpt lat="43.38668" lon="5.47591">
        <ele>341</ele>
        <time>2011-04-09T11:22:03.000Z</time>
      </trkpt>
      <trkpt lat="43.38661" lon="5.47597">
        <ele>342</ele>
        <time>2011-04-09T11:22:08.000Z</time>
      </trkpt>
      <trkpt lat="43.38657" lon="5.47603">
        <ele>343</ele>
        <time>2011-04-09T11:22:12.999Z</time>
      </trkpt>
      <trkpt lat="43.38652" lon="5.47609">
        <ele>344</ele>
        <time>2011-04-09T11:22:18.000Z</time>
      </trkpt>
      <trkpt lat="43.38652" lon="5.4761">
        <ele>344</ele>
        <time>2011-04-09T11:22:23.000Z</time>
      </trkpt>
      <trkpt lat="43.38651" lon="5.47621">
        <ele>344</ele>
        <time>2011-04-09T11:22:28.000Z</time>
      </trkpt>
      <trkpt lat="43.38652" lon="5.47628">
        <ele>344</ele>
        <time>2011-04-09T11:22:33.000Z</time>
      </trkpt>
      <trkpt lat="43.38652" lon="5.47638">
        <ele>344</ele>
        <time>2011-04-09T11:22:38.000Z</time>
      </trkpt>
      <trkpt lat="43.38653" lon="5.47643">
        <ele>343</ele>
        <time>2011-04-09T11:22:43.000Z</time>
      </trkpt>
      <trkpt lat="43.38652" lon="5.47651">
        <ele>343</ele>
        <time>2011-04-09T11:22:48.000Z</time>
      </trkpt>
      <trkpt lat="43.38654" lon="5.47661">
        <ele>343</ele>
        <time>2011-04-09T11:22:53.000Z</time>
      </trkpt>
      <trkpt lat="43.38653" lon="5.47668">
        <ele>340</ele>
        <time>2011-04-09T11:22:58.000Z</time>
      </trkpt>
      <trkpt lat="43.38655" lon="5.47676">
        <ele>341</ele>
        <time>2011-04-09T11:23:03.000Z</time>
      </trkpt>
      <trkpt lat="43.38656" lon="5.47684">
        <ele>340</ele>
        <time>2011-04-09T11:23:08.000Z</time>
      </trkpt>
      <trkpt lat="43.38658" lon="5.47689">
        <ele>340</ele>
        <time>2011-04-09T11:23:13.000Z</time>
      </trkpt>
      <trkpt lat="43.38658" lon="5.47689">
        <ele>340</ele>
        <time>2011-04-09T11:23:18.000Z</time>
      </trkpt>
      <trkpt lat="43.38661" lon="5.47702">
        <ele>341</ele>
        <time>2011-04-09T11:23:23.000Z</time>
      </trkpt>
      <trkpt lat="43.38662" lon="5.4771">
        <ele>341</ele>
        <time>2011-04-09T11:23:28.000Z</time>
      </trkpt>
      <trkpt lat="43.38662" lon="5.47717">
        <ele>341</ele>
        <time>2011-04-09T11:23:33.000Z</time>
      </trkpt>
      <trkpt lat="43.38664" lon="5.47726">
        <ele>342</ele>
        <time>2011-04-09T11:23:38.000Z</time>
      </trkpt>
      <trkpt lat="43.3866" lon="5.47732">
        <ele>342</ele>
        <time>2011-04-09T11:23:43.000Z</time>
      </trkpt>
      <trkpt lat="43.38658" lon="5.47738">
        <ele>342</ele>
        <time>2011-04-09T11:23:48.000Z</time>
      </trkpt>
      <trkpt lat="43.38655" lon="5.47745">
        <ele>343</ele>
        <time>2011-04-09T11:23:53.000Z</time>
      </trkpt>
      <trkpt lat="43.38649" lon="5.4775">
        <ele>346</ele>
        <time>2011-04-09T11:23:58.000Z</time>
      </trkpt>
      <trkpt lat="43.38641" lon="5.47753">
        <ele>346</ele>
        <time>2011-04-09T11:24:03.000Z</time>
      </trkpt>
      <trkpt lat="43.38635" lon="5.47755">
        <ele>346</ele>
        <time>2011-04-09T11:24:08.000Z</time>
      </trkpt>
      <trkpt lat="43.3863" lon="5.47761">
        <ele>346</ele>
        <time>2011-04-09T11:24:13.000Z</time>
      </trkpt>
      <trkpt lat="43.38625" lon="5.47762">
        <ele>346</ele>
        <time>2011-04-09T11:24:18.000Z</time>
      </trkpt>
      <trkpt lat="43.38618" lon="5.47766">
        <ele>345</ele>
        <time>2011-04-09T11:24:23.000Z</time>
      </trkpt>
      <trkpt lat="43.38611" lon="5.47768">
        <ele>345</ele>
        <time>2011-04-09T11:24:28.000Z</time>
      </trkpt>
      <trkpt lat="43.38605" lon="5.47772">
        <ele>344</ele>
        <time>2011-04-09T11:24:33.000Z</time>
      </trkpt>
      <trkpt lat="43.38597" lon="5.47777">
        <ele>345</ele>
        <time>2011-04-09T11:24:38.000Z</time>
      </trkpt>
      <trkpt lat="43.3859" lon="5.47781">
        <ele>345</ele>
        <time>2011-04-09T11:24:43.000Z</time>
      </trkpt>
      <trkpt lat="43.38586" lon="5.47787">
        <ele>346</ele>
        <time>2011-04-09T11:24:48.000Z</time>
      </trkpt>
      <trkpt lat="43.38579" lon="5.47791">
        <ele>340</ele>
        <time>2011-04-09T11:24:53.000Z</time>
      </trkpt>
      <trkpt lat="43.38574" lon="5.47794">
        <ele>340</ele>
        <time>2011-04-09T11:24:58.000Z</time>
      </trkpt>
      <trkpt lat="43.38566" lon="5.47794">
        <ele>339</ele>
        <time>2011-04-09T11:25:03.000Z</time>
      </trkpt>
      <trkpt lat="43.38558" lon="5.47798">
        <ele>339</ele>
        <time>2011-04-09T11:25:08.000Z</time>
      </trkpt>
      <trkpt lat="43.38552" lon="5.478">
        <ele>339</ele>
        <time>2011-04-09T11:25:13.000Z</time>
      </trkpt>
      <trkpt lat="43.38545" lon="5.47804">
        <ele>338</ele>
        <time>2011-04-09T11:25:18.000Z</time>
      </trkpt>
      <trkpt lat="43.38539" lon="5.47808">
        <ele>338</ele>
        <time>2011-04-09T11:25:23.000Z</time>
      </trkpt>
      <trkpt lat="43.38537" lon="5.47817">
        <ele>338</ele>
        <time>2011-04-09T11:25:28.000Z</time>
      </trkpt>
      <trkpt lat="43.38536" lon="5.47823">
        <ele>338</ele>
        <time>2011-04-09T11:25:33.000Z</time>
      </trkpt>
      <trkpt lat="43.38533" lon="5.4783">
        <ele>338</ele>
        <time>2011-04-09T11:25:38.000Z</time>
      </trkpt>
      <trkpt lat="43.38532" lon="5.47839">
        <ele>346</ele>
        <time>2011-04-09T11:25:42.999Z</time>
      </trkpt>
      <trkpt lat="43.3853" lon="5.47847">
        <ele>346</ele>
        <time>2011-04-09T11:25:48.000Z</time>
      </trkpt>
      <trkpt lat="43.38529" lon="5.47854">
        <ele>347</ele>
        <time>2011-04-09T11:25:53.000Z</time>
      </trkpt>
      <trkpt lat="43.38528" lon="5.47861">
        <ele>348</ele>
        <time>2011-04-09T11:25:58.000Z</time>
      </trkpt>
      <trkpt lat="43.38524" lon="5.47869">
        <ele>348</ele>
        <time>2011-04-09T11:26:03.000Z</time>
      </trkpt>
      <trkpt lat="43.38521" lon="5.47877">
        <ele>349</ele>
        <time>2011-04-09T11:26:08.000Z</time>
      </trkpt>
      <trkpt lat="43.38518" lon="5.47882">
        <ele>349</ele>
        <time>2011-04-09T11:26:13.000Z</time>
      </trkpt>
      <trkpt lat="43.38515" lon="5.47887">
        <ele>349</ele>
        <time>2011-04-09T11:26:18.000Z</time>
      </trkpt>
      <trkpt lat="43.38515" lon="5.47896">
        <ele>349</ele>
        <time>2011-04-09T11:26:23.000Z</time>
      </trkpt>
      <trkpt lat="43.38512" lon="5.47906">
        <ele>348</ele>
        <time>2011-04-09T11:26:28.000Z</time>
      </trkpt>
      <trkpt lat="43.3851" lon="5.47914">
        <ele>347</ele>
        <time>2011-04-09T11:26:33.000Z</time>
      </trkpt>
      <trkpt lat="43.38508" lon="5.4792">
        <ele>350</ele>
        <time>2011-04-09T11:26:38.000Z</time>
      </trkpt>
      <trkpt lat="43.38505" lon="5.47928">
        <ele>352</ele>
        <time>2011-04-09T11:26:43.000Z</time>
      </trkpt>
      <trkpt lat="43.385" lon="5.47935">
        <ele>344</ele>
        <time>2011-04-09T11:26:48.000Z</time>
      </trkpt>
      <trkpt lat="43.38493" lon="5.47944">
        <ele>344</ele>
        <time>2011-04-09T11:26:53.000Z</time>
      </trkpt>
      <trkpt lat="43.38488" lon="5.47953">
        <ele>344</ele>
        <time>2011-04-09T11:26:58.000Z</time>
      </trkpt>
      <trkpt lat="43.38484" lon="5.47957">
        <ele>344</ele>
        <time>2011-04-09T11:27:03.000Z</time>
      </trkpt>
      <trkpt lat="43.38479" lon="5.4796">
        <ele>344</ele>
        <time>2011-04-09T11:27:08.000Z</time>
      </trkpt>
      <trkpt lat="43.38473" lon="5.47967">
        <ele>344</ele>
        <time>2011-04-09T11:27:13.000Z</time>
      </trkpt>
      <trkpt lat="43.38466" lon="5.4797">
        <ele>344</ele>
        <time>2011-04-09T11:27:18.000Z</time>
      </trkpt>
      <trkpt lat="43.38461" lon="5.47972">
        <ele>343</ele>
        <time>2011-04-09T11:27:23.000Z</time>
      </trkpt>
      <trkpt lat="43.38453" lon="5.47972">
        <ele>343</ele>
        <time>2011-04-09T11:27:28.000Z</time>
      </trkpt>
      <trkpt lat="43.38446" lon="5.47973">
        <ele>342</ele>
        <time>2011-04-09T11:27:33.000Z</time>
      </trkpt>
      <trkpt lat="43.38441" lon="5.47977">
        <ele>342</ele>
        <time>2011-04-09T11:27:38.000Z</time>
      </trkpt>
      <trkpt lat="43.38438" lon="5.47982">
        <ele>342</ele>
        <time>2011-04-09T11:27:43.000Z</time>
      </trkpt>
      <trkpt lat="43.38434" lon="5.47983">
        <ele>342</ele>
        <time>2011-04-09T11:27:48.000Z</time>
      </trkpt>
      <trkpt lat="43.38428" lon="5.47987">
        <ele>342</ele>
        <time>2011-04-09T11:27:53.000Z</time>
      </trkpt>
      <trkpt lat="43.38423" lon="5.4799">
        <ele>342</ele>
        <time>2011-04-09T11:27:58.000Z</time>
      </trkpt>
      <trkpt lat="43.38419" lon="5.47997">
        <ele>343</ele>
        <time>2011-04-09T11:28:03.000Z</time>
      </trkpt>
      <trkpt lat="43.38415" lon="5.48002">
        <ele>343</ele>
        <time>2011-04-09T11:28:08.000Z</time>
      </trkpt>
      <trkpt lat="43.38407" lon="5.48017">
        <ele>343</ele>
        <time>2011-04-09T11:28:13.000Z</time>
      </trkpt>
      <trkpt lat="43.38403" lon="5.48022">
        <ele>343</ele>
        <time>2011-04-09T11:28:18.000Z</time>
      </trkpt>
      <trkpt lat="43.38406" lon="5.48033">
        <ele>344</ele>
        <time>2011-04-09T11:28:23.000Z</time>
      </trkpt>
      <trkpt lat="43.38408" lon="5.48041">
        <ele>344</ele>
        <time>2011-04-09T11:28:28.000Z</time>
      </trkpt>
      <trkpt lat="43.38411" lon="5.48047">
        <ele>345</ele>
        <time>2011-04-09T11:28:33.000Z</time>
      </trkpt>
      <trkpt lat="43.38416" lon="5.48051">
        <ele>345</ele>
        <time>2011-04-09T11:28:38.000Z</time>
      </trkpt>
      <trkpt lat="43.3842" lon="5.48054">
        <ele>350</ele>
        <time>2011-04-09T11:28:43.000Z</time>
      </trkpt>
      <trkpt lat="43.38422" lon="5.48055">
        <ele>350</ele>
        <time>2011-04-09T11:28:48.000Z</time>
      </trkpt>
      <trkpt lat="43.38431" lon="5.48065">
        <ele>350</ele>
        <time>2011-04-09T11:28:53.000Z</time>
      </trkpt>
      <trkpt lat="43.38432" lon="5.48067">
        <ele>350</ele>
        <time>2011-04-09T11:28:58.000Z</time>
      </trkpt>
      <trkpt lat="43.38439" lon="5.48075">
        <ele>351</ele>
        <time>2011-04-09T11:29:03.000Z</time>
      </trkpt>
      <trkpt lat="43.38443" lon="5.48085">
        <ele>355</ele>
        <time>2011-04-09T11:29:08.000Z</time>
      </trkpt>
      <trkpt lat="43.38445" lon="5.48094">
        <ele>356</ele>
        <time>2011-04-09T11:29:12.999Z</time>
      </trkpt>
      <trkpt lat="43.38444" lon="5.48101">
        <ele>356</ele>
        <time>2011-04-09T11:29:18.000Z</time>
      </trkpt>
      <trkpt lat="43.38443" lon="5.48104">
        <ele>357</ele>
        <time>2011-04-09T11:29:23.000Z</time>
      </trkpt>
      <trkpt lat="43.38443" lon="5.48104">
        <ele>357</ele>
        <time>2011-04-09T11:29:28.000Z</time>
      </trkpt>
      <trkpt lat="43.38443" lon="5.48104">
        <ele>357</ele>
        <time>2011-04-09T11:29:33.000Z</time>
      </trkpt>
      <trkpt lat="43.38443" lon="5.48104">
        <ele>357</ele>
        <time>2011-04-09T11:29:38.000Z</time>
      </trkpt>
      <trkpt lat="43.38443" lon="5.48104">
        <ele>357</ele>
        <time>2011-04-09T11:29:43.000Z</time>
      </trkpt>
      <trkpt lat="43.38443" lon="5.48104">
        <ele>357</ele>
        <time>2011-04-09T11:29:48.001Z</time>
      </trkpt>
      <trkpt lat="43.38443" lon="5.48104">
        <ele>357</ele>
        <time>2011-04-09T11:29:53.000Z</time>
      </trkpt>
      <trkpt lat="43.38443" lon="5.48104">
        <ele>357</ele>
        <time>2011-04-09T11:29:58.000Z</time>
      </trkpt>
      <trkpt lat="43.38443" lon="5.48104">
        <ele>357</ele>
        <time>2011-04-09T11:30:03.000Z</time>
      </trkpt>
      <trkpt lat="43.38442" lon="5.48109">
        <ele>357</ele>
        <time>2011-04-09T11:30:08.000Z</time>
      </trkpt>
      <trkpt lat="43.38441" lon="5.48108">
        <ele>357</ele>
        <time>2011-04-09T11:30:13.000Z</time>
      </trkpt>
      <trkpt lat="43.38434" lon="5.48111">
        <ele>357</ele>
        <time>2011-04-09T11:30:18.000Z</time>
      </trkpt>
      <trkpt lat="43.38433" lon="5.4811">
        <ele>357</ele>
        <time>2011-04-09T11:30:23.000Z</time>
      </trkpt>
      <trkpt lat="43.38423" lon="5.48113">
        <ele>357</ele>
        <time>2011-04-09T11:30:28.000Z</time>
      </trkpt>
      <trkpt lat="43.38417" lon="5.48115">
        <ele>357</ele>
        <time>2011-04-09T11:30:33.000Z</time>
      </trkpt>
      <trkpt lat="43.38416" lon="5.48115">
        <ele>355</ele>
        <time>2011-04-09T11:30:38.000Z</time>
      </trkpt>
      <trkpt lat="43.38413" lon="5.48115">
        <ele>355</ele>
        <time>2011-04-09T11:30:43.000Z</time>
      </trkpt>
      <trkpt lat="43.38403" lon="5.4812">
        <ele>355</ele>
        <time>2011-04-09T11:30:48.000Z</time>
      </trkpt>
      <trkpt lat="43.38393" lon="5.48127">
        <ele>355</ele>
        <time>2011-04-09T11:30:53.000Z</time>
      </trkpt>
      <trkpt lat="43.38392" lon="5.48129">
        <ele>356</ele>
        <time>2011-04-09T11:30:58.001Z</time>
      </trkpt>
      <trkpt lat="43.38388" lon="5.48129">
        <ele>356</ele>
        <time>2011-04-09T11:31:03.001Z</time>
      </trkpt>
      <trkpt lat="43.38384" lon="5.48131">
        <ele>356</ele>
        <time>2011-04-09T11:31:08.000Z</time>
      </trkpt>
      <trkpt lat="43.38383" lon="5.48135">
        <ele>356</ele>
        <time>2011-04-09T11:31:13.000Z</time>
      </trkpt>
      <trkpt lat="43.38369" lon="5.4813">
        <ele>355</ele>
        <time>2011-04-09T11:31:18.000Z</time>
      </trkpt>
      <trkpt lat="43.38369" lon="5.4813">
        <ele>355</ele>
        <time>2011-04-09T11:31:23.000Z</time>
      </trkpt>
      <trkpt lat="43.3836" lon="5.4813">
        <ele>355</ele>
        <time>2011-04-09T11:31:28.000Z</time>
      </trkpt>
      <trkpt lat="43.38357" lon="5.48128">
        <ele>355</ele>
        <time>2011-04-09T11:31:33.000Z</time>
      </trkpt>
      <trkpt lat="43.38357" lon="5.48128">
        <ele>355</ele>
        <time>2011-04-09T11:31:38.001Z</time>
      </trkpt>
      <trkpt lat="43.38347" lon="5.48132">
        <ele>355</ele>
        <time>2011-04-09T11:31:43.001Z</time>
      </trkpt>
      <trkpt lat="43.38342" lon="5.48131">
        <ele>355</ele>
        <time>2011-04-09T11:31:48.000Z</time>
      </trkpt>
      <trkpt lat="43.38336" lon="5.48133">
        <ele>355</ele>
        <time>2011-04-09T11:31:53.000Z</time>
      </trkpt>
      <trkpt lat="43.38331" lon="5.48138">
        <ele>355</ele>
        <time>2011-04-09T11:31:58.000Z</time>
      </trkpt>
      <trkpt lat="43.38329" lon="5.48139">
        <ele>355</ele>
        <time>2011-04-09T11:32:03.000Z</time>
      </trkpt>
      <trkpt lat="43.38323" lon="5.48146">
        <ele>356</ele>
        <time>2011-04-09T11:32:08.000Z</time>
      </trkpt>
      <trkpt lat="43.38321" lon="5.48148">
        <ele>356</ele>
        <time>2011-04-09T11:32:12.999Z</time>
      </trkpt>
      <trkpt lat="43.38316" lon="5.48155">
        <ele>357</ele>
        <time>2011-04-09T11:32:17.999Z</time>
      </trkpt>
      <trkpt lat="43.38311" lon="5.48157">
        <ele>357</ele>
        <time>2011-04-09T11:32:22.999Z</time>
      </trkpt>
      <trkpt lat="43.38305" lon="5.48153">
        <ele>356</ele>
        <time>2011-04-09T11:32:28.000Z</time>
      </trkpt>
      <trkpt lat="43.38303" lon="5.48146">
        <ele>356</ele>
        <time>2011-04-09T11:32:33.000Z</time>
      </trkpt>
      <trkpt lat="43.38302" lon="5.48136">
        <ele>355</ele>
        <time>2011-04-09T11:32:37.999Z</time>
      </trkpt>
      <trkpt lat="43.38302" lon="5.48127">
        <ele>354</ele>
        <time>2011-04-09T11:32:42.999Z</time>
      </trkpt>
      <trkpt lat="43.383" lon="5.48121">
        <ele>354</ele>
        <time>2011-04-09T11:32:47.999Z</time>
      </trkpt>
      <trkpt lat="43.38296" lon="5.48114">
        <ele>353</ele>
        <time>2011-04-09T11:32:52.999Z</time>
      </trkpt>
      <trkpt lat="43.38292" lon="5.4811">
        <ele>353</ele>
        <time>2011-04-09T11:32:57.999Z</time>
      </trkpt>
      <trkpt lat="43.38291" lon="5.48108">
        <ele>353</ele>
        <time>2011-04-09T11:33:03.000Z</time>
      </trkpt>
      <trkpt lat="43.38286" lon="5.48098">
        <ele>352</ele>
        <time>2011-04-09T11:33:07.999Z</time>
      </trkpt>
      <trkpt lat="43.38279" lon="5.48094">
        <ele>353</ele>
        <time>2011-04-09T11:33:12.999Z</time>
      </trkpt>
      <trkpt lat="43.38273" lon="5.48087">
        <ele>352</ele>
        <time>2011-04-09T11:33:17.999Z</time>
      </trkpt>
      <trkpt lat="43.38266" lon="5.48084">
        <ele>352</ele>
        <time>2011-04-09T11:33:22.999Z</time>
      </trkpt>
      <trkpt lat="43.3826" lon="5.48082">
        <ele>348</ele>
        <time>2011-04-09T11:33:27.999Z</time>
      </trkpt>
      <trkpt lat="43.38257" lon="5.48081">
        <ele>349</ele>
        <time>2011-04-09T11:33:32.999Z</time>
      </trkpt>
      <trkpt lat="43.3825" lon="5.48076">
        <ele>349</ele>
        <time>2011-04-09T11:33:37.999Z</time>
      </trkpt>
      <trkpt lat="43.38245" lon="5.48073">
        <ele>349</ele>
        <time>2011-04-09T11:33:42.999Z</time>
      </trkpt>
      <trkpt lat="43.38243" lon="5.4807">
        <ele>348</ele>
        <time>2011-04-09T11:33:47.999Z</time>
      </trkpt>
      <trkpt lat="43.38237" lon="5.48068">
        <ele>348</ele>
        <time>2011-04-09T11:33:53.000Z</time>
      </trkpt>
      <trkpt lat="43.3823" lon="5.48067">
        <ele>347</ele>
        <time>2011-04-09T11:33:58.000Z</time>
      </trkpt>
      <trkpt lat="43.38225" lon="5.48064">
        <ele>347</ele>
        <time>2011-04-09T11:34:03.000Z</time>
      </trkpt>
      <trkpt lat="43.38217" lon="5.48066">
        <ele>347</ele>
        <time>2011-04-09T11:34:08.000Z</time>
      </trkpt>
      <trkpt lat="43.38211" lon="5.48066">
        <ele>346</ele>
        <time>2011-04-09T11:34:13.000Z</time>
      </trkpt>
      <trkpt lat="43.38206" lon="5.48064">
        <ele>346</ele>
        <time>2011-04-09T11:34:18.000Z</time>
      </trkpt>
      <trkpt lat="43.38201" lon="5.48061">
        <ele>346</ele>
        <time>2011-04-09T11:34:23.000Z</time>
      </trkpt>
      <trkpt lat="43.38197" lon="5.48063">
        <ele>346</ele>
        <time>2011-04-09T11:34:28.000Z</time>
      </trkpt>
      <trkpt lat="43.38192" lon="5.48064">
        <ele>346</ele>
        <time>2011-04-09T11:34:33.000Z</time>
      </trkpt>
      <trkpt lat="43.38184" lon="5.48065">
        <ele>346</ele>
        <time>2011-04-09T11:34:38.000Z</time>
      </trkpt>
      <trkpt lat="43.38184" lon="5.48066">
        <ele>346</ele>
        <time>2011-04-09T11:34:43.000Z</time>
      </trkpt>
      <trkpt lat="43.38175" lon="5.48064">
        <ele>346</ele>
        <time>2011-04-09T11:34:48.002Z</time>
      </trkpt>
      <trkpt lat="43.38167" lon="5.48066">
        <ele>346</ele>
        <time>2011-04-09T11:34:53.000Z</time>
      </trkpt>
      <trkpt lat="43.38161" lon="5.48067">
        <ele>344</ele>
        <time>2011-04-09T11:34:58.000Z</time>
      </trkpt>
      <trkpt lat="43.38156" lon="5.48071">
        <ele>345</ele>
        <time>2011-04-09T11:35:03.000Z</time>
      </trkpt>
      <trkpt lat="43.38151" lon="5.4807">
        <ele>344</ele>
        <time>2011-04-09T11:35:08.000Z</time>
      </trkpt>
      <trkpt lat="43.38143" lon="5.48074">
        <ele>344</ele>
        <time>2011-04-09T11:35:13.000Z</time>
      </trkpt>
      <trkpt lat="43.38139" lon="5.48076">
        <ele>343</ele>
        <time>2011-04-09T11:35:16.000Z</time>
      </trkpt>
      <trkpt lat="43.38132" lon="5.48073">
        <ele>343</ele>
        <time>2011-04-09T11:35:20.999Z</time>
      </trkpt>
      <trkpt lat="43.38126" lon="5.48073">
        <ele>342</ele>
        <time>2011-04-09T11:35:26.000Z</time>
      </trkpt>
      <trkpt lat="43.38121" lon="5.48073">
        <ele>342</ele>
        <time>2011-04-09T11:35:31.000Z</time>
      </trkpt>
      <trkpt lat="43.38114" lon="5.48074">
        <ele>342</ele>
        <time>2011-04-09T11:35:36.000Z</time>
      </trkpt>
      <trkpt lat="43.38105" lon="5.48075">
        <ele>342</ele>
        <time>2011-04-09T11:35:41.000Z</time>
      </trkpt>
      <trkpt lat="43.381" lon="5.48076">
        <ele>342</ele>
        <time>2011-04-09T11:35:45.999Z</time>
      </trkpt>
      <trkpt lat="43.38094" lon="5.48076">
        <ele>342</ele>
        <time>2011-04-09T11:35:51.000Z</time>
      </trkpt>
      <trkpt lat="43.38087" lon="5.48073">
        <ele>342</ele>
        <time>2011-04-09T11:35:56.000Z</time>
      </trkpt>
      <trkpt lat="43.38079" lon="5.48071">
        <ele>339</ele>
        <time>2011-04-09T11:36:01.000Z</time>
      </trkpt>
      <trkpt lat="43.38074" lon="5.4807">
        <ele>339</ele>
        <time>2011-04-09T11:36:06.000Z</time>
      </trkpt>
      <trkpt lat="43.38067" lon="5.4807">
        <ele>338</ele>
        <time>2011-04-09T11:36:11.000Z</time>
      </trkpt>
      <trkpt lat="43.38061" lon="5.48066">
        <ele>337</ele>
        <time>2011-04-09T11:36:16.000Z</time>
      </trkpt>
      <trkpt lat="43.38055" lon="5.48066">
        <ele>337</ele>
        <time>2011-04-09T11:36:21.000Z</time>
      </trkpt>
      <trkpt lat="43.38051" lon="5.48065">
        <ele>336</ele>
        <time>2011-04-09T11:36:25.999Z</time>
      </trkpt>
      <trkpt lat="43.38043" lon="5.48064">
        <ele>336</ele>
        <time>2011-04-09T11:36:30.999Z</time>
      </trkpt>
      <trkpt lat="43.38035" lon="5.48064">
        <ele>336</ele>
        <time>2011-04-09T11:36:36.000Z</time>
      </trkpt>
      <trkpt lat="43.38029" lon="5.4806">
        <ele>335</ele>
        <time>2011-04-09T11:36:41.000Z</time>
      </trkpt>
      <trkpt lat="43.38024" lon="5.48059">
        <ele>335</ele>
        <time>2011-04-09T11:36:45.999Z</time>
      </trkpt>
      <trkpt lat="43.38018" lon="5.48059">
        <ele>335</ele>
        <time>2011-04-09T11:36:50.999Z</time>
      </trkpt>
      <trkpt lat="43.38012" lon="5.48058">
        <ele>335</ele>
        <time>2011-04-09T11:36:56.000Z</time>
      </trkpt>
      <trkpt lat="43.38007" lon="5.48059">
        <ele>335</ele>
        <time>2011-04-09T11:37:01.000Z</time>
      </trkpt>
      <trkpt lat="43.38002" lon="5.48056">
        <ele>335</ele>
        <time>2011-04-09T11:37:05.999Z</time>
      </trkpt>
      <trkpt lat="43.37997" lon="5.48054">
        <ele>330</ele>
        <time>2011-04-09T11:37:11.000Z</time>
      </trkpt>
      <trkpt lat="43.37992" lon="5.48057">
        <ele>330</ele>
        <time>2011-04-09T11:37:16.000Z</time>
      </trkpt>
      <trkpt lat="43.37988" lon="5.48058">
        <ele>330</ele>
        <time>2011-04-09T11:37:21.000Z</time>
      </trkpt>
      <trkpt lat="43.37983" lon="5.48064">
        <ele>330</ele>
        <time>2011-04-09T11:37:26.000Z</time>
      </trkpt>
      <trkpt lat="43.37977" lon="5.48068">
        <ele>330</ele>
        <time>2011-04-09T11:37:30.999Z</time>
      </trkpt>
      <trkpt lat="43.37969" lon="5.48074">
        <ele>329</ele>
        <time>2011-04-09T11:37:35.999Z</time>
      </trkpt>
      <trkpt lat="43.37964" lon="5.48079">
        <ele>329</ele>
        <time>2011-04-09T11:37:41.000Z</time>
      </trkpt>
      <trkpt lat="43.37957" lon="5.4809">
        <ele>334</ele>
        <time>2011-04-09T11:37:46.000Z</time>
      </trkpt>
      <trkpt lat="43.37951" lon="5.48098">
        <ele>334</ele>
        <time>2011-04-09T11:37:50.999Z</time>
      </trkpt>
      <trkpt lat="43.37946" lon="5.48103">
        <ele>334</ele>
        <time>2011-04-09T11:37:55.999Z</time>
      </trkpt>
      <trkpt lat="43.37943" lon="5.48111">
        <ele>334</ele>
        <time>2011-04-09T11:38:01.000Z</time>
      </trkpt>
      <trkpt lat="43.3794" lon="5.48117">
        <ele>334</ele>
        <time>2011-04-09T11:38:06.000Z</time>
      </trkpt>
      <trkpt lat="43.37937" lon="5.48123">
        <ele>334</ele>
        <time>2011-04-09T11:38:10.800Z</time>
      </trkpt>
      <trkpt lat="43.37929" lon="5.48128">
        <ele>334</ele>
        <time>2011-04-09T11:38:16.000Z</time>
      </trkpt>
      <trkpt lat="43.37924" lon="5.48135">
        <ele>334</ele>
        <time>2011-04-09T11:38:21.000Z</time>
      </trkpt>
      <trkpt lat="43.37923" lon="5.48142">
        <ele>334</ele>
        <time>2011-04-09T11:38:26.000Z</time>
      </trkpt>
      <trkpt lat="43.37921" lon="5.48152">
        <ele>334</ele>
        <time>2011-04-09T11:38:31.000Z</time>
      </trkpt>
      <trkpt lat="43.37919" lon="5.48159">
        <ele>334</ele>
        <time>2011-04-09T11:38:36.000Z</time>
      </trkpt>
      <trkpt lat="43.37917" lon="5.48166">
        <ele>333</ele>
        <time>2011-04-09T11:38:41.000Z</time>
      </trkpt>
      <trkpt lat="43.37915" lon="5.48174">
        <ele>333</ele>
        <time>2011-04-09T11:38:46.000Z</time>
      </trkpt>
      <trkpt lat="43.37912" lon="5.48182">
        <ele>332</ele>
        <time>2011-04-09T11:38:51.000Z</time>
      </trkpt>
      <trkpt lat="43.3791" lon="5.4819">
        <ele>332</ele>
        <time>2011-04-09T11:38:56.000Z</time>
      </trkpt>
      <trkpt lat="43.37908" lon="5.48197">
        <ele>332</ele>
        <time>2011-04-09T11:39:01.000Z</time>
      </trkpt>
      <trkpt lat="43.37908" lon="5.48205">
        <ele>332</ele>
        <time>2011-04-09T11:39:06.000Z</time>
      </trkpt>
      <trkpt lat="43.37908" lon="5.48215">
        <ele>332</ele>
        <time>2011-04-09T11:39:10.999Z</time>
      </trkpt>
      <trkpt lat="43.37908" lon="5.48224">
        <ele>333</ele>
        <time>2011-04-09T11:39:16.000Z</time>
      </trkpt>
      <trkpt lat="43.3791" lon="5.4823">
        <ele>333</ele>
        <time>2011-04-09T11:39:21.000Z</time>
      </trkpt>
      <trkpt lat="43.37909" lon="5.48238">
        <ele>333</ele>
        <time>2011-04-09T11:39:26.000Z</time>
      </trkpt>
      <trkpt lat="43.37906" lon="5.48244">
        <ele>333</ele>
        <time>2011-04-09T11:39:31.001Z</time>
      </trkpt>
      <trkpt lat="43.37905" lon="5.4825">
        <ele>333</ele>
        <time>2011-04-09T11:39:36.000Z</time>
      </trkpt>
      <trkpt lat="43.37904" lon="5.48256">
        <ele>333</ele>
        <time>2011-04-09T11:39:41.000Z</time>
      </trkpt>
      <trkpt lat="43.379" lon="5.48262">
        <ele>332</ele>
        <time>2011-04-09T11:39:46.001Z</time>
      </trkpt>
      <trkpt lat="43.37896" lon="5.48264">
        <ele>332</ele>
        <time>2011-04-09T11:39:51.001Z</time>
      </trkpt>
      <trkpt lat="43.37896" lon="5.48264">
        <ele>332</ele>
        <time>2011-04-09T11:39:56.000Z</time>
      </trkpt>
      <trkpt lat="43.37896" lon="5.48264">
        <ele>332</ele>
        <time>2011-04-09T11:40:01.000Z</time>
      </trkpt>
      <trkpt lat="43.37896" lon="5.48264">
        <ele>332</ele>
        <time>2011-04-09T11:40:06.000Z</time>
      </trkpt>
      <trkpt lat="43.37883" lon="5.48268">
        <ele>332</ele>
        <time>2011-04-09T11:40:11.000Z</time>
      </trkpt>
      <trkpt lat="43.37878" lon="5.48268">
        <ele>332</ele>
        <time>2011-04-09T11:40:16.000Z</time>
      </trkpt>
      <trkpt lat="43.37874" lon="5.4827">
        <ele>332</ele>
        <time>2011-04-09T11:40:21.000Z</time>
      </trkpt>
      <trkpt lat="43.37874" lon="5.4827">
        <ele>332</ele>
        <time>2011-04-09T11:40:26.000Z</time>
      </trkpt>
      <trkpt lat="43.37874" lon="5.4827">
        <ele>332</ele>
        <time>2011-04-09T11:40:31.000Z</time>
      </trkpt>
      <trkpt lat="43.37874" lon="5.4827">
        <ele>332</ele>
        <time>2011-04-09T11:40:36.001Z</time>
      </trkpt>
      <trkpt lat="43.37874" lon="5.4827">
        <ele>332</ele>
        <time>2011-04-09T11:40:41.001Z</time>
      </trkpt>
      <trkpt lat="43.37874" lon="5.4827">
        <ele>332</ele>
        <time>2011-04-09T11:40:45.998Z</time>
      </trkpt>
      <trkpt lat="43.37849" lon="5.48276">
        <ele>332</ele>
        <time>2011-04-09T11:40:51.000Z</time>
      </trkpt>
      <trkpt lat="43.37849" lon="5.48276">
        <ele>332</ele>
        <time>2011-04-09T11:40:56.000Z</time>
      </trkpt>
      <trkpt lat="43.37849" lon="5.48276">
        <ele>332</ele>
        <time>2011-04-09T11:41:01.000Z</time>
      </trkpt>
      <trkpt lat="43.37849" lon="5.48276">
        <ele>332</ele>
        <time>2011-04-09T11:41:05.800Z</time>
      </trkpt>
      <trkpt lat="43.37849" lon="5.48276">
        <ele>332</ele>
        <time>2011-04-09T11:41:11.000Z</time>
      </trkpt>
      <trkpt lat="43.37849" lon="5.48276">
        <ele>332</ele>
        <time>2011-04-09T11:41:16.000Z</time>
      </trkpt>
      <trkpt lat="43.37849" lon="5.48276">
        <ele>332</ele>
        <time>2011-04-09T11:41:21.000Z</time>
      </trkpt>
      <trkpt lat="43.37849" lon="5.48276">
        <ele>332</ele>
        <time>2011-04-09T11:41:26.000Z</time>
      </trkpt>
      <trkpt lat="43.37849" lon="5.48276">
        <ele>332</ele>
        <time>2011-04-09T11:41:31.000Z</time>
      </trkpt>
      <trkpt lat="43.37849" lon="5.48276">
        <ele>332</ele>
        <time>2011-04-09T11:41:36.000Z</time>
      </trkpt>
      <trkpt lat="43.37849" lon="5.48276">
        <ele>332</ele>
        <time>2011-04-09T11:41:41.000Z</time>
      </trkpt>
      <trkpt lat="43.37849" lon="5.48276">
        <ele>332</ele>
        <time>2011-04-09T11:41:46.000Z</time>
      </trkpt>
      <trkpt lat="43.37849" lon="5.48276">
        <ele>332</ele>
        <time>2011-04-09T11:41:51.000Z</time>
      </trkpt>
      <trkpt lat="43.37849" lon="5.48276">
        <ele>332</ele>
        <time>2011-04-09T11:41:57.000Z</time>
      </trkpt>
      <trkpt lat="43.37849" lon="5.48276">
        <ele>332</ele>
        <time>2011-04-09T11:42:02.000Z</time>
      </trkpt>
      <trkpt lat="43.37849" lon="5.48276">
        <ele>332</ele>
        <time>2011-04-09T11:42:06.800Z</time>
      </trkpt>
      <trkpt lat="43.37849" lon="5.48276">
        <ele>332</ele>
        <time>2011-04-09T11:42:12.000Z</time>
      </trkpt>
      <trkpt lat="43.37849" lon="5.48276">
        <ele>332</ele>
        <time>2011-04-09T11:42:17.000Z</time>
      </trkpt>
      <trkpt lat="43.37849" lon="5.48276">
        <ele>332</ele>
        <time>2011-04-09T11:42:22.000Z</time>
      </trkpt>
      <trkpt lat="43.37849" lon="5.48276">
        <ele>332</ele>
        <time>2011-04-09T11:42:27.000Z</time>
      </trkpt>
      <trkpt lat="43.37849" lon="5.48276">
        <ele>332</ele>
        <time>2011-04-09T11:42:32.000Z</time>
      </trkpt>
      <trkpt lat="43.37849" lon="5.48276">
        <ele>332</ele>
        <time>2011-04-09T11:42:37.000Z</time>
      </trkpt>
      <trkpt lat="43.37849" lon="5.48276">
        <ele>332</ele>
        <time>2011-04-09T11:42:42.000Z</time>
      </trkpt>
      <trkpt lat="43.37849" lon="5.48276">
        <ele>332</ele>
        <time>2011-04-09T11:42:47.000Z</time>
      </trkpt>
      <trkpt lat="43.37849" lon="5.48276">
        <ele>332</ele>
        <time>2011-04-09T11:42:52.000Z</time>
      </trkpt>
      <trkpt lat="43.37849" lon="5.48276">
        <ele>332</ele>
        <time>2011-04-09T11:42:57.000Z</time>
      </trkpt>
    </trkseg>
  </trk>
</gpx>